<?xml version="1.0" encoding="UTF-8" standalone="no" ?>
<gpx xmlns="http://www.topografix.com/GPX/1/1" xmlns:xsi="http://www.w3.org/2001/XMLSchema-instance" xsi:schemaLocation="http://www.topografix.com/GPX/1/1 http://www.topografix.com/GPX/1/1/gpx.xsd" version="1.1" creator="VisuGPX - https://www.visugpx.com">
  <metadata>
    <name>Sortie ASV VTT 2017-01-08</name>
    <desc><![CDATA[17 guerriers pour la première sortie club de l'année : Sortie verglacée !]]></desc>
  </metadata>
  <trk>
    <name><![CDATA[Sortie ASV VTT 2017-01-08_1]]></name>
    <trkseg>
      <trkpt lat="47.80348" lon="2.13204">
        <ele>95</ele>
        <time>2017-01-08T08:14:03.985Z</time>
      </trkpt>
      <trkpt lat="47.80348" lon="2.13204">
        <ele>95</ele>
        <time>2017-01-08T08:14:04.960Z</time>
      </trkpt>
      <trkpt lat="47.80348" lon="2.13204">
        <ele>95</ele>
        <time>2017-01-08T08:14:05.972Z</time>
      </trkpt>
      <trkpt lat="47.80348" lon="2.13204">
        <ele>95</ele>
        <time>2017-01-08T08:14:06.994Z</time>
      </trkpt>
      <trkpt lat="47.80351" lon="2.13211">
        <ele>95</ele>
        <time>2017-01-08T08:14:07.980Z</time>
      </trkpt>
      <trkpt lat="47.80351" lon="2.13211">
        <ele>95</ele>
        <time>2017-01-08T08:14:08.979Z</time>
      </trkpt>
      <trkpt lat="47.80353" lon="2.13212">
        <ele>95</ele>
        <time>2017-01-08T08:14:09.975Z</time>
      </trkpt>
      <trkpt lat="47.80353" lon="2.13212">
        <ele>95</ele>
        <time>2017-01-08T08:14:10.976Z</time>
      </trkpt>
      <trkpt lat="47.80356" lon="2.13212">
        <ele>95</ele>
        <time>2017-01-08T08:14:11.973Z</time>
      </trkpt>
      <trkpt lat="47.80356" lon="2.13212">
        <ele>95</ele>
        <time>2017-01-08T08:14:12.968Z</time>
      </trkpt>
      <trkpt lat="47.8036" lon="2.13212">
        <ele>95</ele>
        <time>2017-01-08T08:14:13.972Z</time>
      </trkpt>
      <trkpt lat="47.8036" lon="2.13212">
        <ele>95</ele>
        <time>2017-01-08T08:14:14.967Z</time>
      </trkpt>
      <trkpt lat="47.80365" lon="2.13212">
        <ele>95</ele>
        <time>2017-01-08T08:14:15.984Z</time>
      </trkpt>
      <trkpt lat="47.80368" lon="2.13211">
        <ele>95</ele>
        <time>2017-01-08T08:14:16.981Z</time>
      </trkpt>
      <trkpt lat="47.80368" lon="2.13211">
        <ele>95</ele>
        <time>2017-01-08T08:14:17.991Z</time>
      </trkpt>
      <trkpt lat="47.80374" lon="2.1321">
        <ele>95</ele>
        <time>2017-01-08T08:14:18.972Z</time>
      </trkpt>
      <trkpt lat="47.80374" lon="2.1321">
        <ele>95</ele>
        <time>2017-01-08T08:14:19.969Z</time>
      </trkpt>
      <trkpt lat="47.8038" lon="2.13209">
        <ele>95</ele>
        <time>2017-01-08T08:14:20.973Z</time>
      </trkpt>
      <trkpt lat="47.8038" lon="2.13209">
        <ele>95</ele>
        <time>2017-01-08T08:14:21.965Z</time>
      </trkpt>
      <trkpt lat="47.80386" lon="2.13208">
        <ele>95</ele>
        <time>2017-01-08T08:14:22.955Z</time>
      </trkpt>
      <trkpt lat="47.80386" lon="2.13208">
        <ele>95</ele>
        <time>2017-01-08T08:14:23.993Z</time>
      </trkpt>
      <trkpt lat="47.80393" lon="2.13208">
        <ele>94</ele>
        <time>2017-01-08T08:14:24.988Z</time>
      </trkpt>
      <trkpt lat="47.80393" lon="2.13208">
        <ele>94</ele>
        <time>2017-01-08T08:14:25.980Z</time>
      </trkpt>
      <trkpt lat="47.80399" lon="2.13207">
        <ele>94</ele>
        <time>2017-01-08T08:14:26.971Z</time>
      </trkpt>
      <trkpt lat="47.80399" lon="2.13207">
        <ele>94</ele>
        <time>2017-01-08T08:14:27.981Z</time>
      </trkpt>
      <trkpt lat="47.80406" lon="2.13205">
        <ele>94</ele>
        <time>2017-01-08T08:14:28.966Z</time>
      </trkpt>
      <trkpt lat="47.80406" lon="2.13205">
        <ele>94</ele>
        <time>2017-01-08T08:14:29.958Z</time>
      </trkpt>
      <trkpt lat="47.80413" lon="2.13204">
        <ele>94</ele>
        <time>2017-01-08T08:14:30.971Z</time>
      </trkpt>
      <trkpt lat="47.80417" lon="2.13203">
        <ele>93</ele>
        <time>2017-01-08T08:14:31.969Z</time>
      </trkpt>
      <trkpt lat="47.80417" lon="2.13203">
        <ele>93</ele>
        <time>2017-01-08T08:14:32.976Z</time>
      </trkpt>
      <trkpt lat="47.80424" lon="2.13201">
        <ele>93</ele>
        <time>2017-01-08T08:14:33.968Z</time>
      </trkpt>
      <trkpt lat="47.80424" lon="2.13201">
        <ele>93</ele>
        <time>2017-01-08T08:14:34.972Z</time>
      </trkpt>
      <trkpt lat="47.80432" lon="2.132">
        <ele>92</ele>
        <time>2017-01-08T08:14:35.972Z</time>
      </trkpt>
      <trkpt lat="47.80432" lon="2.132">
        <ele>92</ele>
        <time>2017-01-08T08:14:36.969Z</time>
      </trkpt>
      <trkpt lat="47.8044" lon="2.13199">
        <ele>92</ele>
        <time>2017-01-08T08:14:37.989Z</time>
      </trkpt>
      <trkpt lat="47.80443" lon="2.13199">
        <ele>92</ele>
        <time>2017-01-08T08:14:38.957Z</time>
      </trkpt>
      <trkpt lat="47.80443" lon="2.13199">
        <ele>92</ele>
        <time>2017-01-08T08:14:39.992Z</time>
      </trkpt>
      <trkpt lat="47.80451" lon="2.13198">
        <ele>92</ele>
        <time>2017-01-08T08:14:40.965Z</time>
      </trkpt>
      <trkpt lat="47.80455" lon="2.13198">
        <ele>92</ele>
        <time>2017-01-08T08:14:41.966Z</time>
      </trkpt>
      <trkpt lat="47.80459" lon="2.13198">
        <ele>92</ele>
        <time>2017-01-08T08:14:42.965Z</time>
      </trkpt>
      <trkpt lat="47.80459" lon="2.13198">
        <ele>92</ele>
        <time>2017-01-08T08:14:43.967Z</time>
      </trkpt>
      <trkpt lat="47.80467" lon="2.13197">
        <ele>92</ele>
        <time>2017-01-08T08:14:44.966Z</time>
      </trkpt>
      <trkpt lat="47.80467" lon="2.13197">
        <ele>92</ele>
        <time>2017-01-08T08:14:45.964Z</time>
      </trkpt>
      <trkpt lat="47.80475" lon="2.13196">
        <ele>91</ele>
        <time>2017-01-08T08:14:46.958Z</time>
      </trkpt>
      <trkpt lat="47.80475" lon="2.13196">
        <ele>91</ele>
        <time>2017-01-08T08:14:47.990Z</time>
      </trkpt>
      <trkpt lat="47.80483" lon="2.13195">
        <ele>91</ele>
        <time>2017-01-08T08:14:48.972Z</time>
      </trkpt>
      <trkpt lat="47.80483" lon="2.13195">
        <ele>91</ele>
        <time>2017-01-08T08:14:49.965Z</time>
      </trkpt>
      <trkpt lat="47.80492" lon="2.13194">
        <ele>91</ele>
        <time>2017-01-08T08:14:50.959Z</time>
      </trkpt>
      <trkpt lat="47.80497" lon="2.13193">
        <ele>91</ele>
        <time>2017-01-08T08:14:51.964Z</time>
      </trkpt>
      <trkpt lat="47.80501" lon="2.13193">
        <ele>92</ele>
        <time>2017-01-08T08:14:52.958Z</time>
      </trkpt>
      <trkpt lat="47.80501" lon="2.13193">
        <ele>92</ele>
        <time>2017-01-08T08:14:53.954Z</time>
      </trkpt>
      <trkpt lat="47.80509" lon="2.13192">
        <ele>92</ele>
        <time>2017-01-08T08:14:54.955Z</time>
      </trkpt>
      <trkpt lat="47.80513" lon="2.13192">
        <ele>92</ele>
        <time>2017-01-08T08:14:55.974Z</time>
      </trkpt>
      <trkpt lat="47.80513" lon="2.13192">
        <ele>92</ele>
        <time>2017-01-08T08:14:56.971Z</time>
      </trkpt>
      <trkpt lat="47.80521" lon="2.1319">
        <ele>93</ele>
        <time>2017-01-08T08:14:57.985Z</time>
      </trkpt>
      <trkpt lat="47.80521" lon="2.1319">
        <ele>93</ele>
        <time>2017-01-08T08:14:58.968Z</time>
      </trkpt>
      <trkpt lat="47.80529" lon="2.13189">
        <ele>94</ele>
        <time>2017-01-08T08:14:59.966Z</time>
      </trkpt>
      <trkpt lat="47.80529" lon="2.13189">
        <ele>94</ele>
        <time>2017-01-08T08:15:00.959Z</time>
      </trkpt>
      <trkpt lat="47.80538" lon="2.1319">
        <ele>92</ele>
        <time>2017-01-08T08:15:01.992Z</time>
      </trkpt>
      <trkpt lat="47.80543" lon="2.13189">
        <ele>92</ele>
        <time>2017-01-08T08:15:02.966Z</time>
      </trkpt>
      <trkpt lat="47.80547" lon="2.13188">
        <ele>92</ele>
        <time>2017-01-08T08:15:03.987Z</time>
      </trkpt>
      <trkpt lat="47.80547" lon="2.13188">
        <ele>92</ele>
        <time>2017-01-08T08:15:04.954Z</time>
      </trkpt>
      <trkpt lat="47.80555" lon="2.13187">
        <ele>92</ele>
        <time>2017-01-08T08:15:05.992Z</time>
      </trkpt>
      <trkpt lat="47.80559" lon="2.13187">
        <ele>92</ele>
        <time>2017-01-08T08:15:06.964Z</time>
      </trkpt>
      <trkpt lat="47.80559" lon="2.13187">
        <ele>92</ele>
        <time>2017-01-08T08:15:07.958Z</time>
      </trkpt>
      <trkpt lat="47.80567" lon="2.13186">
        <ele>92</ele>
        <time>2017-01-08T08:15:08.990Z</time>
      </trkpt>
      <trkpt lat="47.80571" lon="2.13185">
        <ele>92</ele>
        <time>2017-01-08T08:15:09.988Z</time>
      </trkpt>
      <trkpt lat="47.80574" lon="2.13184">
        <ele>92</ele>
        <time>2017-01-08T08:15:10.979Z</time>
      </trkpt>
      <trkpt lat="47.80574" lon="2.13184">
        <ele>92</ele>
        <time>2017-01-08T08:15:11.970Z</time>
      </trkpt>
      <trkpt lat="47.80581" lon="2.13184">
        <ele>92</ele>
        <time>2017-01-08T08:15:12.963Z</time>
      </trkpt>
      <trkpt lat="47.80581" lon="2.13184">
        <ele>92</ele>
        <time>2017-01-08T08:15:13.959Z</time>
      </trkpt>
      <trkpt lat="47.80587" lon="2.13182">
        <ele>92</ele>
        <time>2017-01-08T08:15:14.954Z</time>
      </trkpt>
      <trkpt lat="47.80587" lon="2.13182">
        <ele>92</ele>
        <time>2017-01-08T08:15:15.982Z</time>
      </trkpt>
      <trkpt lat="47.80593" lon="2.1318">
        <ele>93</ele>
        <time>2017-01-08T08:15:16.973Z</time>
      </trkpt>
      <trkpt lat="47.80595" lon="2.1318">
        <ele>94</ele>
        <time>2017-01-08T08:15:17.990Z</time>
      </trkpt>
      <trkpt lat="47.80597" lon="2.13179">
        <ele>94</ele>
        <time>2017-01-08T08:15:18.958Z</time>
      </trkpt>
      <trkpt lat="47.80597" lon="2.13179">
        <ele>94</ele>
        <time>2017-01-08T08:15:19.987Z</time>
      </trkpt>
      <trkpt lat="47.80601" lon="2.13179">
        <ele>94</ele>
        <time>2017-01-08T08:15:20.984Z</time>
      </trkpt>
      <trkpt lat="47.80602" lon="2.1318">
        <ele>94</ele>
        <time>2017-01-08T08:15:21.972Z</time>
      </trkpt>
      <trkpt lat="47.80602" lon="2.1318">
        <ele>94</ele>
        <time>2017-01-08T08:15:22.964Z</time>
      </trkpt>
      <trkpt lat="47.80605" lon="2.13183">
        <ele>94</ele>
        <time>2017-01-08T08:15:23.954Z</time>
      </trkpt>
      <trkpt lat="47.80606" lon="2.13186">
        <ele>95</ele>
        <time>2017-01-08T08:15:25.002Z</time>
      </trkpt>
      <trkpt lat="47.80606" lon="2.13186">
        <ele>95</ele>
        <time>2017-01-08T08:15:25.965Z</time>
      </trkpt>
      <trkpt lat="47.80606" lon="2.13193">
        <ele>95</ele>
        <time>2017-01-08T08:15:26.956Z</time>
      </trkpt>
      <trkpt lat="47.80606" lon="2.13196">
        <ele>94</ele>
        <time>2017-01-08T08:15:27.958Z</time>
      </trkpt>
      <trkpt lat="47.80606" lon="2.13196">
        <ele>94</ele>
        <time>2017-01-08T08:15:28.991Z</time>
      </trkpt>
      <trkpt lat="47.80603" lon="2.13203">
        <ele>94</ele>
        <time>2017-01-08T08:15:29.985Z</time>
      </trkpt>
      <trkpt lat="47.80602" lon="2.13206">
        <ele>94</ele>
        <time>2017-01-08T08:15:30.965Z</time>
      </trkpt>
      <trkpt lat="47.80602" lon="2.13206">
        <ele>94</ele>
        <time>2017-01-08T08:15:31.966Z</time>
      </trkpt>
      <trkpt lat="47.80601" lon="2.13214">
        <ele>93</ele>
        <time>2017-01-08T08:15:32.956Z</time>
      </trkpt>
      <trkpt lat="47.80601" lon="2.13214">
        <ele>93</ele>
        <time>2017-01-08T08:15:33.987Z</time>
      </trkpt>
      <trkpt lat="47.806" lon="2.13223">
        <ele>93</ele>
        <time>2017-01-08T08:15:34.958Z</time>
      </trkpt>
      <trkpt lat="47.806" lon="2.13223">
        <ele>93</ele>
        <time>2017-01-08T08:15:35.988Z</time>
      </trkpt>
      <trkpt lat="47.80599" lon="2.13232">
        <ele>93</ele>
        <time>2017-01-08T08:15:36.954Z</time>
      </trkpt>
      <trkpt lat="47.80599" lon="2.13232">
        <ele>93</ele>
        <time>2017-01-08T08:15:37.991Z</time>
      </trkpt>
      <trkpt lat="47.80598" lon="2.13241">
        <ele>93</ele>
        <time>2017-01-08T08:15:38.957Z</time>
      </trkpt>
      <trkpt lat="47.80598" lon="2.13241">
        <ele>93</ele>
        <time>2017-01-08T08:15:39.988Z</time>
      </trkpt>
      <trkpt lat="47.80596" lon="2.13251">
        <ele>93</ele>
        <time>2017-01-08T08:15:40.965Z</time>
      </trkpt>
      <trkpt lat="47.80596" lon="2.13256">
        <ele>93</ele>
        <time>2017-01-08T08:15:41.993Z</time>
      </trkpt>
      <trkpt lat="47.80595" lon="2.13261">
        <ele>93</ele>
        <time>2017-01-08T08:15:42.954Z</time>
      </trkpt>
      <trkpt lat="47.80595" lon="2.13261">
        <ele>93</ele>
        <time>2017-01-08T08:15:43.984Z</time>
      </trkpt>
      <trkpt lat="47.80594" lon="2.1327">
        <ele>92</ele>
        <time>2017-01-08T08:15:44.979Z</time>
      </trkpt>
      <trkpt lat="47.80594" lon="2.1327">
        <ele>92</ele>
        <time>2017-01-08T08:15:45.964Z</time>
      </trkpt>
      <trkpt lat="47.80593" lon="2.13279">
        <ele>92</ele>
        <time>2017-01-08T08:15:46.993Z</time>
      </trkpt>
      <trkpt lat="47.80593" lon="2.13279">
        <ele>92</ele>
        <time>2017-01-08T08:15:47.959Z</time>
      </trkpt>
      <trkpt lat="47.80591" lon="2.13289">
        <ele>92</ele>
        <time>2017-01-08T08:15:48.981Z</time>
      </trkpt>
      <trkpt lat="47.8059" lon="2.13295">
        <ele>92</ele>
        <time>2017-01-08T08:15:49.968Z</time>
      </trkpt>
      <trkpt lat="47.8059" lon="2.13295">
        <ele>92</ele>
        <time>2017-01-08T08:15:50.958Z</time>
      </trkpt>
      <trkpt lat="47.80588" lon="2.13304">
        <ele>92</ele>
        <time>2017-01-08T08:15:51.990Z</time>
      </trkpt>
      <trkpt lat="47.80588" lon="2.13304">
        <ele>92</ele>
        <time>2017-01-08T08:15:52.981Z</time>
      </trkpt>
      <trkpt lat="47.80586" lon="2.13314">
        <ele>92</ele>
        <time>2017-01-08T08:15:53.972Z</time>
      </trkpt>
      <trkpt lat="47.80586" lon="2.13314">
        <ele>92</ele>
        <time>2017-01-08T08:15:54.971Z</time>
      </trkpt>
      <trkpt lat="47.80585" lon="2.13326">
        <ele>92</ele>
        <time>2017-01-08T08:15:55.991Z</time>
      </trkpt>
      <trkpt lat="47.80585" lon="2.13326">
        <ele>92</ele>
        <time>2017-01-08T08:15:56.979Z</time>
      </trkpt>
      <trkpt lat="47.80584" lon="2.13338">
        <ele>92</ele>
        <time>2017-01-08T08:15:57.979Z</time>
      </trkpt>
      <trkpt lat="47.80584" lon="2.13338">
        <ele>92</ele>
        <time>2017-01-08T08:15:58.959Z</time>
      </trkpt>
      <trkpt lat="47.80582" lon="2.13349">
        <ele>92</ele>
        <time>2017-01-08T08:15:59.989Z</time>
      </trkpt>
      <trkpt lat="47.80581" lon="2.13355">
        <ele>93</ele>
        <time>2017-01-08T08:16:00.964Z</time>
      </trkpt>
      <trkpt lat="47.80581" lon="2.13355">
        <ele>93</ele>
        <time>2017-01-08T08:16:01.964Z</time>
      </trkpt>
      <trkpt lat="47.8058" lon="2.13365">
        <ele>93</ele>
        <time>2017-01-08T08:16:02.957Z</time>
      </trkpt>
      <trkpt lat="47.8058" lon="2.13365">
        <ele>93</ele>
        <time>2017-01-08T08:16:03.981Z</time>
      </trkpt>
      <trkpt lat="47.80578" lon="2.13376">
        <ele>92</ele>
        <time>2017-01-08T08:16:04.971Z</time>
      </trkpt>
      <trkpt lat="47.80578" lon="2.13376">
        <ele>92</ele>
        <time>2017-01-08T08:16:05.965Z</time>
      </trkpt>
      <trkpt lat="47.80577" lon="2.13387">
        <ele>92</ele>
        <time>2017-01-08T08:16:06.956Z</time>
      </trkpt>
      <trkpt lat="47.80577" lon="2.13387">
        <ele>92</ele>
        <time>2017-01-08T08:16:07.963Z</time>
      </trkpt>
      <trkpt lat="47.80575" lon="2.13398">
        <ele>92</ele>
        <time>2017-01-08T08:16:08.986Z</time>
      </trkpt>
      <trkpt lat="47.80575" lon="2.13403">
        <ele>92</ele>
        <time>2017-01-08T08:16:09.991Z</time>
      </trkpt>
      <trkpt lat="47.80575" lon="2.13403">
        <ele>92</ele>
        <time>2017-01-08T08:16:10.981Z</time>
      </trkpt>
      <trkpt lat="47.80573" lon="2.13413">
        <ele>93</ele>
        <time>2017-01-08T08:16:11.973Z</time>
      </trkpt>
      <trkpt lat="47.80573" lon="2.13413">
        <ele>93</ele>
        <time>2017-01-08T08:16:12.970Z</time>
      </trkpt>
      <trkpt lat="47.80572" lon="2.13423">
        <ele>93</ele>
        <time>2017-01-08T08:16:13.964Z</time>
      </trkpt>
      <trkpt lat="47.80571" lon="2.13428">
        <ele>93</ele>
        <time>2017-01-08T08:16:14.956Z</time>
      </trkpt>
      <trkpt lat="47.80571" lon="2.13428">
        <ele>93</ele>
        <time>2017-01-08T08:16:15.986Z</time>
      </trkpt>
      <trkpt lat="47.80569" lon="2.13439">
        <ele>93</ele>
        <time>2017-01-08T08:16:16.976Z</time>
      </trkpt>
      <trkpt lat="47.80569" lon="2.13439">
        <ele>93</ele>
        <time>2017-01-08T08:16:17.979Z</time>
      </trkpt>
      <trkpt lat="47.80568" lon="2.13449">
        <ele>93</ele>
        <time>2017-01-08T08:16:18.975Z</time>
      </trkpt>
      <trkpt lat="47.80568" lon="2.13449">
        <ele>93</ele>
        <time>2017-01-08T08:16:19.970Z</time>
      </trkpt>
      <trkpt lat="47.80566" lon="2.13459">
        <ele>93</ele>
        <time>2017-01-08T08:16:20.959Z</time>
      </trkpt>
      <trkpt lat="47.80566" lon="2.13459">
        <ele>93</ele>
        <time>2017-01-08T08:16:21.987Z</time>
      </trkpt>
      <trkpt lat="47.80565" lon="2.13468">
        <ele>93</ele>
        <time>2017-01-08T08:16:22.990Z</time>
      </trkpt>
      <trkpt lat="47.80565" lon="2.13468">
        <ele>93</ele>
        <time>2017-01-08T08:16:23.979Z</time>
      </trkpt>
      <trkpt lat="47.80563" lon="2.13478">
        <ele>92</ele>
        <time>2017-01-08T08:16:24.969Z</time>
      </trkpt>
      <trkpt lat="47.80562" lon="2.13482">
        <ele>92</ele>
        <time>2017-01-08T08:16:25.966Z</time>
      </trkpt>
      <trkpt lat="47.80562" lon="2.13482">
        <ele>92</ele>
        <time>2017-01-08T08:16:26.955Z</time>
      </trkpt>
      <trkpt lat="47.8056" lon="2.13492">
        <ele>92</ele>
        <time>2017-01-08T08:16:27.958Z</time>
      </trkpt>
      <trkpt lat="47.8056" lon="2.13492">
        <ele>92</ele>
        <time>2017-01-08T08:16:28.965Z</time>
      </trkpt>
      <trkpt lat="47.80559" lon="2.13502">
        <ele>93</ele>
        <time>2017-01-08T08:16:29.973Z</time>
      </trkpt>
      <trkpt lat="47.80559" lon="2.13507">
        <ele>93</ele>
        <time>2017-01-08T08:16:30.965Z</time>
      </trkpt>
      <trkpt lat="47.80559" lon="2.13507">
        <ele>93</ele>
        <time>2017-01-08T08:16:31.955Z</time>
      </trkpt>
      <trkpt lat="47.80557" lon="2.13518">
        <ele>93</ele>
        <time>2017-01-08T08:16:32.990Z</time>
      </trkpt>
      <trkpt lat="47.80557" lon="2.13518">
        <ele>93</ele>
        <time>2017-01-08T08:16:33.980Z</time>
      </trkpt>
      <trkpt lat="47.80556" lon="2.13528">
        <ele>93</ele>
        <time>2017-01-08T08:16:34.972Z</time>
      </trkpt>
      <trkpt lat="47.80555" lon="2.13533">
        <ele>93</ele>
        <time>2017-01-08T08:16:35.968Z</time>
      </trkpt>
      <trkpt lat="47.80555" lon="2.13533">
        <ele>93</ele>
        <time>2017-01-08T08:16:36.955Z</time>
      </trkpt>
      <trkpt lat="47.80553" lon="2.13541">
        <ele>93</ele>
        <time>2017-01-08T08:16:37.992Z</time>
      </trkpt>
      <trkpt lat="47.80552" lon="2.13546">
        <ele>93</ele>
        <time>2017-01-08T08:16:38.955Z</time>
      </trkpt>
      <trkpt lat="47.80552" lon="2.13546">
        <ele>93</ele>
        <time>2017-01-08T08:16:39.984Z</time>
      </trkpt>
      <trkpt lat="47.8055" lon="2.13554">
        <ele>93</ele>
        <time>2017-01-08T08:16:40.974Z</time>
      </trkpt>
      <trkpt lat="47.8055" lon="2.13554">
        <ele>93</ele>
        <time>2017-01-08T08:16:41.965Z</time>
      </trkpt>
      <trkpt lat="47.80549" lon="2.13562">
        <ele>93</ele>
        <time>2017-01-08T08:16:42.994Z</time>
      </trkpt>
      <trkpt lat="47.80549" lon="2.13562">
        <ele>93</ele>
        <time>2017-01-08T08:16:43.986Z</time>
      </trkpt>
      <trkpt lat="47.80548" lon="2.13571">
        <ele>92</ele>
        <time>2017-01-08T08:16:44.979Z</time>
      </trkpt>
      <trkpt lat="47.80547" lon="2.13576">
        <ele>92</ele>
        <time>2017-01-08T08:16:45.970Z</time>
      </trkpt>
      <trkpt lat="47.80547" lon="2.13576">
        <ele>92</ele>
        <time>2017-01-08T08:16:46.958Z</time>
      </trkpt>
      <trkpt lat="47.80546" lon="2.13585">
        <ele>92</ele>
        <time>2017-01-08T08:16:47.992Z</time>
      </trkpt>
      <trkpt lat="47.80545" lon="2.1359">
        <ele>92</ele>
        <time>2017-01-08T08:16:48.958Z</time>
      </trkpt>
      <trkpt lat="47.80545" lon="2.1359">
        <ele>92</ele>
        <time>2017-01-08T08:16:49.956Z</time>
      </trkpt>
      <trkpt lat="47.80544" lon="2.136">
        <ele>93</ele>
        <time>2017-01-08T08:16:50.990Z</time>
      </trkpt>
      <trkpt lat="47.80544" lon="2.13605">
        <ele>93</ele>
        <time>2017-01-08T08:16:51.984Z</time>
      </trkpt>
      <trkpt lat="47.80543" lon="2.1361">
        <ele>93</ele>
        <time>2017-01-08T08:16:52.973Z</time>
      </trkpt>
      <trkpt lat="47.80543" lon="2.1361">
        <ele>93</ele>
        <time>2017-01-08T08:16:53.982Z</time>
      </trkpt>
      <trkpt lat="47.80542" lon="2.1362">
        <ele>93</ele>
        <time>2017-01-08T08:16:54.986Z</time>
      </trkpt>
      <trkpt lat="47.80542" lon="2.1362">
        <ele>93</ele>
        <time>2017-01-08T08:16:55.981Z</time>
      </trkpt>
      <trkpt lat="47.8054" lon="2.1363">
        <ele>93</ele>
        <time>2017-01-08T08:16:56.969Z</time>
      </trkpt>
      <trkpt lat="47.8054" lon="2.13634">
        <ele>93</ele>
        <time>2017-01-08T08:16:57.964Z</time>
      </trkpt>
      <trkpt lat="47.8054" lon="2.13634">
        <ele>93</ele>
        <time>2017-01-08T08:16:58.985Z</time>
      </trkpt>
      <trkpt lat="47.80538" lon="2.13644">
        <ele>93</ele>
        <time>2017-01-08T08:16:59.975Z</time>
      </trkpt>
      <trkpt lat="47.80538" lon="2.13644">
        <ele>93</ele>
        <time>2017-01-08T08:17:00.980Z</time>
      </trkpt>
      <trkpt lat="47.80536" lon="2.13653">
        <ele>93</ele>
        <time>2017-01-08T08:17:01.980Z</time>
      </trkpt>
      <trkpt lat="47.80536" lon="2.13653">
        <ele>93</ele>
        <time>2017-01-08T08:17:02.986Z</time>
      </trkpt>
      <trkpt lat="47.80535" lon="2.13663">
        <ele>92</ele>
        <time>2017-01-08T08:17:03.962Z</time>
      </trkpt>
      <trkpt lat="47.80535" lon="2.13663">
        <ele>92</ele>
        <time>2017-01-08T08:17:04.972Z</time>
      </trkpt>
      <trkpt lat="47.80533" lon="2.13674">
        <ele>93</ele>
        <time>2017-01-08T08:17:05.966Z</time>
      </trkpt>
      <trkpt lat="47.80533" lon="2.13674">
        <ele>93</ele>
        <time>2017-01-08T08:17:06.993Z</time>
      </trkpt>
      <trkpt lat="47.80532" lon="2.13685">
        <ele>93</ele>
        <time>2017-01-08T08:17:07.959Z</time>
      </trkpt>
      <trkpt lat="47.80532" lon="2.1369">
        <ele>93</ele>
        <time>2017-01-08T08:17:08.989Z</time>
      </trkpt>
      <trkpt lat="47.80532" lon="2.1369">
        <ele>93</ele>
        <time>2017-01-08T08:17:09.978Z</time>
      </trkpt>
      <trkpt lat="47.8053" lon="2.13701">
        <ele>94</ele>
        <time>2017-01-08T08:17:10.972Z</time>
      </trkpt>
      <trkpt lat="47.8053" lon="2.13701">
        <ele>94</ele>
        <time>2017-01-08T08:17:11.965Z</time>
      </trkpt>
      <trkpt lat="47.80529" lon="2.13711">
        <ele>94</ele>
        <time>2017-01-08T08:17:12.954Z</time>
      </trkpt>
      <trkpt lat="47.80529" lon="2.13711">
        <ele>94</ele>
        <time>2017-01-08T08:17:13.985Z</time>
      </trkpt>
      <trkpt lat="47.80528" lon="2.13722">
        <ele>95</ele>
        <time>2017-01-08T08:17:14.991Z</time>
      </trkpt>
      <trkpt lat="47.80528" lon="2.13722">
        <ele>95</ele>
        <time>2017-01-08T08:17:15.980Z</time>
      </trkpt>
      <trkpt lat="47.80528" lon="2.13732">
        <ele>96</ele>
        <time>2017-01-08T08:17:16.964Z</time>
      </trkpt>
      <trkpt lat="47.80527" lon="2.13736">
        <ele>96</ele>
        <time>2017-01-08T08:17:17.957Z</time>
      </trkpt>
      <trkpt lat="47.80527" lon="2.13741">
        <ele>97</ele>
        <time>2017-01-08T08:17:18.989Z</time>
      </trkpt>
      <trkpt lat="47.80527" lon="2.13741">
        <ele>97</ele>
        <time>2017-01-08T08:17:19.977Z</time>
      </trkpt>
      <trkpt lat="47.80526" lon="2.1375">
        <ele>96</ele>
        <time>2017-01-08T08:17:20.967Z</time>
      </trkpt>
      <trkpt lat="47.80525" lon="2.13755">
        <ele>96</ele>
        <time>2017-01-08T08:17:21.964Z</time>
      </trkpt>
      <trkpt lat="47.80525" lon="2.13755">
        <ele>96</ele>
        <time>2017-01-08T08:17:22.993Z</time>
      </trkpt>
      <trkpt lat="47.80525" lon="2.13764">
        <ele>96</ele>
        <time>2017-01-08T08:17:23.955Z</time>
      </trkpt>
      <trkpt lat="47.80524" lon="2.13769">
        <ele>96</ele>
        <time>2017-01-08T08:17:24.988Z</time>
      </trkpt>
      <trkpt lat="47.80523" lon="2.13775">
        <ele>95</ele>
        <time>2017-01-08T08:17:25.991Z</time>
      </trkpt>
      <trkpt lat="47.80523" lon="2.13775">
        <ele>95</ele>
        <time>2017-01-08T08:17:26.987Z</time>
      </trkpt>
      <trkpt lat="47.80523" lon="2.13785">
        <ele>94</ele>
        <time>2017-01-08T08:17:27.959Z</time>
      </trkpt>
      <trkpt lat="47.80522" lon="2.13791">
        <ele>93</ele>
        <time>2017-01-08T08:17:28.990Z</time>
      </trkpt>
      <trkpt lat="47.80522" lon="2.13791">
        <ele>93</ele>
        <time>2017-01-08T08:17:29.982Z</time>
      </trkpt>
      <trkpt lat="47.80521" lon="2.13802">
        <ele>93</ele>
        <time>2017-01-08T08:17:30.973Z</time>
      </trkpt>
      <trkpt lat="47.80521" lon="2.13802">
        <ele>93</ele>
        <time>2017-01-08T08:17:31.984Z</time>
      </trkpt>
      <trkpt lat="47.80519" lon="2.13812">
        <ele>92</ele>
        <time>2017-01-08T08:17:32.972Z</time>
      </trkpt>
      <trkpt lat="47.80519" lon="2.13812">
        <ele>92</ele>
        <time>2017-01-08T08:17:33.965Z</time>
      </trkpt>
      <trkpt lat="47.80519" lon="2.13821">
        <ele>92</ele>
        <time>2017-01-08T08:17:34.958Z</time>
      </trkpt>
      <trkpt lat="47.80519" lon="2.13821">
        <ele>92</ele>
        <time>2017-01-08T08:17:35.987Z</time>
      </trkpt>
      <trkpt lat="47.80519" lon="2.1383">
        <ele>92</ele>
        <time>2017-01-08T08:17:36.976Z</time>
      </trkpt>
      <trkpt lat="47.80519" lon="2.1383">
        <ele>92</ele>
        <time>2017-01-08T08:17:37.981Z</time>
      </trkpt>
      <trkpt lat="47.80519" lon="2.13839">
        <ele>93</ele>
        <time>2017-01-08T08:17:38.983Z</time>
      </trkpt>
      <trkpt lat="47.80519" lon="2.13839">
        <ele>93</ele>
        <time>2017-01-08T08:17:39.972Z</time>
      </trkpt>
      <trkpt lat="47.8052" lon="2.1385">
        <ele>93</ele>
        <time>2017-01-08T08:17:40.965Z</time>
      </trkpt>
      <trkpt lat="47.8052" lon="2.1385">
        <ele>93</ele>
        <time>2017-01-08T08:17:41.993Z</time>
      </trkpt>
      <trkpt lat="47.80521" lon="2.13858">
        <ele>94</ele>
        <time>2017-01-08T08:17:42.986Z</time>
      </trkpt>
      <trkpt lat="47.80521" lon="2.13858">
        <ele>94</ele>
        <time>2017-01-08T08:17:43.979Z</time>
      </trkpt>
      <trkpt lat="47.80521" lon="2.13867">
        <ele>95</ele>
        <time>2017-01-08T08:17:44.980Z</time>
      </trkpt>
      <trkpt lat="47.80521" lon="2.13872">
        <ele>95</ele>
        <time>2017-01-08T08:17:45.971Z</time>
      </trkpt>
      <trkpt lat="47.80521" lon="2.13872">
        <ele>95</ele>
        <time>2017-01-08T08:17:46.959Z</time>
      </trkpt>
      <trkpt lat="47.80521" lon="2.1388">
        <ele>96</ele>
        <time>2017-01-08T08:17:47.991Z</time>
      </trkpt>
      <trkpt lat="47.80521" lon="2.1388">
        <ele>96</ele>
        <time>2017-01-08T08:17:48.988Z</time>
      </trkpt>
      <trkpt lat="47.80522" lon="2.13889">
        <ele>97</ele>
        <time>2017-01-08T08:17:49.983Z</time>
      </trkpt>
      <trkpt lat="47.80522" lon="2.13889">
        <ele>97</ele>
        <time>2017-01-08T08:17:50.971Z</time>
      </trkpt>
      <trkpt lat="47.80522" lon="2.139">
        <ele>97</ele>
        <time>2017-01-08T08:17:51.964Z</time>
      </trkpt>
      <trkpt lat="47.80522" lon="2.139">
        <ele>97</ele>
        <time>2017-01-08T08:17:52.964Z</time>
      </trkpt>
      <trkpt lat="47.80523" lon="2.1391">
        <ele>98</ele>
        <time>2017-01-08T08:17:53.993Z</time>
      </trkpt>
      <trkpt lat="47.80523" lon="2.1391">
        <ele>98</ele>
        <time>2017-01-08T08:17:54.983Z</time>
      </trkpt>
      <trkpt lat="47.80523" lon="2.13921">
        <ele>99</ele>
        <time>2017-01-08T08:17:55.974Z</time>
      </trkpt>
      <trkpt lat="47.80524" lon="2.13927">
        <ele>99</ele>
        <time>2017-01-08T08:17:56.967Z</time>
      </trkpt>
      <trkpt lat="47.80524" lon="2.13927">
        <ele>99</ele>
        <time>2017-01-08T08:17:57.979Z</time>
      </trkpt>
      <trkpt lat="47.80524" lon="2.13938">
        <ele>99</ele>
        <time>2017-01-08T08:17:58.965Z</time>
      </trkpt>
      <trkpt lat="47.80524" lon="2.13943">
        <ele>100</ele>
        <time>2017-01-08T08:17:59.957Z</time>
      </trkpt>
      <trkpt lat="47.80525" lon="2.13948">
        <ele>100</ele>
        <time>2017-01-08T08:18:00.991Z</time>
      </trkpt>
      <trkpt lat="47.80525" lon="2.13948">
        <ele>100</ele>
        <time>2017-01-08T08:18:01.981Z</time>
      </trkpt>
      <trkpt lat="47.80526" lon="2.13958">
        <ele>101</ele>
        <time>2017-01-08T08:18:02.971Z</time>
      </trkpt>
      <trkpt lat="47.80526" lon="2.13958">
        <ele>101</ele>
        <time>2017-01-08T08:18:03.993Z</time>
      </trkpt>
      <trkpt lat="47.80525" lon="2.13968">
        <ele>101</ele>
        <time>2017-01-08T08:18:04.984Z</time>
      </trkpt>
      <trkpt lat="47.80525" lon="2.13968">
        <ele>101</ele>
        <time>2017-01-08T08:18:05.988Z</time>
      </trkpt>
      <trkpt lat="47.80526" lon="2.13978">
        <ele>101</ele>
        <time>2017-01-08T08:18:06.977Z</time>
      </trkpt>
      <trkpt lat="47.80526" lon="2.13984">
        <ele>101</ele>
        <time>2017-01-08T08:18:07.978Z</time>
      </trkpt>
      <trkpt lat="47.80526" lon="2.13984">
        <ele>101</ele>
        <time>2017-01-08T08:18:08.959Z</time>
      </trkpt>
      <trkpt lat="47.80527" lon="2.13994">
        <ele>101</ele>
        <time>2017-01-08T08:18:09.955Z</time>
      </trkpt>
      <trkpt lat="47.80528" lon="2.14">
        <ele>101</ele>
        <time>2017-01-08T08:18:10.986Z</time>
      </trkpt>
      <trkpt lat="47.80528" lon="2.14005">
        <ele>102</ele>
        <time>2017-01-08T08:18:11.975Z</time>
      </trkpt>
      <trkpt lat="47.80528" lon="2.14005">
        <ele>102</ele>
        <time>2017-01-08T08:18:12.964Z</time>
      </trkpt>
      <trkpt lat="47.80528" lon="2.14016">
        <ele>102</ele>
        <time>2017-01-08T08:18:13.955Z</time>
      </trkpt>
      <trkpt lat="47.80528" lon="2.14021">
        <ele>102</ele>
        <time>2017-01-08T08:18:14.986Z</time>
      </trkpt>
      <trkpt lat="47.80528" lon="2.14021">
        <ele>102</ele>
        <time>2017-01-08T08:18:15.976Z</time>
      </trkpt>
      <trkpt lat="47.80529" lon="2.14032">
        <ele>102</ele>
        <time>2017-01-08T08:18:16.969Z</time>
      </trkpt>
      <trkpt lat="47.8053" lon="2.14037">
        <ele>102</ele>
        <time>2017-01-08T08:18:17.960Z</time>
      </trkpt>
      <trkpt lat="47.8053" lon="2.14037">
        <ele>102</ele>
        <time>2017-01-08T08:18:18.984Z</time>
      </trkpt>
      <trkpt lat="47.80531" lon="2.14048">
        <ele>103</ele>
        <time>2017-01-08T08:18:19.972Z</time>
      </trkpt>
      <trkpt lat="47.80532" lon="2.14053">
        <ele>103</ele>
        <time>2017-01-08T08:18:20.964Z</time>
      </trkpt>
      <trkpt lat="47.80532" lon="2.14053">
        <ele>103</ele>
        <time>2017-01-08T08:18:21.993Z</time>
      </trkpt>
      <trkpt lat="47.80532" lon="2.14064">
        <ele>103</ele>
        <time>2017-01-08T08:18:22.959Z</time>
      </trkpt>
      <trkpt lat="47.80532" lon="2.14064">
        <ele>103</ele>
        <time>2017-01-08T08:18:23.988Z</time>
      </trkpt>
      <trkpt lat="47.80533" lon="2.14074">
        <ele>104</ele>
        <time>2017-01-08T08:18:24.976Z</time>
      </trkpt>
      <trkpt lat="47.80533" lon="2.14074">
        <ele>104</ele>
        <time>2017-01-08T08:18:25.967Z</time>
      </trkpt>
      <trkpt lat="47.80534" lon="2.14084">
        <ele>104</ele>
        <time>2017-01-08T08:18:26.982Z</time>
      </trkpt>
      <trkpt lat="47.80534" lon="2.14089">
        <ele>104</ele>
        <time>2017-01-08T08:18:27.979Z</time>
      </trkpt>
      <trkpt lat="47.80535" lon="2.14094">
        <ele>104</ele>
        <time>2017-01-08T08:18:28.969Z</time>
      </trkpt>
      <trkpt lat="47.80535" lon="2.14094">
        <ele>104</ele>
        <time>2017-01-08T08:18:29.959Z</time>
      </trkpt>
      <trkpt lat="47.80536" lon="2.14104">
        <ele>104</ele>
        <time>2017-01-08T08:18:30.990Z</time>
      </trkpt>
      <trkpt lat="47.80536" lon="2.14109">
        <ele>105</ele>
        <time>2017-01-08T08:18:31.993Z</time>
      </trkpt>
      <trkpt lat="47.80536" lon="2.14109">
        <ele>105</ele>
        <time>2017-01-08T08:18:32.981Z</time>
      </trkpt>
      <trkpt lat="47.80536" lon="2.1412">
        <ele>105</ele>
        <time>2017-01-08T08:18:33.981Z</time>
      </trkpt>
      <trkpt lat="47.80537" lon="2.14125">
        <ele>105</ele>
        <time>2017-01-08T08:18:34.967Z</time>
      </trkpt>
      <trkpt lat="47.80537" lon="2.14125">
        <ele>105</ele>
        <time>2017-01-08T08:18:35.955Z</time>
      </trkpt>
      <trkpt lat="47.80537" lon="2.14134">
        <ele>105</ele>
        <time>2017-01-08T08:18:36.992Z</time>
      </trkpt>
      <trkpt lat="47.80537" lon="2.14134">
        <ele>105</ele>
        <time>2017-01-08T08:18:37.974Z</time>
      </trkpt>
      <trkpt lat="47.80537" lon="2.14144">
        <ele>105</ele>
        <time>2017-01-08T08:18:38.984Z</time>
      </trkpt>
      <trkpt lat="47.80537" lon="2.14149">
        <ele>105</ele>
        <time>2017-01-08T08:18:39.977Z</time>
      </trkpt>
      <trkpt lat="47.80537" lon="2.14149">
        <ele>105</ele>
        <time>2017-01-08T08:18:40.967Z</time>
      </trkpt>
      <trkpt lat="47.80538" lon="2.1416">
        <ele>105</ele>
        <time>2017-01-08T08:18:41.957Z</time>
      </trkpt>
      <trkpt lat="47.80538" lon="2.1416">
        <ele>105</ele>
        <time>2017-01-08T08:18:42.987Z</time>
      </trkpt>
      <trkpt lat="47.80539" lon="2.14171">
        <ele>104</ele>
        <time>2017-01-08T08:18:43.954Z</time>
      </trkpt>
      <trkpt lat="47.80539" lon="2.14176">
        <ele>104</ele>
        <time>2017-01-08T08:18:44.990Z</time>
      </trkpt>
      <trkpt lat="47.80539" lon="2.14176">
        <ele>104</ele>
        <time>2017-01-08T08:18:45.980Z</time>
      </trkpt>
      <trkpt lat="47.8054" lon="2.14187">
        <ele>104</ele>
        <time>2017-01-08T08:18:46.982Z</time>
      </trkpt>
      <trkpt lat="47.8054" lon="2.14187">
        <ele>104</ele>
        <time>2017-01-08T08:18:47.980Z</time>
      </trkpt>
      <trkpt lat="47.80541" lon="2.14198">
        <ele>103</ele>
        <time>2017-01-08T08:18:48.965Z</time>
      </trkpt>
      <trkpt lat="47.80541" lon="2.14198">
        <ele>103</ele>
        <time>2017-01-08T08:18:49.955Z</time>
      </trkpt>
      <trkpt lat="47.80542" lon="2.14209">
        <ele>103</ele>
        <time>2017-01-08T08:18:50.986Z</time>
      </trkpt>
      <trkpt lat="47.80542" lon="2.14214">
        <ele>103</ele>
        <time>2017-01-08T08:18:51.965Z</time>
      </trkpt>
      <trkpt lat="47.80542" lon="2.14214">
        <ele>103</ele>
        <time>2017-01-08T08:18:52.964Z</time>
      </trkpt>
      <trkpt lat="47.80543" lon="2.14225">
        <ele>102</ele>
        <time>2017-01-08T08:18:53.956Z</time>
      </trkpt>
      <trkpt lat="47.80543" lon="2.14225">
        <ele>102</ele>
        <time>2017-01-08T08:18:54.986Z</time>
      </trkpt>
      <trkpt lat="47.80543" lon="2.14234">
        <ele>102</ele>
        <time>2017-01-08T08:18:55.992Z</time>
      </trkpt>
      <trkpt lat="47.80543" lon="2.14234">
        <ele>102</ele>
        <time>2017-01-08T08:18:56.980Z</time>
      </trkpt>
      <trkpt lat="47.80544" lon="2.14243">
        <ele>101</ele>
        <time>2017-01-08T08:18:57.964Z</time>
      </trkpt>
      <trkpt lat="47.80544" lon="2.14243">
        <ele>101</ele>
        <time>2017-01-08T08:18:58.957Z</time>
      </trkpt>
      <trkpt lat="47.80544" lon="2.14252">
        <ele>101</ele>
        <time>2017-01-08T08:18:59.990Z</time>
      </trkpt>
      <trkpt lat="47.80544" lon="2.14257">
        <ele>100</ele>
        <time>2017-01-08T08:19:00.987Z</time>
      </trkpt>
      <trkpt lat="47.80544" lon="2.14257">
        <ele>100</ele>
        <time>2017-01-08T08:19:01.979Z</time>
      </trkpt>
      <trkpt lat="47.80545" lon="2.14266">
        <ele>99</ele>
        <time>2017-01-08T08:19:02.969Z</time>
      </trkpt>
      <trkpt lat="47.80545" lon="2.14266">
        <ele>99</ele>
        <time>2017-01-08T08:19:03.991Z</time>
      </trkpt>
      <trkpt lat="47.80546" lon="2.14274">
        <ele>99</ele>
        <time>2017-01-08T08:19:04.964Z</time>
      </trkpt>
      <trkpt lat="47.80546" lon="2.14278">
        <ele>99</ele>
        <time>2017-01-08T08:19:05.993Z</time>
      </trkpt>
      <trkpt lat="47.80547" lon="2.14282">
        <ele>100</ele>
        <time>2017-01-08T08:19:06.956Z</time>
      </trkpt>
      <trkpt lat="47.80547" lon="2.14282">
        <ele>100</ele>
        <time>2017-01-08T08:19:07.989Z</time>
      </trkpt>
      <trkpt lat="47.80548" lon="2.14288">
        <ele>100</ele>
        <time>2017-01-08T08:19:08.979Z</time>
      </trkpt>
      <trkpt lat="47.80548" lon="2.14292">
        <ele>100</ele>
        <time>2017-01-08T08:19:09.971Z</time>
      </trkpt>
      <trkpt lat="47.80548" lon="2.14292">
        <ele>100</ele>
        <time>2017-01-08T08:19:10.958Z</time>
      </trkpt>
      <trkpt lat="47.80549" lon="2.14297">
        <ele>101</ele>
        <time>2017-01-08T08:19:11.988Z</time>
      </trkpt>
      <trkpt lat="47.80549" lon="2.14299">
        <ele>101</ele>
        <time>2017-01-08T08:19:12.976Z</time>
      </trkpt>
      <trkpt lat="47.80549" lon="2.14299">
        <ele>101</ele>
        <time>2017-01-08T08:19:13.986Z</time>
      </trkpt>
      <trkpt lat="47.80549" lon="2.14302">
        <ele>101</ele>
        <time>2017-01-08T08:19:14.954Z</time>
      </trkpt>
      <trkpt lat="47.80549" lon="2.14302">
        <ele>101</ele>
        <time>2017-01-08T08:19:15.987Z</time>
      </trkpt>
      <trkpt lat="47.80549" lon="2.14305">
        <ele>101</ele>
        <time>2017-01-08T08:19:16.992Z</time>
      </trkpt>
      <trkpt lat="47.80549" lon="2.14305">
        <ele>101</ele>
        <time>2017-01-08T08:19:17.981Z</time>
      </trkpt>
      <trkpt lat="47.80549" lon="2.14307">
        <ele>101</ele>
        <time>2017-01-08T08:19:18.957Z</time>
      </trkpt>
      <trkpt lat="47.80548" lon="2.1431">
        <ele>100</ele>
        <time>2017-01-08T08:19:19.964Z</time>
      </trkpt>
      <trkpt lat="47.80548" lon="2.1431">
        <ele>100</ele>
        <time>2017-01-08T08:19:20.984Z</time>
      </trkpt>
      <trkpt lat="47.80549" lon="2.14316">
        <ele>100</ele>
        <time>2017-01-08T08:19:21.982Z</time>
      </trkpt>
      <trkpt lat="47.80549" lon="2.14316">
        <ele>100</ele>
        <time>2017-01-08T08:19:22.976Z</time>
      </trkpt>
      <trkpt lat="47.80549" lon="2.14323">
        <ele>100</ele>
        <time>2017-01-08T08:19:23.968Z</time>
      </trkpt>
      <trkpt lat="47.80549" lon="2.14327">
        <ele>99</ele>
        <time>2017-01-08T08:19:24.963Z</time>
      </trkpt>
      <trkpt lat="47.80549" lon="2.14327">
        <ele>99</ele>
        <time>2017-01-08T08:19:25.968Z</time>
      </trkpt>
      <trkpt lat="47.80549" lon="2.14338">
        <ele>99</ele>
        <time>2017-01-08T08:19:26.974Z</time>
      </trkpt>
      <trkpt lat="47.80549" lon="2.14343">
        <ele>99</ele>
        <time>2017-01-08T08:19:27.975Z</time>
      </trkpt>
      <trkpt lat="47.80549" lon="2.14343">
        <ele>99</ele>
        <time>2017-01-08T08:19:28.970Z</time>
      </trkpt>
      <trkpt lat="47.80549" lon="2.14353">
        <ele>99</ele>
        <time>2017-01-08T08:19:29.975Z</time>
      </trkpt>
      <trkpt lat="47.80548" lon="2.14358">
        <ele>100</ele>
        <time>2017-01-08T08:19:30.978Z</time>
      </trkpt>
      <trkpt lat="47.80548" lon="2.14358">
        <ele>100</ele>
        <time>2017-01-08T08:19:31.969Z</time>
      </trkpt>
      <trkpt lat="47.80547" lon="2.14368">
        <ele>99</ele>
        <time>2017-01-08T08:19:32.957Z</time>
      </trkpt>
      <trkpt lat="47.80547" lon="2.14368">
        <ele>99</ele>
        <time>2017-01-08T08:19:33.985Z</time>
      </trkpt>
      <trkpt lat="47.80546" lon="2.14378">
        <ele>99</ele>
        <time>2017-01-08T08:19:34.975Z</time>
      </trkpt>
      <trkpt lat="47.80546" lon="2.14384">
        <ele>99</ele>
        <time>2017-01-08T08:19:35.972Z</time>
      </trkpt>
      <trkpt lat="47.80546" lon="2.14384">
        <ele>99</ele>
        <time>2017-01-08T08:19:36.961Z</time>
      </trkpt>
      <trkpt lat="47.80544" lon="2.14395">
        <ele>99</ele>
        <time>2017-01-08T08:19:37.956Z</time>
      </trkpt>
      <trkpt lat="47.80544" lon="2.144">
        <ele>99</ele>
        <time>2017-01-08T08:19:38.991Z</time>
      </trkpt>
      <trkpt lat="47.80544" lon="2.144">
        <ele>99</ele>
        <time>2017-01-08T08:19:39.980Z</time>
      </trkpt>
      <trkpt lat="47.80543" lon="2.1441">
        <ele>99</ele>
        <time>2017-01-08T08:19:40.971Z</time>
      </trkpt>
      <trkpt lat="47.80543" lon="2.1441">
        <ele>99</ele>
        <time>2017-01-08T08:19:41.959Z</time>
      </trkpt>
      <trkpt lat="47.80542" lon="2.1442">
        <ele>99</ele>
        <time>2017-01-08T08:19:42.991Z</time>
      </trkpt>
      <trkpt lat="47.80542" lon="2.1442">
        <ele>99</ele>
        <time>2017-01-08T08:19:43.979Z</time>
      </trkpt>
      <trkpt lat="47.80541" lon="2.14431">
        <ele>100</ele>
        <time>2017-01-08T08:19:44.976Z</time>
      </trkpt>
      <trkpt lat="47.80541" lon="2.14431">
        <ele>100</ele>
        <time>2017-01-08T08:19:45.964Z</time>
      </trkpt>
      <trkpt lat="47.8054" lon="2.14441">
        <ele>100</ele>
        <time>2017-01-08T08:19:46.980Z</time>
      </trkpt>
      <trkpt lat="47.80539" lon="2.14447">
        <ele>100</ele>
        <time>2017-01-08T08:19:47.975Z</time>
      </trkpt>
      <trkpt lat="47.80539" lon="2.14452">
        <ele>100</ele>
        <time>2017-01-08T08:19:48.978Z</time>
      </trkpt>
      <trkpt lat="47.80539" lon="2.14452">
        <ele>100</ele>
        <time>2017-01-08T08:19:49.969Z</time>
      </trkpt>
      <trkpt lat="47.80537" lon="2.14463">
        <ele>99</ele>
        <time>2017-01-08T08:19:50.959Z</time>
      </trkpt>
      <trkpt lat="47.80537" lon="2.14469">
        <ele>100</ele>
        <time>2017-01-08T08:19:51.991Z</time>
      </trkpt>
      <trkpt lat="47.80537" lon="2.14469">
        <ele>100</ele>
        <time>2017-01-08T08:19:52.980Z</time>
      </trkpt>
      <trkpt lat="47.80536" lon="2.14479">
        <ele>100</ele>
        <time>2017-01-08T08:19:53.971Z</time>
      </trkpt>
      <trkpt lat="47.80535" lon="2.14484">
        <ele>100</ele>
        <time>2017-01-08T08:19:54.978Z</time>
      </trkpt>
      <trkpt lat="47.80535" lon="2.14484">
        <ele>100</ele>
        <time>2017-01-08T08:19:55.970Z</time>
      </trkpt>
      <trkpt lat="47.80534" lon="2.14495">
        <ele>100</ele>
        <time>2017-01-08T08:19:56.962Z</time>
      </trkpt>
      <trkpt lat="47.80534" lon="2.14501">
        <ele>100</ele>
        <time>2017-01-08T08:19:57.991Z</time>
      </trkpt>
      <trkpt lat="47.80534" lon="2.14501">
        <ele>100</ele>
        <time>2017-01-08T08:19:58.980Z</time>
      </trkpt>
      <trkpt lat="47.80532" lon="2.14512">
        <ele>100</ele>
        <time>2017-01-08T08:19:59.958Z</time>
      </trkpt>
      <trkpt lat="47.80531" lon="2.14517">
        <ele>100</ele>
        <time>2017-01-08T08:20:00.991Z</time>
      </trkpt>
      <trkpt lat="47.80531" lon="2.14517">
        <ele>100</ele>
        <time>2017-01-08T08:20:01.980Z</time>
      </trkpt>
      <trkpt lat="47.8053" lon="2.14528">
        <ele>100</ele>
        <time>2017-01-08T08:20:02.975Z</time>
      </trkpt>
      <trkpt lat="47.8053" lon="2.14528">
        <ele>100</ele>
        <time>2017-01-08T08:20:03.987Z</time>
      </trkpt>
      <trkpt lat="47.80529" lon="2.14537">
        <ele>99</ele>
        <time>2017-01-08T08:20:04.982Z</time>
      </trkpt>
      <trkpt lat="47.80529" lon="2.14537">
        <ele>99</ele>
        <time>2017-01-08T08:20:05.973Z</time>
      </trkpt>
      <trkpt lat="47.80528" lon="2.14548">
        <ele>99</ele>
        <time>2017-01-08T08:20:06.973Z</time>
      </trkpt>
      <trkpt lat="47.80528" lon="2.14548">
        <ele>99</ele>
        <time>2017-01-08T08:20:07.967Z</time>
      </trkpt>
      <trkpt lat="47.80527" lon="2.14559">
        <ele>99</ele>
        <time>2017-01-08T08:20:08.972Z</time>
      </trkpt>
      <trkpt lat="47.80526" lon="2.14564">
        <ele>99</ele>
        <time>2017-01-08T08:20:09.975Z</time>
      </trkpt>
      <trkpt lat="47.80526" lon="2.14569">
        <ele>99</ele>
        <time>2017-01-08T08:20:10.974Z</time>
      </trkpt>
      <trkpt lat="47.80526" lon="2.14569">
        <ele>99</ele>
        <time>2017-01-08T08:20:11.969Z</time>
      </trkpt>
      <trkpt lat="47.80525" lon="2.14579">
        <ele>100</ele>
        <time>2017-01-08T08:20:12.976Z</time>
      </trkpt>
      <trkpt lat="47.80525" lon="2.14579">
        <ele>100</ele>
        <time>2017-01-08T08:20:13.966Z</time>
      </trkpt>
      <trkpt lat="47.80524" lon="2.14588">
        <ele>100</ele>
        <time>2017-01-08T08:20:14.974Z</time>
      </trkpt>
      <trkpt lat="47.80523" lon="2.14593">
        <ele>100</ele>
        <time>2017-01-08T08:20:15.975Z</time>
      </trkpt>
      <trkpt lat="47.80523" lon="2.14593">
        <ele>100</ele>
        <time>2017-01-08T08:20:16.969Z</time>
      </trkpt>
      <trkpt lat="47.80522" lon="2.14604">
        <ele>99</ele>
        <time>2017-01-08T08:20:17.974Z</time>
      </trkpt>
      <trkpt lat="47.80522" lon="2.14604">
        <ele>99</ele>
        <time>2017-01-08T08:20:18.969Z</time>
      </trkpt>
      <trkpt lat="47.8052" lon="2.14616">
        <ele>99</ele>
        <time>2017-01-08T08:20:19.971Z</time>
      </trkpt>
      <trkpt lat="47.8052" lon="2.14616">
        <ele>99</ele>
        <time>2017-01-08T08:20:20.971Z</time>
      </trkpt>
      <trkpt lat="47.80519" lon="2.14628">
        <ele>100</ele>
        <time>2017-01-08T08:20:21.962Z</time>
      </trkpt>
      <trkpt lat="47.80519" lon="2.14628">
        <ele>100</ele>
        <time>2017-01-08T08:20:22.991Z</time>
      </trkpt>
      <trkpt lat="47.80517" lon="2.1464">
        <ele>100</ele>
        <time>2017-01-08T08:20:23.981Z</time>
      </trkpt>
      <trkpt lat="47.80516" lon="2.14646">
        <ele>99</ele>
        <time>2017-01-08T08:20:24.976Z</time>
      </trkpt>
      <trkpt lat="47.80516" lon="2.14646">
        <ele>99</ele>
        <time>2017-01-08T08:20:25.965Z</time>
      </trkpt>
      <trkpt lat="47.80515" lon="2.14657">
        <ele>99</ele>
        <time>2017-01-08T08:20:26.975Z</time>
      </trkpt>
      <trkpt lat="47.80515" lon="2.14657">
        <ele>99</ele>
        <time>2017-01-08T08:20:27.965Z</time>
      </trkpt>
      <trkpt lat="47.80514" lon="2.14668">
        <ele>99</ele>
        <time>2017-01-08T08:20:28.974Z</time>
      </trkpt>
      <trkpt lat="47.80514" lon="2.14668">
        <ele>99</ele>
        <time>2017-01-08T08:20:29.969Z</time>
      </trkpt>
      <trkpt lat="47.80512" lon="2.14679">
        <ele>99</ele>
        <time>2017-01-08T08:20:30.992Z</time>
      </trkpt>
      <trkpt lat="47.80512" lon="2.14679">
        <ele>99</ele>
        <time>2017-01-08T08:20:31.984Z</time>
      </trkpt>
      <trkpt lat="47.80511" lon="2.1469">
        <ele>99</ele>
        <time>2017-01-08T08:20:32.973Z</time>
      </trkpt>
      <trkpt lat="47.80511" lon="2.14696">
        <ele>99</ele>
        <time>2017-01-08T08:20:33.976Z</time>
      </trkpt>
      <trkpt lat="47.80511" lon="2.14696">
        <ele>99</ele>
        <time>2017-01-08T08:20:34.964Z</time>
      </trkpt>
      <trkpt lat="47.8051" lon="2.14708">
        <ele>99</ele>
        <time>2017-01-08T08:20:35.978Z</time>
      </trkpt>
      <trkpt lat="47.80509" lon="2.14714">
        <ele>99</ele>
        <time>2017-01-08T08:20:36.978Z</time>
      </trkpt>
      <trkpt lat="47.80509" lon="2.14714">
        <ele>99</ele>
        <time>2017-01-08T08:20:37.971Z</time>
      </trkpt>
      <trkpt lat="47.80508" lon="2.14725">
        <ele>99</ele>
        <time>2017-01-08T08:20:38.969Z</time>
      </trkpt>
      <trkpt lat="47.80508" lon="2.14725">
        <ele>99</ele>
        <time>2017-01-08T08:20:39.970Z</time>
      </trkpt>
      <trkpt lat="47.80507" lon="2.14736">
        <ele>100</ele>
        <time>2017-01-08T08:20:40.957Z</time>
      </trkpt>
      <trkpt lat="47.80507" lon="2.14736">
        <ele>100</ele>
        <time>2017-01-08T08:20:41.984Z</time>
      </trkpt>
      <trkpt lat="47.80506" lon="2.14747">
        <ele>100</ele>
        <time>2017-01-08T08:20:42.973Z</time>
      </trkpt>
      <trkpt lat="47.80506" lon="2.14747">
        <ele>100</ele>
        <time>2017-01-08T08:20:43.966Z</time>
      </trkpt>
      <trkpt lat="47.80505" lon="2.14757">
        <ele>100</ele>
        <time>2017-01-08T08:20:44.970Z</time>
      </trkpt>
      <trkpt lat="47.80504" lon="2.14763">
        <ele>100</ele>
        <time>2017-01-08T08:20:45.971Z</time>
      </trkpt>
      <trkpt lat="47.80504" lon="2.14763">
        <ele>100</ele>
        <time>2017-01-08T08:20:46.978Z</time>
      </trkpt>
      <trkpt lat="47.80503" lon="2.14774">
        <ele>100</ele>
        <time>2017-01-08T08:20:47.972Z</time>
      </trkpt>
      <trkpt lat="47.80502" lon="2.1478">
        <ele>99</ele>
        <time>2017-01-08T08:20:48.970Z</time>
      </trkpt>
      <trkpt lat="47.80502" lon="2.14787">
        <ele>99</ele>
        <time>2017-01-08T08:20:49.965Z</time>
      </trkpt>
      <trkpt lat="47.80502" lon="2.14787">
        <ele>99</ele>
        <time>2017-01-08T08:20:50.985Z</time>
      </trkpt>
      <trkpt lat="47.80501" lon="2.14799">
        <ele>99</ele>
        <time>2017-01-08T08:20:51.975Z</time>
      </trkpt>
      <trkpt lat="47.80501" lon="2.14806">
        <ele>99</ele>
        <time>2017-01-08T08:20:52.975Z</time>
      </trkpt>
      <trkpt lat="47.80501" lon="2.14806">
        <ele>99</ele>
        <time>2017-01-08T08:20:53.965Z</time>
      </trkpt>
      <trkpt lat="47.805" lon="2.14818">
        <ele>99</ele>
        <time>2017-01-08T08:20:54.956Z</time>
      </trkpt>
      <trkpt lat="47.805" lon="2.14818">
        <ele>99</ele>
        <time>2017-01-08T08:20:55.984Z</time>
      </trkpt>
      <trkpt lat="47.80499" lon="2.14831">
        <ele>99</ele>
        <time>2017-01-08T08:20:56.983Z</time>
      </trkpt>
      <trkpt lat="47.80499" lon="2.14837">
        <ele>99</ele>
        <time>2017-01-08T08:20:57.974Z</time>
      </trkpt>
      <trkpt lat="47.80498" lon="2.14843">
        <ele>99</ele>
        <time>2017-01-08T08:20:58.976Z</time>
      </trkpt>
      <trkpt lat="47.80498" lon="2.14843">
        <ele>99</ele>
        <time>2017-01-08T08:20:59.975Z</time>
      </trkpt>
      <trkpt lat="47.80497" lon="2.14855">
        <ele>99</ele>
        <time>2017-01-08T08:21:00.968Z</time>
      </trkpt>
      <trkpt lat="47.80497" lon="2.1486">
        <ele>99</ele>
        <time>2017-01-08T08:21:01.976Z</time>
      </trkpt>
      <trkpt lat="47.80497" lon="2.1486">
        <ele>99</ele>
        <time>2017-01-08T08:21:02.964Z</time>
      </trkpt>
      <trkpt lat="47.80496" lon="2.14872">
        <ele>99</ele>
        <time>2017-01-08T08:21:03.962Z</time>
      </trkpt>
      <trkpt lat="47.80496" lon="2.14877">
        <ele>99</ele>
        <time>2017-01-08T08:21:04.973Z</time>
      </trkpt>
      <trkpt lat="47.80496" lon="2.14877">
        <ele>99</ele>
        <time>2017-01-08T08:21:05.967Z</time>
      </trkpt>
      <trkpt lat="47.80495" lon="2.14889">
        <ele>100</ele>
        <time>2017-01-08T08:21:06.970Z</time>
      </trkpt>
      <trkpt lat="47.80495" lon="2.14889">
        <ele>100</ele>
        <time>2017-01-08T08:21:07.967Z</time>
      </trkpt>
      <trkpt lat="47.80495" lon="2.14901">
        <ele>100</ele>
        <time>2017-01-08T08:21:08.973Z</time>
      </trkpt>
      <trkpt lat="47.80495" lon="2.14901">
        <ele>100</ele>
        <time>2017-01-08T08:21:09.968Z</time>
      </trkpt>
      <trkpt lat="47.80494" lon="2.14912">
        <ele>100</ele>
        <time>2017-01-08T08:21:10.990Z</time>
      </trkpt>
      <trkpt lat="47.80494" lon="2.14912">
        <ele>100</ele>
        <time>2017-01-08T08:21:11.978Z</time>
      </trkpt>
      <trkpt lat="47.80493" lon="2.14922">
        <ele>100</ele>
        <time>2017-01-08T08:21:12.977Z</time>
      </trkpt>
      <trkpt lat="47.80493" lon="2.14922">
        <ele>100</ele>
        <time>2017-01-08T08:21:13.969Z</time>
      </trkpt>
      <trkpt lat="47.80493" lon="2.14932">
        <ele>100</ele>
        <time>2017-01-08T08:21:14.976Z</time>
      </trkpt>
      <trkpt lat="47.80493" lon="2.14932">
        <ele>100</ele>
        <time>2017-01-08T08:21:15.967Z</time>
      </trkpt>
      <trkpt lat="47.80493" lon="2.14942">
        <ele>100</ele>
        <time>2017-01-08T08:21:16.975Z</time>
      </trkpt>
      <trkpt lat="47.80493" lon="2.14948">
        <ele>100</ele>
        <time>2017-01-08T08:21:17.972Z</time>
      </trkpt>
      <trkpt lat="47.80493" lon="2.14953">
        <ele>100</ele>
        <time>2017-01-08T08:21:18.977Z</time>
      </trkpt>
      <trkpt lat="47.80493" lon="2.14953">
        <ele>100</ele>
        <time>2017-01-08T08:21:19.967Z</time>
      </trkpt>
      <trkpt lat="47.80492" lon="2.14964">
        <ele>100</ele>
        <time>2017-01-08T08:21:20.987Z</time>
      </trkpt>
      <trkpt lat="47.80492" lon="2.1497">
        <ele>100</ele>
        <time>2017-01-08T08:21:21.976Z</time>
      </trkpt>
      <trkpt lat="47.80492" lon="2.14976">
        <ele>100</ele>
        <time>2017-01-08T08:21:22.968Z</time>
      </trkpt>
      <trkpt lat="47.80492" lon="2.14976">
        <ele>100</ele>
        <time>2017-01-08T08:21:23.970Z</time>
      </trkpt>
      <trkpt lat="47.80491" lon="2.14987">
        <ele>100</ele>
        <time>2017-01-08T08:21:24.961Z</time>
      </trkpt>
      <trkpt lat="47.80491" lon="2.14987">
        <ele>100</ele>
        <time>2017-01-08T08:21:25.972Z</time>
      </trkpt>
      <trkpt lat="47.80491" lon="2.14999">
        <ele>100</ele>
        <time>2017-01-08T08:21:26.977Z</time>
      </trkpt>
      <trkpt lat="47.80491" lon="2.14999">
        <ele>100</ele>
        <time>2017-01-08T08:21:27.965Z</time>
      </trkpt>
      <trkpt lat="47.80491" lon="2.15012">
        <ele>100</ele>
        <time>2017-01-08T08:21:28.976Z</time>
      </trkpt>
      <trkpt lat="47.80491" lon="2.15018">
        <ele>100</ele>
        <time>2017-01-08T08:21:29.980Z</time>
      </trkpt>
      <trkpt lat="47.8049" lon="2.15024">
        <ele>100</ele>
        <time>2017-01-08T08:21:30.967Z</time>
      </trkpt>
      <trkpt lat="47.8049" lon="2.15024">
        <ele>100</ele>
        <time>2017-01-08T08:21:31.969Z</time>
      </trkpt>
      <trkpt lat="47.8049" lon="2.15035">
        <ele>100</ele>
        <time>2017-01-08T08:21:32.976Z</time>
      </trkpt>
      <trkpt lat="47.8049" lon="2.15035">
        <ele>100</ele>
        <time>2017-01-08T08:21:33.968Z</time>
      </trkpt>
      <trkpt lat="47.80489" lon="2.15047">
        <ele>100</ele>
        <time>2017-01-08T08:21:34.972Z</time>
      </trkpt>
      <trkpt lat="47.80489" lon="2.15047">
        <ele>100</ele>
        <time>2017-01-08T08:21:35.964Z</time>
      </trkpt>
      <trkpt lat="47.80489" lon="2.15058">
        <ele>100</ele>
        <time>2017-01-08T08:21:36.992Z</time>
      </trkpt>
      <trkpt lat="47.80489" lon="2.15058">
        <ele>100</ele>
        <time>2017-01-08T08:21:37.980Z</time>
      </trkpt>
      <trkpt lat="47.80488" lon="2.15069">
        <ele>99</ele>
        <time>2017-01-08T08:21:38.975Z</time>
      </trkpt>
      <trkpt lat="47.80488" lon="2.15069">
        <ele>99</ele>
        <time>2017-01-08T08:21:39.968Z</time>
      </trkpt>
      <trkpt lat="47.80488" lon="2.15081">
        <ele>99</ele>
        <time>2017-01-08T08:21:40.992Z</time>
      </trkpt>
      <trkpt lat="47.80488" lon="2.15081">
        <ele>99</ele>
        <time>2017-01-08T08:21:41.973Z</time>
      </trkpt>
      <trkpt lat="47.80488" lon="2.15092">
        <ele>99</ele>
        <time>2017-01-08T08:21:42.977Z</time>
      </trkpt>
      <trkpt lat="47.80488" lon="2.15092">
        <ele>99</ele>
        <time>2017-01-08T08:21:43.973Z</time>
      </trkpt>
      <trkpt lat="47.80488" lon="2.15103">
        <ele>100</ele>
        <time>2017-01-08T08:21:44.973Z</time>
      </trkpt>
      <trkpt lat="47.80487" lon="2.15109">
        <ele>100</ele>
        <time>2017-01-08T08:21:45.992Z</time>
      </trkpt>
      <trkpt lat="47.80487" lon="2.15109">
        <ele>100</ele>
        <time>2017-01-08T08:21:46.977Z</time>
      </trkpt>
      <trkpt lat="47.80487" lon="2.1512">
        <ele>99</ele>
        <time>2017-01-08T08:21:47.977Z</time>
      </trkpt>
      <trkpt lat="47.80487" lon="2.1512">
        <ele>99</ele>
        <time>2017-01-08T08:21:48.970Z</time>
      </trkpt>
      <trkpt lat="47.80487" lon="2.15131">
        <ele>99</ele>
        <time>2017-01-08T08:21:49.977Z</time>
      </trkpt>
      <trkpt lat="47.80487" lon="2.15131">
        <ele>99</ele>
        <time>2017-01-08T08:21:50.975Z</time>
      </trkpt>
      <trkpt lat="47.80486" lon="2.15142">
        <ele>99</ele>
        <time>2017-01-08T08:21:51.976Z</time>
      </trkpt>
      <trkpt lat="47.80486" lon="2.15148">
        <ele>99</ele>
        <time>2017-01-08T08:21:52.976Z</time>
      </trkpt>
      <trkpt lat="47.80486" lon="2.15148">
        <ele>99</ele>
        <time>2017-01-08T08:21:53.969Z</time>
      </trkpt>
      <trkpt lat="47.80485" lon="2.1516">
        <ele>99</ele>
        <time>2017-01-08T08:21:54.957Z</time>
      </trkpt>
      <trkpt lat="47.80485" lon="2.1516">
        <ele>99</ele>
        <time>2017-01-08T08:21:55.985Z</time>
      </trkpt>
      <trkpt lat="47.80485" lon="2.15171">
        <ele>99</ele>
        <time>2017-01-08T08:21:56.985Z</time>
      </trkpt>
      <trkpt lat="47.80485" lon="2.15177">
        <ele>99</ele>
        <time>2017-01-08T08:21:57.976Z</time>
      </trkpt>
      <trkpt lat="47.80485" lon="2.15183">
        <ele>100</ele>
        <time>2017-01-08T08:21:58.976Z</time>
      </trkpt>
      <trkpt lat="47.80485" lon="2.15183">
        <ele>100</ele>
        <time>2017-01-08T08:21:59.976Z</time>
      </trkpt>
      <trkpt lat="47.80485" lon="2.15194">
        <ele>100</ele>
        <time>2017-01-08T08:22:00.974Z</time>
      </trkpt>
      <trkpt lat="47.80485" lon="2.15194">
        <ele>100</ele>
        <time>2017-01-08T08:22:01.968Z</time>
      </trkpt>
      <trkpt lat="47.80484" lon="2.15206">
        <ele>100</ele>
        <time>2017-01-08T08:22:02.976Z</time>
      </trkpt>
      <trkpt lat="47.80484" lon="2.15206">
        <ele>100</ele>
        <time>2017-01-08T08:22:03.967Z</time>
      </trkpt>
      <trkpt lat="47.80484" lon="2.15217">
        <ele>100</ele>
        <time>2017-01-08T08:22:04.966Z</time>
      </trkpt>
      <trkpt lat="47.80484" lon="2.15223">
        <ele>100</ele>
        <time>2017-01-08T08:22:05.972Z</time>
      </trkpt>
      <trkpt lat="47.80484" lon="2.15228">
        <ele>100</ele>
        <time>2017-01-08T08:22:06.980Z</time>
      </trkpt>
      <trkpt lat="47.80484" lon="2.15228">
        <ele>100</ele>
        <time>2017-01-08T08:22:07.970Z</time>
      </trkpt>
      <trkpt lat="47.80483" lon="2.15239">
        <ele>100</ele>
        <time>2017-01-08T08:22:08.975Z</time>
      </trkpt>
      <trkpt lat="47.80483" lon="2.15239">
        <ele>100</ele>
        <time>2017-01-08T08:22:09.967Z</time>
      </trkpt>
      <trkpt lat="47.80482" lon="2.1525">
        <ele>100</ele>
        <time>2017-01-08T08:22:10.987Z</time>
      </trkpt>
      <trkpt lat="47.80482" lon="2.1525">
        <ele>100</ele>
        <time>2017-01-08T08:22:11.975Z</time>
      </trkpt>
      <trkpt lat="47.80482" lon="2.15262">
        <ele>100</ele>
        <time>2017-01-08T08:22:12.986Z</time>
      </trkpt>
      <trkpt lat="47.80482" lon="2.15262">
        <ele>100</ele>
        <time>2017-01-08T08:22:13.975Z</time>
      </trkpt>
      <trkpt lat="47.80482" lon="2.15274">
        <ele>100</ele>
        <time>2017-01-08T08:22:14.974Z</time>
      </trkpt>
      <trkpt lat="47.80482" lon="2.15274">
        <ele>100</ele>
        <time>2017-01-08T08:22:15.971Z</time>
      </trkpt>
      <trkpt lat="47.80482" lon="2.15286">
        <ele>100</ele>
        <time>2017-01-08T08:22:16.972Z</time>
      </trkpt>
      <trkpt lat="47.80482" lon="2.15286">
        <ele>100</ele>
        <time>2017-01-08T08:22:17.973Z</time>
      </trkpt>
      <trkpt lat="47.80481" lon="2.15297">
        <ele>100</ele>
        <time>2017-01-08T08:22:18.977Z</time>
      </trkpt>
      <trkpt lat="47.80481" lon="2.15297">
        <ele>100</ele>
        <time>2017-01-08T08:22:19.967Z</time>
      </trkpt>
      <trkpt lat="47.80481" lon="2.15309">
        <ele>100</ele>
        <time>2017-01-08T08:22:20.987Z</time>
      </trkpt>
      <trkpt lat="47.8048" lon="2.15315">
        <ele>100</ele>
        <time>2017-01-08T08:22:21.976Z</time>
      </trkpt>
      <trkpt lat="47.8048" lon="2.15321">
        <ele>100</ele>
        <time>2017-01-08T08:22:22.977Z</time>
      </trkpt>
      <trkpt lat="47.8048" lon="2.15321">
        <ele>100</ele>
        <time>2017-01-08T08:22:23.965Z</time>
      </trkpt>
      <trkpt lat="47.8048" lon="2.15332">
        <ele>100</ele>
        <time>2017-01-08T08:22:24.992Z</time>
      </trkpt>
      <trkpt lat="47.8048" lon="2.15332">
        <ele>100</ele>
        <time>2017-01-08T08:22:25.957Z</time>
      </trkpt>
      <trkpt lat="47.8048" lon="2.15344">
        <ele>100</ele>
        <time>2017-01-08T08:22:26.988Z</time>
      </trkpt>
      <trkpt lat="47.8048" lon="2.1535">
        <ele>100</ele>
        <time>2017-01-08T08:22:27.981Z</time>
      </trkpt>
      <trkpt lat="47.8048" lon="2.1535">
        <ele>100</ele>
        <time>2017-01-08T08:22:28.970Z</time>
      </trkpt>
      <trkpt lat="47.80481" lon="2.15361">
        <ele>101</ele>
        <time>2017-01-08T08:22:29.971Z</time>
      </trkpt>
      <trkpt lat="47.80481" lon="2.15367">
        <ele>101</ele>
        <time>2017-01-08T08:22:30.992Z</time>
      </trkpt>
      <trkpt lat="47.80481" lon="2.15367">
        <ele>101</ele>
        <time>2017-01-08T08:22:31.991Z</time>
      </trkpt>
      <trkpt lat="47.80481" lon="2.15378">
        <ele>102</ele>
        <time>2017-01-08T08:22:32.980Z</time>
      </trkpt>
      <trkpt lat="47.80481" lon="2.15384">
        <ele>102</ele>
        <time>2017-01-08T08:22:33.976Z</time>
      </trkpt>
      <trkpt lat="47.80481" lon="2.15384">
        <ele>102</ele>
        <time>2017-01-08T08:22:34.971Z</time>
      </trkpt>
      <trkpt lat="47.8048" lon="2.15395">
        <ele>102</ele>
        <time>2017-01-08T08:22:35.977Z</time>
      </trkpt>
      <trkpt lat="47.80481" lon="2.15401">
        <ele>102</ele>
        <time>2017-01-08T08:22:36.975Z</time>
      </trkpt>
      <trkpt lat="47.80481" lon="2.15401">
        <ele>102</ele>
        <time>2017-01-08T08:22:37.967Z</time>
      </trkpt>
      <trkpt lat="47.80481" lon="2.15413">
        <ele>102</ele>
        <time>2017-01-08T08:22:38.976Z</time>
      </trkpt>
      <trkpt lat="47.80481" lon="2.15413">
        <ele>102</ele>
        <time>2017-01-08T08:22:39.969Z</time>
      </trkpt>
      <trkpt lat="47.80481" lon="2.15424">
        <ele>102</ele>
        <time>2017-01-08T08:22:40.992Z</time>
      </trkpt>
      <trkpt lat="47.80481" lon="2.15424">
        <ele>102</ele>
        <time>2017-01-08T08:22:41.982Z</time>
      </trkpt>
      <trkpt lat="47.80482" lon="2.15436">
        <ele>102</ele>
        <time>2017-01-08T08:22:42.981Z</time>
      </trkpt>
      <trkpt lat="47.80482" lon="2.15436">
        <ele>102</ele>
        <time>2017-01-08T08:22:43.973Z</time>
      </trkpt>
      <trkpt lat="47.80483" lon="2.15447">
        <ele>101</ele>
        <time>2017-01-08T08:22:44.976Z</time>
      </trkpt>
      <trkpt lat="47.80483" lon="2.15447">
        <ele>101</ele>
        <time>2017-01-08T08:22:45.964Z</time>
      </trkpt>
      <trkpt lat="47.80485" lon="2.15458">
        <ele>101</ele>
        <time>2017-01-08T08:22:46.971Z</time>
      </trkpt>
      <trkpt lat="47.80485" lon="2.15458">
        <ele>101</ele>
        <time>2017-01-08T08:22:47.978Z</time>
      </trkpt>
      <trkpt lat="47.80486" lon="2.1547">
        <ele>102</ele>
        <time>2017-01-08T08:22:48.977Z</time>
      </trkpt>
      <trkpt lat="47.80486" lon="2.1547">
        <ele>102</ele>
        <time>2017-01-08T08:22:49.970Z</time>
      </trkpt>
      <trkpt lat="47.80489" lon="2.15481">
        <ele>102</ele>
        <time>2017-01-08T08:22:50.992Z</time>
      </trkpt>
      <trkpt lat="47.80489" lon="2.15481">
        <ele>102</ele>
        <time>2017-01-08T08:22:51.981Z</time>
      </trkpt>
      <trkpt lat="47.8049" lon="2.15492">
        <ele>102</ele>
        <time>2017-01-08T08:22:52.969Z</time>
      </trkpt>
      <trkpt lat="47.80491" lon="2.15497">
        <ele>102</ele>
        <time>2017-01-08T08:22:53.974Z</time>
      </trkpt>
      <trkpt lat="47.80492" lon="2.15503">
        <ele>102</ele>
        <time>2017-01-08T08:22:54.977Z</time>
      </trkpt>
      <trkpt lat="47.80492" lon="2.15503">
        <ele>102</ele>
        <time>2017-01-08T08:22:55.965Z</time>
      </trkpt>
      <trkpt lat="47.80493" lon="2.15514">
        <ele>101</ele>
        <time>2017-01-08T08:22:56.977Z</time>
      </trkpt>
      <trkpt lat="47.80493" lon="2.15514">
        <ele>101</ele>
        <time>2017-01-08T08:22:57.973Z</time>
      </trkpt>
      <trkpt lat="47.80495" lon="2.15526">
        <ele>101</ele>
        <time>2017-01-08T08:22:58.968Z</time>
      </trkpt>
      <trkpt lat="47.80495" lon="2.15526">
        <ele>101</ele>
        <time>2017-01-08T08:22:59.969Z</time>
      </trkpt>
      <trkpt lat="47.80496" lon="2.15538">
        <ele>101</ele>
        <time>2017-01-08T08:23:00.992Z</time>
      </trkpt>
      <trkpt lat="47.80497" lon="2.15544">
        <ele>100</ele>
        <time>2017-01-08T08:23:01.954Z</time>
      </trkpt>
      <trkpt lat="47.80497" lon="2.15544">
        <ele>100</ele>
        <time>2017-01-08T08:23:02.981Z</time>
      </trkpt>
      <trkpt lat="47.80499" lon="2.15555">
        <ele>100</ele>
        <time>2017-01-08T08:23:03.967Z</time>
      </trkpt>
      <trkpt lat="47.80499" lon="2.15555">
        <ele>100</ele>
        <time>2017-01-08T08:23:04.978Z</time>
      </trkpt>
      <trkpt lat="47.805" lon="2.15567">
        <ele>100</ele>
        <time>2017-01-08T08:23:05.976Z</time>
      </trkpt>
      <trkpt lat="47.80501" lon="2.15573">
        <ele>100</ele>
        <time>2017-01-08T08:23:06.977Z</time>
      </trkpt>
      <trkpt lat="47.80501" lon="2.15573">
        <ele>100</ele>
        <time>2017-01-08T08:23:07.966Z</time>
      </trkpt>
      <trkpt lat="47.80503" lon="2.15584">
        <ele>100</ele>
        <time>2017-01-08T08:23:08.971Z</time>
      </trkpt>
      <trkpt lat="47.80503" lon="2.15584">
        <ele>100</ele>
        <time>2017-01-08T08:23:09.958Z</time>
      </trkpt>
      <trkpt lat="47.80505" lon="2.15595">
        <ele>100</ele>
        <time>2017-01-08T08:23:10.987Z</time>
      </trkpt>
      <trkpt lat="47.80505" lon="2.15595">
        <ele>100</ele>
        <time>2017-01-08T08:23:11.977Z</time>
      </trkpt>
      <trkpt lat="47.80506" lon="2.15606">
        <ele>101</ele>
        <time>2017-01-08T08:23:12.979Z</time>
      </trkpt>
      <trkpt lat="47.80506" lon="2.15606">
        <ele>101</ele>
        <time>2017-01-08T08:23:13.970Z</time>
      </trkpt>
      <trkpt lat="47.80508" lon="2.15617">
        <ele>100</ele>
        <time>2017-01-08T08:23:14.973Z</time>
      </trkpt>
      <trkpt lat="47.80508" lon="2.15617">
        <ele>100</ele>
        <time>2017-01-08T08:23:15.970Z</time>
      </trkpt>
      <trkpt lat="47.80509" lon="2.15628">
        <ele>101</ele>
        <time>2017-01-08T08:23:16.976Z</time>
      </trkpt>
      <trkpt lat="47.80509" lon="2.15628">
        <ele>101</ele>
        <time>2017-01-08T08:23:17.970Z</time>
      </trkpt>
      <trkpt lat="47.80511" lon="2.15638">
        <ele>100</ele>
        <time>2017-01-08T08:23:18.957Z</time>
      </trkpt>
      <trkpt lat="47.80511" lon="2.15638">
        <ele>100</ele>
        <time>2017-01-08T08:23:19.988Z</time>
      </trkpt>
      <trkpt lat="47.80513" lon="2.15648">
        <ele>100</ele>
        <time>2017-01-08T08:23:20.977Z</time>
      </trkpt>
      <trkpt lat="47.80513" lon="2.15648">
        <ele>100</ele>
        <time>2017-01-08T08:23:21.965Z</time>
      </trkpt>
      <trkpt lat="47.80514" lon="2.15657">
        <ele>100</ele>
        <time>2017-01-08T08:23:22.973Z</time>
      </trkpt>
      <trkpt lat="47.80514" lon="2.15657">
        <ele>100</ele>
        <time>2017-01-08T08:23:23.969Z</time>
      </trkpt>
      <trkpt lat="47.80516" lon="2.15665">
        <ele>100</ele>
        <time>2017-01-08T08:23:24.958Z</time>
      </trkpt>
      <trkpt lat="47.80516" lon="2.15665">
        <ele>100</ele>
        <time>2017-01-08T08:23:25.988Z</time>
      </trkpt>
      <trkpt lat="47.80516" lon="2.15672">
        <ele>101</ele>
        <time>2017-01-08T08:23:26.983Z</time>
      </trkpt>
      <trkpt lat="47.80516" lon="2.15675">
        <ele>101</ele>
        <time>2017-01-08T08:23:27.972Z</time>
      </trkpt>
      <trkpt lat="47.80516" lon="2.15675">
        <ele>101</ele>
        <time>2017-01-08T08:23:28.966Z</time>
      </trkpt>
      <trkpt lat="47.80514" lon="2.15681">
        <ele>101</ele>
        <time>2017-01-08T08:23:29.976Z</time>
      </trkpt>
      <trkpt lat="47.80513" lon="2.15683">
        <ele>101</ele>
        <time>2017-01-08T08:23:30.979Z</time>
      </trkpt>
      <trkpt lat="47.80513" lon="2.15683">
        <ele>101</ele>
        <time>2017-01-08T08:23:31.977Z</time>
      </trkpt>
      <trkpt lat="47.80508" lon="2.15688">
        <ele>100</ele>
        <time>2017-01-08T08:23:32.978Z</time>
      </trkpt>
      <trkpt lat="47.80507" lon="2.15691">
        <ele>100</ele>
        <time>2017-01-08T08:23:33.974Z</time>
      </trkpt>
      <trkpt lat="47.80507" lon="2.15691">
        <ele>100</ele>
        <time>2017-01-08T08:23:34.967Z</time>
      </trkpt>
      <trkpt lat="47.80505" lon="2.15699">
        <ele>101</ele>
        <time>2017-01-08T08:23:35.975Z</time>
      </trkpt>
      <trkpt lat="47.80505" lon="2.15699">
        <ele>101</ele>
        <time>2017-01-08T08:23:36.968Z</time>
      </trkpt>
      <trkpt lat="47.80505" lon="2.15708">
        <ele>101</ele>
        <time>2017-01-08T08:23:37.964Z</time>
      </trkpt>
      <trkpt lat="47.80505" lon="2.15708">
        <ele>101</ele>
        <time>2017-01-08T08:23:38.992Z</time>
      </trkpt>
      <trkpt lat="47.80505" lon="2.15715">
        <ele>101</ele>
        <time>2017-01-08T08:23:39.981Z</time>
      </trkpt>
      <trkpt lat="47.80505" lon="2.15715">
        <ele>101</ele>
        <time>2017-01-08T08:23:40.967Z</time>
      </trkpt>
      <trkpt lat="47.80505" lon="2.15722">
        <ele>102</ele>
        <time>2017-01-08T08:23:41.976Z</time>
      </trkpt>
      <trkpt lat="47.80505" lon="2.15722">
        <ele>102</ele>
        <time>2017-01-08T08:23:42.967Z</time>
      </trkpt>
      <trkpt lat="47.80504" lon="2.1573">
        <ele>102</ele>
        <time>2017-01-08T08:23:43.975Z</time>
      </trkpt>
      <trkpt lat="47.80504" lon="2.1573">
        <ele>102</ele>
        <time>2017-01-08T08:23:44.963Z</time>
      </trkpt>
      <trkpt lat="47.80503" lon="2.15738">
        <ele>102</ele>
        <time>2017-01-08T08:23:45.993Z</time>
      </trkpt>
      <trkpt lat="47.80503" lon="2.15738">
        <ele>102</ele>
        <time>2017-01-08T08:23:46.981Z</time>
      </trkpt>
      <trkpt lat="47.80502" lon="2.15747">
        <ele>103</ele>
        <time>2017-01-08T08:23:47.954Z</time>
      </trkpt>
      <trkpt lat="47.80502" lon="2.15751">
        <ele>103</ele>
        <time>2017-01-08T08:23:48.993Z</time>
      </trkpt>
      <trkpt lat="47.80502" lon="2.15751">
        <ele>103</ele>
        <time>2017-01-08T08:23:49.982Z</time>
      </trkpt>
      <trkpt lat="47.805" lon="2.15761">
        <ele>103</ele>
        <time>2017-01-08T08:23:50.966Z</time>
      </trkpt>
      <trkpt lat="47.80499" lon="2.15765">
        <ele>103</ele>
        <time>2017-01-08T08:23:51.976Z</time>
      </trkpt>
      <trkpt lat="47.80499" lon="2.15765">
        <ele>103</ele>
        <time>2017-01-08T08:23:52.967Z</time>
      </trkpt>
      <trkpt lat="47.80496" lon="2.15774">
        <ele>104</ele>
        <time>2017-01-08T08:23:53.976Z</time>
      </trkpt>
      <trkpt lat="47.80494" lon="2.15778">
        <ele>105</ele>
        <time>2017-01-08T08:23:54.977Z</time>
      </trkpt>
      <trkpt lat="47.80494" lon="2.15778">
        <ele>105</ele>
        <time>2017-01-08T08:23:55.966Z</time>
      </trkpt>
      <trkpt lat="47.80488" lon="2.15787">
        <ele>104</ele>
        <time>2017-01-08T08:23:56.974Z</time>
      </trkpt>
      <trkpt lat="47.80488" lon="2.15787">
        <ele>104</ele>
        <time>2017-01-08T08:23:57.969Z</time>
      </trkpt>
      <trkpt lat="47.80481" lon="2.15794">
        <ele>105</ele>
        <time>2017-01-08T08:23:58.973Z</time>
      </trkpt>
      <trkpt lat="47.80481" lon="2.15794">
        <ele>105</ele>
        <time>2017-01-08T08:23:59.966Z</time>
      </trkpt>
      <trkpt lat="47.80474" lon="2.15802">
        <ele>104</ele>
        <time>2017-01-08T08:24:00.987Z</time>
      </trkpt>
      <trkpt lat="47.80474" lon="2.15802">
        <ele>104</ele>
        <time>2017-01-08T08:24:01.976Z</time>
      </trkpt>
      <trkpt lat="47.80467" lon="2.15809">
        <ele>104</ele>
        <time>2017-01-08T08:24:02.976Z</time>
      </trkpt>
      <trkpt lat="47.80467" lon="2.15809">
        <ele>104</ele>
        <time>2017-01-08T08:24:03.993Z</time>
      </trkpt>
      <trkpt lat="47.8046" lon="2.15817">
        <ele>104</ele>
        <time>2017-01-08T08:24:04.993Z</time>
      </trkpt>
      <trkpt lat="47.80457" lon="2.15821">
        <ele>104</ele>
        <time>2017-01-08T08:24:05.985Z</time>
      </trkpt>
      <trkpt lat="47.80457" lon="2.15821">
        <ele>104</ele>
        <time>2017-01-08T08:24:06.978Z</time>
      </trkpt>
      <trkpt lat="47.80452" lon="2.1583">
        <ele>104</ele>
        <time>2017-01-08T08:24:07.974Z</time>
      </trkpt>
      <trkpt lat="47.8045" lon="2.15835">
        <ele>104</ele>
        <time>2017-01-08T08:24:08.977Z</time>
      </trkpt>
      <trkpt lat="47.8045" lon="2.15835">
        <ele>104</ele>
        <time>2017-01-08T08:24:09.977Z</time>
      </trkpt>
      <trkpt lat="47.80447" lon="2.15847">
        <ele>104</ele>
        <time>2017-01-08T08:24:10.976Z</time>
      </trkpt>
      <trkpt lat="47.80447" lon="2.15847">
        <ele>104</ele>
        <time>2017-01-08T08:24:11.973Z</time>
      </trkpt>
      <trkpt lat="47.80445" lon="2.1586">
        <ele>104</ele>
        <time>2017-01-08T08:24:12.978Z</time>
      </trkpt>
      <trkpt lat="47.80445" lon="2.1586">
        <ele>104</ele>
        <time>2017-01-08T08:24:13.966Z</time>
      </trkpt>
      <trkpt lat="47.80443" lon="2.15873">
        <ele>104</ele>
        <time>2017-01-08T08:24:14.977Z</time>
      </trkpt>
      <trkpt lat="47.80443" lon="2.15873">
        <ele>104</ele>
        <time>2017-01-08T08:24:15.972Z</time>
      </trkpt>
      <trkpt lat="47.8044" lon="2.15885">
        <ele>104</ele>
        <time>2017-01-08T08:24:16.973Z</time>
      </trkpt>
      <trkpt lat="47.80438" lon="2.15891">
        <ele>104</ele>
        <time>2017-01-08T08:24:17.977Z</time>
      </trkpt>
      <trkpt lat="47.80437" lon="2.15896">
        <ele>104</ele>
        <time>2017-01-08T08:24:18.975Z</time>
      </trkpt>
      <trkpt lat="47.80437" lon="2.15896">
        <ele>104</ele>
        <time>2017-01-08T08:24:19.971Z</time>
      </trkpt>
      <trkpt lat="47.80433" lon="2.15905">
        <ele>104</ele>
        <time>2017-01-08T08:24:20.993Z</time>
      </trkpt>
      <trkpt lat="47.80432" lon="2.1591">
        <ele>104</ele>
        <time>2017-01-08T08:24:21.982Z</time>
      </trkpt>
      <trkpt lat="47.80432" lon="2.1591">
        <ele>104</ele>
        <time>2017-01-08T08:24:22.972Z</time>
      </trkpt>
      <trkpt lat="47.80429" lon="2.1592">
        <ele>105</ele>
        <time>2017-01-08T08:24:23.974Z</time>
      </trkpt>
      <trkpt lat="47.80428" lon="2.15925">
        <ele>105</ele>
        <time>2017-01-08T08:24:24.979Z</time>
      </trkpt>
      <trkpt lat="47.80428" lon="2.15925">
        <ele>105</ele>
        <time>2017-01-08T08:24:25.967Z</time>
      </trkpt>
      <trkpt lat="47.80425" lon="2.15935">
        <ele>105</ele>
        <time>2017-01-08T08:24:26.985Z</time>
      </trkpt>
      <trkpt lat="47.80423" lon="2.1594">
        <ele>105</ele>
        <time>2017-01-08T08:24:27.976Z</time>
      </trkpt>
      <trkpt lat="47.80421" lon="2.15946">
        <ele>105</ele>
        <time>2017-01-08T08:24:28.977Z</time>
      </trkpt>
      <trkpt lat="47.8042" lon="2.15951">
        <ele>105</ele>
        <time>2017-01-08T08:24:29.972Z</time>
      </trkpt>
      <trkpt lat="47.8042" lon="2.15951">
        <ele>105</ele>
        <time>2017-01-08T08:24:30.993Z</time>
      </trkpt>
      <trkpt lat="47.80416" lon="2.15962">
        <ele>105</ele>
        <time>2017-01-08T08:24:31.981Z</time>
      </trkpt>
      <trkpt lat="47.80416" lon="2.15962">
        <ele>105</ele>
        <time>2017-01-08T08:24:32.970Z</time>
      </trkpt>
      <trkpt lat="47.80412" lon="2.15973">
        <ele>105</ele>
        <time>2017-01-08T08:24:33.976Z</time>
      </trkpt>
      <trkpt lat="47.80412" lon="2.15973">
        <ele>105</ele>
        <time>2017-01-08T08:24:34.976Z</time>
      </trkpt>
      <trkpt lat="47.80409" lon="2.15984">
        <ele>106</ele>
        <time>2017-01-08T08:24:35.972Z</time>
      </trkpt>
      <trkpt lat="47.80407" lon="2.15988">
        <ele>106</ele>
        <time>2017-01-08T08:24:36.972Z</time>
      </trkpt>
      <trkpt lat="47.80405" lon="2.15993">
        <ele>106</ele>
        <time>2017-01-08T08:24:37.963Z</time>
      </trkpt>
      <trkpt lat="47.80405" lon="2.15993">
        <ele>106</ele>
        <time>2017-01-08T08:24:38.993Z</time>
      </trkpt>
      <trkpt lat="47.80401" lon="2.16002">
        <ele>106</ele>
        <time>2017-01-08T08:24:39.983Z</time>
      </trkpt>
      <trkpt lat="47.804" lon="2.16006">
        <ele>106</ele>
        <time>2017-01-08T08:24:40.975Z</time>
      </trkpt>
      <trkpt lat="47.804" lon="2.16006">
        <ele>106</ele>
        <time>2017-01-08T08:24:41.965Z</time>
      </trkpt>
      <trkpt lat="47.80397" lon="2.16017">
        <ele>106</ele>
        <time>2017-01-08T08:24:42.960Z</time>
      </trkpt>
      <trkpt lat="47.80396" lon="2.16021">
        <ele>107</ele>
        <time>2017-01-08T08:24:43.983Z</time>
      </trkpt>
      <trkpt lat="47.80396" lon="2.16021">
        <ele>107</ele>
        <time>2017-01-08T08:24:44.972Z</time>
      </trkpt>
      <trkpt lat="47.80394" lon="2.16031">
        <ele>107</ele>
        <time>2017-01-08T08:24:45.973Z</time>
      </trkpt>
      <trkpt lat="47.80394" lon="2.16031">
        <ele>107</ele>
        <time>2017-01-08T08:24:46.972Z</time>
      </trkpt>
      <trkpt lat="47.80394" lon="2.16042">
        <ele>107</ele>
        <time>2017-01-08T08:24:47.971Z</time>
      </trkpt>
      <trkpt lat="47.80394" lon="2.16042">
        <ele>107</ele>
        <time>2017-01-08T08:24:48.992Z</time>
      </trkpt>
      <trkpt lat="47.80392" lon="2.16053">
        <ele>108</ele>
        <time>2017-01-08T08:24:49.982Z</time>
      </trkpt>
      <trkpt lat="47.80392" lon="2.16053">
        <ele>108</ele>
        <time>2017-01-08T08:24:50.963Z</time>
      </trkpt>
      <trkpt lat="47.80389" lon="2.16064">
        <ele>108</ele>
        <time>2017-01-08T08:24:51.973Z</time>
      </trkpt>
      <trkpt lat="47.80388" lon="2.1607">
        <ele>109</ele>
        <time>2017-01-08T08:24:52.977Z</time>
      </trkpt>
      <trkpt lat="47.80388" lon="2.1607">
        <ele>109</ele>
        <time>2017-01-08T08:24:53.967Z</time>
      </trkpt>
      <trkpt lat="47.80387" lon="2.1608">
        <ele>110</ele>
        <time>2017-01-08T08:24:54.979Z</time>
      </trkpt>
      <trkpt lat="47.80387" lon="2.1608">
        <ele>110</ele>
        <time>2017-01-08T08:24:55.971Z</time>
      </trkpt>
      <trkpt lat="47.80384" lon="2.16089">
        <ele>111</ele>
        <time>2017-01-08T08:24:56.976Z</time>
      </trkpt>
      <trkpt lat="47.80384" lon="2.16095">
        <ele>111</ele>
        <time>2017-01-08T08:24:57.973Z</time>
      </trkpt>
      <trkpt lat="47.80384" lon="2.16095">
        <ele>111</ele>
        <time>2017-01-08T08:24:58.970Z</time>
      </trkpt>
      <trkpt lat="47.80382" lon="2.16105">
        <ele>112</ele>
        <time>2017-01-08T08:24:59.972Z</time>
      </trkpt>
      <trkpt lat="47.80381" lon="2.1611">
        <ele>112</ele>
        <time>2017-01-08T08:25:00.976Z</time>
      </trkpt>
      <trkpt lat="47.80381" lon="2.1611">
        <ele>112</ele>
        <time>2017-01-08T08:25:01.971Z</time>
      </trkpt>
      <trkpt lat="47.8038" lon="2.16125">
        <ele>112</ele>
        <time>2017-01-08T08:25:02.975Z</time>
      </trkpt>
      <trkpt lat="47.8038" lon="2.16125">
        <ele>112</ele>
        <time>2017-01-08T08:25:03.986Z</time>
      </trkpt>
      <trkpt lat="47.80376" lon="2.16138">
        <ele>113</ele>
        <time>2017-01-08T08:25:04.976Z</time>
      </trkpt>
      <trkpt lat="47.80375" lon="2.16143">
        <ele>113</ele>
        <time>2017-01-08T08:25:05.954Z</time>
      </trkpt>
      <trkpt lat="47.80375" lon="2.16143">
        <ele>113</ele>
        <time>2017-01-08T08:25:06.982Z</time>
      </trkpt>
      <trkpt lat="47.80372" lon="2.16156">
        <ele>114</ele>
        <time>2017-01-08T08:25:07.976Z</time>
      </trkpt>
      <trkpt lat="47.80371" lon="2.16162">
        <ele>114</ele>
        <time>2017-01-08T08:25:08.977Z</time>
      </trkpt>
      <trkpt lat="47.80371" lon="2.16162">
        <ele>114</ele>
        <time>2017-01-08T08:25:09.976Z</time>
      </trkpt>
      <trkpt lat="47.80368" lon="2.16175">
        <ele>114</ele>
        <time>2017-01-08T08:25:10.977Z</time>
      </trkpt>
      <trkpt lat="47.80368" lon="2.16175">
        <ele>114</ele>
        <time>2017-01-08T08:25:11.971Z</time>
      </trkpt>
      <trkpt lat="47.80366" lon="2.16187">
        <ele>115</ele>
        <time>2017-01-08T08:25:12.972Z</time>
      </trkpt>
      <trkpt lat="47.80365" lon="2.16193">
        <ele>115</ele>
        <time>2017-01-08T08:25:13.966Z</time>
      </trkpt>
      <trkpt lat="47.80365" lon="2.16193">
        <ele>115</ele>
        <time>2017-01-08T08:25:14.964Z</time>
      </trkpt>
      <trkpt lat="47.80362" lon="2.16204">
        <ele>116</ele>
        <time>2017-01-08T08:25:15.993Z</time>
      </trkpt>
      <trkpt lat="47.80362" lon="2.16204">
        <ele>116</ele>
        <time>2017-01-08T08:25:16.981Z</time>
      </trkpt>
      <trkpt lat="47.80361" lon="2.16216">
        <ele>117</ele>
        <time>2017-01-08T08:25:17.976Z</time>
      </trkpt>
      <trkpt lat="47.8036" lon="2.1622">
        <ele>117</ele>
        <time>2017-01-08T08:25:18.978Z</time>
      </trkpt>
      <trkpt lat="47.8036" lon="2.1622">
        <ele>117</ele>
        <time>2017-01-08T08:25:19.976Z</time>
      </trkpt>
      <trkpt lat="47.80358" lon="2.1623">
        <ele>117</ele>
        <time>2017-01-08T08:25:20.962Z</time>
      </trkpt>
      <trkpt lat="47.80358" lon="2.1623">
        <ele>117</ele>
        <time>2017-01-08T08:25:21.993Z</time>
      </trkpt>
      <trkpt lat="47.80358" lon="2.16239">
        <ele>118</ele>
        <time>2017-01-08T08:25:22.982Z</time>
      </trkpt>
      <trkpt lat="47.80358" lon="2.16239">
        <ele>118</ele>
        <time>2017-01-08T08:25:23.974Z</time>
      </trkpt>
      <trkpt lat="47.80356" lon="2.16246">
        <ele>117</ele>
        <time>2017-01-08T08:25:24.975Z</time>
      </trkpt>
      <trkpt lat="47.80356" lon="2.16246">
        <ele>117</ele>
        <time>2017-01-08T08:25:25.969Z</time>
      </trkpt>
      <trkpt lat="47.80357" lon="2.16255">
        <ele>117</ele>
        <time>2017-01-08T08:25:26.978Z</time>
      </trkpt>
      <trkpt lat="47.80357" lon="2.16255">
        <ele>117</ele>
        <time>2017-01-08T08:25:27.974Z</time>
      </trkpt>
      <trkpt lat="47.80357" lon="2.16262">
        <ele>117</ele>
        <time>2017-01-08T08:25:28.976Z</time>
      </trkpt>
      <trkpt lat="47.80357" lon="2.16262">
        <ele>117</ele>
        <time>2017-01-08T08:25:29.970Z</time>
      </trkpt>
      <trkpt lat="47.80357" lon="2.1627">
        <ele>117</ele>
        <time>2017-01-08T08:25:30.976Z</time>
      </trkpt>
      <trkpt lat="47.80357" lon="2.1627">
        <ele>117</ele>
        <time>2017-01-08T08:25:31.969Z</time>
      </trkpt>
      <trkpt lat="47.80357" lon="2.16278">
        <ele>116</ele>
        <time>2017-01-08T08:25:32.976Z</time>
      </trkpt>
      <trkpt lat="47.80357" lon="2.16278">
        <ele>116</ele>
        <time>2017-01-08T08:25:33.973Z</time>
      </trkpt>
      <trkpt lat="47.80355" lon="2.16285">
        <ele>116</ele>
        <time>2017-01-08T08:25:34.977Z</time>
      </trkpt>
      <trkpt lat="47.80354" lon="2.16287">
        <ele>116</ele>
        <time>2017-01-08T08:25:35.972Z</time>
      </trkpt>
      <trkpt lat="47.80354" lon="2.16287">
        <ele>116</ele>
        <time>2017-01-08T08:25:36.970Z</time>
      </trkpt>
      <trkpt lat="47.80354" lon="2.16293">
        <ele>116</ele>
        <time>2017-01-08T08:25:37.974Z</time>
      </trkpt>
      <trkpt lat="47.80354" lon="2.16293">
        <ele>116</ele>
        <time>2017-01-08T08:25:38.969Z</time>
      </trkpt>
      <trkpt lat="47.80352" lon="2.16296">
        <ele>116</ele>
        <time>2017-01-08T08:25:39.976Z</time>
      </trkpt>
      <trkpt lat="47.80352" lon="2.16297">
        <ele>116</ele>
        <time>2017-01-08T08:25:40.972Z</time>
      </trkpt>
      <trkpt lat="47.80352" lon="2.16297">
        <ele>116</ele>
        <time>2017-01-08T08:25:41.964Z</time>
      </trkpt>
      <trkpt lat="47.80351" lon="2.163">
        <ele>115</ele>
        <time>2017-01-08T08:25:42.967Z</time>
      </trkpt>
      <trkpt lat="47.80351" lon="2.163">
        <ele>115</ele>
        <time>2017-01-08T08:25:43.972Z</time>
      </trkpt>
      <trkpt lat="47.80352" lon="2.16302">
        <ele>115</ele>
        <time>2017-01-08T08:25:44.963Z</time>
      </trkpt>
      <trkpt lat="47.80352" lon="2.16302">
        <ele>115</ele>
        <time>2017-01-08T08:25:45.967Z</time>
      </trkpt>
      <trkpt lat="47.8035" lon="2.1631">
        <ele>115</ele>
        <time>2017-01-08T08:25:46.976Z</time>
      </trkpt>
      <trkpt lat="47.8035" lon="2.1631">
        <ele>115</ele>
        <time>2017-01-08T08:25:47.976Z</time>
      </trkpt>
      <trkpt lat="47.8035" lon="2.1631">
        <ele>115</ele>
        <time>2017-01-08T08:25:48.985Z</time>
      </trkpt>
      <trkpt lat="47.80346" lon="2.16322">
        <ele>115</ele>
        <time>2017-01-08T08:25:49.979Z</time>
      </trkpt>
      <trkpt lat="47.80345" lon="2.16325">
        <ele>115</ele>
        <time>2017-01-08T08:25:50.968Z</time>
      </trkpt>
      <trkpt lat="47.80345" lon="2.16325">
        <ele>115</ele>
        <time>2017-01-08T08:25:51.957Z</time>
      </trkpt>
      <trkpt lat="47.80343" lon="2.16329">
        <ele>114</ele>
        <time>2017-01-08T08:25:52.986Z</time>
      </trkpt>
      <trkpt lat="47.80343" lon="2.16329">
        <ele>114</ele>
        <time>2017-01-08T08:25:53.974Z</time>
      </trkpt>
      <trkpt lat="47.80342" lon="2.16335">
        <ele>114</ele>
        <time>2017-01-08T08:25:54.963Z</time>
      </trkpt>
      <trkpt lat="47.80342" lon="2.16335">
        <ele>114</ele>
        <time>2017-01-08T08:25:55.993Z</time>
      </trkpt>
      <trkpt lat="47.8034" lon="2.16341">
        <ele>114</ele>
        <time>2017-01-08T08:25:56.991Z</time>
      </trkpt>
      <trkpt lat="47.8034" lon="2.16344">
        <ele>114</ele>
        <time>2017-01-08T08:25:57.989Z</time>
      </trkpt>
      <trkpt lat="47.8034" lon="2.16344">
        <ele>114</ele>
        <time>2017-01-08T08:25:58.978Z</time>
      </trkpt>
      <trkpt lat="47.80339" lon="2.1635">
        <ele>114</ele>
        <time>2017-01-08T08:25:59.984Z</time>
      </trkpt>
      <trkpt lat="47.80339" lon="2.1635">
        <ele>114</ele>
        <time>2017-01-08T08:26:00.980Z</time>
      </trkpt>
      <trkpt lat="47.80338" lon="2.16356">
        <ele>114</ele>
        <time>2017-01-08T08:26:01.969Z</time>
      </trkpt>
      <trkpt lat="47.80338" lon="2.16356">
        <ele>114</ele>
        <time>2017-01-08T08:26:02.958Z</time>
      </trkpt>
      <trkpt lat="47.80337" lon="2.16361">
        <ele>114</ele>
        <time>2017-01-08T08:26:03.985Z</time>
      </trkpt>
      <trkpt lat="47.80336" lon="2.16364">
        <ele>114</ele>
        <time>2017-01-08T08:26:04.988Z</time>
      </trkpt>
      <trkpt lat="47.80336" lon="2.16364">
        <ele>114</ele>
        <time>2017-01-08T08:26:05.978Z</time>
      </trkpt>
      <trkpt lat="47.80336" lon="2.1637">
        <ele>114</ele>
        <time>2017-01-08T08:26:06.967Z</time>
      </trkpt>
      <trkpt lat="47.80336" lon="2.16373">
        <ele>114</ele>
        <time>2017-01-08T08:26:07.964Z</time>
      </trkpt>
      <trkpt lat="47.80336" lon="2.16373">
        <ele>114</ele>
        <time>2017-01-08T08:26:08.993Z</time>
      </trkpt>
      <trkpt lat="47.80335" lon="2.16379">
        <ele>114</ele>
        <time>2017-01-08T08:26:09.992Z</time>
      </trkpt>
      <trkpt lat="47.80335" lon="2.16379">
        <ele>114</ele>
        <time>2017-01-08T08:26:10.980Z</time>
      </trkpt>
      <trkpt lat="47.80333" lon="2.16383">
        <ele>114</ele>
        <time>2017-01-08T08:26:11.968Z</time>
      </trkpt>
      <trkpt lat="47.80333" lon="2.16383">
        <ele>114</ele>
        <time>2017-01-08T08:26:12.957Z</time>
      </trkpt>
      <trkpt lat="47.80332" lon="2.16385">
        <ele>114</ele>
        <time>2017-01-08T08:26:13.987Z</time>
      </trkpt>
      <trkpt lat="47.80332" lon="2.16385">
        <ele>114</ele>
        <time>2017-01-08T08:26:14.984Z</time>
      </trkpt>
      <trkpt lat="47.80332" lon="2.16386">
        <ele>113</ele>
        <time>2017-01-08T08:26:15.975Z</time>
      </trkpt>
      <trkpt lat="47.80327" lon="2.16397">
        <ele>109</ele>
        <time>2017-01-08T08:26:16.985Z</time>
      </trkpt>
      <trkpt lat="47.80327" lon="2.16397">
        <ele>109</ele>
        <time>2017-01-08T08:26:17.977Z</time>
      </trkpt>
      <trkpt lat="47.80325" lon="2.16404">
        <ele>109</ele>
        <time>2017-01-08T08:26:18.986Z</time>
      </trkpt>
      <trkpt lat="47.80325" lon="2.16404">
        <ele>109</ele>
        <time>2017-01-08T08:26:19.977Z</time>
      </trkpt>
      <trkpt lat="47.80324" lon="2.1641">
        <ele>109</ele>
        <time>2017-01-08T08:26:20.970Z</time>
      </trkpt>
      <trkpt lat="47.80323" lon="2.16414">
        <ele>109</ele>
        <time>2017-01-08T08:26:21.971Z</time>
      </trkpt>
      <trkpt lat="47.80323" lon="2.16417">
        <ele>109</ele>
        <time>2017-01-08T08:26:22.966Z</time>
      </trkpt>
      <trkpt lat="47.80323" lon="2.16417">
        <ele>109</ele>
        <time>2017-01-08T08:26:23.968Z</time>
      </trkpt>
      <trkpt lat="47.80322" lon="2.16423">
        <ele>109</ele>
        <time>2017-01-08T08:26:24.969Z</time>
      </trkpt>
      <trkpt lat="47.80322" lon="2.16423">
        <ele>109</ele>
        <time>2017-01-08T08:26:25.957Z</time>
      </trkpt>
      <trkpt lat="47.80321" lon="2.16431">
        <ele>110</ele>
        <time>2017-01-08T08:26:26.986Z</time>
      </trkpt>
      <trkpt lat="47.8032" lon="2.16435">
        <ele>110</ele>
        <time>2017-01-08T08:26:27.985Z</time>
      </trkpt>
      <trkpt lat="47.8032" lon="2.16438">
        <ele>110</ele>
        <time>2017-01-08T08:26:28.975Z</time>
      </trkpt>
      <trkpt lat="47.8032" lon="2.16438">
        <ele>110</ele>
        <time>2017-01-08T08:26:29.962Z</time>
      </trkpt>
      <trkpt lat="47.80319" lon="2.16443">
        <ele>110</ele>
        <time>2017-01-08T08:26:30.990Z</time>
      </trkpt>
      <trkpt lat="47.80319" lon="2.16443">
        <ele>110</ele>
        <time>2017-01-08T08:26:31.978Z</time>
      </trkpt>
      <trkpt lat="47.80319" lon="2.1645">
        <ele>110</ele>
        <time>2017-01-08T08:26:32.974Z</time>
      </trkpt>
      <trkpt lat="47.80319" lon="2.1645">
        <ele>110</ele>
        <time>2017-01-08T08:26:33.961Z</time>
      </trkpt>
      <trkpt lat="47.80318" lon="2.16458">
        <ele>111</ele>
        <time>2017-01-08T08:26:34.963Z</time>
      </trkpt>
      <trkpt lat="47.80317" lon="2.16461">
        <ele>111</ele>
        <time>2017-01-08T08:26:35.969Z</time>
      </trkpt>
      <trkpt lat="47.80316" lon="2.16465">
        <ele>111</ele>
        <time>2017-01-08T08:26:36.962Z</time>
      </trkpt>
      <trkpt lat="47.80315" lon="2.16469">
        <ele>111</ele>
        <time>2017-01-08T08:26:37.956Z</time>
      </trkpt>
      <trkpt lat="47.80314" lon="2.16472">
        <ele>111</ele>
        <time>2017-01-08T08:26:38.988Z</time>
      </trkpt>
      <trkpt lat="47.80314" lon="2.16472">
        <ele>111</ele>
        <time>2017-01-08T08:26:39.975Z</time>
      </trkpt>
      <trkpt lat="47.80311" lon="2.16481">
        <ele>112</ele>
        <time>2017-01-08T08:26:40.976Z</time>
      </trkpt>
      <trkpt lat="47.80311" lon="2.16481">
        <ele>112</ele>
        <time>2017-01-08T08:26:41.964Z</time>
      </trkpt>
      <trkpt lat="47.80309" lon="2.16489">
        <ele>112</ele>
        <time>2017-01-08T08:26:42.992Z</time>
      </trkpt>
      <trkpt lat="47.80309" lon="2.16489">
        <ele>112</ele>
        <time>2017-01-08T08:26:43.979Z</time>
      </trkpt>
      <trkpt lat="47.80308" lon="2.16495">
        <ele>112</ele>
        <time>2017-01-08T08:26:44.976Z</time>
      </trkpt>
      <trkpt lat="47.80308" lon="2.16495">
        <ele>112</ele>
        <time>2017-01-08T08:26:45.964Z</time>
      </trkpt>
      <trkpt lat="47.80307" lon="2.165">
        <ele>113</ele>
        <time>2017-01-08T08:26:46.969Z</time>
      </trkpt>
      <trkpt lat="47.80307" lon="2.165">
        <ele>113</ele>
        <time>2017-01-08T08:26:47.958Z</time>
      </trkpt>
      <trkpt lat="47.80304" lon="2.1651">
        <ele>113</ele>
        <time>2017-01-08T08:26:48.987Z</time>
      </trkpt>
      <trkpt lat="47.80304" lon="2.1651">
        <ele>113</ele>
        <time>2017-01-08T08:26:49.974Z</time>
      </trkpt>
      <trkpt lat="47.80302" lon="2.1652">
        <ele>113</ele>
        <time>2017-01-08T08:26:50.969Z</time>
      </trkpt>
      <trkpt lat="47.80302" lon="2.1652">
        <ele>113</ele>
        <time>2017-01-08T08:26:51.957Z</time>
      </trkpt>
      <trkpt lat="47.803" lon="2.16527">
        <ele>114</ele>
        <time>2017-01-08T08:26:52.988Z</time>
      </trkpt>
      <trkpt lat="47.803" lon="2.16527">
        <ele>114</ele>
        <time>2017-01-08T08:26:53.993Z</time>
      </trkpt>
      <trkpt lat="47.80298" lon="2.16533">
        <ele>114</ele>
        <time>2017-01-08T08:26:54.984Z</time>
      </trkpt>
      <trkpt lat="47.80298" lon="2.16533">
        <ele>114</ele>
        <time>2017-01-08T08:26:55.971Z</time>
      </trkpt>
      <trkpt lat="47.80297" lon="2.16539">
        <ele>115</ele>
        <time>2017-01-08T08:26:56.973Z</time>
      </trkpt>
      <trkpt lat="47.80297" lon="2.16539">
        <ele>115</ele>
        <time>2017-01-08T08:26:57.961Z</time>
      </trkpt>
      <trkpt lat="47.80295" lon="2.16546">
        <ele>115</ele>
        <time>2017-01-08T08:26:58.964Z</time>
      </trkpt>
      <trkpt lat="47.80295" lon="2.16551">
        <ele>115</ele>
        <time>2017-01-08T08:26:59.993Z</time>
      </trkpt>
      <trkpt lat="47.80295" lon="2.16551">
        <ele>115</ele>
        <time>2017-01-08T08:27:00.984Z</time>
      </trkpt>
      <trkpt lat="47.80294" lon="2.16559">
        <ele>115</ele>
        <time>2017-01-08T08:27:01.975Z</time>
      </trkpt>
      <trkpt lat="47.80294" lon="2.16559">
        <ele>115</ele>
        <time>2017-01-08T08:27:02.958Z</time>
      </trkpt>
      <trkpt lat="47.80292" lon="2.16569">
        <ele>115</ele>
        <time>2017-01-08T08:27:03.984Z</time>
      </trkpt>
      <trkpt lat="47.80292" lon="2.16569">
        <ele>115</ele>
        <time>2017-01-08T08:27:04.973Z</time>
      </trkpt>
      <trkpt lat="47.80292" lon="2.16577">
        <ele>115</ele>
        <time>2017-01-08T08:27:05.962Z</time>
      </trkpt>
      <trkpt lat="47.80291" lon="2.16582">
        <ele>115</ele>
        <time>2017-01-08T08:27:06.968Z</time>
      </trkpt>
      <trkpt lat="47.8029" lon="2.16587">
        <ele>115</ele>
        <time>2017-01-08T08:27:07.961Z</time>
      </trkpt>
      <trkpt lat="47.80289" lon="2.16591">
        <ele>115</ele>
        <time>2017-01-08T08:27:08.990Z</time>
      </trkpt>
      <trkpt lat="47.80289" lon="2.16591">
        <ele>115</ele>
        <time>2017-01-08T08:27:09.978Z</time>
      </trkpt>
      <trkpt lat="47.80288" lon="2.16598">
        <ele>116</ele>
        <time>2017-01-08T08:27:10.973Z</time>
      </trkpt>
      <trkpt lat="47.80288" lon="2.16598">
        <ele>116</ele>
        <time>2017-01-08T08:27:11.960Z</time>
      </trkpt>
      <trkpt lat="47.80288" lon="2.16605">
        <ele>116</ele>
        <time>2017-01-08T08:27:12.957Z</time>
      </trkpt>
      <trkpt lat="47.80288" lon="2.16605">
        <ele>116</ele>
        <time>2017-01-08T08:27:13.990Z</time>
      </trkpt>
      <trkpt lat="47.80287" lon="2.16613">
        <ele>116</ele>
        <time>2017-01-08T08:27:14.984Z</time>
      </trkpt>
      <trkpt lat="47.80287" lon="2.16617">
        <ele>117</ele>
        <time>2017-01-08T08:27:15.976Z</time>
      </trkpt>
      <trkpt lat="47.80287" lon="2.16617">
        <ele>117</ele>
        <time>2017-01-08T08:27:16.964Z</time>
      </trkpt>
      <trkpt lat="47.80286" lon="2.16625">
        <ele>117</ele>
        <time>2017-01-08T08:27:17.991Z</time>
      </trkpt>
      <trkpt lat="47.80286" lon="2.1663">
        <ele>117</ele>
        <time>2017-01-08T08:27:18.984Z</time>
      </trkpt>
      <trkpt lat="47.80286" lon="2.1663">
        <ele>117</ele>
        <time>2017-01-08T08:27:19.972Z</time>
      </trkpt>
      <trkpt lat="47.80285" lon="2.16639">
        <ele>117</ele>
        <time>2017-01-08T08:27:20.962Z</time>
      </trkpt>
      <trkpt lat="47.80284" lon="2.16643">
        <ele>117</ele>
        <time>2017-01-08T08:27:21.961Z</time>
      </trkpt>
      <trkpt lat="47.80284" lon="2.16643">
        <ele>117</ele>
        <time>2017-01-08T08:27:22.992Z</time>
      </trkpt>
      <trkpt lat="47.80282" lon="2.16651">
        <ele>117</ele>
        <time>2017-01-08T08:27:23.992Z</time>
      </trkpt>
      <trkpt lat="47.80282" lon="2.16655">
        <ele>117</ele>
        <time>2017-01-08T08:27:24.990Z</time>
      </trkpt>
      <trkpt lat="47.80282" lon="2.16655">
        <ele>117</ele>
        <time>2017-01-08T08:27:25.978Z</time>
      </trkpt>
      <trkpt lat="47.80281" lon="2.16663">
        <ele>117</ele>
        <time>2017-01-08T08:27:26.966Z</time>
      </trkpt>
      <trkpt lat="47.8028" lon="2.16667">
        <ele>116</ele>
        <time>2017-01-08T08:27:27.961Z</time>
      </trkpt>
      <trkpt lat="47.80279" lon="2.16671">
        <ele>116</ele>
        <time>2017-01-08T08:27:28.989Z</time>
      </trkpt>
      <trkpt lat="47.80279" lon="2.16671">
        <ele>116</ele>
        <time>2017-01-08T08:27:29.978Z</time>
      </trkpt>
      <trkpt lat="47.80277" lon="2.16679">
        <ele>116</ele>
        <time>2017-01-08T08:27:30.967Z</time>
      </trkpt>
      <trkpt lat="47.80277" lon="2.16679">
        <ele>116</ele>
        <time>2017-01-08T08:27:31.957Z</time>
      </trkpt>
      <trkpt lat="47.80275" lon="2.16686">
        <ele>115</ele>
        <time>2017-01-08T08:27:32.987Z</time>
      </trkpt>
      <trkpt lat="47.80273" lon="2.1669">
        <ele>115</ele>
        <time>2017-01-08T08:27:33.977Z</time>
      </trkpt>
      <trkpt lat="47.80273" lon="2.16693">
        <ele>115</ele>
        <time>2017-01-08T08:27:34.973Z</time>
      </trkpt>
      <trkpt lat="47.80273" lon="2.16693">
        <ele>115</ele>
        <time>2017-01-08T08:27:35.960Z</time>
      </trkpt>
      <trkpt lat="47.80271" lon="2.167">
        <ele>115</ele>
        <time>2017-01-08T08:27:36.989Z</time>
      </trkpt>
      <trkpt lat="47.80271" lon="2.167">
        <ele>115</ele>
        <time>2017-01-08T08:27:37.978Z</time>
      </trkpt>
      <trkpt lat="47.80268" lon="2.16708">
        <ele>115</ele>
        <time>2017-01-08T08:27:38.975Z</time>
      </trkpt>
      <trkpt lat="47.80268" lon="2.16708">
        <ele>115</ele>
        <time>2017-01-08T08:27:39.962Z</time>
      </trkpt>
      <trkpt lat="47.80266" lon="2.16717">
        <ele>114</ele>
        <time>2017-01-08T08:27:40.959Z</time>
      </trkpt>
      <trkpt lat="47.80266" lon="2.16717">
        <ele>114</ele>
        <time>2017-01-08T08:27:41.966Z</time>
      </trkpt>
      <trkpt lat="47.80265" lon="2.16725">
        <ele>114</ele>
        <time>2017-01-08T08:27:42.962Z</time>
      </trkpt>
      <trkpt lat="47.80265" lon="2.16725">
        <ele>114</ele>
        <time>2017-01-08T08:27:43.992Z</time>
      </trkpt>
      <trkpt lat="47.80263" lon="2.16735">
        <ele>115</ele>
        <time>2017-01-08T08:27:44.979Z</time>
      </trkpt>
      <trkpt lat="47.80262" lon="2.1674">
        <ele>115</ele>
        <time>2017-01-08T08:27:45.972Z</time>
      </trkpt>
      <trkpt lat="47.80262" lon="2.1674">
        <ele>115</ele>
        <time>2017-01-08T08:27:46.987Z</time>
      </trkpt>
      <trkpt lat="47.80259" lon="2.16751">
        <ele>115</ele>
        <time>2017-01-08T08:27:47.985Z</time>
      </trkpt>
      <trkpt lat="47.80258" lon="2.16756">
        <ele>115</ele>
        <time>2017-01-08T08:27:48.980Z</time>
      </trkpt>
      <trkpt lat="47.80258" lon="2.16756">
        <ele>115</ele>
        <time>2017-01-08T08:27:49.968Z</time>
      </trkpt>
      <trkpt lat="47.80253" lon="2.16772">
        <ele>115</ele>
        <time>2017-01-08T08:27:50.960Z</time>
      </trkpt>
      <trkpt lat="47.80253" lon="2.16779">
        <ele>115</ele>
        <time>2017-01-08T08:27:51.990Z</time>
      </trkpt>
      <trkpt lat="47.80253" lon="2.16779">
        <ele>115</ele>
        <time>2017-01-08T08:27:52.978Z</time>
      </trkpt>
      <trkpt lat="47.80252" lon="2.16792">
        <ele>115</ele>
        <time>2017-01-08T08:27:53.990Z</time>
      </trkpt>
      <trkpt lat="47.80252" lon="2.16792">
        <ele>115</ele>
        <time>2017-01-08T08:27:54.989Z</time>
      </trkpt>
      <trkpt lat="47.8025" lon="2.16802">
        <ele>115</ele>
        <time>2017-01-08T08:27:55.984Z</time>
      </trkpt>
      <trkpt lat="47.8025" lon="2.16802">
        <ele>115</ele>
        <time>2017-01-08T08:27:56.972Z</time>
      </trkpt>
      <trkpt lat="47.80248" lon="2.16812">
        <ele>115</ele>
        <time>2017-01-08T08:27:57.963Z</time>
      </trkpt>
      <trkpt lat="47.80247" lon="2.16817">
        <ele>115</ele>
        <time>2017-01-08T08:27:58.992Z</time>
      </trkpt>
      <trkpt lat="47.80247" lon="2.16817">
        <ele>115</ele>
        <time>2017-01-08T08:27:59.979Z</time>
      </trkpt>
      <trkpt lat="47.80245" lon="2.1683">
        <ele>115</ele>
        <time>2017-01-08T08:28:00.974Z</time>
      </trkpt>
      <trkpt lat="47.80245" lon="2.1683">
        <ele>115</ele>
        <time>2017-01-08T08:28:01.962Z</time>
      </trkpt>
      <trkpt lat="47.80243" lon="2.16844">
        <ele>115</ele>
        <time>2017-01-08T08:28:02.991Z</time>
      </trkpt>
      <trkpt lat="47.80243" lon="2.16844">
        <ele>115</ele>
        <time>2017-01-08T08:28:03.987Z</time>
      </trkpt>
      <trkpt lat="47.8024" lon="2.16857">
        <ele>115</ele>
        <time>2017-01-08T08:28:04.992Z</time>
      </trkpt>
      <trkpt lat="47.80238" lon="2.16864">
        <ele>115</ele>
        <time>2017-01-08T08:28:05.991Z</time>
      </trkpt>
      <trkpt lat="47.80236" lon="2.16871">
        <ele>115</ele>
        <time>2017-01-08T08:28:06.979Z</time>
      </trkpt>
      <trkpt lat="47.80236" lon="2.16871">
        <ele>115</ele>
        <time>2017-01-08T08:28:07.969Z</time>
      </trkpt>
      <trkpt lat="47.80231" lon="2.16884">
        <ele>115</ele>
        <time>2017-01-08T08:28:08.964Z</time>
      </trkpt>
      <trkpt lat="47.80229" lon="2.16891">
        <ele>115</ele>
        <time>2017-01-08T08:28:09.992Z</time>
      </trkpt>
      <trkpt lat="47.80229" lon="2.16891">
        <ele>115</ele>
        <time>2017-01-08T08:28:10.980Z</time>
      </trkpt>
      <trkpt lat="47.80225" lon="2.16906">
        <ele>114</ele>
        <time>2017-01-08T08:28:11.979Z</time>
      </trkpt>
      <trkpt lat="47.80223" lon="2.16913">
        <ele>114</ele>
        <time>2017-01-08T08:28:12.975Z</time>
      </trkpt>
      <trkpt lat="47.80223" lon="2.16913">
        <ele>114</ele>
        <time>2017-01-08T08:28:13.963Z</time>
      </trkpt>
      <trkpt lat="47.8022" lon="2.16926">
        <ele>113</ele>
        <time>2017-01-08T08:28:14.991Z</time>
      </trkpt>
      <trkpt lat="47.8022" lon="2.16926">
        <ele>113</ele>
        <time>2017-01-08T08:28:15.979Z</time>
      </trkpt>
      <trkpt lat="47.80218" lon="2.16937">
        <ele>113</ele>
        <time>2017-01-08T08:28:16.971Z</time>
      </trkpt>
      <trkpt lat="47.80218" lon="2.16943">
        <ele>113</ele>
        <time>2017-01-08T08:28:17.960Z</time>
      </trkpt>
      <trkpt lat="47.80218" lon="2.16949">
        <ele>113</ele>
        <time>2017-01-08T08:28:18.992Z</time>
      </trkpt>
      <trkpt lat="47.80218" lon="2.16949">
        <ele>113</ele>
        <time>2017-01-08T08:28:19.979Z</time>
      </trkpt>
      <trkpt lat="47.80218" lon="2.16961">
        <ele>113</ele>
        <time>2017-01-08T08:28:20.972Z</time>
      </trkpt>
      <trkpt lat="47.80218" lon="2.16961">
        <ele>113</ele>
        <time>2017-01-08T08:28:21.961Z</time>
      </trkpt>
      <trkpt lat="47.80216" lon="2.16971">
        <ele>114</ele>
        <time>2017-01-08T08:28:22.959Z</time>
      </trkpt>
      <trkpt lat="47.80216" lon="2.16971">
        <ele>114</ele>
        <time>2017-01-08T08:28:23.990Z</time>
      </trkpt>
      <trkpt lat="47.80215" lon="2.16981">
        <ele>114</ele>
        <time>2017-01-08T08:28:24.979Z</time>
      </trkpt>
      <trkpt lat="47.80215" lon="2.16981">
        <ele>114</ele>
        <time>2017-01-08T08:28:25.967Z</time>
      </trkpt>
      <trkpt lat="47.80215" lon="2.16992">
        <ele>115</ele>
        <time>2017-01-08T08:28:26.985Z</time>
      </trkpt>
      <trkpt lat="47.80215" lon="2.16992">
        <ele>115</ele>
        <time>2017-01-08T08:28:27.978Z</time>
      </trkpt>
      <trkpt lat="47.80213" lon="2.17002">
        <ele>115</ele>
        <time>2017-01-08T08:28:28.980Z</time>
      </trkpt>
      <trkpt lat="47.80213" lon="2.17002">
        <ele>115</ele>
        <time>2017-01-08T08:28:29.968Z</time>
      </trkpt>
      <trkpt lat="47.80211" lon="2.17013">
        <ele>115</ele>
        <time>2017-01-08T08:28:30.962Z</time>
      </trkpt>
      <trkpt lat="47.80211" lon="2.17013">
        <ele>115</ele>
        <time>2017-01-08T08:28:31.967Z</time>
      </trkpt>
      <trkpt lat="47.80209" lon="2.17022">
        <ele>115</ele>
        <time>2017-01-08T08:28:32.960Z</time>
      </trkpt>
      <trkpt lat="47.80209" lon="2.17027">
        <ele>115</ele>
        <time>2017-01-08T08:28:33.957Z</time>
      </trkpt>
      <trkpt lat="47.80209" lon="2.17027">
        <ele>115</ele>
        <time>2017-01-08T08:28:34.991Z</time>
      </trkpt>
      <trkpt lat="47.80207" lon="2.17037">
        <ele>115</ele>
        <time>2017-01-08T08:28:35.980Z</time>
      </trkpt>
      <trkpt lat="47.80207" lon="2.17042">
        <ele>115</ele>
        <time>2017-01-08T08:28:36.980Z</time>
      </trkpt>
      <trkpt lat="47.80207" lon="2.17042">
        <ele>115</ele>
        <time>2017-01-08T08:28:37.967Z</time>
      </trkpt>
      <trkpt lat="47.80205" lon="2.17052">
        <ele>115</ele>
        <time>2017-01-08T08:28:38.960Z</time>
      </trkpt>
      <trkpt lat="47.80204" lon="2.17057">
        <ele>114</ele>
        <time>2017-01-08T08:28:39.991Z</time>
      </trkpt>
      <trkpt lat="47.80204" lon="2.17057">
        <ele>114</ele>
        <time>2017-01-08T08:28:40.978Z</time>
      </trkpt>
      <trkpt lat="47.80202" lon="2.17068">
        <ele>114</ele>
        <time>2017-01-08T08:28:41.970Z</time>
      </trkpt>
      <trkpt lat="47.80201" lon="2.17074">
        <ele>114</ele>
        <time>2017-01-08T08:28:42.963Z</time>
      </trkpt>
      <trkpt lat="47.80201" lon="2.17074">
        <ele>114</ele>
        <time>2017-01-08T08:28:43.992Z</time>
      </trkpt>
      <trkpt lat="47.80198" lon="2.17085">
        <ele>113</ele>
        <time>2017-01-08T08:28:44.984Z</time>
      </trkpt>
      <trkpt lat="47.80197" lon="2.17091">
        <ele>113</ele>
        <time>2017-01-08T08:28:45.973Z</time>
      </trkpt>
      <trkpt lat="47.80195" lon="2.17096">
        <ele>112</ele>
        <time>2017-01-08T08:28:46.962Z</time>
      </trkpt>
      <trkpt lat="47.80194" lon="2.17102">
        <ele>112</ele>
        <time>2017-01-08T08:28:47.991Z</time>
      </trkpt>
      <trkpt lat="47.80194" lon="2.17102">
        <ele>112</ele>
        <time>2017-01-08T08:28:48.988Z</time>
      </trkpt>
      <trkpt lat="47.80192" lon="2.17113">
        <ele>112</ele>
        <time>2017-01-08T08:28:49.978Z</time>
      </trkpt>
      <trkpt lat="47.80192" lon="2.17113">
        <ele>112</ele>
        <time>2017-01-08T08:28:50.966Z</time>
      </trkpt>
      <trkpt lat="47.80188" lon="2.17123">
        <ele>112</ele>
        <time>2017-01-08T08:28:51.961Z</time>
      </trkpt>
      <trkpt lat="47.80188" lon="2.17123">
        <ele>112</ele>
        <time>2017-01-08T08:28:52.954Z</time>
      </trkpt>
      <trkpt lat="47.80186" lon="2.17132">
        <ele>112</ele>
        <time>2017-01-08T08:28:53.992Z</time>
      </trkpt>
      <trkpt lat="47.80184" lon="2.17137">
        <ele>112</ele>
        <time>2017-01-08T08:28:54.957Z</time>
      </trkpt>
      <trkpt lat="47.80184" lon="2.17137">
        <ele>112</ele>
        <time>2017-01-08T08:28:55.989Z</time>
      </trkpt>
      <trkpt lat="47.80183" lon="2.17147">
        <ele>112</ele>
        <time>2017-01-08T08:28:56.978Z</time>
      </trkpt>
      <trkpt lat="47.80181" lon="2.17152">
        <ele>112</ele>
        <time>2017-01-08T08:28:57.972Z</time>
      </trkpt>
      <trkpt lat="47.80181" lon="2.17152">
        <ele>112</ele>
        <time>2017-01-08T08:28:58.960Z</time>
      </trkpt>
      <trkpt lat="47.8018" lon="2.17161">
        <ele>113</ele>
        <time>2017-01-08T08:28:59.987Z</time>
      </trkpt>
      <trkpt lat="47.80179" lon="2.17165">
        <ele>113</ele>
        <time>2017-01-08T08:29:00.976Z</time>
      </trkpt>
      <trkpt lat="47.80179" lon="2.17165">
        <ele>113</ele>
        <time>2017-01-08T08:29:01.966Z</time>
      </trkpt>
      <trkpt lat="47.80178" lon="2.17175">
        <ele>113</ele>
        <time>2017-01-08T08:29:02.968Z</time>
      </trkpt>
      <trkpt lat="47.80178" lon="2.17175">
        <ele>113</ele>
        <time>2017-01-08T08:29:03.988Z</time>
      </trkpt>
      <trkpt lat="47.80177" lon="2.17186">
        <ele>113</ele>
        <time>2017-01-08T08:29:04.985Z</time>
      </trkpt>
      <trkpt lat="47.80177" lon="2.17186">
        <ele>113</ele>
        <time>2017-01-08T08:29:05.979Z</time>
      </trkpt>
      <trkpt lat="47.80175" lon="2.17197">
        <ele>113</ele>
        <time>2017-01-08T08:29:06.967Z</time>
      </trkpt>
      <trkpt lat="47.80174" lon="2.17202">
        <ele>113</ele>
        <time>2017-01-08T08:29:07.963Z</time>
      </trkpt>
      <trkpt lat="47.80174" lon="2.17202">
        <ele>113</ele>
        <time>2017-01-08T08:29:08.971Z</time>
      </trkpt>
      <trkpt lat="47.80172" lon="2.17213">
        <ele>113</ele>
        <time>2017-01-08T08:29:09.971Z</time>
      </trkpt>
      <trkpt lat="47.80172" lon="2.17213">
        <ele>113</ele>
        <time>2017-01-08T08:29:10.961Z</time>
      </trkpt>
      <trkpt lat="47.8017" lon="2.17223">
        <ele>113</ele>
        <time>2017-01-08T08:29:11.990Z</time>
      </trkpt>
      <trkpt lat="47.80169" lon="2.17228">
        <ele>113</ele>
        <time>2017-01-08T08:29:12.985Z</time>
      </trkpt>
      <trkpt lat="47.80169" lon="2.17228">
        <ele>113</ele>
        <time>2017-01-08T08:29:13.972Z</time>
      </trkpt>
      <trkpt lat="47.80168" lon="2.17238">
        <ele>114</ele>
        <time>2017-01-08T08:29:14.966Z</time>
      </trkpt>
      <trkpt lat="47.80168" lon="2.17238">
        <ele>114</ele>
        <time>2017-01-08T08:29:15.957Z</time>
      </trkpt>
      <trkpt lat="47.80166" lon="2.17247">
        <ele>113</ele>
        <time>2017-01-08T08:29:16.989Z</time>
      </trkpt>
      <trkpt lat="47.80166" lon="2.17247">
        <ele>113</ele>
        <time>2017-01-08T08:29:17.977Z</time>
      </trkpt>
      <trkpt lat="47.80165" lon="2.17256">
        <ele>113</ele>
        <time>2017-01-08T08:29:18.975Z</time>
      </trkpt>
      <trkpt lat="47.80165" lon="2.17256">
        <ele>113</ele>
        <time>2017-01-08T08:29:19.963Z</time>
      </trkpt>
      <trkpt lat="47.80163" lon="2.17266">
        <ele>113</ele>
        <time>2017-01-08T08:29:20.991Z</time>
      </trkpt>
      <trkpt lat="47.80162" lon="2.17272">
        <ele>113</ele>
        <time>2017-01-08T08:29:21.985Z</time>
      </trkpt>
      <trkpt lat="47.80162" lon="2.17272">
        <ele>113</ele>
        <time>2017-01-08T08:29:22.972Z</time>
      </trkpt>
      <trkpt lat="47.80159" lon="2.17285">
        <ele>112</ele>
        <time>2017-01-08T08:29:23.967Z</time>
      </trkpt>
      <trkpt lat="47.80158" lon="2.17291">
        <ele>112</ele>
        <time>2017-01-08T08:29:24.964Z</time>
      </trkpt>
      <trkpt lat="47.80157" lon="2.17296">
        <ele>112</ele>
        <time>2017-01-08T08:29:25.954Z</time>
      </trkpt>
      <trkpt lat="47.80157" lon="2.17296">
        <ele>112</ele>
        <time>2017-01-08T08:29:26.985Z</time>
      </trkpt>
      <trkpt lat="47.80156" lon="2.17307">
        <ele>112</ele>
        <time>2017-01-08T08:29:27.976Z</time>
      </trkpt>
      <trkpt lat="47.80156" lon="2.17307">
        <ele>112</ele>
        <time>2017-01-08T08:29:28.985Z</time>
      </trkpt>
      <trkpt lat="47.80154" lon="2.17317">
        <ele>111</ele>
        <time>2017-01-08T08:29:29.986Z</time>
      </trkpt>
      <trkpt lat="47.80153" lon="2.17322">
        <ele>111</ele>
        <time>2017-01-08T08:29:30.977Z</time>
      </trkpt>
      <trkpt lat="47.80153" lon="2.17322">
        <ele>111</ele>
        <time>2017-01-08T08:29:31.965Z</time>
      </trkpt>
      <trkpt lat="47.80151" lon="2.17331">
        <ele>111</ele>
        <time>2017-01-08T08:29:32.957Z</time>
      </trkpt>
      <trkpt lat="47.80149" lon="2.17335">
        <ele>111</ele>
        <time>2017-01-08T08:29:33.988Z</time>
      </trkpt>
      <trkpt lat="47.80149" lon="2.17335">
        <ele>111</ele>
        <time>2017-01-08T08:29:34.976Z</time>
      </trkpt>
      <trkpt lat="47.80148" lon="2.17342">
        <ele>110</ele>
        <time>2017-01-08T08:29:35.974Z</time>
      </trkpt>
      <trkpt lat="47.80147" lon="2.17347">
        <ele>110</ele>
        <time>2017-01-08T08:29:36.973Z</time>
      </trkpt>
      <trkpt lat="47.80147" lon="2.17347">
        <ele>110</ele>
        <time>2017-01-08T08:29:37.961Z</time>
      </trkpt>
      <trkpt lat="47.80144" lon="2.17356">
        <ele>110</ele>
        <time>2017-01-08T08:29:38.989Z</time>
      </trkpt>
      <trkpt lat="47.80144" lon="2.17356">
        <ele>110</ele>
        <time>2017-01-08T08:29:39.977Z</time>
      </trkpt>
      <trkpt lat="47.80141" lon="2.17364">
        <ele>110</ele>
        <time>2017-01-08T08:29:40.970Z</time>
      </trkpt>
      <trkpt lat="47.80141" lon="2.17364">
        <ele>110</ele>
        <time>2017-01-08T08:29:41.958Z</time>
      </trkpt>
      <trkpt lat="47.80139" lon="2.17374">
        <ele>110</ele>
        <time>2017-01-08T08:29:42.990Z</time>
      </trkpt>
      <trkpt lat="47.80139" lon="2.17374">
        <ele>110</ele>
        <time>2017-01-08T08:29:43.978Z</time>
      </trkpt>
      <trkpt lat="47.80138" lon="2.17384">
        <ele>110</ele>
        <time>2017-01-08T08:29:44.968Z</time>
      </trkpt>
      <trkpt lat="47.80138" lon="2.17384">
        <ele>110</ele>
        <time>2017-01-08T08:29:45.959Z</time>
      </trkpt>
      <trkpt lat="47.80137" lon="2.17392">
        <ele>110</ele>
        <time>2017-01-08T08:29:46.989Z</time>
      </trkpt>
      <trkpt lat="47.80137" lon="2.17392">
        <ele>110</ele>
        <time>2017-01-08T08:29:47.977Z</time>
      </trkpt>
      <trkpt lat="47.80135" lon="2.17401">
        <ele>110</ele>
        <time>2017-01-08T08:29:48.971Z</time>
      </trkpt>
      <trkpt lat="47.80135" lon="2.17401">
        <ele>110</ele>
        <time>2017-01-08T08:29:49.960Z</time>
      </trkpt>
      <trkpt lat="47.80135" lon="2.17411">
        <ele>109</ele>
        <time>2017-01-08T08:29:50.990Z</time>
      </trkpt>
      <trkpt lat="47.80135" lon="2.17411">
        <ele>109</ele>
        <time>2017-01-08T08:29:51.966Z</time>
      </trkpt>
      <trkpt lat="47.80134" lon="2.17421">
        <ele>109</ele>
        <time>2017-01-08T08:29:52.961Z</time>
      </trkpt>
      <trkpt lat="47.80134" lon="2.17421">
        <ele>109</ele>
        <time>2017-01-08T08:29:53.990Z</time>
      </trkpt>
      <trkpt lat="47.80133" lon="2.17435">
        <ele>109</ele>
        <time>2017-01-08T08:29:54.977Z</time>
      </trkpt>
      <trkpt lat="47.80133" lon="2.17435">
        <ele>109</ele>
        <time>2017-01-08T08:29:55.965Z</time>
      </trkpt>
      <trkpt lat="47.80132" lon="2.17449">
        <ele>108</ele>
        <time>2017-01-08T08:29:56.958Z</time>
      </trkpt>
      <trkpt lat="47.80132" lon="2.17449">
        <ele>108</ele>
        <time>2017-01-08T08:29:57.991Z</time>
      </trkpt>
      <trkpt lat="47.8013" lon="2.1746">
        <ele>108</ele>
        <time>2017-01-08T08:29:58.984Z</time>
      </trkpt>
      <trkpt lat="47.8013" lon="2.1746">
        <ele>108</ele>
        <time>2017-01-08T08:29:59.972Z</time>
      </trkpt>
      <trkpt lat="47.80128" lon="2.17472">
        <ele>108</ele>
        <time>2017-01-08T08:30:00.961Z</time>
      </trkpt>
      <trkpt lat="47.80128" lon="2.17472">
        <ele>108</ele>
        <time>2017-01-08T08:30:01.989Z</time>
      </trkpt>
      <trkpt lat="47.80127" lon="2.17482">
        <ele>109</ele>
        <time>2017-01-08T08:30:02.980Z</time>
      </trkpt>
      <trkpt lat="47.80127" lon="2.17482">
        <ele>109</ele>
        <time>2017-01-08T08:30:03.978Z</time>
      </trkpt>
      <trkpt lat="47.80125" lon="2.17493">
        <ele>109</ele>
        <time>2017-01-08T08:30:04.978Z</time>
      </trkpt>
      <trkpt lat="47.80125" lon="2.17499">
        <ele>109</ele>
        <time>2017-01-08T08:30:05.971Z</time>
      </trkpt>
      <trkpt lat="47.80124" lon="2.17505">
        <ele>109</ele>
        <time>2017-01-08T08:30:06.977Z</time>
      </trkpt>
      <trkpt lat="47.80124" lon="2.17505">
        <ele>109</ele>
        <time>2017-01-08T08:30:07.965Z</time>
      </trkpt>
      <trkpt lat="47.80124" lon="2.17516">
        <ele>109</ele>
        <time>2017-01-08T08:30:08.972Z</time>
      </trkpt>
      <trkpt lat="47.80124" lon="2.17516">
        <ele>109</ele>
        <time>2017-01-08T08:30:09.960Z</time>
      </trkpt>
      <trkpt lat="47.80123" lon="2.17526">
        <ele>109</ele>
        <time>2017-01-08T08:30:10.989Z</time>
      </trkpt>
      <trkpt lat="47.80123" lon="2.17526">
        <ele>109</ele>
        <time>2017-01-08T08:30:11.977Z</time>
      </trkpt>
      <trkpt lat="47.80121" lon="2.17536">
        <ele>108</ele>
        <time>2017-01-08T08:30:12.968Z</time>
      </trkpt>
      <trkpt lat="47.80121" lon="2.17536">
        <ele>108</ele>
        <time>2017-01-08T08:30:13.957Z</time>
      </trkpt>
      <trkpt lat="47.8012" lon="2.17545">
        <ele>108</ele>
        <time>2017-01-08T08:30:14.988Z</time>
      </trkpt>
      <trkpt lat="47.80119" lon="2.1755">
        <ele>108</ele>
        <time>2017-01-08T08:30:15.956Z</time>
      </trkpt>
      <trkpt lat="47.80118" lon="2.17554">
        <ele>108</ele>
        <time>2017-01-08T08:30:16.968Z</time>
      </trkpt>
      <trkpt lat="47.80118" lon="2.17554">
        <ele>108</ele>
        <time>2017-01-08T08:30:17.958Z</time>
      </trkpt>
      <trkpt lat="47.80117" lon="2.17564">
        <ele>107</ele>
        <time>2017-01-08T08:30:18.990Z</time>
      </trkpt>
      <trkpt lat="47.80117" lon="2.17564">
        <ele>107</ele>
        <time>2017-01-08T08:30:19.978Z</time>
      </trkpt>
      <trkpt lat="47.80114" lon="2.17574">
        <ele>107</ele>
        <time>2017-01-08T08:30:20.974Z</time>
      </trkpt>
      <trkpt lat="47.80114" lon="2.17574">
        <ele>107</ele>
        <time>2017-01-08T08:30:21.962Z</time>
      </trkpt>
      <trkpt lat="47.80112" lon="2.17586">
        <ele>107</ele>
        <time>2017-01-08T08:30:22.991Z</time>
      </trkpt>
      <trkpt lat="47.80111" lon="2.17591">
        <ele>107</ele>
        <time>2017-01-08T08:30:23.986Z</time>
      </trkpt>
      <trkpt lat="47.80109" lon="2.17599">
        <ele>106</ele>
        <time>2017-01-08T08:30:24.985Z</time>
      </trkpt>
      <trkpt lat="47.80109" lon="2.17599">
        <ele>106</ele>
        <time>2017-01-08T08:30:25.973Z</time>
      </trkpt>
      <trkpt lat="47.80107" lon="2.17612">
        <ele>107</ele>
        <time>2017-01-08T08:30:26.968Z</time>
      </trkpt>
      <trkpt lat="47.80106" lon="2.17617">
        <ele>107</ele>
        <time>2017-01-08T08:30:27.954Z</time>
      </trkpt>
      <trkpt lat="47.80106" lon="2.17617">
        <ele>107</ele>
        <time>2017-01-08T08:30:28.985Z</time>
      </trkpt>
      <trkpt lat="47.80105" lon="2.17628">
        <ele>107</ele>
        <time>2017-01-08T08:30:29.987Z</time>
      </trkpt>
      <trkpt lat="47.80104" lon="2.17633">
        <ele>107</ele>
        <time>2017-01-08T08:30:30.978Z</time>
      </trkpt>
      <trkpt lat="47.80104" lon="2.17633">
        <ele>107</ele>
        <time>2017-01-08T08:30:31.971Z</time>
      </trkpt>
      <trkpt lat="47.80101" lon="2.17644">
        <ele>107</ele>
        <time>2017-01-08T08:30:32.973Z</time>
      </trkpt>
      <trkpt lat="47.80101" lon="2.17644">
        <ele>107</ele>
        <time>2017-01-08T08:30:33.961Z</time>
      </trkpt>
      <trkpt lat="47.80099" lon="2.17654">
        <ele>107</ele>
        <time>2017-01-08T08:30:34.969Z</time>
      </trkpt>
      <trkpt lat="47.80099" lon="2.17654">
        <ele>107</ele>
        <time>2017-01-08T08:30:35.959Z</time>
      </trkpt>
      <trkpt lat="47.80096" lon="2.17664">
        <ele>108</ele>
        <time>2017-01-08T08:30:36.988Z</time>
      </trkpt>
      <trkpt lat="47.80096" lon="2.17664">
        <ele>108</ele>
        <time>2017-01-08T08:30:37.976Z</time>
      </trkpt>
      <trkpt lat="47.80093" lon="2.17674">
        <ele>108</ele>
        <time>2017-01-08T08:30:38.977Z</time>
      </trkpt>
      <trkpt lat="47.80093" lon="2.17674">
        <ele>108</ele>
        <time>2017-01-08T08:30:39.957Z</time>
      </trkpt>
      <trkpt lat="47.80089" lon="2.17685">
        <ele>108</ele>
        <time>2017-01-08T08:30:40.992Z</time>
      </trkpt>
      <trkpt lat="47.80089" lon="2.17685">
        <ele>108</ele>
        <time>2017-01-08T08:30:41.979Z</time>
      </trkpt>
      <trkpt lat="47.80085" lon="2.17695">
        <ele>107</ele>
        <time>2017-01-08T08:30:42.968Z</time>
      </trkpt>
      <trkpt lat="47.80085" lon="2.17695">
        <ele>107</ele>
        <time>2017-01-08T08:30:43.957Z</time>
      </trkpt>
      <trkpt lat="47.80081" lon="2.17705">
        <ele>107</ele>
        <time>2017-01-08T08:30:44.955Z</time>
      </trkpt>
      <trkpt lat="47.80078" lon="2.1771">
        <ele>106</ele>
        <time>2017-01-08T08:30:45.987Z</time>
      </trkpt>
      <trkpt lat="47.80078" lon="2.1771">
        <ele>106</ele>
        <time>2017-01-08T08:30:46.974Z</time>
      </trkpt>
      <trkpt lat="47.80073" lon="2.17721">
        <ele>106</ele>
        <time>2017-01-08T08:30:47.962Z</time>
      </trkpt>
      <trkpt lat="47.80071" lon="2.17726">
        <ele>106</ele>
        <time>2017-01-08T08:30:48.993Z</time>
      </trkpt>
      <trkpt lat="47.80071" lon="2.17726">
        <ele>106</ele>
        <time>2017-01-08T08:30:49.985Z</time>
      </trkpt>
      <trkpt lat="47.80066" lon="2.17736">
        <ele>106</ele>
        <time>2017-01-08T08:30:50.981Z</time>
      </trkpt>
      <trkpt lat="47.80066" lon="2.17736">
        <ele>106</ele>
        <time>2017-01-08T08:30:51.968Z</time>
      </trkpt>
      <trkpt lat="47.80061" lon="2.17745">
        <ele>104</ele>
        <time>2017-01-08T08:30:52.955Z</time>
      </trkpt>
      <trkpt lat="47.80061" lon="2.17745">
        <ele>104</ele>
        <time>2017-01-08T08:30:53.958Z</time>
      </trkpt>
      <trkpt lat="47.80057" lon="2.17755">
        <ele>104</ele>
        <time>2017-01-08T08:30:54.976Z</time>
      </trkpt>
      <trkpt lat="47.80057" lon="2.17755">
        <ele>104</ele>
        <time>2017-01-08T08:30:55.964Z</time>
      </trkpt>
      <trkpt lat="47.80051" lon="2.17766">
        <ele>104</ele>
        <time>2017-01-08T08:30:56.963Z</time>
      </trkpt>
      <trkpt lat="47.80048" lon="2.1777">
        <ele>104</ele>
        <time>2017-01-08T08:30:57.992Z</time>
      </trkpt>
      <trkpt lat="47.80048" lon="2.1777">
        <ele>104</ele>
        <time>2017-01-08T08:30:58.980Z</time>
      </trkpt>
      <trkpt lat="47.80044" lon="2.1778">
        <ele>104</ele>
        <time>2017-01-08T08:30:59.973Z</time>
      </trkpt>
      <trkpt lat="47.80042" lon="2.17785">
        <ele>104</ele>
        <time>2017-01-08T08:31:00.972Z</time>
      </trkpt>
      <trkpt lat="47.80042" lon="2.17785">
        <ele>104</ele>
        <time>2017-01-08T08:31:01.966Z</time>
      </trkpt>
      <trkpt lat="47.8004" lon="2.17795">
        <ele>104</ele>
        <time>2017-01-08T08:31:02.954Z</time>
      </trkpt>
      <trkpt lat="47.8004" lon="2.17795">
        <ele>104</ele>
        <time>2017-01-08T08:31:03.973Z</time>
      </trkpt>
      <trkpt lat="47.80037" lon="2.17803">
        <ele>103</ele>
        <time>2017-01-08T08:31:04.971Z</time>
      </trkpt>
      <trkpt lat="47.80037" lon="2.17803">
        <ele>103</ele>
        <time>2017-01-08T08:31:05.959Z</time>
      </trkpt>
      <trkpt lat="47.80035" lon="2.17812">
        <ele>103</ele>
        <time>2017-01-08T08:31:06.991Z</time>
      </trkpt>
      <trkpt lat="47.80035" lon="2.17812">
        <ele>103</ele>
        <time>2017-01-08T08:31:07.978Z</time>
      </trkpt>
      <trkpt lat="47.80033" lon="2.17822">
        <ele>103</ele>
        <time>2017-01-08T08:31:08.970Z</time>
      </trkpt>
      <trkpt lat="47.80033" lon="2.17822">
        <ele>103</ele>
        <time>2017-01-08T08:31:09.961Z</time>
      </trkpt>
      <trkpt lat="47.8003" lon="2.17833">
        <ele>103</ele>
        <time>2017-01-08T08:31:10.990Z</time>
      </trkpt>
      <trkpt lat="47.8003" lon="2.17833">
        <ele>103</ele>
        <time>2017-01-08T08:31:11.981Z</time>
      </trkpt>
      <trkpt lat="47.80028" lon="2.17843">
        <ele>104</ele>
        <time>2017-01-08T08:31:12.972Z</time>
      </trkpt>
      <trkpt lat="47.80027" lon="2.17847">
        <ele>104</ele>
        <time>2017-01-08T08:31:13.972Z</time>
      </trkpt>
      <trkpt lat="47.80026" lon="2.17852">
        <ele>104</ele>
        <time>2017-01-08T08:31:14.966Z</time>
      </trkpt>
      <trkpt lat="47.80026" lon="2.17852">
        <ele>104</ele>
        <time>2017-01-08T08:31:15.957Z</time>
      </trkpt>
      <trkpt lat="47.80025" lon="2.17861">
        <ele>103</ele>
        <time>2017-01-08T08:31:16.992Z</time>
      </trkpt>
      <trkpt lat="47.80025" lon="2.17861">
        <ele>103</ele>
        <time>2017-01-08T08:31:17.979Z</time>
      </trkpt>
      <trkpt lat="47.80024" lon="2.1787">
        <ele>103</ele>
        <time>2017-01-08T08:31:18.974Z</time>
      </trkpt>
      <trkpt lat="47.80024" lon="2.1787">
        <ele>103</ele>
        <time>2017-01-08T08:31:19.962Z</time>
      </trkpt>
      <trkpt lat="47.80022" lon="2.17881">
        <ele>103</ele>
        <time>2017-01-08T08:31:20.992Z</time>
      </trkpt>
      <trkpt lat="47.80022" lon="2.17881">
        <ele>103</ele>
        <time>2017-01-08T08:31:21.987Z</time>
      </trkpt>
      <trkpt lat="47.80018" lon="2.17892">
        <ele>103</ele>
        <time>2017-01-08T08:31:22.977Z</time>
      </trkpt>
      <trkpt lat="47.80018" lon="2.17892">
        <ele>103</ele>
        <time>2017-01-08T08:31:23.966Z</time>
      </trkpt>
      <trkpt lat="47.80016" lon="2.17904">
        <ele>103</ele>
        <time>2017-01-08T08:31:24.954Z</time>
      </trkpt>
      <trkpt lat="47.80016" lon="2.17904">
        <ele>103</ele>
        <time>2017-01-08T08:31:25.985Z</time>
      </trkpt>
      <trkpt lat="47.8001" lon="2.17921">
        <ele>103</ele>
        <time>2017-01-08T08:31:26.977Z</time>
      </trkpt>
      <trkpt lat="47.8001" lon="2.17921">
        <ele>103</ele>
        <time>2017-01-08T08:31:27.964Z</time>
      </trkpt>
      <trkpt lat="47.80006" lon="2.17936">
        <ele>103</ele>
        <time>2017-01-08T08:31:28.993Z</time>
      </trkpt>
      <trkpt lat="47.80006" lon="2.17936">
        <ele>103</ele>
        <time>2017-01-08T08:31:29.981Z</time>
      </trkpt>
      <trkpt lat="47.80003" lon="2.17949">
        <ele>103</ele>
        <time>2017-01-08T08:31:30.968Z</time>
      </trkpt>
      <trkpt lat="47.80002" lon="2.17955">
        <ele>103</ele>
        <time>2017-01-08T08:31:31.963Z</time>
      </trkpt>
      <trkpt lat="47.8" lon="2.17961">
        <ele>103</ele>
        <time>2017-01-08T08:31:32.994Z</time>
      </trkpt>
      <trkpt lat="47.8" lon="2.17961">
        <ele>103</ele>
        <time>2017-01-08T08:31:33.988Z</time>
      </trkpt>
      <trkpt lat="47.79998" lon="2.17972">
        <ele>103</ele>
        <time>2017-01-08T08:31:34.991Z</time>
      </trkpt>
      <trkpt lat="47.79998" lon="2.17972">
        <ele>103</ele>
        <time>2017-01-08T08:31:35.978Z</time>
      </trkpt>
      <trkpt lat="47.79996" lon="2.17982">
        <ele>104</ele>
        <time>2017-01-08T08:31:36.974Z</time>
      </trkpt>
      <trkpt lat="47.79996" lon="2.17982">
        <ele>104</ele>
        <time>2017-01-08T08:31:37.964Z</time>
      </trkpt>
      <trkpt lat="47.79994" lon="2.17993">
        <ele>104</ele>
        <time>2017-01-08T08:31:38.956Z</time>
      </trkpt>
      <trkpt lat="47.79993" lon="2.17998">
        <ele>105</ele>
        <time>2017-01-08T08:31:39.991Z</time>
      </trkpt>
      <trkpt lat="47.79993" lon="2.17998">
        <ele>105</ele>
        <time>2017-01-08T08:31:40.978Z</time>
      </trkpt>
      <trkpt lat="47.7999" lon="2.18008">
        <ele>105</ele>
        <time>2017-01-08T08:31:41.985Z</time>
      </trkpt>
      <trkpt lat="47.79989" lon="2.18014">
        <ele>105</ele>
        <time>2017-01-08T08:31:42.980Z</time>
      </trkpt>
      <trkpt lat="47.79989" lon="2.18014">
        <ele>105</ele>
        <time>2017-01-08T08:31:43.968Z</time>
      </trkpt>
      <trkpt lat="47.79987" lon="2.18026">
        <ele>105</ele>
        <time>2017-01-08T08:31:44.968Z</time>
      </trkpt>
      <trkpt lat="47.79987" lon="2.18026">
        <ele>105</ele>
        <time>2017-01-08T08:31:45.959Z</time>
      </trkpt>
      <trkpt lat="47.79983" lon="2.18038">
        <ele>104</ele>
        <time>2017-01-08T08:31:46.968Z</time>
      </trkpt>
      <trkpt lat="47.79983" lon="2.18038">
        <ele>104</ele>
        <time>2017-01-08T08:31:47.958Z</time>
      </trkpt>
      <trkpt lat="47.7998" lon="2.18048">
        <ele>105</ele>
        <time>2017-01-08T08:31:48.986Z</time>
      </trkpt>
      <trkpt lat="47.7998" lon="2.18048">
        <ele>105</ele>
        <time>2017-01-08T08:31:49.973Z</time>
      </trkpt>
      <trkpt lat="47.79976" lon="2.18059">
        <ele>103</ele>
        <time>2017-01-08T08:31:50.972Z</time>
      </trkpt>
      <trkpt lat="47.79976" lon="2.18059">
        <ele>103</ele>
        <time>2017-01-08T08:31:51.961Z</time>
      </trkpt>
      <trkpt lat="47.79973" lon="2.18069">
        <ele>103</ele>
        <time>2017-01-08T08:31:52.990Z</time>
      </trkpt>
      <trkpt lat="47.79973" lon="2.18069">
        <ele>103</ele>
        <time>2017-01-08T08:31:53.988Z</time>
      </trkpt>
      <trkpt lat="47.7997" lon="2.18083">
        <ele>103</ele>
        <time>2017-01-08T08:31:54.972Z</time>
      </trkpt>
      <trkpt lat="47.79969" lon="2.1809">
        <ele>104</ele>
        <time>2017-01-08T08:31:55.968Z</time>
      </trkpt>
      <trkpt lat="47.79967" lon="2.18098">
        <ele>104</ele>
        <time>2017-01-08T08:31:56.966Z</time>
      </trkpt>
      <trkpt lat="47.79967" lon="2.18098">
        <ele>104</ele>
        <time>2017-01-08T08:31:57.959Z</time>
      </trkpt>
      <trkpt lat="47.79963" lon="2.18116">
        <ele>105</ele>
        <time>2017-01-08T08:31:59.000Z</time>
      </trkpt>
      <trkpt lat="47.79963" lon="2.18116">
        <ele>105</ele>
        <time>2017-01-08T08:31:59.959Z</time>
      </trkpt>
      <trkpt lat="47.79959" lon="2.18131">
        <ele>107</ele>
        <time>2017-01-08T08:32:00.993Z</time>
      </trkpt>
      <trkpt lat="47.79959" lon="2.18131">
        <ele>107</ele>
        <time>2017-01-08T08:32:01.981Z</time>
      </trkpt>
      <trkpt lat="47.79956" lon="2.18146">
        <ele>107</ele>
        <time>2017-01-08T08:32:02.974Z</time>
      </trkpt>
      <trkpt lat="47.79956" lon="2.18146">
        <ele>107</ele>
        <time>2017-01-08T08:32:03.975Z</time>
      </trkpt>
      <trkpt lat="47.79953" lon="2.18159">
        <ele>108</ele>
        <time>2017-01-08T08:32:04.974Z</time>
      </trkpt>
      <trkpt lat="47.79953" lon="2.18159">
        <ele>108</ele>
        <time>2017-01-08T08:32:05.962Z</time>
      </trkpt>
      <trkpt lat="47.7995" lon="2.18174">
        <ele>108</ele>
        <time>2017-01-08T08:32:06.974Z</time>
      </trkpt>
      <trkpt lat="47.7995" lon="2.18174">
        <ele>108</ele>
        <time>2017-01-08T08:32:07.963Z</time>
      </trkpt>
      <trkpt lat="47.79946" lon="2.18191">
        <ele>109</ele>
        <time>2017-01-08T08:32:08.992Z</time>
      </trkpt>
      <trkpt lat="47.79946" lon="2.18191">
        <ele>109</ele>
        <time>2017-01-08T08:32:09.980Z</time>
      </trkpt>
      <trkpt lat="47.79942" lon="2.18207">
        <ele>110</ele>
        <time>2017-01-08T08:32:10.968Z</time>
      </trkpt>
      <trkpt lat="47.79941" lon="2.18215">
        <ele>110</ele>
        <time>2017-01-08T08:32:11.971Z</time>
      </trkpt>
      <trkpt lat="47.79939" lon="2.18223">
        <ele>110</ele>
        <time>2017-01-08T08:32:12.963Z</time>
      </trkpt>
      <trkpt lat="47.79939" lon="2.18223">
        <ele>110</ele>
        <time>2017-01-08T08:32:13.986Z</time>
      </trkpt>
      <trkpt lat="47.79935" lon="2.18239">
        <ele>111</ele>
        <time>2017-01-08T08:32:14.986Z</time>
      </trkpt>
      <trkpt lat="47.79935" lon="2.18239">
        <ele>111</ele>
        <time>2017-01-08T08:32:15.974Z</time>
      </trkpt>
      <trkpt lat="47.79931" lon="2.18255">
        <ele>112</ele>
        <time>2017-01-08T08:32:16.974Z</time>
      </trkpt>
      <trkpt lat="47.79931" lon="2.18255">
        <ele>112</ele>
        <time>2017-01-08T08:32:17.962Z</time>
      </trkpt>
      <trkpt lat="47.79927" lon="2.18273">
        <ele>113</ele>
        <time>2017-01-08T08:32:18.993Z</time>
      </trkpt>
      <trkpt lat="47.79927" lon="2.18273">
        <ele>113</ele>
        <time>2017-01-08T08:32:19.980Z</time>
      </trkpt>
      <trkpt lat="47.79924" lon="2.1829">
        <ele>113</ele>
        <time>2017-01-08T08:32:20.993Z</time>
      </trkpt>
      <trkpt lat="47.79922" lon="2.18299">
        <ele>113</ele>
        <time>2017-01-08T08:32:21.986Z</time>
      </trkpt>
      <trkpt lat="47.79922" lon="2.18299">
        <ele>113</ele>
        <time>2017-01-08T08:32:22.974Z</time>
      </trkpt>
      <trkpt lat="47.79918" lon="2.18316">
        <ele>114</ele>
        <time>2017-01-08T08:32:23.968Z</time>
      </trkpt>
      <trkpt lat="47.79916" lon="2.18324">
        <ele>114</ele>
        <time>2017-01-08T08:32:24.962Z</time>
      </trkpt>
      <trkpt lat="47.79915" lon="2.18332">
        <ele>114</ele>
        <time>2017-01-08T08:32:25.992Z</time>
      </trkpt>
      <trkpt lat="47.79915" lon="2.18332">
        <ele>114</ele>
        <time>2017-01-08T08:32:26.980Z</time>
      </trkpt>
      <trkpt lat="47.79912" lon="2.18347">
        <ele>115</ele>
        <time>2017-01-08T08:32:27.969Z</time>
      </trkpt>
      <trkpt lat="47.7991" lon="2.18355">
        <ele>114</ele>
        <time>2017-01-08T08:32:28.969Z</time>
      </trkpt>
      <trkpt lat="47.7991" lon="2.18355">
        <ele>114</ele>
        <time>2017-01-08T08:32:29.957Z</time>
      </trkpt>
      <trkpt lat="47.79907" lon="2.18369">
        <ele>114</ele>
        <time>2017-01-08T08:32:30.954Z</time>
      </trkpt>
      <trkpt lat="47.79907" lon="2.18369">
        <ele>114</ele>
        <time>2017-01-08T08:32:31.986Z</time>
      </trkpt>
      <trkpt lat="47.79904" lon="2.18381">
        <ele>114</ele>
        <time>2017-01-08T08:32:32.986Z</time>
      </trkpt>
      <trkpt lat="47.79904" lon="2.18381">
        <ele>114</ele>
        <time>2017-01-08T08:32:33.973Z</time>
      </trkpt>
      <trkpt lat="47.79902" lon="2.18393">
        <ele>113</ele>
        <time>2017-01-08T08:32:34.961Z</time>
      </trkpt>
      <trkpt lat="47.799" lon="2.18398">
        <ele>113</ele>
        <time>2017-01-08T08:32:35.954Z</time>
      </trkpt>
      <trkpt lat="47.799" lon="2.18398">
        <ele>113</ele>
        <time>2017-01-08T08:32:36.974Z</time>
      </trkpt>
      <trkpt lat="47.79898" lon="2.18409">
        <ele>113</ele>
        <time>2017-01-08T08:32:37.964Z</time>
      </trkpt>
      <trkpt lat="47.79897" lon="2.18415">
        <ele>113</ele>
        <time>2017-01-08T08:32:38.992Z</time>
      </trkpt>
      <trkpt lat="47.79897" lon="2.18415">
        <ele>113</ele>
        <time>2017-01-08T08:32:39.980Z</time>
      </trkpt>
      <trkpt lat="47.79894" lon="2.18426">
        <ele>113</ele>
        <time>2017-01-08T08:32:40.969Z</time>
      </trkpt>
      <trkpt lat="47.79893" lon="2.18431">
        <ele>113</ele>
        <time>2017-01-08T08:32:41.973Z</time>
      </trkpt>
      <trkpt lat="47.79892" lon="2.18436">
        <ele>113</ele>
        <time>2017-01-08T08:32:42.973Z</time>
      </trkpt>
      <trkpt lat="47.79892" lon="2.18436">
        <ele>113</ele>
        <time>2017-01-08T08:32:43.962Z</time>
      </trkpt>
      <trkpt lat="47.7989" lon="2.18447">
        <ele>114</ele>
        <time>2017-01-08T08:32:44.991Z</time>
      </trkpt>
      <trkpt lat="47.7989" lon="2.18447">
        <ele>114</ele>
        <time>2017-01-08T08:32:45.979Z</time>
      </trkpt>
      <trkpt lat="47.79887" lon="2.18458">
        <ele>113</ele>
        <time>2017-01-08T08:32:46.973Z</time>
      </trkpt>
      <trkpt lat="47.79887" lon="2.18458">
        <ele>113</ele>
        <time>2017-01-08T08:32:47.962Z</time>
      </trkpt>
      <trkpt lat="47.79884" lon="2.18469">
        <ele>113</ele>
        <time>2017-01-08T08:32:48.993Z</time>
      </trkpt>
      <trkpt lat="47.79884" lon="2.18469">
        <ele>113</ele>
        <time>2017-01-08T08:32:49.980Z</time>
      </trkpt>
      <trkpt lat="47.79881" lon="2.1848">
        <ele>112</ele>
        <time>2017-01-08T08:32:50.973Z</time>
      </trkpt>
      <trkpt lat="47.79881" lon="2.1848">
        <ele>112</ele>
        <time>2017-01-08T08:32:51.964Z</time>
      </trkpt>
      <trkpt lat="47.79876" lon="2.18491">
        <ele>112</ele>
        <time>2017-01-08T08:32:52.993Z</time>
      </trkpt>
      <trkpt lat="47.79876" lon="2.18491">
        <ele>112</ele>
        <time>2017-01-08T08:32:53.989Z</time>
      </trkpt>
      <trkpt lat="47.79872" lon="2.18501">
        <ele>111</ele>
        <time>2017-01-08T08:32:54.992Z</time>
      </trkpt>
      <trkpt lat="47.79872" lon="2.18501">
        <ele>111</ele>
        <time>2017-01-08T08:32:55.979Z</time>
      </trkpt>
      <trkpt lat="47.79868" lon="2.18512">
        <ele>111</ele>
        <time>2017-01-08T08:32:56.974Z</time>
      </trkpt>
      <trkpt lat="47.79866" lon="2.18517">
        <ele>111</ele>
        <time>2017-01-08T08:32:57.976Z</time>
      </trkpt>
      <trkpt lat="47.79866" lon="2.18517">
        <ele>111</ele>
        <time>2017-01-08T08:32:58.963Z</time>
      </trkpt>
      <trkpt lat="47.79861" lon="2.18527">
        <ele>111</ele>
        <time>2017-01-08T08:32:59.958Z</time>
      </trkpt>
      <trkpt lat="47.79858" lon="2.18531">
        <ele>111</ele>
        <time>2017-01-08T08:33:00.986Z</time>
      </trkpt>
      <trkpt lat="47.79858" lon="2.18531">
        <ele>111</ele>
        <time>2017-01-08T08:33:01.974Z</time>
      </trkpt>
      <trkpt lat="47.79854" lon="2.18542">
        <ele>111</ele>
        <time>2017-01-08T08:33:02.964Z</time>
      </trkpt>
      <trkpt lat="47.79854" lon="2.18542">
        <ele>111</ele>
        <time>2017-01-08T08:33:03.987Z</time>
      </trkpt>
      <trkpt lat="47.79849" lon="2.18552">
        <ele>110</ele>
        <time>2017-01-08T08:33:04.963Z</time>
      </trkpt>
      <trkpt lat="47.79847" lon="2.18558">
        <ele>110</ele>
        <time>2017-01-08T08:33:05.992Z</time>
      </trkpt>
      <trkpt lat="47.79847" lon="2.18558">
        <ele>110</ele>
        <time>2017-01-08T08:33:06.980Z</time>
      </trkpt>
      <trkpt lat="47.79843" lon="2.18568">
        <ele>111</ele>
        <time>2017-01-08T08:33:07.979Z</time>
      </trkpt>
      <trkpt lat="47.79843" lon="2.18568">
        <ele>111</ele>
        <time>2017-01-08T08:33:08.967Z</time>
      </trkpt>
      <trkpt lat="47.79837" lon="2.18578">
        <ele>111</ele>
        <time>2017-01-08T08:33:09.963Z</time>
      </trkpt>
      <trkpt lat="47.79835" lon="2.18583">
        <ele>111</ele>
        <time>2017-01-08T08:33:10.992Z</time>
      </trkpt>
      <trkpt lat="47.79835" lon="2.18583">
        <ele>111</ele>
        <time>2017-01-08T08:33:11.981Z</time>
      </trkpt>
      <trkpt lat="47.79829" lon="2.18593">
        <ele>111</ele>
        <time>2017-01-08T08:33:12.974Z</time>
      </trkpt>
      <trkpt lat="47.79829" lon="2.18593">
        <ele>111</ele>
        <time>2017-01-08T08:33:13.963Z</time>
      </trkpt>
      <trkpt lat="47.79825" lon="2.18602">
        <ele>111</ele>
        <time>2017-01-08T08:33:14.993Z</time>
      </trkpt>
      <trkpt lat="47.79825" lon="2.18602">
        <ele>111</ele>
        <time>2017-01-08T08:33:15.987Z</time>
      </trkpt>
      <trkpt lat="47.7982" lon="2.18611">
        <ele>111</ele>
        <time>2017-01-08T08:33:16.976Z</time>
      </trkpt>
      <trkpt lat="47.7982" lon="2.18611">
        <ele>111</ele>
        <time>2017-01-08T08:33:17.966Z</time>
      </trkpt>
      <trkpt lat="47.79814" lon="2.18622">
        <ele>111</ele>
        <time>2017-01-08T08:33:18.954Z</time>
      </trkpt>
      <trkpt lat="47.79814" lon="2.18622">
        <ele>111</ele>
        <time>2017-01-08T08:33:19.986Z</time>
      </trkpt>
      <trkpt lat="47.79809" lon="2.18633">
        <ele>111</ele>
        <time>2017-01-08T08:33:20.975Z</time>
      </trkpt>
      <trkpt lat="47.79809" lon="2.18633">
        <ele>111</ele>
        <time>2017-01-08T08:33:21.962Z</time>
      </trkpt>
      <trkpt lat="47.79804" lon="2.18646">
        <ele>110</ele>
        <time>2017-01-08T08:33:22.993Z</time>
      </trkpt>
      <trkpt lat="47.79804" lon="2.18646">
        <ele>110</ele>
        <time>2017-01-08T08:33:23.980Z</time>
      </trkpt>
      <trkpt lat="47.79799" lon="2.18659">
        <ele>109</ele>
        <time>2017-01-08T08:33:24.986Z</time>
      </trkpt>
      <trkpt lat="47.79799" lon="2.18659">
        <ele>109</ele>
        <time>2017-01-08T08:33:25.986Z</time>
      </trkpt>
      <trkpt lat="47.79795" lon="2.18671">
        <ele>109</ele>
        <time>2017-01-08T08:33:26.977Z</time>
      </trkpt>
      <trkpt lat="47.79795" lon="2.18671">
        <ele>109</ele>
        <time>2017-01-08T08:33:27.966Z</time>
      </trkpt>
      <trkpt lat="47.7979" lon="2.18684">
        <ele>108</ele>
        <time>2017-01-08T08:33:28.966Z</time>
      </trkpt>
      <trkpt lat="47.7979" lon="2.18684">
        <ele>108</ele>
        <time>2017-01-08T08:33:29.956Z</time>
      </trkpt>
      <trkpt lat="47.79786" lon="2.18697">
        <ele>107</ele>
        <time>2017-01-08T08:33:30.986Z</time>
      </trkpt>
      <trkpt lat="47.79786" lon="2.18697">
        <ele>107</ele>
        <time>2017-01-08T08:33:31.975Z</time>
      </trkpt>
      <trkpt lat="47.79781" lon="2.18711">
        <ele>107</ele>
        <time>2017-01-08T08:33:32.963Z</time>
      </trkpt>
      <trkpt lat="47.79779" lon="2.18718">
        <ele>107</ele>
        <time>2017-01-08T08:33:33.991Z</time>
      </trkpt>
      <trkpt lat="47.79779" lon="2.18718">
        <ele>107</ele>
        <time>2017-01-08T08:33:34.979Z</time>
      </trkpt>
      <trkpt lat="47.79775" lon="2.18729">
        <ele>107</ele>
        <time>2017-01-08T08:33:35.970Z</time>
      </trkpt>
      <trkpt lat="47.79773" lon="2.18734">
        <ele>107</ele>
        <time>2017-01-08T08:33:36.958Z</time>
      </trkpt>
      <trkpt lat="47.79773" lon="2.18734">
        <ele>107</ele>
        <time>2017-01-08T08:33:37.988Z</time>
      </trkpt>
      <trkpt lat="47.79769" lon="2.18743">
        <ele>106</ele>
        <time>2017-01-08T08:33:38.987Z</time>
      </trkpt>
      <trkpt lat="47.79769" lon="2.18743">
        <ele>106</ele>
        <time>2017-01-08T08:33:39.974Z</time>
      </trkpt>
      <trkpt lat="47.79765" lon="2.18753">
        <ele>106</ele>
        <time>2017-01-08T08:33:40.963Z</time>
      </trkpt>
      <trkpt lat="47.79763" lon="2.18757">
        <ele>106</ele>
        <time>2017-01-08T08:33:41.966Z</time>
      </trkpt>
      <trkpt lat="47.79761" lon="2.18761">
        <ele>106</ele>
        <time>2017-01-08T08:33:42.954Z</time>
      </trkpt>
      <trkpt lat="47.79761" lon="2.18761">
        <ele>106</ele>
        <time>2017-01-08T08:33:43.987Z</time>
      </trkpt>
      <trkpt lat="47.79758" lon="2.18769">
        <ele>105</ele>
        <time>2017-01-08T08:33:44.987Z</time>
      </trkpt>
      <trkpt lat="47.79758" lon="2.18769">
        <ele>105</ele>
        <time>2017-01-08T08:33:45.974Z</time>
      </trkpt>
      <trkpt lat="47.79754" lon="2.18777">
        <ele>105</ele>
        <time>2017-01-08T08:33:46.973Z</time>
      </trkpt>
      <trkpt lat="47.79753" lon="2.1878">
        <ele>105</ele>
        <time>2017-01-08T08:33:47.962Z</time>
      </trkpt>
      <trkpt lat="47.79753" lon="2.1878">
        <ele>105</ele>
        <time>2017-01-08T08:33:48.973Z</time>
      </trkpt>
      <trkpt lat="47.7975" lon="2.18786">
        <ele>104</ele>
        <time>2017-01-08T08:33:49.965Z</time>
      </trkpt>
      <trkpt lat="47.79748" lon="2.18788">
        <ele>104</ele>
        <time>2017-01-08T08:33:50.954Z</time>
      </trkpt>
      <trkpt lat="47.79748" lon="2.18788">
        <ele>104</ele>
        <time>2017-01-08T08:33:51.963Z</time>
      </trkpt>
      <trkpt lat="47.79746" lon="2.18793">
        <ele>104</ele>
        <time>2017-01-08T08:33:52.992Z</time>
      </trkpt>
      <trkpt lat="47.79746" lon="2.18793">
        <ele>104</ele>
        <time>2017-01-08T08:33:53.990Z</time>
      </trkpt>
      <trkpt lat="47.79744" lon="2.18797">
        <ele>104</ele>
        <time>2017-01-08T08:33:54.955Z</time>
      </trkpt>
      <trkpt lat="47.79743" lon="2.18798">
        <ele>103</ele>
        <time>2017-01-08T08:33:55.986Z</time>
      </trkpt>
      <trkpt lat="47.79743" lon="2.18798">
        <ele>103</ele>
        <time>2017-01-08T08:33:56.974Z</time>
      </trkpt>
      <trkpt lat="47.79742" lon="2.188">
        <ele>103</ele>
        <time>2017-01-08T08:33:57.975Z</time>
      </trkpt>
      <trkpt lat="47.79742" lon="2.188">
        <ele>103</ele>
        <time>2017-01-08T08:33:58.963Z</time>
      </trkpt>
      <trkpt lat="47.79741" lon="2.188">
        <ele>103</ele>
        <time>2017-01-08T08:33:59.967Z</time>
      </trkpt>
      <trkpt lat="47.79741" lon="2.188">
        <ele>103</ele>
        <time>2017-01-08T08:34:00.959Z</time>
      </trkpt>
      <trkpt lat="47.79738" lon="2.18805">
        <ele>97</ele>
        <time>2017-01-08T08:34:01.954Z</time>
      </trkpt>
      <trkpt lat="47.79738" lon="2.18805">
        <ele>97</ele>
        <time>2017-01-08T08:34:02.985Z</time>
      </trkpt>
      <trkpt lat="47.79736" lon="2.18808">
        <ele>97</ele>
        <time>2017-01-08T08:34:03.986Z</time>
      </trkpt>
      <trkpt lat="47.79734" lon="2.18809">
        <ele>97</ele>
        <time>2017-01-08T08:34:04.973Z</time>
      </trkpt>
      <trkpt lat="47.79734" lon="2.18809">
        <ele>97</ele>
        <time>2017-01-08T08:34:05.960Z</time>
      </trkpt>
      <trkpt lat="47.79733" lon="2.18809">
        <ele>97</ele>
        <time>2017-01-08T08:34:06.991Z</time>
      </trkpt>
      <trkpt lat="47.79732" lon="2.18808">
        <ele>97</ele>
        <time>2017-01-08T08:34:07.967Z</time>
      </trkpt>
      <trkpt lat="47.79732" lon="2.18808">
        <ele>97</ele>
        <time>2017-01-08T08:34:08.954Z</time>
      </trkpt>
      <trkpt lat="47.7973" lon="2.18808">
        <ele>97</ele>
        <time>2017-01-08T08:34:09.957Z</time>
      </trkpt>
      <trkpt lat="47.7973" lon="2.18808">
        <ele>97</ele>
        <time>2017-01-08T08:34:10.985Z</time>
      </trkpt>
      <trkpt lat="47.79727" lon="2.18808">
        <ele>97</ele>
        <time>2017-01-08T08:34:11.967Z</time>
      </trkpt>
      <trkpt lat="47.79727" lon="2.18808">
        <ele>97</ele>
        <time>2017-01-08T08:34:12.962Z</time>
      </trkpt>
      <trkpt lat="47.79724" lon="2.18809">
        <ele>97</ele>
        <time>2017-01-08T08:34:13.991Z</time>
      </trkpt>
      <trkpt lat="47.79722" lon="2.1881">
        <ele>98</ele>
        <time>2017-01-08T08:34:14.956Z</time>
      </trkpt>
      <trkpt lat="47.79719" lon="2.1881">
        <ele>98</ele>
        <time>2017-01-08T08:34:15.954Z</time>
      </trkpt>
      <trkpt lat="47.79719" lon="2.1881">
        <ele>98</ele>
        <time>2017-01-08T08:34:16.983Z</time>
      </trkpt>
      <trkpt lat="47.79714" lon="2.18812">
        <ele>98</ele>
        <time>2017-01-08T08:34:17.985Z</time>
      </trkpt>
      <trkpt lat="47.79714" lon="2.18812">
        <ele>98</ele>
        <time>2017-01-08T08:34:18.954Z</time>
      </trkpt>
      <trkpt lat="47.79708" lon="2.18815">
        <ele>98</ele>
        <time>2017-01-08T08:34:19.987Z</time>
      </trkpt>
      <trkpt lat="47.79708" lon="2.18815">
        <ele>98</ele>
        <time>2017-01-08T08:34:20.954Z</time>
      </trkpt>
      <trkpt lat="47.79703" lon="2.1882">
        <ele>99</ele>
        <time>2017-01-08T08:34:21.988Z</time>
      </trkpt>
      <trkpt lat="47.79703" lon="2.1882">
        <ele>99</ele>
        <time>2017-01-08T08:34:22.994Z</time>
      </trkpt>
      <trkpt lat="47.79698" lon="2.18825">
        <ele>99</ele>
        <time>2017-01-08T08:34:23.972Z</time>
      </trkpt>
      <trkpt lat="47.79698" lon="2.18825">
        <ele>99</ele>
        <time>2017-01-08T08:34:24.959Z</time>
      </trkpt>
      <trkpt lat="47.79693" lon="2.1883">
        <ele>99</ele>
        <time>2017-01-08T08:34:25.988Z</time>
      </trkpt>
      <trkpt lat="47.7969" lon="2.18832">
        <ele>100</ele>
        <time>2017-01-08T08:34:26.978Z</time>
      </trkpt>
      <trkpt lat="47.7969" lon="2.18832">
        <ele>100</ele>
        <time>2017-01-08T08:34:27.967Z</time>
      </trkpt>
      <trkpt lat="47.79686" lon="2.18838">
        <ele>100</ele>
        <time>2017-01-08T08:34:28.954Z</time>
      </trkpt>
      <trkpt lat="47.79683" lon="2.18842">
        <ele>100</ele>
        <time>2017-01-08T08:34:29.992Z</time>
      </trkpt>
      <trkpt lat="47.79681" lon="2.18845">
        <ele>100</ele>
        <time>2017-01-08T08:34:30.967Z</time>
      </trkpt>
      <trkpt lat="47.79681" lon="2.18845">
        <ele>100</ele>
        <time>2017-01-08T08:34:31.955Z</time>
      </trkpt>
      <trkpt lat="47.79676" lon="2.18851">
        <ele>101</ele>
        <time>2017-01-08T08:34:32.983Z</time>
      </trkpt>
      <trkpt lat="47.79674" lon="2.18855">
        <ele>101</ele>
        <time>2017-01-08T08:34:33.986Z</time>
      </trkpt>
      <trkpt lat="47.79674" lon="2.18855">
        <ele>101</ele>
        <time>2017-01-08T08:34:34.992Z</time>
      </trkpt>
      <trkpt lat="47.79671" lon="2.18862">
        <ele>102</ele>
        <time>2017-01-08T08:34:35.993Z</time>
      </trkpt>
      <trkpt lat="47.79671" lon="2.18862">
        <ele>102</ele>
        <time>2017-01-08T08:34:36.960Z</time>
      </trkpt>
      <trkpt lat="47.79668" lon="2.18868">
        <ele>103</ele>
        <time>2017-01-08T08:34:37.969Z</time>
      </trkpt>
      <trkpt lat="47.79668" lon="2.18868">
        <ele>103</ele>
        <time>2017-01-08T08:34:38.957Z</time>
      </trkpt>
      <trkpt lat="47.79665" lon="2.18876">
        <ele>104</ele>
        <time>2017-01-08T08:34:39.957Z</time>
      </trkpt>
      <trkpt lat="47.79665" lon="2.18876">
        <ele>104</ele>
        <time>2017-01-08T08:34:40.985Z</time>
      </trkpt>
      <trkpt lat="47.79662" lon="2.18885">
        <ele>104</ele>
        <time>2017-01-08T08:34:41.956Z</time>
      </trkpt>
      <trkpt lat="47.79661" lon="2.18889">
        <ele>104</ele>
        <time>2017-01-08T08:34:42.991Z</time>
      </trkpt>
      <trkpt lat="47.79661" lon="2.18889">
        <ele>104</ele>
        <time>2017-01-08T08:34:43.956Z</time>
      </trkpt>
      <trkpt lat="47.79659" lon="2.18897">
        <ele>105</ele>
        <time>2017-01-08T08:34:44.988Z</time>
      </trkpt>
      <trkpt lat="47.79657" lon="2.18901">
        <ele>106</ele>
        <time>2017-01-08T08:34:45.978Z</time>
      </trkpt>
      <trkpt lat="47.79657" lon="2.18901">
        <ele>106</ele>
        <time>2017-01-08T08:34:46.970Z</time>
      </trkpt>
      <trkpt lat="47.79655" lon="2.18908">
        <ele>106</ele>
        <time>2017-01-08T08:34:47.960Z</time>
      </trkpt>
      <trkpt lat="47.79654" lon="2.18912">
        <ele>106</ele>
        <time>2017-01-08T08:34:48.991Z</time>
      </trkpt>
      <trkpt lat="47.79652" lon="2.18916">
        <ele>107</ele>
        <time>2017-01-08T08:34:49.979Z</time>
      </trkpt>
      <trkpt lat="47.79652" lon="2.18916">
        <ele>107</ele>
        <time>2017-01-08T08:34:50.982Z</time>
      </trkpt>
      <trkpt lat="47.7965" lon="2.18924">
        <ele>108</ele>
        <time>2017-01-08T08:34:51.985Z</time>
      </trkpt>
      <trkpt lat="47.7965" lon="2.18924">
        <ele>108</ele>
        <time>2017-01-08T08:34:52.993Z</time>
      </trkpt>
      <trkpt lat="47.79647" lon="2.18932">
        <ele>109</ele>
        <time>2017-01-08T08:34:53.992Z</time>
      </trkpt>
      <trkpt lat="47.79647" lon="2.18932">
        <ele>109</ele>
        <time>2017-01-08T08:34:54.958Z</time>
      </trkpt>
      <trkpt lat="47.79644" lon="2.18941">
        <ele>109</ele>
        <time>2017-01-08T08:34:55.986Z</time>
      </trkpt>
      <trkpt lat="47.79643" lon="2.18946">
        <ele>109</ele>
        <time>2017-01-08T08:34:56.956Z</time>
      </trkpt>
      <trkpt lat="47.79643" lon="2.18946">
        <ele>109</ele>
        <time>2017-01-08T08:34:57.991Z</time>
      </trkpt>
      <trkpt lat="47.7964" lon="2.18955">
        <ele>109</ele>
        <time>2017-01-08T08:34:58.968Z</time>
      </trkpt>
      <trkpt lat="47.7964" lon="2.18955">
        <ele>109</ele>
        <time>2017-01-08T08:34:59.956Z</time>
      </trkpt>
      <trkpt lat="47.79637" lon="2.18964">
        <ele>110</ele>
        <time>2017-01-08T08:35:00.985Z</time>
      </trkpt>
      <trkpt lat="47.79635" lon="2.18969">
        <ele>110</ele>
        <time>2017-01-08T08:35:01.967Z</time>
      </trkpt>
      <trkpt lat="47.79635" lon="2.18969">
        <ele>110</ele>
        <time>2017-01-08T08:35:02.956Z</time>
      </trkpt>
      <trkpt lat="47.79632" lon="2.1898">
        <ele>110</ele>
        <time>2017-01-08T08:35:03.968Z</time>
      </trkpt>
      <trkpt lat="47.79632" lon="2.1898">
        <ele>110</ele>
        <time>2017-01-08T08:35:04.988Z</time>
      </trkpt>
      <trkpt lat="47.79629" lon="2.18991">
        <ele>111</ele>
        <time>2017-01-08T08:35:05.993Z</time>
      </trkpt>
      <trkpt lat="47.79629" lon="2.18991">
        <ele>111</ele>
        <time>2017-01-08T08:35:06.959Z</time>
      </trkpt>
      <trkpt lat="47.79626" lon="2.19002">
        <ele>111</ele>
        <time>2017-01-08T08:35:07.954Z</time>
      </trkpt>
      <trkpt lat="47.79626" lon="2.19002">
        <ele>111</ele>
        <time>2017-01-08T08:35:08.984Z</time>
      </trkpt>
      <trkpt lat="47.79623" lon="2.19014">
        <ele>111</ele>
        <time>2017-01-08T08:35:09.969Z</time>
      </trkpt>
      <trkpt lat="47.79623" lon="2.19014">
        <ele>111</ele>
        <time>2017-01-08T08:35:10.957Z</time>
      </trkpt>
      <trkpt lat="47.7962" lon="2.19026">
        <ele>111</ele>
        <time>2017-01-08T08:35:11.991Z</time>
      </trkpt>
      <trkpt lat="47.79619" lon="2.19031">
        <ele>111</ele>
        <time>2017-01-08T08:35:12.957Z</time>
      </trkpt>
      <trkpt lat="47.79619" lon="2.19031">
        <ele>111</ele>
        <time>2017-01-08T08:35:13.985Z</time>
      </trkpt>
      <trkpt lat="47.79616" lon="2.19042">
        <ele>111</ele>
        <time>2017-01-08T08:35:14.991Z</time>
      </trkpt>
      <trkpt lat="47.79614" lon="2.19047">
        <ele>110</ele>
        <time>2017-01-08T08:35:15.957Z</time>
      </trkpt>
      <trkpt lat="47.79614" lon="2.19047">
        <ele>110</ele>
        <time>2017-01-08T08:35:16.985Z</time>
      </trkpt>
      <trkpt lat="47.79611" lon="2.19057">
        <ele>110</ele>
        <time>2017-01-08T08:35:17.990Z</time>
      </trkpt>
      <trkpt lat="47.79609" lon="2.19063">
        <ele>110</ele>
        <time>2017-01-08T08:35:18.955Z</time>
      </trkpt>
      <trkpt lat="47.79609" lon="2.19063">
        <ele>110</ele>
        <time>2017-01-08T08:35:19.983Z</time>
      </trkpt>
      <trkpt lat="47.79606" lon="2.19074">
        <ele>110</ele>
        <time>2017-01-08T08:35:20.987Z</time>
      </trkpt>
      <trkpt lat="47.79604" lon="2.1908">
        <ele>110</ele>
        <time>2017-01-08T08:35:21.968Z</time>
      </trkpt>
      <trkpt lat="47.79604" lon="2.1908">
        <ele>110</ele>
        <time>2017-01-08T08:35:22.955Z</time>
      </trkpt>
      <trkpt lat="47.79601" lon="2.19092">
        <ele>109</ele>
        <time>2017-01-08T08:35:23.955Z</time>
      </trkpt>
      <trkpt lat="47.79601" lon="2.19092">
        <ele>109</ele>
        <time>2017-01-08T08:35:24.985Z</time>
      </trkpt>
      <trkpt lat="47.79597" lon="2.19103">
        <ele>109</ele>
        <time>2017-01-08T08:35:25.987Z</time>
      </trkpt>
      <trkpt lat="47.79596" lon="2.19109">
        <ele>109</ele>
        <time>2017-01-08T08:35:26.990Z</time>
      </trkpt>
      <trkpt lat="47.79594" lon="2.19115">
        <ele>109</ele>
        <time>2017-01-08T08:35:27.968Z</time>
      </trkpt>
      <trkpt lat="47.79594" lon="2.19115">
        <ele>109</ele>
        <time>2017-01-08T08:35:28.956Z</time>
      </trkpt>
      <trkpt lat="47.79591" lon="2.19127">
        <ele>109</ele>
        <time>2017-01-08T08:35:29.984Z</time>
      </trkpt>
      <trkpt lat="47.79589" lon="2.19133">
        <ele>109</ele>
        <time>2017-01-08T08:35:30.959Z</time>
      </trkpt>
      <trkpt lat="47.79589" lon="2.19133">
        <ele>109</ele>
        <time>2017-01-08T08:35:31.987Z</time>
      </trkpt>
      <trkpt lat="47.79585" lon="2.19144">
        <ele>109</ele>
        <time>2017-01-08T08:35:32.968Z</time>
      </trkpt>
      <trkpt lat="47.79583" lon="2.19149">
        <ele>109</ele>
        <time>2017-01-08T08:35:33.964Z</time>
      </trkpt>
      <trkpt lat="47.79583" lon="2.19149">
        <ele>109</ele>
        <time>2017-01-08T08:35:34.993Z</time>
      </trkpt>
      <trkpt lat="47.79579" lon="2.1916">
        <ele>109</ele>
        <time>2017-01-08T08:35:35.959Z</time>
      </trkpt>
      <trkpt lat="47.79578" lon="2.19165">
        <ele>108</ele>
        <time>2017-01-08T08:35:36.992Z</time>
      </trkpt>
      <trkpt lat="47.79575" lon="2.19169">
        <ele>108</ele>
        <time>2017-01-08T08:35:37.970Z</time>
      </trkpt>
      <trkpt lat="47.79575" lon="2.19169">
        <ele>108</ele>
        <time>2017-01-08T08:35:38.958Z</time>
      </trkpt>
      <trkpt lat="47.79572" lon="2.1918">
        <ele>108</ele>
        <time>2017-01-08T08:35:39.959Z</time>
      </trkpt>
      <trkpt lat="47.79572" lon="2.1918">
        <ele>108</ele>
        <time>2017-01-08T08:35:40.987Z</time>
      </trkpt>
      <trkpt lat="47.79569" lon="2.19191">
        <ele>108</ele>
        <time>2017-01-08T08:35:41.967Z</time>
      </trkpt>
      <trkpt lat="47.79569" lon="2.19191">
        <ele>108</ele>
        <time>2017-01-08T08:35:42.954Z</time>
      </trkpt>
      <trkpt lat="47.79566" lon="2.19203">
        <ele>108</ele>
        <time>2017-01-08T08:35:43.983Z</time>
      </trkpt>
      <trkpt lat="47.79566" lon="2.19203">
        <ele>108</ele>
        <time>2017-01-08T08:35:44.970Z</time>
      </trkpt>
      <trkpt lat="47.79564" lon="2.19214">
        <ele>108</ele>
        <time>2017-01-08T08:35:45.959Z</time>
      </trkpt>
      <trkpt lat="47.79564" lon="2.19214">
        <ele>108</ele>
        <time>2017-01-08T08:35:46.986Z</time>
      </trkpt>
      <trkpt lat="47.79562" lon="2.19225">
        <ele>109</ele>
        <time>2017-01-08T08:35:47.993Z</time>
      </trkpt>
      <trkpt lat="47.79562" lon="2.19225">
        <ele>109</ele>
        <time>2017-01-08T08:35:48.956Z</time>
      </trkpt>
      <trkpt lat="47.7956" lon="2.19237">
        <ele>109</ele>
        <time>2017-01-08T08:35:49.986Z</time>
      </trkpt>
      <trkpt lat="47.7956" lon="2.19237">
        <ele>109</ele>
        <time>2017-01-08T08:35:50.993Z</time>
      </trkpt>
      <trkpt lat="47.79559" lon="2.19249">
        <ele>110</ele>
        <time>2017-01-08T08:35:51.954Z</time>
      </trkpt>
      <trkpt lat="47.79559" lon="2.19249">
        <ele>110</ele>
        <time>2017-01-08T08:35:52.984Z</time>
      </trkpt>
      <trkpt lat="47.79558" lon="2.1926">
        <ele>110</ele>
        <time>2017-01-08T08:35:53.956Z</time>
      </trkpt>
      <trkpt lat="47.79558" lon="2.1926">
        <ele>110</ele>
        <time>2017-01-08T08:35:54.987Z</time>
      </trkpt>
      <trkpt lat="47.79557" lon="2.19272">
        <ele>111</ele>
        <time>2017-01-08T08:35:55.957Z</time>
      </trkpt>
      <trkpt lat="47.79557" lon="2.19272">
        <ele>111</ele>
        <time>2017-01-08T08:35:56.985Z</time>
      </trkpt>
      <trkpt lat="47.79555" lon="2.19283">
        <ele>111</ele>
        <time>2017-01-08T08:35:57.982Z</time>
      </trkpt>
      <trkpt lat="47.79555" lon="2.19283">
        <ele>111</ele>
        <time>2017-01-08T08:35:58.981Z</time>
      </trkpt>
      <trkpt lat="47.79554" lon="2.19296">
        <ele>111</ele>
        <time>2017-01-08T08:35:59.962Z</time>
      </trkpt>
      <trkpt lat="47.79554" lon="2.19296">
        <ele>111</ele>
        <time>2017-01-08T08:36:00.989Z</time>
      </trkpt>
      <trkpt lat="47.79553" lon="2.19309">
        <ele>111</ele>
        <time>2017-01-08T08:36:01.962Z</time>
      </trkpt>
      <trkpt lat="47.79552" lon="2.19315">
        <ele>110</ele>
        <time>2017-01-08T08:36:02.962Z</time>
      </trkpt>
      <trkpt lat="47.79552" lon="2.19315">
        <ele>110</ele>
        <time>2017-01-08T08:36:03.968Z</time>
      </trkpt>
      <trkpt lat="47.79552" lon="2.19329">
        <ele>110</ele>
        <time>2017-01-08T08:36:04.970Z</time>
      </trkpt>
      <trkpt lat="47.79552" lon="2.19329">
        <ele>110</ele>
        <time>2017-01-08T08:36:05.958Z</time>
      </trkpt>
      <trkpt lat="47.79552" lon="2.19343">
        <ele>109</ele>
        <time>2017-01-08T08:36:06.972Z</time>
      </trkpt>
      <trkpt lat="47.79552" lon="2.19343">
        <ele>109</ele>
        <time>2017-01-08T08:36:07.960Z</time>
      </trkpt>
      <trkpt lat="47.79552" lon="2.19356">
        <ele>109</ele>
        <time>2017-01-08T08:36:08.954Z</time>
      </trkpt>
      <trkpt lat="47.79552" lon="2.19362">
        <ele>109</ele>
        <time>2017-01-08T08:36:09.968Z</time>
      </trkpt>
      <trkpt lat="47.79552" lon="2.19362">
        <ele>109</ele>
        <time>2017-01-08T08:36:10.955Z</time>
      </trkpt>
      <trkpt lat="47.79551" lon="2.19376">
        <ele>109</ele>
        <time>2017-01-08T08:36:11.959Z</time>
      </trkpt>
      <trkpt lat="47.79551" lon="2.19376">
        <ele>109</ele>
        <time>2017-01-08T08:36:12.987Z</time>
      </trkpt>
      <trkpt lat="47.79551" lon="2.19389">
        <ele>109</ele>
        <time>2017-01-08T08:36:13.992Z</time>
      </trkpt>
      <trkpt lat="47.79551" lon="2.19395">
        <ele>109</ele>
        <time>2017-01-08T08:36:14.954Z</time>
      </trkpt>
      <trkpt lat="47.79551" lon="2.19402">
        <ele>109</ele>
        <time>2017-01-08T08:36:15.986Z</time>
      </trkpt>
      <trkpt lat="47.79551" lon="2.19402">
        <ele>109</ele>
        <time>2017-01-08T08:36:16.992Z</time>
      </trkpt>
      <trkpt lat="47.79552" lon="2.19416">
        <ele>109</ele>
        <time>2017-01-08T08:36:17.956Z</time>
      </trkpt>
      <trkpt lat="47.79552" lon="2.19416">
        <ele>109</ele>
        <time>2017-01-08T08:36:18.985Z</time>
      </trkpt>
      <trkpt lat="47.79552" lon="2.1943">
        <ele>109</ele>
        <time>2017-01-08T08:36:19.992Z</time>
      </trkpt>
      <trkpt lat="47.79552" lon="2.1943">
        <ele>109</ele>
        <time>2017-01-08T08:36:20.957Z</time>
      </trkpt>
      <trkpt lat="47.79552" lon="2.19443">
        <ele>109</ele>
        <time>2017-01-08T08:36:21.955Z</time>
      </trkpt>
      <trkpt lat="47.79552" lon="2.19443">
        <ele>109</ele>
        <time>2017-01-08T08:36:22.984Z</time>
      </trkpt>
      <trkpt lat="47.79551" lon="2.19457">
        <ele>110</ele>
        <time>2017-01-08T08:36:23.992Z</time>
      </trkpt>
      <trkpt lat="47.7955" lon="2.19463">
        <ele>110</ele>
        <time>2017-01-08T08:36:24.983Z</time>
      </trkpt>
      <trkpt lat="47.7955" lon="2.19463">
        <ele>110</ele>
        <time>2017-01-08T08:36:25.984Z</time>
      </trkpt>
      <trkpt lat="47.79549" lon="2.19476">
        <ele>110</ele>
        <time>2017-01-08T08:36:26.989Z</time>
      </trkpt>
      <trkpt lat="47.79549" lon="2.19482">
        <ele>110</ele>
        <time>2017-01-08T08:36:27.968Z</time>
      </trkpt>
      <trkpt lat="47.79549" lon="2.19482">
        <ele>110</ele>
        <time>2017-01-08T08:36:28.957Z</time>
      </trkpt>
      <trkpt lat="47.79548" lon="2.19494">
        <ele>110</ele>
        <time>2017-01-08T08:36:29.954Z</time>
      </trkpt>
      <trkpt lat="47.79547" lon="2.195">
        <ele>110</ele>
        <time>2017-01-08T08:36:30.986Z</time>
      </trkpt>
      <trkpt lat="47.79547" lon="2.195">
        <ele>110</ele>
        <time>2017-01-08T08:36:31.954Z</time>
      </trkpt>
      <trkpt lat="47.79546" lon="2.19511">
        <ele>110</ele>
        <time>2017-01-08T08:36:32.985Z</time>
      </trkpt>
      <trkpt lat="47.79545" lon="2.19515">
        <ele>110</ele>
        <time>2017-01-08T08:36:33.963Z</time>
      </trkpt>
      <trkpt lat="47.79545" lon="2.19515">
        <ele>110</ele>
        <time>2017-01-08T08:36:34.992Z</time>
      </trkpt>
      <trkpt lat="47.79543" lon="2.19525">
        <ele>110</ele>
        <time>2017-01-08T08:36:35.954Z</time>
      </trkpt>
      <trkpt lat="47.79543" lon="2.19525">
        <ele>110</ele>
        <time>2017-01-08T08:36:36.982Z</time>
      </trkpt>
      <trkpt lat="47.79542" lon="2.19534">
        <ele>110</ele>
        <time>2017-01-08T08:36:37.985Z</time>
      </trkpt>
      <trkpt lat="47.79542" lon="2.19538">
        <ele>110</ele>
        <time>2017-01-08T08:36:38.954Z</time>
      </trkpt>
      <trkpt lat="47.79544" lon="2.19543">
        <ele>109</ele>
        <time>2017-01-08T08:36:39.985Z</time>
      </trkpt>
      <trkpt lat="47.79544" lon="2.19543">
        <ele>109</ele>
        <time>2017-01-08T08:36:40.993Z</time>
      </trkpt>
      <trkpt lat="47.79547" lon="2.19551">
        <ele>109</ele>
        <time>2017-01-08T08:36:41.954Z</time>
      </trkpt>
      <trkpt lat="47.79547" lon="2.19551">
        <ele>109</ele>
        <time>2017-01-08T08:36:42.981Z</time>
      </trkpt>
      <trkpt lat="47.79554" lon="2.19557">
        <ele>109</ele>
        <time>2017-01-08T08:36:43.986Z</time>
      </trkpt>
      <trkpt lat="47.79554" lon="2.19557">
        <ele>109</ele>
        <time>2017-01-08T08:36:44.972Z</time>
      </trkpt>
      <trkpt lat="47.79559" lon="2.19564">
        <ele>108</ele>
        <time>2017-01-08T08:36:45.968Z</time>
      </trkpt>
      <trkpt lat="47.79559" lon="2.19564">
        <ele>108</ele>
        <time>2017-01-08T08:36:46.956Z</time>
      </trkpt>
      <trkpt lat="47.79564" lon="2.19573">
        <ele>108</ele>
        <time>2017-01-08T08:36:47.985Z</time>
      </trkpt>
      <trkpt lat="47.79566" lon="2.19578">
        <ele>108</ele>
        <time>2017-01-08T08:36:48.969Z</time>
      </trkpt>
      <trkpt lat="47.79566" lon="2.19578">
        <ele>108</ele>
        <time>2017-01-08T08:36:49.957Z</time>
      </trkpt>
      <trkpt lat="47.79567" lon="2.19587">
        <ele>108</ele>
        <time>2017-01-08T08:36:50.986Z</time>
      </trkpt>
      <trkpt lat="47.79567" lon="2.19592">
        <ele>107</ele>
        <time>2017-01-08T08:36:51.993Z</time>
      </trkpt>
      <trkpt lat="47.79567" lon="2.19592">
        <ele>107</ele>
        <time>2017-01-08T08:36:52.970Z</time>
      </trkpt>
      <trkpt lat="47.79567" lon="2.19601">
        <ele>107</ele>
        <time>2017-01-08T08:36:53.961Z</time>
      </trkpt>
      <trkpt lat="47.79567" lon="2.19601">
        <ele>107</ele>
        <time>2017-01-08T08:36:54.989Z</time>
      </trkpt>
      <trkpt lat="47.79567" lon="2.1961">
        <ele>108</ele>
        <time>2017-01-08T08:36:55.993Z</time>
      </trkpt>
      <trkpt lat="47.79567" lon="2.1961">
        <ele>108</ele>
        <time>2017-01-08T08:36:56.958Z</time>
      </trkpt>
      <trkpt lat="47.79567" lon="2.19619">
        <ele>108</ele>
        <time>2017-01-08T08:36:57.988Z</time>
      </trkpt>
      <trkpt lat="47.79567" lon="2.19619">
        <ele>108</ele>
        <time>2017-01-08T08:36:58.954Z</time>
      </trkpt>
      <trkpt lat="47.79567" lon="2.19628">
        <ele>109</ele>
        <time>2017-01-08T08:36:59.984Z</time>
      </trkpt>
      <trkpt lat="47.79567" lon="2.19628">
        <ele>109</ele>
        <time>2017-01-08T08:37:00.987Z</time>
      </trkpt>
      <trkpt lat="47.79567" lon="2.19637">
        <ele>110</ele>
        <time>2017-01-08T08:37:01.991Z</time>
      </trkpt>
      <trkpt lat="47.79567" lon="2.19637">
        <ele>110</ele>
        <time>2017-01-08T08:37:02.957Z</time>
      </trkpt>
      <trkpt lat="47.79567" lon="2.19648">
        <ele>110</ele>
        <time>2017-01-08T08:37:03.968Z</time>
      </trkpt>
      <trkpt lat="47.79567" lon="2.19648">
        <ele>110</ele>
        <time>2017-01-08T08:37:04.978Z</time>
      </trkpt>
      <trkpt lat="47.79567" lon="2.19657">
        <ele>111</ele>
        <time>2017-01-08T08:37:05.968Z</time>
      </trkpt>
      <trkpt lat="47.79566" lon="2.19663">
        <ele>111</ele>
        <time>2017-01-08T08:37:06.990Z</time>
      </trkpt>
      <trkpt lat="47.79566" lon="2.19663">
        <ele>111</ele>
        <time>2017-01-08T08:37:07.957Z</time>
      </trkpt>
      <trkpt lat="47.79565" lon="2.19674">
        <ele>110</ele>
        <time>2017-01-08T08:37:08.986Z</time>
      </trkpt>
      <trkpt lat="47.79565" lon="2.19679">
        <ele>110</ele>
        <time>2017-01-08T08:37:09.989Z</time>
      </trkpt>
      <trkpt lat="47.79565" lon="2.19679">
        <ele>110</ele>
        <time>2017-01-08T08:37:10.955Z</time>
      </trkpt>
      <trkpt lat="47.79564" lon="2.1969">
        <ele>110</ele>
        <time>2017-01-08T08:37:11.992Z</time>
      </trkpt>
      <trkpt lat="47.79564" lon="2.1969">
        <ele>110</ele>
        <time>2017-01-08T08:37:12.958Z</time>
      </trkpt>
      <trkpt lat="47.79562" lon="2.197">
        <ele>110</ele>
        <time>2017-01-08T08:37:13.992Z</time>
      </trkpt>
      <trkpt lat="47.79561" lon="2.19705">
        <ele>111</ele>
        <time>2017-01-08T08:37:14.969Z</time>
      </trkpt>
      <trkpt lat="47.79561" lon="2.19705">
        <ele>111</ele>
        <time>2017-01-08T08:37:15.957Z</time>
      </trkpt>
      <trkpt lat="47.79559" lon="2.19716">
        <ele>111</ele>
        <time>2017-01-08T08:37:16.978Z</time>
      </trkpt>
      <trkpt lat="47.79559" lon="2.19721">
        <ele>111</ele>
        <time>2017-01-08T08:37:17.968Z</time>
      </trkpt>
      <trkpt lat="47.79559" lon="2.19721">
        <ele>111</ele>
        <time>2017-01-08T08:37:18.956Z</time>
      </trkpt>
      <trkpt lat="47.79557" lon="2.1973">
        <ele>111</ele>
        <time>2017-01-08T08:37:19.986Z</time>
      </trkpt>
      <trkpt lat="47.79557" lon="2.1973">
        <ele>111</ele>
        <time>2017-01-08T08:37:20.994Z</time>
      </trkpt>
      <trkpt lat="47.79556" lon="2.1974">
        <ele>111</ele>
        <time>2017-01-08T08:37:21.962Z</time>
      </trkpt>
      <trkpt lat="47.79556" lon="2.1974">
        <ele>111</ele>
        <time>2017-01-08T08:37:22.989Z</time>
      </trkpt>
      <trkpt lat="47.79554" lon="2.19749">
        <ele>111</ele>
        <time>2017-01-08T08:37:23.955Z</time>
      </trkpt>
      <trkpt lat="47.79554" lon="2.19749">
        <ele>111</ele>
        <time>2017-01-08T08:37:24.984Z</time>
      </trkpt>
      <trkpt lat="47.79552" lon="2.19758">
        <ele>111</ele>
        <time>2017-01-08T08:37:25.992Z</time>
      </trkpt>
      <trkpt lat="47.79552" lon="2.19758">
        <ele>111</ele>
        <time>2017-01-08T08:37:26.988Z</time>
      </trkpt>
      <trkpt lat="47.79551" lon="2.19768">
        <ele>111</ele>
        <time>2017-01-08T08:37:27.968Z</time>
      </trkpt>
      <trkpt lat="47.79551" lon="2.19768">
        <ele>111</ele>
        <time>2017-01-08T08:37:28.956Z</time>
      </trkpt>
      <trkpt lat="47.79549" lon="2.19776">
        <ele>110</ele>
        <time>2017-01-08T08:37:29.958Z</time>
      </trkpt>
      <trkpt lat="47.79549" lon="2.1978">
        <ele>110</ele>
        <time>2017-01-08T08:37:30.988Z</time>
      </trkpt>
      <trkpt lat="47.79549" lon="2.1978">
        <ele>110</ele>
        <time>2017-01-08T08:37:31.954Z</time>
      </trkpt>
      <trkpt lat="47.79548" lon="2.19783">
        <ele>110</ele>
        <time>2017-01-08T08:37:32.986Z</time>
      </trkpt>
      <trkpt lat="47.79548" lon="2.19785">
        <ele>110</ele>
        <time>2017-01-08T08:37:33.968Z</time>
      </trkpt>
      <trkpt lat="47.79548" lon="2.19785">
        <ele>110</ele>
        <time>2017-01-08T08:37:34.956Z</time>
      </trkpt>
      <trkpt lat="47.7955" lon="2.19785">
        <ele>110</ele>
        <time>2017-01-08T08:37:35.989Z</time>
      </trkpt>
      <trkpt lat="47.7955" lon="2.19786">
        <ele>110</ele>
        <time>2017-01-08T08:37:36.968Z</time>
      </trkpt>
      <trkpt lat="47.7955" lon="2.19786">
        <ele>110</ele>
        <time>2017-01-08T08:37:37.955Z</time>
      </trkpt>
      <trkpt lat="47.79552" lon="2.19787">
        <ele>110</ele>
        <time>2017-01-08T08:37:38.990Z</time>
      </trkpt>
      <trkpt lat="47.79553" lon="2.19787">
        <ele>110</ele>
        <time>2017-01-08T08:37:39.993Z</time>
      </trkpt>
      <trkpt lat="47.79553" lon="2.19787">
        <ele>110</ele>
        <time>2017-01-08T08:37:40.976Z</time>
      </trkpt>
      <trkpt lat="47.79556" lon="2.19786">
        <ele>111</ele>
        <time>2017-01-08T08:37:41.968Z</time>
      </trkpt>
      <trkpt lat="47.79556" lon="2.19786">
        <ele>111</ele>
        <time>2017-01-08T08:37:42.955Z</time>
      </trkpt>
      <trkpt lat="47.79561" lon="2.19785">
        <ele>111</ele>
        <time>2017-01-08T08:37:43.987Z</time>
      </trkpt>
      <trkpt lat="47.79561" lon="2.19785">
        <ele>111</ele>
        <time>2017-01-08T08:37:44.967Z</time>
      </trkpt>
      <trkpt lat="47.79566" lon="2.19784">
        <ele>112</ele>
        <time>2017-01-08T08:37:45.971Z</time>
      </trkpt>
      <trkpt lat="47.79566" lon="2.19784">
        <ele>112</ele>
        <time>2017-01-08T08:37:46.958Z</time>
      </trkpt>
      <trkpt lat="47.7957" lon="2.19781">
        <ele>112</ele>
        <time>2017-01-08T08:37:47.959Z</time>
      </trkpt>
      <trkpt lat="47.79573" lon="2.1978">
        <ele>112</ele>
        <time>2017-01-08T08:37:48.992Z</time>
      </trkpt>
      <trkpt lat="47.79573" lon="2.1978">
        <ele>112</ele>
        <time>2017-01-08T08:37:49.983Z</time>
      </trkpt>
      <trkpt lat="47.79578" lon="2.19778">
        <ele>112</ele>
        <time>2017-01-08T08:37:50.969Z</time>
      </trkpt>
      <trkpt lat="47.79578" lon="2.19778">
        <ele>112</ele>
        <time>2017-01-08T08:37:51.957Z</time>
      </trkpt>
      <trkpt lat="47.79585" lon="2.19776">
        <ele>112</ele>
        <time>2017-01-08T08:37:52.961Z</time>
      </trkpt>
      <trkpt lat="47.79588" lon="2.19775">
        <ele>113</ele>
        <time>2017-01-08T08:37:53.992Z</time>
      </trkpt>
      <trkpt lat="47.79591" lon="2.19774">
        <ele>113</ele>
        <time>2017-01-08T08:37:54.960Z</time>
      </trkpt>
      <trkpt lat="47.79591" lon="2.19774">
        <ele>113</ele>
        <time>2017-01-08T08:37:55.987Z</time>
      </trkpt>
      <trkpt lat="47.79595" lon="2.19773">
        <ele>113</ele>
        <time>2017-01-08T08:37:56.956Z</time>
      </trkpt>
      <trkpt lat="47.79598" lon="2.19774">
        <ele>113</ele>
        <time>2017-01-08T08:37:57.957Z</time>
      </trkpt>
      <trkpt lat="47.79598" lon="2.19774">
        <ele>113</ele>
        <time>2017-01-08T08:37:58.985Z</time>
      </trkpt>
      <trkpt lat="47.79602" lon="2.19776">
        <ele>114</ele>
        <time>2017-01-08T08:37:59.964Z</time>
      </trkpt>
      <trkpt lat="47.79602" lon="2.19776">
        <ele>114</ele>
        <time>2017-01-08T08:38:00.991Z</time>
      </trkpt>
      <trkpt lat="47.79604" lon="2.19775">
        <ele>115</ele>
        <time>2017-01-08T08:38:01.968Z</time>
      </trkpt>
      <trkpt lat="47.79604" lon="2.19775">
        <ele>115</ele>
        <time>2017-01-08T08:38:02.956Z</time>
      </trkpt>
      <trkpt lat="47.79604" lon="2.19775">
        <ele>115</ele>
        <time>2017-01-08T08:38:04.003Z</time>
      </trkpt>
      <trkpt lat="47.79611" lon="2.1978">
        <ele>114</ele>
        <time>2017-01-08T08:38:05.000Z</time>
      </trkpt>
      <trkpt lat="47.79612" lon="2.19783">
        <ele>114</ele>
        <time>2017-01-08T08:38:05.996Z</time>
      </trkpt>
      <trkpt lat="47.79612" lon="2.19783">
        <ele>114</ele>
        <time>2017-01-08T08:38:07.012Z</time>
      </trkpt>
      <trkpt lat="47.79613" lon="2.19791">
        <ele>114</ele>
        <time>2017-01-08T08:38:07.964Z</time>
      </trkpt>
      <trkpt lat="47.79613" lon="2.19791">
        <ele>114</ele>
        <time>2017-01-08T08:38:08.991Z</time>
      </trkpt>
      <trkpt lat="47.79612" lon="2.19798">
        <ele>114</ele>
        <time>2017-01-08T08:38:09.964Z</time>
      </trkpt>
      <trkpt lat="47.79612" lon="2.19798">
        <ele>114</ele>
        <time>2017-01-08T08:38:10.991Z</time>
      </trkpt>
      <trkpt lat="47.7961" lon="2.19804">
        <ele>114</ele>
        <time>2017-01-08T08:38:11.966Z</time>
      </trkpt>
      <trkpt lat="47.79608" lon="2.19806">
        <ele>114</ele>
        <time>2017-01-08T08:38:12.986Z</time>
      </trkpt>
      <trkpt lat="47.79608" lon="2.19806">
        <ele>114</ele>
        <time>2017-01-08T08:38:13.990Z</time>
      </trkpt>
      <trkpt lat="47.79606" lon="2.19812">
        <ele>114</ele>
        <time>2017-01-08T08:38:14.963Z</time>
      </trkpt>
      <trkpt lat="47.79604" lon="2.19819">
        <ele>113</ele>
        <time>2017-01-08T08:38:15.994Z</time>
      </trkpt>
      <trkpt lat="47.79604" lon="2.19819">
        <ele>113</ele>
        <time>2017-01-08T08:38:16.991Z</time>
      </trkpt>
      <trkpt lat="47.79603" lon="2.19822">
        <ele>113</ele>
        <time>2017-01-08T08:38:17.965Z</time>
      </trkpt>
      <trkpt lat="47.79603" lon="2.19825">
        <ele>113</ele>
        <time>2017-01-08T08:38:18.985Z</time>
      </trkpt>
      <trkpt lat="47.79603" lon="2.19825">
        <ele>113</ele>
        <time>2017-01-08T08:38:19.991Z</time>
      </trkpt>
      <trkpt lat="47.79603" lon="2.1983">
        <ele>113</ele>
        <time>2017-01-08T08:38:20.991Z</time>
      </trkpt>
      <trkpt lat="47.79603" lon="2.19831">
        <ele>113</ele>
        <time>2017-01-08T08:38:21.962Z</time>
      </trkpt>
      <trkpt lat="47.79603" lon="2.19831">
        <ele>113</ele>
        <time>2017-01-08T08:38:22.971Z</time>
      </trkpt>
      <trkpt lat="47.79603" lon="2.19836">
        <ele>113</ele>
        <time>2017-01-08T08:38:23.986Z</time>
      </trkpt>
      <trkpt lat="47.79603" lon="2.19836">
        <ele>113</ele>
        <time>2017-01-08T08:38:24.955Z</time>
      </trkpt>
      <trkpt lat="47.79605" lon="2.19843">
        <ele>113</ele>
        <time>2017-01-08T08:38:25.990Z</time>
      </trkpt>
      <trkpt lat="47.79605" lon="2.19843">
        <ele>113</ele>
        <time>2017-01-08T08:38:26.991Z</time>
      </trkpt>
      <trkpt lat="47.79608" lon="2.19852">
        <ele>113</ele>
        <time>2017-01-08T08:38:27.964Z</time>
      </trkpt>
      <trkpt lat="47.79608" lon="2.19852">
        <ele>113</ele>
        <time>2017-01-08T08:38:28.991Z</time>
      </trkpt>
      <trkpt lat="47.79609" lon="2.19861">
        <ele>113</ele>
        <time>2017-01-08T08:38:29.964Z</time>
      </trkpt>
      <trkpt lat="47.79609" lon="2.19866">
        <ele>113</ele>
        <time>2017-01-08T08:38:30.965Z</time>
      </trkpt>
      <trkpt lat="47.79609" lon="2.19866">
        <ele>113</ele>
        <time>2017-01-08T08:38:31.991Z</time>
      </trkpt>
      <trkpt lat="47.79608" lon="2.19873">
        <ele>113</ele>
        <time>2017-01-08T08:38:32.965Z</time>
      </trkpt>
      <trkpt lat="47.79608" lon="2.19873">
        <ele>113</ele>
        <time>2017-01-08T08:38:33.991Z</time>
      </trkpt>
      <trkpt lat="47.79608" lon="2.19881">
        <ele>114</ele>
        <time>2017-01-08T08:38:34.964Z</time>
      </trkpt>
      <trkpt lat="47.79608" lon="2.19881">
        <ele>114</ele>
        <time>2017-01-08T08:38:35.992Z</time>
      </trkpt>
      <trkpt lat="47.79607" lon="2.19889">
        <ele>114</ele>
        <time>2017-01-08T08:38:36.988Z</time>
      </trkpt>
      <trkpt lat="47.79607" lon="2.19889">
        <ele>114</ele>
        <time>2017-01-08T08:38:37.991Z</time>
      </trkpt>
      <trkpt lat="47.79608" lon="2.199">
        <ele>114</ele>
        <time>2017-01-08T08:38:38.964Z</time>
      </trkpt>
      <trkpt lat="47.79608" lon="2.199">
        <ele>114</ele>
        <time>2017-01-08T08:38:39.958Z</time>
      </trkpt>
      <trkpt lat="47.79606" lon="2.19908">
        <ele>114</ele>
        <time>2017-01-08T08:38:40.992Z</time>
      </trkpt>
      <trkpt lat="47.79605" lon="2.19912">
        <ele>114</ele>
        <time>2017-01-08T08:38:41.994Z</time>
      </trkpt>
      <trkpt lat="47.79605" lon="2.19916">
        <ele>114</ele>
        <time>2017-01-08T08:38:42.986Z</time>
      </trkpt>
      <trkpt lat="47.79605" lon="2.19916">
        <ele>114</ele>
        <time>2017-01-08T08:38:43.991Z</time>
      </trkpt>
      <trkpt lat="47.79604" lon="2.19924">
        <ele>114</ele>
        <time>2017-01-08T08:38:44.965Z</time>
      </trkpt>
      <trkpt lat="47.79604" lon="2.19924">
        <ele>114</ele>
        <time>2017-01-08T08:38:45.991Z</time>
      </trkpt>
      <trkpt lat="47.79604" lon="2.19934">
        <ele>114</ele>
        <time>2017-01-08T08:38:46.964Z</time>
      </trkpt>
      <trkpt lat="47.79604" lon="2.19939">
        <ele>114</ele>
        <time>2017-01-08T08:38:47.963Z</time>
      </trkpt>
      <trkpt lat="47.79604" lon="2.19945">
        <ele>114</ele>
        <time>2017-01-08T08:38:48.960Z</time>
      </trkpt>
      <trkpt lat="47.79604" lon="2.19945">
        <ele>114</ele>
        <time>2017-01-08T08:38:49.992Z</time>
      </trkpt>
      <trkpt lat="47.79604" lon="2.19956">
        <ele>114</ele>
        <time>2017-01-08T08:38:50.965Z</time>
      </trkpt>
      <trkpt lat="47.79604" lon="2.19956">
        <ele>114</ele>
        <time>2017-01-08T08:38:51.971Z</time>
      </trkpt>
      <trkpt lat="47.79605" lon="2.19966">
        <ele>114</ele>
        <time>2017-01-08T08:38:52.958Z</time>
      </trkpt>
      <trkpt lat="47.79605" lon="2.19966">
        <ele>114</ele>
        <time>2017-01-08T08:38:53.963Z</time>
      </trkpt>
      <trkpt lat="47.79605" lon="2.19974">
        <ele>114</ele>
        <time>2017-01-08T08:38:54.986Z</time>
      </trkpt>
      <trkpt lat="47.79605" lon="2.19974">
        <ele>114</ele>
        <time>2017-01-08T08:38:55.991Z</time>
      </trkpt>
      <trkpt lat="47.79605" lon="2.19981">
        <ele>114</ele>
        <time>2017-01-08T08:38:56.966Z</time>
      </trkpt>
      <trkpt lat="47.79605" lon="2.19986">
        <ele>115</ele>
        <time>2017-01-08T08:38:57.964Z</time>
      </trkpt>
      <trkpt lat="47.79605" lon="2.19986">
        <ele>115</ele>
        <time>2017-01-08T08:38:58.992Z</time>
      </trkpt>
      <trkpt lat="47.79605" lon="2.19997">
        <ele>115</ele>
        <time>2017-01-08T08:38:59.964Z</time>
      </trkpt>
      <trkpt lat="47.79604" lon="2.20002">
        <ele>116</ele>
        <time>2017-01-08T08:39:00.960Z</time>
      </trkpt>
      <trkpt lat="47.79604" lon="2.20013">
        <ele>116</ele>
        <time>2017-01-08T08:39:02.051Z</time>
      </trkpt>
      <trkpt lat="47.79604" lon="2.20013">
        <ele>116</ele>
        <time>2017-01-08T08:39:02.986Z</time>
      </trkpt>
      <trkpt lat="47.79604" lon="2.20013">
        <ele>116</ele>
        <time>2017-01-08T08:39:03.992Z</time>
      </trkpt>
      <trkpt lat="47.79605" lon="2.20024">
        <ele>116</ele>
        <time>2017-01-08T08:39:04.986Z</time>
      </trkpt>
      <trkpt lat="47.79605" lon="2.20024">
        <ele>116</ele>
        <time>2017-01-08T08:39:05.992Z</time>
      </trkpt>
      <trkpt lat="47.79608" lon="2.20034">
        <ele>117</ele>
        <time>2017-01-08T08:39:06.967Z</time>
      </trkpt>
      <trkpt lat="47.79608" lon="2.20034">
        <ele>117</ele>
        <time>2017-01-08T08:39:07.994Z</time>
      </trkpt>
      <trkpt lat="47.79609" lon="2.20045">
        <ele>117</ele>
        <time>2017-01-08T08:39:08.991Z</time>
      </trkpt>
      <trkpt lat="47.7961" lon="2.2005">
        <ele>117</ele>
        <time>2017-01-08T08:39:09.965Z</time>
      </trkpt>
      <trkpt lat="47.7961" lon="2.20054">
        <ele>117</ele>
        <time>2017-01-08T08:39:10.964Z</time>
      </trkpt>
      <trkpt lat="47.7961" lon="2.20054">
        <ele>117</ele>
        <time>2017-01-08T08:39:11.972Z</time>
      </trkpt>
      <trkpt lat="47.79611" lon="2.20061">
        <ele>117</ele>
        <time>2017-01-08T08:39:12.971Z</time>
      </trkpt>
      <trkpt lat="47.79611" lon="2.20061">
        <ele>117</ele>
        <time>2017-01-08T08:39:13.991Z</time>
      </trkpt>
      <trkpt lat="47.79613" lon="2.2007">
        <ele>117</ele>
        <time>2017-01-08T08:39:14.964Z</time>
      </trkpt>
      <trkpt lat="47.79613" lon="2.2007">
        <ele>117</ele>
        <time>2017-01-08T08:39:15.954Z</time>
      </trkpt>
      <trkpt lat="47.79615" lon="2.20078">
        <ele>117</ele>
        <time>2017-01-08T08:39:16.971Z</time>
      </trkpt>
      <trkpt lat="47.79617" lon="2.20082">
        <ele>117</ele>
        <time>2017-01-08T08:39:17.972Z</time>
      </trkpt>
      <trkpt lat="47.79617" lon="2.20082">
        <ele>117</ele>
        <time>2017-01-08T08:39:18.991Z</time>
      </trkpt>
      <trkpt lat="47.79621" lon="2.20089">
        <ele>117</ele>
        <time>2017-01-08T08:39:19.955Z</time>
      </trkpt>
      <trkpt lat="47.79623" lon="2.20093">
        <ele>117</ele>
        <time>2017-01-08T08:39:20.988Z</time>
      </trkpt>
      <trkpt lat="47.79623" lon="2.20093">
        <ele>117</ele>
        <time>2017-01-08T08:39:21.971Z</time>
      </trkpt>
      <trkpt lat="47.79627" lon="2.201">
        <ele>116</ele>
        <time>2017-01-08T08:39:22.965Z</time>
      </trkpt>
      <trkpt lat="47.79627" lon="2.201">
        <ele>116</ele>
        <time>2017-01-08T08:39:24.075Z</time>
      </trkpt>
      <trkpt lat="47.79631" lon="2.20108">
        <ele>115</ele>
        <time>2017-01-08T08:39:24.986Z</time>
      </trkpt>
      <trkpt lat="47.79631" lon="2.20108">
        <ele>115</ele>
        <time>2017-01-08T08:39:26.004Z</time>
      </trkpt>
      <trkpt lat="47.79635" lon="2.20117">
        <ele>115</ele>
        <time>2017-01-08T08:39:26.954Z</time>
      </trkpt>
      <trkpt lat="47.79635" lon="2.20117">
        <ele>115</ele>
        <time>2017-01-08T08:39:27.959Z</time>
      </trkpt>
      <trkpt lat="47.79639" lon="2.20124">
        <ele>115</ele>
        <time>2017-01-08T08:39:28.962Z</time>
      </trkpt>
      <trkpt lat="47.79639" lon="2.20124">
        <ele>115</ele>
        <time>2017-01-08T08:39:29.992Z</time>
      </trkpt>
      <trkpt lat="47.79642" lon="2.2013">
        <ele>115</ele>
        <time>2017-01-08T08:39:30.965Z</time>
      </trkpt>
      <trkpt lat="47.79642" lon="2.2013">
        <ele>115</ele>
        <time>2017-01-08T08:39:31.992Z</time>
      </trkpt>
      <trkpt lat="47.79644" lon="2.20134">
        <ele>116</ele>
        <time>2017-01-08T08:39:32.965Z</time>
      </trkpt>
      <trkpt lat="47.79644" lon="2.20134">
        <ele>116</ele>
        <time>2017-01-08T08:39:33.992Z</time>
      </trkpt>
      <trkpt lat="47.79645" lon="2.20136">
        <ele>116</ele>
        <time>2017-01-08T08:39:34.965Z</time>
      </trkpt>
      <trkpt lat="47.79645" lon="2.20136">
        <ele>116</ele>
        <time>2017-01-08T08:39:35.994Z</time>
      </trkpt>
      <trkpt lat="47.79645" lon="2.20138">
        <ele>116</ele>
        <time>2017-01-08T08:39:36.965Z</time>
      </trkpt>
      <trkpt lat="47.79645" lon="2.20138">
        <ele>116</ele>
        <time>2017-01-08T08:39:37.971Z</time>
      </trkpt>
      <trkpt lat="47.79645" lon="2.20141">
        <ele>116</ele>
        <time>2017-01-08T08:39:38.963Z</time>
      </trkpt>
      <trkpt lat="47.79645" lon="2.20141">
        <ele>116</ele>
        <time>2017-01-08T08:39:39.993Z</time>
      </trkpt>
      <trkpt lat="47.79643" lon="2.20141">
        <ele>116</ele>
        <time>2017-01-08T08:39:40.964Z</time>
      </trkpt>
      <trkpt lat="47.79643" lon="2.20143">
        <ele>115</ele>
        <time>2017-01-08T08:39:41.989Z</time>
      </trkpt>
      <trkpt lat="47.79643" lon="2.20143">
        <ele>115</ele>
        <time>2017-01-08T08:39:42.990Z</time>
      </trkpt>
      <trkpt lat="47.79638" lon="2.20144">
        <ele>115</ele>
        <time>2017-01-08T08:39:43.963Z</time>
      </trkpt>
      <trkpt lat="47.79636" lon="2.20145">
        <ele>115</ele>
        <time>2017-01-08T08:39:44.959Z</time>
      </trkpt>
      <trkpt lat="47.79636" lon="2.20145">
        <ele>115</ele>
        <time>2017-01-08T08:39:45.966Z</time>
      </trkpt>
      <trkpt lat="47.79631" lon="2.20146">
        <ele>115</ele>
        <time>2017-01-08T08:39:46.983Z</time>
      </trkpt>
      <trkpt lat="47.79631" lon="2.20146">
        <ele>115</ele>
        <time>2017-01-08T08:39:47.972Z</time>
      </trkpt>
      <trkpt lat="47.79627" lon="2.20147">
        <ele>115</ele>
        <time>2017-01-08T08:39:48.994Z</time>
      </trkpt>
      <trkpt lat="47.79627" lon="2.20147">
        <ele>115</ele>
        <time>2017-01-08T08:39:49.960Z</time>
      </trkpt>
      <trkpt lat="47.79624" lon="2.20146">
        <ele>115</ele>
        <time>2017-01-08T08:39:50.960Z</time>
      </trkpt>
      <trkpt lat="47.79624" lon="2.20146">
        <ele>115</ele>
        <time>2017-01-08T08:39:51.954Z</time>
      </trkpt>
      <trkpt lat="47.7962" lon="2.20147">
        <ele>115</ele>
        <time>2017-01-08T08:39:52.956Z</time>
      </trkpt>
      <trkpt lat="47.79618" lon="2.20147">
        <ele>115</ele>
        <time>2017-01-08T08:39:53.960Z</time>
      </trkpt>
      <trkpt lat="47.79615" lon="2.20147">
        <ele>115</ele>
        <time>2017-01-08T08:39:54.961Z</time>
      </trkpt>
      <trkpt lat="47.79615" lon="2.20147">
        <ele>115</ele>
        <time>2017-01-08T08:39:55.967Z</time>
      </trkpt>
      <trkpt lat="47.79611" lon="2.20146">
        <ele>115</ele>
        <time>2017-01-08T08:39:56.963Z</time>
      </trkpt>
      <trkpt lat="47.79608" lon="2.20145">
        <ele>114</ele>
        <time>2017-01-08T08:39:57.955Z</time>
      </trkpt>
      <trkpt lat="47.79608" lon="2.20145">
        <ele>114</ele>
        <time>2017-01-08T08:39:58.960Z</time>
      </trkpt>
      <trkpt lat="47.79603" lon="2.20143">
        <ele>114</ele>
        <time>2017-01-08T08:39:59.992Z</time>
      </trkpt>
      <trkpt lat="47.79601" lon="2.20142">
        <ele>114</ele>
        <time>2017-01-08T08:40:00.992Z</time>
      </trkpt>
      <trkpt lat="47.79599" lon="2.20142">
        <ele>113</ele>
        <time>2017-01-08T08:40:01.967Z</time>
      </trkpt>
      <trkpt lat="47.79599" lon="2.20142">
        <ele>113</ele>
        <time>2017-01-08T08:40:02.992Z</time>
      </trkpt>
      <trkpt lat="47.79596" lon="2.2014">
        <ele>112</ele>
        <time>2017-01-08T08:40:03.988Z</time>
      </trkpt>
      <trkpt lat="47.79596" lon="2.2014">
        <ele>112</ele>
        <time>2017-01-08T08:40:04.992Z</time>
      </trkpt>
      <trkpt lat="47.79593" lon="2.20139">
        <ele>112</ele>
        <time>2017-01-08T08:40:05.966Z</time>
      </trkpt>
      <trkpt lat="47.79593" lon="2.20139">
        <ele>112</ele>
        <time>2017-01-08T08:40:06.984Z</time>
      </trkpt>
      <trkpt lat="47.7959" lon="2.20139">
        <ele>111</ele>
        <time>2017-01-08T08:40:07.954Z</time>
      </trkpt>
      <trkpt lat="47.79589" lon="2.20139">
        <ele>111</ele>
        <time>2017-01-08T08:40:08.959Z</time>
      </trkpt>
      <trkpt lat="47.79589" lon="2.20139">
        <ele>111</ele>
        <time>2017-01-08T08:40:09.994Z</time>
      </trkpt>
      <trkpt lat="47.79587" lon="2.20142">
        <ele>111</ele>
        <time>2017-01-08T08:40:10.956Z</time>
      </trkpt>
      <trkpt lat="47.79587" lon="2.20142">
        <ele>111</ele>
        <time>2017-01-08T08:40:11.965Z</time>
      </trkpt>
      <trkpt lat="47.79587" lon="2.20145">
        <ele>111</ele>
        <time>2017-01-08T08:40:12.962Z</time>
      </trkpt>
      <trkpt lat="47.79587" lon="2.20145">
        <ele>111</ele>
        <time>2017-01-08T08:40:13.992Z</time>
      </trkpt>
      <trkpt lat="47.79588" lon="2.20149">
        <ele>111</ele>
        <time>2017-01-08T08:40:14.965Z</time>
      </trkpt>
      <trkpt lat="47.79588" lon="2.20149">
        <ele>111</ele>
        <time>2017-01-08T08:40:15.993Z</time>
      </trkpt>
      <trkpt lat="47.79589" lon="2.20153">
        <ele>111</ele>
        <time>2017-01-08T08:40:16.999Z</time>
      </trkpt>
      <trkpt lat="47.79589" lon="2.20153">
        <ele>111</ele>
        <time>2017-01-08T08:40:17.965Z</time>
      </trkpt>
      <trkpt lat="47.7959" lon="2.20158">
        <ele>111</ele>
        <time>2017-01-08T08:40:18.988Z</time>
      </trkpt>
      <trkpt lat="47.7959" lon="2.20158">
        <ele>111</ele>
        <time>2017-01-08T08:40:19.992Z</time>
      </trkpt>
      <trkpt lat="47.7959" lon="2.20159">
        <ele>111</ele>
        <time>2017-01-08T08:40:20.965Z</time>
      </trkpt>
      <trkpt lat="47.7959" lon="2.20165">
        <ele>110</ele>
        <time>2017-01-08T08:40:21.958Z</time>
      </trkpt>
      <trkpt lat="47.7959" lon="2.20167">
        <ele>110</ele>
        <time>2017-01-08T08:40:22.971Z</time>
      </trkpt>
      <trkpt lat="47.79591" lon="2.2017">
        <ele>110</ele>
        <time>2017-01-08T08:40:23.959Z</time>
      </trkpt>
      <trkpt lat="47.79591" lon="2.2017">
        <ele>110</ele>
        <time>2017-01-08T08:40:24.971Z</time>
      </trkpt>
      <trkpt lat="47.79591" lon="2.20177">
        <ele>110</ele>
        <time>2017-01-08T08:40:25.959Z</time>
      </trkpt>
      <trkpt lat="47.79591" lon="2.20177">
        <ele>110</ele>
        <time>2017-01-08T08:40:26.954Z</time>
      </trkpt>
      <trkpt lat="47.79592" lon="2.20184">
        <ele>110</ele>
        <time>2017-01-08T08:40:27.989Z</time>
      </trkpt>
      <trkpt lat="47.79592" lon="2.20184">
        <ele>110</ele>
        <time>2017-01-08T08:40:28.983Z</time>
      </trkpt>
      <trkpt lat="47.79593" lon="2.20191">
        <ele>111</ele>
        <time>2017-01-08T08:40:29.986Z</time>
      </trkpt>
      <trkpt lat="47.79593" lon="2.20194">
        <ele>111</ele>
        <time>2017-01-08T08:40:30.985Z</time>
      </trkpt>
      <trkpt lat="47.79593" lon="2.20194">
        <ele>111</ele>
        <time>2017-01-08T08:40:31.978Z</time>
      </trkpt>
      <trkpt lat="47.79593" lon="2.202">
        <ele>111</ele>
        <time>2017-01-08T08:40:32.987Z</time>
      </trkpt>
      <trkpt lat="47.79594" lon="2.20204">
        <ele>111</ele>
        <time>2017-01-08T08:40:33.985Z</time>
      </trkpt>
      <trkpt lat="47.79594" lon="2.20207">
        <ele>111</ele>
        <time>2017-01-08T08:40:34.989Z</time>
      </trkpt>
      <trkpt lat="47.79595" lon="2.2021">
        <ele>111</ele>
        <time>2017-01-08T08:40:35.988Z</time>
      </trkpt>
      <trkpt lat="47.79595" lon="2.2021">
        <ele>111</ele>
        <time>2017-01-08T08:40:36.981Z</time>
      </trkpt>
      <trkpt lat="47.79595" lon="2.20216">
        <ele>112</ele>
        <time>2017-01-08T08:40:37.988Z</time>
      </trkpt>
      <trkpt lat="47.79595" lon="2.20216">
        <ele>112</ele>
        <time>2017-01-08T08:40:38.984Z</time>
      </trkpt>
      <trkpt lat="47.79596" lon="2.20224">
        <ele>113</ele>
        <time>2017-01-08T08:40:39.987Z</time>
      </trkpt>
      <trkpt lat="47.79596" lon="2.20224">
        <ele>113</ele>
        <time>2017-01-08T08:40:40.992Z</time>
      </trkpt>
      <trkpt lat="47.79597" lon="2.20231">
        <ele>113</ele>
        <time>2017-01-08T08:40:41.984Z</time>
      </trkpt>
      <trkpt lat="47.79598" lon="2.20235">
        <ele>113</ele>
        <time>2017-01-08T08:40:42.989Z</time>
      </trkpt>
      <trkpt lat="47.79598" lon="2.20235">
        <ele>113</ele>
        <time>2017-01-08T08:40:43.988Z</time>
      </trkpt>
      <trkpt lat="47.796" lon="2.20244">
        <ele>113</ele>
        <time>2017-01-08T08:40:44.988Z</time>
      </trkpt>
      <trkpt lat="47.796" lon="2.20244">
        <ele>113</ele>
        <time>2017-01-08T08:40:45.984Z</time>
      </trkpt>
      <trkpt lat="47.79601" lon="2.20253">
        <ele>113</ele>
        <time>2017-01-08T08:40:46.990Z</time>
      </trkpt>
      <trkpt lat="47.79603" lon="2.20257">
        <ele>113</ele>
        <time>2017-01-08T08:40:47.988Z</time>
      </trkpt>
      <trkpt lat="47.79603" lon="2.20257">
        <ele>113</ele>
        <time>2017-01-08T08:40:48.984Z</time>
      </trkpt>
      <trkpt lat="47.79603" lon="2.20267">
        <ele>114</ele>
        <time>2017-01-08T08:40:49.986Z</time>
      </trkpt>
      <trkpt lat="47.79603" lon="2.20272">
        <ele>114</ele>
        <time>2017-01-08T08:40:50.987Z</time>
      </trkpt>
      <trkpt lat="47.79603" lon="2.20272">
        <ele>114</ele>
        <time>2017-01-08T08:40:51.985Z</time>
      </trkpt>
      <trkpt lat="47.79604" lon="2.20283">
        <ele>113</ele>
        <time>2017-01-08T08:40:52.988Z</time>
      </trkpt>
      <trkpt lat="47.79604" lon="2.20289">
        <ele>113</ele>
        <time>2017-01-08T08:40:53.988Z</time>
      </trkpt>
      <trkpt lat="47.79604" lon="2.20289">
        <ele>113</ele>
        <time>2017-01-08T08:40:54.979Z</time>
      </trkpt>
      <trkpt lat="47.79605" lon="2.20302">
        <ele>112</ele>
        <time>2017-01-08T08:40:55.987Z</time>
      </trkpt>
      <trkpt lat="47.79605" lon="2.20302">
        <ele>112</ele>
        <time>2017-01-08T08:40:56.981Z</time>
      </trkpt>
      <trkpt lat="47.79606" lon="2.20315">
        <ele>112</ele>
        <time>2017-01-08T08:40:57.987Z</time>
      </trkpt>
      <trkpt lat="47.79606" lon="2.20322">
        <ele>112</ele>
        <time>2017-01-08T08:40:58.957Z</time>
      </trkpt>
      <trkpt lat="47.79606" lon="2.20322">
        <ele>112</ele>
        <time>2017-01-08T08:40:59.991Z</time>
      </trkpt>
      <trkpt lat="47.79607" lon="2.20336">
        <ele>111</ele>
        <time>2017-01-08T08:41:00.987Z</time>
      </trkpt>
      <trkpt lat="47.79607" lon="2.20336">
        <ele>111</ele>
        <time>2017-01-08T08:41:01.985Z</time>
      </trkpt>
      <trkpt lat="47.79609" lon="2.2035">
        <ele>111</ele>
        <time>2017-01-08T08:41:02.987Z</time>
      </trkpt>
      <trkpt lat="47.7961" lon="2.20356">
        <ele>112</ele>
        <time>2017-01-08T08:41:03.966Z</time>
      </trkpt>
      <trkpt lat="47.7961" lon="2.20356">
        <ele>112</ele>
        <time>2017-01-08T08:41:04.988Z</time>
      </trkpt>
      <trkpt lat="47.79613" lon="2.20369">
        <ele>113</ele>
        <time>2017-01-08T08:41:05.987Z</time>
      </trkpt>
      <trkpt lat="47.79613" lon="2.20369">
        <ele>113</ele>
        <time>2017-01-08T08:41:06.978Z</time>
      </trkpt>
      <trkpt lat="47.79616" lon="2.20381">
        <ele>113</ele>
        <time>2017-01-08T08:41:07.986Z</time>
      </trkpt>
      <trkpt lat="47.79618" lon="2.20388">
        <ele>114</ele>
        <time>2017-01-08T08:41:08.988Z</time>
      </trkpt>
      <trkpt lat="47.79618" lon="2.20388">
        <ele>114</ele>
        <time>2017-01-08T08:41:09.986Z</time>
      </trkpt>
      <trkpt lat="47.79621" lon="2.20401">
        <ele>114</ele>
        <time>2017-01-08T08:41:10.960Z</time>
      </trkpt>
      <trkpt lat="47.79621" lon="2.20401">
        <ele>114</ele>
        <time>2017-01-08T08:41:11.954Z</time>
      </trkpt>
      <trkpt lat="47.79625" lon="2.20413">
        <ele>116</ele>
        <time>2017-01-08T08:41:12.989Z</time>
      </trkpt>
      <trkpt lat="47.79626" lon="2.20419">
        <ele>116</ele>
        <time>2017-01-08T08:41:13.988Z</time>
      </trkpt>
      <trkpt lat="47.79626" lon="2.20419">
        <ele>116</ele>
        <time>2017-01-08T08:41:14.984Z</time>
      </trkpt>
      <trkpt lat="47.7963" lon="2.2043">
        <ele>118</ele>
        <time>2017-01-08T08:41:15.988Z</time>
      </trkpt>
      <trkpt lat="47.7963" lon="2.2043">
        <ele>118</ele>
        <time>2017-01-08T08:41:16.987Z</time>
      </trkpt>
      <trkpt lat="47.79634" lon="2.20444">
        <ele>119</ele>
        <time>2017-01-08T08:41:17.988Z</time>
      </trkpt>
      <trkpt lat="47.79634" lon="2.20444">
        <ele>119</ele>
        <time>2017-01-08T08:41:18.981Z</time>
      </trkpt>
      <trkpt lat="47.79637" lon="2.20457">
        <ele>120</ele>
        <time>2017-01-08T08:41:19.985Z</time>
      </trkpt>
      <trkpt lat="47.79639" lon="2.20464">
        <ele>120</ele>
        <time>2017-01-08T08:41:20.988Z</time>
      </trkpt>
      <trkpt lat="47.79639" lon="2.20464">
        <ele>120</ele>
        <time>2017-01-08T08:41:21.984Z</time>
      </trkpt>
      <trkpt lat="47.79642" lon="2.20477">
        <ele>121</ele>
        <time>2017-01-08T08:41:22.990Z</time>
      </trkpt>
      <trkpt lat="47.79642" lon="2.20477">
        <ele>121</ele>
        <time>2017-01-08T08:41:23.984Z</time>
      </trkpt>
      <trkpt lat="47.79644" lon="2.20491">
        <ele>122</ele>
        <time>2017-01-08T08:41:24.986Z</time>
      </trkpt>
      <trkpt lat="47.79646" lon="2.20499">
        <ele>121</ele>
        <time>2017-01-08T08:41:25.991Z</time>
      </trkpt>
      <trkpt lat="47.79646" lon="2.20499">
        <ele>121</ele>
        <time>2017-01-08T08:41:26.982Z</time>
      </trkpt>
      <trkpt lat="47.79649" lon="2.20514">
        <ele>121</ele>
        <time>2017-01-08T08:41:27.988Z</time>
      </trkpt>
      <trkpt lat="47.79649" lon="2.20514">
        <ele>121</ele>
        <time>2017-01-08T08:41:28.986Z</time>
      </trkpt>
      <trkpt lat="47.79651" lon="2.20527">
        <ele>121</ele>
        <time>2017-01-08T08:41:29.988Z</time>
      </trkpt>
      <trkpt lat="47.79652" lon="2.20534">
        <ele>122</ele>
        <time>2017-01-08T08:41:30.988Z</time>
      </trkpt>
      <trkpt lat="47.79652" lon="2.20534">
        <ele>122</ele>
        <time>2017-01-08T08:41:31.984Z</time>
      </trkpt>
      <trkpt lat="47.79654" lon="2.20548">
        <ele>122</ele>
        <time>2017-01-08T08:41:32.988Z</time>
      </trkpt>
      <trkpt lat="47.79654" lon="2.20548">
        <ele>122</ele>
        <time>2017-01-08T08:41:33.985Z</time>
      </trkpt>
      <trkpt lat="47.79656" lon="2.20558">
        <ele>122</ele>
        <time>2017-01-08T08:41:34.990Z</time>
      </trkpt>
      <trkpt lat="47.79656" lon="2.20558">
        <ele>122</ele>
        <time>2017-01-08T08:41:35.985Z</time>
      </trkpt>
      <trkpt lat="47.79657" lon="2.20567">
        <ele>122</ele>
        <time>2017-01-08T08:41:36.988Z</time>
      </trkpt>
      <trkpt lat="47.79657" lon="2.20567">
        <ele>122</ele>
        <time>2017-01-08T08:41:37.986Z</time>
      </trkpt>
      <trkpt lat="47.79657" lon="2.20577">
        <ele>122</ele>
        <time>2017-01-08T08:41:38.987Z</time>
      </trkpt>
      <trkpt lat="47.79657" lon="2.20577">
        <ele>122</ele>
        <time>2017-01-08T08:41:39.982Z</time>
      </trkpt>
      <trkpt lat="47.79658" lon="2.2059">
        <ele>123</ele>
        <time>2017-01-08T08:41:40.969Z</time>
      </trkpt>
      <trkpt lat="47.79658" lon="2.2059">
        <ele>123</ele>
        <time>2017-01-08T08:41:41.964Z</time>
      </trkpt>
      <trkpt lat="47.79658" lon="2.20603">
        <ele>124</ele>
        <time>2017-01-08T08:41:42.993Z</time>
      </trkpt>
      <trkpt lat="47.79658" lon="2.2061">
        <ele>124</ele>
        <time>2017-01-08T08:41:43.988Z</time>
      </trkpt>
      <trkpt lat="47.79658" lon="2.2061">
        <ele>124</ele>
        <time>2017-01-08T08:41:44.989Z</time>
      </trkpt>
      <trkpt lat="47.7966" lon="2.20626">
        <ele>124</ele>
        <time>2017-01-08T08:41:45.988Z</time>
      </trkpt>
      <trkpt lat="47.7966" lon="2.20633">
        <ele>124</ele>
        <time>2017-01-08T08:41:46.990Z</time>
      </trkpt>
      <trkpt lat="47.7966" lon="2.20633">
        <ele>124</ele>
        <time>2017-01-08T08:41:47.983Z</time>
      </trkpt>
      <trkpt lat="47.79661" lon="2.20646">
        <ele>124</ele>
        <time>2017-01-08T08:41:48.988Z</time>
      </trkpt>
      <trkpt lat="47.79661" lon="2.20646">
        <ele>124</ele>
        <time>2017-01-08T08:41:49.982Z</time>
      </trkpt>
      <trkpt lat="47.79661" lon="2.20659">
        <ele>122</ele>
        <time>2017-01-08T08:41:50.988Z</time>
      </trkpt>
      <trkpt lat="47.79661" lon="2.20659">
        <ele>122</ele>
        <time>2017-01-08T08:41:51.981Z</time>
      </trkpt>
      <trkpt lat="47.79662" lon="2.2067">
        <ele>122</ele>
        <time>2017-01-08T08:41:52.970Z</time>
      </trkpt>
      <trkpt lat="47.79662" lon="2.2067">
        <ele>122</ele>
        <time>2017-01-08T08:41:53.964Z</time>
      </trkpt>
      <trkpt lat="47.79662" lon="2.2068">
        <ele>123</ele>
        <time>2017-01-08T08:41:54.956Z</time>
      </trkpt>
      <trkpt lat="47.79662" lon="2.20685">
        <ele>123</ele>
        <time>2017-01-08T08:41:55.993Z</time>
      </trkpt>
      <trkpt lat="47.79662" lon="2.20685">
        <ele>123</ele>
        <time>2017-01-08T08:41:56.984Z</time>
      </trkpt>
      <trkpt lat="47.79662" lon="2.20696">
        <ele>124</ele>
        <time>2017-01-08T08:41:57.988Z</time>
      </trkpt>
      <trkpt lat="47.79663" lon="2.20701">
        <ele>124</ele>
        <time>2017-01-08T08:41:58.956Z</time>
      </trkpt>
      <trkpt lat="47.79663" lon="2.20701">
        <ele>124</ele>
        <time>2017-01-08T08:41:59.964Z</time>
      </trkpt>
      <trkpt lat="47.79666" lon="2.2071">
        <ele>124</ele>
        <time>2017-01-08T08:42:00.954Z</time>
      </trkpt>
      <trkpt lat="47.79666" lon="2.2071">
        <ele>124</ele>
        <time>2017-01-08T08:42:01.987Z</time>
      </trkpt>
      <trkpt lat="47.79669" lon="2.20717">
        <ele>123</ele>
        <time>2017-01-08T08:42:02.987Z</time>
      </trkpt>
      <trkpt lat="47.79669" lon="2.20717">
        <ele>123</ele>
        <time>2017-01-08T08:42:03.992Z</time>
      </trkpt>
      <trkpt lat="47.79671" lon="2.20723">
        <ele>122</ele>
        <time>2017-01-08T08:42:04.970Z</time>
      </trkpt>
      <trkpt lat="47.79671" lon="2.20723">
        <ele>122</ele>
        <time>2017-01-08T08:42:05.971Z</time>
      </trkpt>
      <trkpt lat="47.79671" lon="2.20727">
        <ele>121</ele>
        <time>2017-01-08T08:42:06.959Z</time>
      </trkpt>
      <trkpt lat="47.79671" lon="2.20727">
        <ele>121</ele>
        <time>2017-01-08T08:42:07.993Z</time>
      </trkpt>
      <trkpt lat="47.79671" lon="2.2073">
        <ele>120</ele>
        <time>2017-01-08T08:42:08.987Z</time>
      </trkpt>
      <trkpt lat="47.79671" lon="2.2073">
        <ele>120</ele>
        <time>2017-01-08T08:42:09.982Z</time>
      </trkpt>
      <trkpt lat="47.79672" lon="2.20732">
        <ele>120</ele>
        <time>2017-01-08T08:42:10.979Z</time>
      </trkpt>
      <trkpt lat="47.79672" lon="2.20732">
        <ele>120</ele>
        <time>2017-01-08T08:42:11.985Z</time>
      </trkpt>
      <trkpt lat="47.79673" lon="2.20733">
        <ele>120</ele>
        <time>2017-01-08T08:42:12.988Z</time>
      </trkpt>
      <trkpt lat="47.79673" lon="2.20734">
        <ele>120</ele>
        <time>2017-01-08T08:42:13.985Z</time>
      </trkpt>
      <trkpt lat="47.79673" lon="2.20734">
        <ele>120</ele>
        <time>2017-01-08T08:42:14.982Z</time>
      </trkpt>
      <trkpt lat="47.79674" lon="2.20734">
        <ele>119</ele>
        <time>2017-01-08T08:42:15.988Z</time>
      </trkpt>
      <trkpt lat="47.79673" lon="2.20734">
        <ele>119</ele>
        <time>2017-01-08T08:42:16.979Z</time>
      </trkpt>
      <trkpt lat="47.79673" lon="2.20734">
        <ele>119</ele>
        <time>2017-01-08T08:42:17.991Z</time>
      </trkpt>
      <trkpt lat="47.79676" lon="2.20742">
        <ele>119</ele>
        <time>2017-01-08T08:42:18.981Z</time>
      </trkpt>
      <trkpt lat="47.79676" lon="2.20742">
        <ele>119</ele>
        <time>2017-01-08T08:42:19.979Z</time>
      </trkpt>
      <trkpt lat="47.79677" lon="2.20746">
        <ele>119</ele>
        <time>2017-01-08T08:42:20.979Z</time>
      </trkpt>
      <trkpt lat="47.79677" lon="2.20746">
        <ele>119</ele>
        <time>2017-01-08T08:42:21.989Z</time>
      </trkpt>
      <trkpt lat="47.79678" lon="2.20751">
        <ele>119</ele>
        <time>2017-01-08T08:42:22.979Z</time>
      </trkpt>
      <trkpt lat="47.79678" lon="2.20751">
        <ele>119</ele>
        <time>2017-01-08T08:42:23.969Z</time>
      </trkpt>
      <trkpt lat="47.79678" lon="2.20757">
        <ele>119</ele>
        <time>2017-01-08T08:42:24.971Z</time>
      </trkpt>
      <trkpt lat="47.79678" lon="2.20757">
        <ele>119</ele>
        <time>2017-01-08T08:42:25.967Z</time>
      </trkpt>
      <trkpt lat="47.7968" lon="2.20763">
        <ele>119</ele>
        <time>2017-01-08T08:42:26.971Z</time>
      </trkpt>
      <trkpt lat="47.7968" lon="2.20763">
        <ele>119</ele>
        <time>2017-01-08T08:42:27.967Z</time>
      </trkpt>
      <trkpt lat="47.7968" lon="2.2077">
        <ele>119</ele>
        <time>2017-01-08T08:42:28.973Z</time>
      </trkpt>
      <trkpt lat="47.7968" lon="2.2077">
        <ele>119</ele>
        <time>2017-01-08T08:42:29.968Z</time>
      </trkpt>
      <trkpt lat="47.79681" lon="2.20776">
        <ele>119</ele>
        <time>2017-01-08T08:42:30.971Z</time>
      </trkpt>
      <trkpt lat="47.79681" lon="2.2078">
        <ele>119</ele>
        <time>2017-01-08T08:42:31.974Z</time>
      </trkpt>
      <trkpt lat="47.79681" lon="2.2078">
        <ele>119</ele>
        <time>2017-01-08T08:42:32.968Z</time>
      </trkpt>
      <trkpt lat="47.79682" lon="2.20786">
        <ele>120</ele>
        <time>2017-01-08T08:42:33.970Z</time>
      </trkpt>
      <trkpt lat="47.79682" lon="2.2079">
        <ele>120</ele>
        <time>2017-01-08T08:42:34.972Z</time>
      </trkpt>
      <trkpt lat="47.79683" lon="2.20794">
        <ele>120</ele>
        <time>2017-01-08T08:42:35.972Z</time>
      </trkpt>
      <trkpt lat="47.79683" lon="2.20794">
        <ele>120</ele>
        <time>2017-01-08T08:42:36.969Z</time>
      </trkpt>
      <trkpt lat="47.79683" lon="2.20802">
        <ele>120</ele>
        <time>2017-01-08T08:42:37.970Z</time>
      </trkpt>
      <trkpt lat="47.79683" lon="2.20802">
        <ele>120</ele>
        <time>2017-01-08T08:42:38.972Z</time>
      </trkpt>
      <trkpt lat="47.79685" lon="2.2081">
        <ele>120</ele>
        <time>2017-01-08T08:42:39.971Z</time>
      </trkpt>
      <trkpt lat="47.79686" lon="2.20814">
        <ele>120</ele>
        <time>2017-01-08T08:42:40.974Z</time>
      </trkpt>
      <trkpt lat="47.79686" lon="2.20814">
        <ele>120</ele>
        <time>2017-01-08T08:42:41.968Z</time>
      </trkpt>
      <trkpt lat="47.79688" lon="2.20822">
        <ele>121</ele>
        <time>2017-01-08T08:42:42.971Z</time>
      </trkpt>
      <trkpt lat="47.79688" lon="2.20822">
        <ele>121</ele>
        <time>2017-01-08T08:42:43.965Z</time>
      </trkpt>
      <trkpt lat="47.79689" lon="2.20831">
        <ele>121</ele>
        <time>2017-01-08T08:42:44.973Z</time>
      </trkpt>
      <trkpt lat="47.79689" lon="2.20831">
        <ele>121</ele>
        <time>2017-01-08T08:42:45.968Z</time>
      </trkpt>
      <trkpt lat="47.7969" lon="2.20839">
        <ele>122</ele>
        <time>2017-01-08T08:42:46.975Z</time>
      </trkpt>
      <trkpt lat="47.7969" lon="2.20839">
        <ele>122</ele>
        <time>2017-01-08T08:42:47.965Z</time>
      </trkpt>
      <trkpt lat="47.79691" lon="2.20847">
        <ele>122</ele>
        <time>2017-01-08T08:42:48.972Z</time>
      </trkpt>
      <trkpt lat="47.79691" lon="2.20847">
        <ele>122</ele>
        <time>2017-01-08T08:42:49.969Z</time>
      </trkpt>
      <trkpt lat="47.79692" lon="2.20857">
        <ele>123</ele>
        <time>2017-01-08T08:42:50.971Z</time>
      </trkpt>
      <trkpt lat="47.79692" lon="2.20857">
        <ele>123</ele>
        <time>2017-01-08T08:42:51.968Z</time>
      </trkpt>
      <trkpt lat="47.79693" lon="2.20865">
        <ele>124</ele>
        <time>2017-01-08T08:42:52.972Z</time>
      </trkpt>
      <trkpt lat="47.79693" lon="2.20865">
        <ele>124</ele>
        <time>2017-01-08T08:42:53.973Z</time>
      </trkpt>
      <trkpt lat="47.79694" lon="2.20873">
        <ele>124</ele>
        <time>2017-01-08T08:42:54.971Z</time>
      </trkpt>
      <trkpt lat="47.79694" lon="2.20873">
        <ele>124</ele>
        <time>2017-01-08T08:42:55.968Z</time>
      </trkpt>
      <trkpt lat="47.79696" lon="2.2088">
        <ele>125</ele>
        <time>2017-01-08T08:42:56.971Z</time>
      </trkpt>
      <trkpt lat="47.79696" lon="2.20884">
        <ele>125</ele>
        <time>2017-01-08T08:42:57.972Z</time>
      </trkpt>
      <trkpt lat="47.79696" lon="2.20884">
        <ele>125</ele>
        <time>2017-01-08T08:42:58.971Z</time>
      </trkpt>
      <trkpt lat="47.79698" lon="2.2089">
        <ele>126</ele>
        <time>2017-01-08T08:42:59.970Z</time>
      </trkpt>
      <trkpt lat="47.79699" lon="2.20893">
        <ele>126</ele>
        <time>2017-01-08T08:43:00.971Z</time>
      </trkpt>
      <trkpt lat="47.79699" lon="2.20893">
        <ele>126</ele>
        <time>2017-01-08T08:43:01.966Z</time>
      </trkpt>
      <trkpt lat="47.79701" lon="2.20899">
        <ele>125</ele>
        <time>2017-01-08T08:43:02.970Z</time>
      </trkpt>
      <trkpt lat="47.79701" lon="2.20899">
        <ele>125</ele>
        <time>2017-01-08T08:43:03.980Z</time>
      </trkpt>
      <trkpt lat="47.79703" lon="2.20904">
        <ele>126</ele>
        <time>2017-01-08T08:43:04.965Z</time>
      </trkpt>
      <trkpt lat="47.79703" lon="2.20904">
        <ele>126</ele>
        <time>2017-01-08T08:43:05.969Z</time>
      </trkpt>
      <trkpt lat="47.79705" lon="2.20909">
        <ele>126</ele>
        <time>2017-01-08T08:43:06.981Z</time>
      </trkpt>
      <trkpt lat="47.79705" lon="2.20909">
        <ele>126</ele>
        <time>2017-01-08T08:43:07.969Z</time>
      </trkpt>
      <trkpt lat="47.79704" lon="2.20915">
        <ele>125</ele>
        <time>2017-01-08T08:43:08.973Z</time>
      </trkpt>
      <trkpt lat="47.79704" lon="2.20915">
        <ele>125</ele>
        <time>2017-01-08T08:43:09.965Z</time>
      </trkpt>
      <trkpt lat="47.79704" lon="2.20921">
        <ele>125</ele>
        <time>2017-01-08T08:43:10.972Z</time>
      </trkpt>
      <trkpt lat="47.79704" lon="2.20921">
        <ele>125</ele>
        <time>2017-01-08T08:43:11.966Z</time>
      </trkpt>
      <trkpt lat="47.79704" lon="2.20926">
        <ele>124</ele>
        <time>2017-01-08T08:43:12.970Z</time>
      </trkpt>
      <trkpt lat="47.79704" lon="2.20926">
        <ele>124</ele>
        <time>2017-01-08T08:43:13.969Z</time>
      </trkpt>
      <trkpt lat="47.79702" lon="2.20931">
        <ele>123</ele>
        <time>2017-01-08T08:43:14.970Z</time>
      </trkpt>
      <trkpt lat="47.79702" lon="2.20931">
        <ele>123</ele>
        <time>2017-01-08T08:43:15.968Z</time>
      </trkpt>
      <trkpt lat="47.79702" lon="2.20938">
        <ele>122</ele>
        <time>2017-01-08T08:43:16.974Z</time>
      </trkpt>
      <trkpt lat="47.79702" lon="2.20938">
        <ele>122</ele>
        <time>2017-01-08T08:43:17.968Z</time>
      </trkpt>
      <trkpt lat="47.79702" lon="2.20944">
        <ele>122</ele>
        <time>2017-01-08T08:43:18.971Z</time>
      </trkpt>
      <trkpt lat="47.79702" lon="2.20944">
        <ele>122</ele>
        <time>2017-01-08T08:43:19.965Z</time>
      </trkpt>
      <trkpt lat="47.79702" lon="2.20951">
        <ele>121</ele>
        <time>2017-01-08T08:43:20.971Z</time>
      </trkpt>
      <trkpt lat="47.79702" lon="2.20951">
        <ele>121</ele>
        <time>2017-01-08T08:43:21.968Z</time>
      </trkpt>
      <trkpt lat="47.79701" lon="2.20957">
        <ele>120</ele>
        <time>2017-01-08T08:43:22.973Z</time>
      </trkpt>
      <trkpt lat="47.79701" lon="2.20957">
        <ele>120</ele>
        <time>2017-01-08T08:43:23.965Z</time>
      </trkpt>
      <trkpt lat="47.79701" lon="2.20963">
        <ele>120</ele>
        <time>2017-01-08T08:43:24.971Z</time>
      </trkpt>
      <trkpt lat="47.79701" lon="2.20963">
        <ele>120</ele>
        <time>2017-01-08T08:43:25.969Z</time>
      </trkpt>
      <trkpt lat="47.797" lon="2.2097">
        <ele>119</ele>
        <time>2017-01-08T08:43:26.970Z</time>
      </trkpt>
      <trkpt lat="47.797" lon="2.2097">
        <ele>119</ele>
        <time>2017-01-08T08:43:27.969Z</time>
      </trkpt>
      <trkpt lat="47.79699" lon="2.20974">
        <ele>118</ele>
        <time>2017-01-08T08:43:28.973Z</time>
      </trkpt>
      <trkpt lat="47.79699" lon="2.20974">
        <ele>118</ele>
        <time>2017-01-08T08:43:29.962Z</time>
      </trkpt>
      <trkpt lat="47.79699" lon="2.20977">
        <ele>117</ele>
        <time>2017-01-08T08:43:30.971Z</time>
      </trkpt>
      <trkpt lat="47.79699" lon="2.20977">
        <ele>117</ele>
        <time>2017-01-08T08:43:31.954Z</time>
      </trkpt>
      <trkpt lat="47.79701" lon="2.20974">
        <ele>114</ele>
        <time>2017-01-08T08:43:32.984Z</time>
      </trkpt>
      <trkpt lat="47.79701" lon="2.20974">
        <ele>114</ele>
        <time>2017-01-08T08:43:33.980Z</time>
      </trkpt>
      <trkpt lat="47.79701" lon="2.20973">
        <ele>114</ele>
        <time>2017-01-08T08:43:34.993Z</time>
      </trkpt>
      <trkpt lat="47.79701" lon="2.20973">
        <ele>114</ele>
        <time>2017-01-08T08:43:35.976Z</time>
      </trkpt>
      <trkpt lat="47.79704" lon="2.20968">
        <ele>113</ele>
        <time>2017-01-08T08:43:36.965Z</time>
      </trkpt>
      <trkpt lat="47.79704" lon="2.20967">
        <ele>113</ele>
        <time>2017-01-08T08:43:37.957Z</time>
      </trkpt>
      <trkpt lat="47.79704" lon="2.20967">
        <ele>113</ele>
        <time>2017-01-08T08:43:38.954Z</time>
      </trkpt>
      <trkpt lat="47.79702" lon="2.20971">
        <ele>112</ele>
        <time>2017-01-08T08:43:39.992Z</time>
      </trkpt>
      <trkpt lat="47.79702" lon="2.20971">
        <ele>112</ele>
        <time>2017-01-08T08:43:40.973Z</time>
      </trkpt>
      <trkpt lat="47.79702" lon="2.20975">
        <ele>112</ele>
        <time>2017-01-08T08:43:41.982Z</time>
      </trkpt>
      <trkpt lat="47.79702" lon="2.20975">
        <ele>112</ele>
        <time>2017-01-08T08:43:42.969Z</time>
      </trkpt>
      <trkpt lat="47.79701" lon="2.20979">
        <ele>112</ele>
        <time>2017-01-08T08:43:43.966Z</time>
      </trkpt>
      <trkpt lat="47.79701" lon="2.20979">
        <ele>112</ele>
        <time>2017-01-08T08:43:44.974Z</time>
      </trkpt>
      <trkpt lat="47.797" lon="2.20983">
        <ele>112</ele>
        <time>2017-01-08T08:43:45.967Z</time>
      </trkpt>
      <trkpt lat="47.797" lon="2.20983">
        <ele>112</ele>
        <time>2017-01-08T08:43:46.964Z</time>
      </trkpt>
      <trkpt lat="47.797" lon="2.20991">
        <ele>112</ele>
        <time>2017-01-08T08:43:48.000Z</time>
      </trkpt>
      <trkpt lat="47.797" lon="2.20991">
        <ele>112</ele>
        <time>2017-01-08T08:43:48.963Z</time>
      </trkpt>
      <trkpt lat="47.797" lon="2.20999">
        <ele>112</ele>
        <time>2017-01-08T08:43:49.967Z</time>
      </trkpt>
      <trkpt lat="47.797" lon="2.20999">
        <ele>112</ele>
        <time>2017-01-08T08:43:50.965Z</time>
      </trkpt>
      <trkpt lat="47.79699" lon="2.21007">
        <ele>112</ele>
        <time>2017-01-08T08:43:51.967Z</time>
      </trkpt>
      <trkpt lat="47.79699" lon="2.21007">
        <ele>112</ele>
        <time>2017-01-08T08:43:52.965Z</time>
      </trkpt>
      <trkpt lat="47.79698" lon="2.21016">
        <ele>113</ele>
        <time>2017-01-08T08:43:53.967Z</time>
      </trkpt>
      <trkpt lat="47.79698" lon="2.21016">
        <ele>113</ele>
        <time>2017-01-08T08:43:54.964Z</time>
      </trkpt>
      <trkpt lat="47.79696" lon="2.21025">
        <ele>114</ele>
        <time>2017-01-08T08:43:55.964Z</time>
      </trkpt>
      <trkpt lat="47.79696" lon="2.2103">
        <ele>115</ele>
        <time>2017-01-08T08:43:56.967Z</time>
      </trkpt>
      <trkpt lat="47.79696" lon="2.2103">
        <ele>115</ele>
        <time>2017-01-08T08:43:57.965Z</time>
      </trkpt>
      <trkpt lat="47.79695" lon="2.21039">
        <ele>116</ele>
        <time>2017-01-08T08:43:58.967Z</time>
      </trkpt>
      <trkpt lat="47.79695" lon="2.21044">
        <ele>116</ele>
        <time>2017-01-08T08:43:59.989Z</time>
      </trkpt>
      <trkpt lat="47.79695" lon="2.21044">
        <ele>116</ele>
        <time>2017-01-08T08:44:00.970Z</time>
      </trkpt>
      <trkpt lat="47.79695" lon="2.21053">
        <ele>116</ele>
        <time>2017-01-08T08:44:01.976Z</time>
      </trkpt>
      <trkpt lat="47.79694" lon="2.21056">
        <ele>116</ele>
        <time>2017-01-08T08:44:02.968Z</time>
      </trkpt>
      <trkpt lat="47.79694" lon="2.21056">
        <ele>116</ele>
        <time>2017-01-08T08:44:03.965Z</time>
      </trkpt>
      <trkpt lat="47.79695" lon="2.21065">
        <ele>116</ele>
        <time>2017-01-08T08:44:04.981Z</time>
      </trkpt>
      <trkpt lat="47.79696" lon="2.2107">
        <ele>115</ele>
        <time>2017-01-08T08:44:05.969Z</time>
      </trkpt>
      <trkpt lat="47.79696" lon="2.2107">
        <ele>115</ele>
        <time>2017-01-08T08:44:06.965Z</time>
      </trkpt>
      <trkpt lat="47.79696" lon="2.2108">
        <ele>116</ele>
        <time>2017-01-08T08:44:07.968Z</time>
      </trkpt>
      <trkpt lat="47.79696" lon="2.21085">
        <ele>116</ele>
        <time>2017-01-08T08:44:08.968Z</time>
      </trkpt>
      <trkpt lat="47.79696" lon="2.21085">
        <ele>116</ele>
        <time>2017-01-08T08:44:09.961Z</time>
      </trkpt>
      <trkpt lat="47.79697" lon="2.21095">
        <ele>116</ele>
        <time>2017-01-08T08:44:10.966Z</time>
      </trkpt>
      <trkpt lat="47.79697" lon="2.21095">
        <ele>116</ele>
        <time>2017-01-08T08:44:11.963Z</time>
      </trkpt>
      <trkpt lat="47.79696" lon="2.21106">
        <ele>117</ele>
        <time>2017-01-08T08:44:12.968Z</time>
      </trkpt>
      <trkpt lat="47.79696" lon="2.21111">
        <ele>117</ele>
        <time>2017-01-08T08:44:13.968Z</time>
      </trkpt>
      <trkpt lat="47.79696" lon="2.21111">
        <ele>117</ele>
        <time>2017-01-08T08:44:14.965Z</time>
      </trkpt>
      <trkpt lat="47.79696" lon="2.21121">
        <ele>117</ele>
        <time>2017-01-08T08:44:15.970Z</time>
      </trkpt>
      <trkpt lat="47.79696" lon="2.21127">
        <ele>118</ele>
        <time>2017-01-08T08:44:16.977Z</time>
      </trkpt>
      <trkpt lat="47.79696" lon="2.21127">
        <ele>118</ele>
        <time>2017-01-08T08:44:17.966Z</time>
      </trkpt>
      <trkpt lat="47.79697" lon="2.21138">
        <ele>117</ele>
        <time>2017-01-08T08:44:18.967Z</time>
      </trkpt>
      <trkpt lat="47.79697" lon="2.21138">
        <ele>117</ele>
        <time>2017-01-08T08:44:19.962Z</time>
      </trkpt>
      <trkpt lat="47.79696" lon="2.21148">
        <ele>118</ele>
        <time>2017-01-08T08:44:20.968Z</time>
      </trkpt>
      <trkpt lat="47.79696" lon="2.21148">
        <ele>118</ele>
        <time>2017-01-08T08:44:21.964Z</time>
      </trkpt>
      <trkpt lat="47.79695" lon="2.21159">
        <ele>118</ele>
        <time>2017-01-08T08:44:22.967Z</time>
      </trkpt>
      <trkpt lat="47.79695" lon="2.21159">
        <ele>118</ele>
        <time>2017-01-08T08:44:23.958Z</time>
      </trkpt>
      <trkpt lat="47.79694" lon="2.21168">
        <ele>118</ele>
        <time>2017-01-08T08:44:24.979Z</time>
      </trkpt>
      <trkpt lat="47.79694" lon="2.21173">
        <ele>118</ele>
        <time>2017-01-08T08:44:25.968Z</time>
      </trkpt>
      <trkpt lat="47.79694" lon="2.21173">
        <ele>118</ele>
        <time>2017-01-08T08:44:26.963Z</time>
      </trkpt>
      <trkpt lat="47.79694" lon="2.21183">
        <ele>118</ele>
        <time>2017-01-08T08:44:27.967Z</time>
      </trkpt>
      <trkpt lat="47.79694" lon="2.21183">
        <ele>118</ele>
        <time>2017-01-08T08:44:28.965Z</time>
      </trkpt>
      <trkpt lat="47.79697" lon="2.21193">
        <ele>117</ele>
        <time>2017-01-08T08:44:29.962Z</time>
      </trkpt>
      <trkpt lat="47.79698" lon="2.21198">
        <ele>117</ele>
        <time>2017-01-08T08:44:30.967Z</time>
      </trkpt>
      <trkpt lat="47.797" lon="2.21203">
        <ele>116</ele>
        <time>2017-01-08T08:44:31.966Z</time>
      </trkpt>
      <trkpt lat="47.797" lon="2.21203">
        <ele>116</ele>
        <time>2017-01-08T08:44:32.988Z</time>
      </trkpt>
      <trkpt lat="47.79702" lon="2.21212">
        <ele>115</ele>
        <time>2017-01-08T08:44:33.976Z</time>
      </trkpt>
      <trkpt lat="47.79702" lon="2.21212">
        <ele>115</ele>
        <time>2017-01-08T08:44:34.964Z</time>
      </trkpt>
      <trkpt lat="47.79704" lon="2.21222">
        <ele>115</ele>
        <time>2017-01-08T08:44:35.968Z</time>
      </trkpt>
      <trkpt lat="47.79704" lon="2.21222">
        <ele>115</ele>
        <time>2017-01-08T08:44:36.964Z</time>
      </trkpt>
      <trkpt lat="47.79706" lon="2.21232">
        <ele>114</ele>
        <time>2017-01-08T08:44:37.968Z</time>
      </trkpt>
      <trkpt lat="47.79707" lon="2.21237">
        <ele>113</ele>
        <time>2017-01-08T08:44:38.967Z</time>
      </trkpt>
      <trkpt lat="47.79707" lon="2.21237">
        <ele>113</ele>
        <time>2017-01-08T08:44:39.957Z</time>
      </trkpt>
      <trkpt lat="47.79708" lon="2.21247">
        <ele>113</ele>
        <time>2017-01-08T08:44:40.967Z</time>
      </trkpt>
      <trkpt lat="47.79708" lon="2.21252">
        <ele>112</ele>
        <time>2017-01-08T08:44:41.969Z</time>
      </trkpt>
      <trkpt lat="47.79708" lon="2.21252">
        <ele>112</ele>
        <time>2017-01-08T08:44:42.962Z</time>
      </trkpt>
      <trkpt lat="47.79709" lon="2.21263">
        <ele>111</ele>
        <time>2017-01-08T08:44:43.966Z</time>
      </trkpt>
      <trkpt lat="47.79709" lon="2.21263">
        <ele>111</ele>
        <time>2017-01-08T08:44:44.965Z</time>
      </trkpt>
      <trkpt lat="47.79709" lon="2.21274">
        <ele>111</ele>
        <time>2017-01-08T08:44:45.967Z</time>
      </trkpt>
      <trkpt lat="47.79709" lon="2.21274">
        <ele>111</ele>
        <time>2017-01-08T08:44:46.956Z</time>
      </trkpt>
      <trkpt lat="47.79709" lon="2.21285">
        <ele>111</ele>
        <time>2017-01-08T08:44:47.980Z</time>
      </trkpt>
      <trkpt lat="47.79709" lon="2.21285">
        <ele>111</ele>
        <time>2017-01-08T08:44:48.982Z</time>
      </trkpt>
      <trkpt lat="47.79709" lon="2.21295">
        <ele>110</ele>
        <time>2017-01-08T08:44:49.974Z</time>
      </trkpt>
      <trkpt lat="47.79708" lon="2.21301">
        <ele>111</ele>
        <time>2017-01-08T08:44:50.967Z</time>
      </trkpt>
      <trkpt lat="47.79708" lon="2.21301">
        <ele>111</ele>
        <time>2017-01-08T08:44:51.963Z</time>
      </trkpt>
      <trkpt lat="47.79707" lon="2.21311">
        <ele>112</ele>
        <time>2017-01-08T08:44:52.968Z</time>
      </trkpt>
      <trkpt lat="47.79707" lon="2.21311">
        <ele>112</ele>
        <time>2017-01-08T08:44:53.965Z</time>
      </trkpt>
      <trkpt lat="47.79705" lon="2.21321">
        <ele>112</ele>
        <time>2017-01-08T08:44:54.967Z</time>
      </trkpt>
      <trkpt lat="47.79705" lon="2.21321">
        <ele>112</ele>
        <time>2017-01-08T08:44:55.964Z</time>
      </trkpt>
      <trkpt lat="47.79702" lon="2.2133">
        <ele>112</ele>
        <time>2017-01-08T08:44:56.968Z</time>
      </trkpt>
      <trkpt lat="47.797" lon="2.21335">
        <ele>112</ele>
        <time>2017-01-08T08:44:57.967Z</time>
      </trkpt>
      <trkpt lat="47.797" lon="2.21335">
        <ele>112</ele>
        <time>2017-01-08T08:44:58.965Z</time>
      </trkpt>
      <trkpt lat="47.79697" lon="2.21344">
        <ele>111</ele>
        <time>2017-01-08T08:44:59.970Z</time>
      </trkpt>
      <trkpt lat="47.79697" lon="2.21344">
        <ele>111</ele>
        <time>2017-01-08T08:45:00.963Z</time>
      </trkpt>
      <trkpt lat="47.79693" lon="2.21353">
        <ele>111</ele>
        <time>2017-01-08T08:45:01.967Z</time>
      </trkpt>
      <trkpt lat="47.79693" lon="2.21353">
        <ele>111</ele>
        <time>2017-01-08T08:45:02.988Z</time>
      </trkpt>
      <trkpt lat="47.79689" lon="2.2136">
        <ele>111</ele>
        <time>2017-01-08T08:45:03.967Z</time>
      </trkpt>
      <trkpt lat="47.79689" lon="2.2136">
        <ele>111</ele>
        <time>2017-01-08T08:45:04.984Z</time>
      </trkpt>
      <trkpt lat="47.79685" lon="2.21368">
        <ele>112</ele>
        <time>2017-01-08T08:45:05.975Z</time>
      </trkpt>
      <trkpt lat="47.79685" lon="2.21368">
        <ele>112</ele>
        <time>2017-01-08T08:45:06.966Z</time>
      </trkpt>
      <trkpt lat="47.79681" lon="2.21375">
        <ele>112</ele>
        <time>2017-01-08T08:45:07.968Z</time>
      </trkpt>
      <trkpt lat="47.79681" lon="2.21375">
        <ele>112</ele>
        <time>2017-01-08T08:45:08.962Z</time>
      </trkpt>
      <trkpt lat="47.79677" lon="2.21381">
        <ele>113</ele>
        <time>2017-01-08T08:45:09.967Z</time>
      </trkpt>
      <trkpt lat="47.79677" lon="2.21381">
        <ele>113</ele>
        <time>2017-01-08T08:45:10.964Z</time>
      </trkpt>
      <trkpt lat="47.79673" lon="2.21388">
        <ele>114</ele>
        <time>2017-01-08T08:45:11.969Z</time>
      </trkpt>
      <trkpt lat="47.79673" lon="2.21388">
        <ele>114</ele>
        <time>2017-01-08T08:45:12.965Z</time>
      </trkpt>
      <trkpt lat="47.79668" lon="2.21395">
        <ele>114</ele>
        <time>2017-01-08T08:45:13.968Z</time>
      </trkpt>
      <trkpt lat="47.79668" lon="2.21395">
        <ele>114</ele>
        <time>2017-01-08T08:45:14.964Z</time>
      </trkpt>
      <trkpt lat="47.79664" lon="2.21404">
        <ele>116</ele>
        <time>2017-01-08T08:45:15.968Z</time>
      </trkpt>
      <trkpt lat="47.79664" lon="2.21404">
        <ele>116</ele>
        <time>2017-01-08T08:45:16.965Z</time>
      </trkpt>
      <trkpt lat="47.79659" lon="2.21413">
        <ele>116</ele>
        <time>2017-01-08T08:45:17.970Z</time>
      </trkpt>
      <trkpt lat="47.79659" lon="2.21413">
        <ele>116</ele>
        <time>2017-01-08T08:45:18.965Z</time>
      </trkpt>
      <trkpt lat="47.79656" lon="2.21422">
        <ele>117</ele>
        <time>2017-01-08T08:45:19.968Z</time>
      </trkpt>
      <trkpt lat="47.79656" lon="2.21422">
        <ele>117</ele>
        <time>2017-01-08T08:45:20.965Z</time>
      </trkpt>
      <trkpt lat="47.79653" lon="2.21431">
        <ele>118</ele>
        <time>2017-01-08T08:45:21.967Z</time>
      </trkpt>
      <trkpt lat="47.79653" lon="2.21431">
        <ele>118</ele>
        <time>2017-01-08T08:45:22.993Z</time>
      </trkpt>
      <trkpt lat="47.79649" lon="2.2144">
        <ele>118</ele>
        <time>2017-01-08T08:45:23.985Z</time>
      </trkpt>
      <trkpt lat="47.79647" lon="2.21444">
        <ele>118</ele>
        <time>2017-01-08T08:45:24.966Z</time>
      </trkpt>
      <trkpt lat="47.79645" lon="2.21449">
        <ele>118</ele>
        <time>2017-01-08T08:45:25.968Z</time>
      </trkpt>
      <trkpt lat="47.79645" lon="2.21449">
        <ele>118</ele>
        <time>2017-01-08T08:45:26.965Z</time>
      </trkpt>
      <trkpt lat="47.79642" lon="2.21458">
        <ele>117</ele>
        <time>2017-01-08T08:45:27.975Z</time>
      </trkpt>
      <trkpt lat="47.7964" lon="2.21463">
        <ele>118</ele>
        <time>2017-01-08T08:45:28.967Z</time>
      </trkpt>
      <trkpt lat="47.7964" lon="2.21463">
        <ele>118</ele>
        <time>2017-01-08T08:45:29.968Z</time>
      </trkpt>
      <trkpt lat="47.79638" lon="2.21471">
        <ele>118</ele>
        <time>2017-01-08T08:45:30.968Z</time>
      </trkpt>
      <trkpt lat="47.79636" lon="2.21475">
        <ele>118</ele>
        <time>2017-01-08T08:45:31.965Z</time>
      </trkpt>
      <trkpt lat="47.79636" lon="2.21475">
        <ele>118</ele>
        <time>2017-01-08T08:45:32.963Z</time>
      </trkpt>
      <trkpt lat="47.79634" lon="2.21484">
        <ele>118</ele>
        <time>2017-01-08T08:45:33.988Z</time>
      </trkpt>
      <trkpt lat="47.79634" lon="2.21484">
        <ele>118</ele>
        <time>2017-01-08T08:45:34.969Z</time>
      </trkpt>
      <trkpt lat="47.79631" lon="2.21494">
        <ele>117</ele>
        <time>2017-01-08T08:45:35.967Z</time>
      </trkpt>
      <trkpt lat="47.79631" lon="2.21494">
        <ele>117</ele>
        <time>2017-01-08T08:45:36.962Z</time>
      </trkpt>
      <trkpt lat="47.79626" lon="2.21504">
        <ele>116</ele>
        <time>2017-01-08T08:45:37.968Z</time>
      </trkpt>
      <trkpt lat="47.79626" lon="2.21504">
        <ele>116</ele>
        <time>2017-01-08T08:45:38.967Z</time>
      </trkpt>
      <trkpt lat="47.79623" lon="2.21513">
        <ele>115</ele>
        <time>2017-01-08T08:45:39.968Z</time>
      </trkpt>
      <trkpt lat="47.79623" lon="2.21517">
        <ele>115</ele>
        <time>2017-01-08T08:45:40.968Z</time>
      </trkpt>
      <trkpt lat="47.79621" lon="2.21523">
        <ele>115</ele>
        <time>2017-01-08T08:45:41.989Z</time>
      </trkpt>
      <trkpt lat="47.79621" lon="2.21523">
        <ele>115</ele>
        <time>2017-01-08T08:45:42.970Z</time>
      </trkpt>
      <trkpt lat="47.79618" lon="2.21531">
        <ele>115</ele>
        <time>2017-01-08T08:45:43.968Z</time>
      </trkpt>
      <trkpt lat="47.79618" lon="2.21531">
        <ele>115</ele>
        <time>2017-01-08T08:45:44.964Z</time>
      </trkpt>
      <trkpt lat="47.79615" lon="2.2154">
        <ele>115</ele>
        <time>2017-01-08T08:45:45.968Z</time>
      </trkpt>
      <trkpt lat="47.79615" lon="2.2154">
        <ele>115</ele>
        <time>2017-01-08T08:45:46.964Z</time>
      </trkpt>
      <trkpt lat="47.79612" lon="2.21549">
        <ele>115</ele>
        <time>2017-01-08T08:45:47.969Z</time>
      </trkpt>
      <trkpt lat="47.79612" lon="2.21549">
        <ele>115</ele>
        <time>2017-01-08T08:45:48.965Z</time>
      </trkpt>
      <trkpt lat="47.79612" lon="2.21549">
        <ele>115</ele>
        <time>2017-01-08T08:45:49.988Z</time>
      </trkpt>
      <trkpt lat="47.79611" lon="2.21558">
        <ele>115</ele>
        <time>2017-01-08T08:45:50.980Z</time>
      </trkpt>
      <trkpt lat="47.79609" lon="2.21568">
        <ele>115</ele>
        <time>2017-01-08T08:45:51.969Z</time>
      </trkpt>
      <trkpt lat="47.79609" lon="2.21568">
        <ele>115</ele>
        <time>2017-01-08T08:45:52.965Z</time>
      </trkpt>
      <trkpt lat="47.79606" lon="2.21576">
        <ele>115</ele>
        <time>2017-01-08T08:45:53.968Z</time>
      </trkpt>
      <trkpt lat="47.79606" lon="2.21576">
        <ele>115</ele>
        <time>2017-01-08T08:45:54.966Z</time>
      </trkpt>
      <trkpt lat="47.79604" lon="2.21584">
        <ele>115</ele>
        <time>2017-01-08T08:45:55.969Z</time>
      </trkpt>
      <trkpt lat="47.79604" lon="2.21584">
        <ele>115</ele>
        <time>2017-01-08T08:45:56.965Z</time>
      </trkpt>
      <trkpt lat="47.79601" lon="2.21592">
        <ele>114</ele>
        <time>2017-01-08T08:45:57.967Z</time>
      </trkpt>
      <trkpt lat="47.796" lon="2.21596">
        <ele>115</ele>
        <time>2017-01-08T08:45:58.969Z</time>
      </trkpt>
      <trkpt lat="47.796" lon="2.21596">
        <ele>115</ele>
        <time>2017-01-08T08:45:59.968Z</time>
      </trkpt>
      <trkpt lat="47.79597" lon="2.21604">
        <ele>115</ele>
        <time>2017-01-08T08:46:00.967Z</time>
      </trkpt>
      <trkpt lat="47.79594" lon="2.21609">
        <ele>114</ele>
        <time>2017-01-08T08:46:01.969Z</time>
      </trkpt>
      <trkpt lat="47.79594" lon="2.21609">
        <ele>114</ele>
        <time>2017-01-08T08:46:02.963Z</time>
      </trkpt>
      <trkpt lat="47.7959" lon="2.21618">
        <ele>114</ele>
        <time>2017-01-08T08:46:03.968Z</time>
      </trkpt>
      <trkpt lat="47.7959" lon="2.21618">
        <ele>114</ele>
        <time>2017-01-08T08:46:04.975Z</time>
      </trkpt>
      <trkpt lat="47.79585" lon="2.21626">
        <ele>115</ele>
        <time>2017-01-08T08:46:05.969Z</time>
      </trkpt>
      <trkpt lat="47.79585" lon="2.21626">
        <ele>115</ele>
        <time>2017-01-08T08:46:06.963Z</time>
      </trkpt>
      <trkpt lat="47.79582" lon="2.21633">
        <ele>115</ele>
        <time>2017-01-08T08:46:07.968Z</time>
      </trkpt>
      <trkpt lat="47.79582" lon="2.21633">
        <ele>115</ele>
        <time>2017-01-08T08:46:08.965Z</time>
      </trkpt>
      <trkpt lat="47.79578" lon="2.21642">
        <ele>116</ele>
        <time>2017-01-08T08:46:09.968Z</time>
      </trkpt>
      <trkpt lat="47.79578" lon="2.21642">
        <ele>116</ele>
        <time>2017-01-08T08:46:10.962Z</time>
      </trkpt>
      <trkpt lat="47.79575" lon="2.21652">
        <ele>117</ele>
        <time>2017-01-08T08:46:11.968Z</time>
      </trkpt>
      <trkpt lat="47.79575" lon="2.21652">
        <ele>117</ele>
        <time>2017-01-08T08:46:12.965Z</time>
      </trkpt>
      <trkpt lat="47.79571" lon="2.21662">
        <ele>117</ele>
        <time>2017-01-08T08:46:13.965Z</time>
      </trkpt>
      <trkpt lat="47.79571" lon="2.21662">
        <ele>117</ele>
        <time>2017-01-08T08:46:14.963Z</time>
      </trkpt>
      <trkpt lat="47.79563" lon="2.21674">
        <ele>118</ele>
        <time>2017-01-08T08:46:15.968Z</time>
      </trkpt>
      <trkpt lat="47.79563" lon="2.21674">
        <ele>118</ele>
        <time>2017-01-08T08:46:16.966Z</time>
      </trkpt>
      <trkpt lat="47.79559" lon="2.21687">
        <ele>118</ele>
        <time>2017-01-08T08:46:17.968Z</time>
      </trkpt>
      <trkpt lat="47.79559" lon="2.21687">
        <ele>118</ele>
        <time>2017-01-08T08:46:18.963Z</time>
      </trkpt>
      <trkpt lat="47.79554" lon="2.21699">
        <ele>119</ele>
        <time>2017-01-08T08:46:19.967Z</time>
      </trkpt>
      <trkpt lat="47.79554" lon="2.21699">
        <ele>119</ele>
        <time>2017-01-08T08:46:20.990Z</time>
      </trkpt>
      <trkpt lat="47.79552" lon="2.21712">
        <ele>120</ele>
        <time>2017-01-08T08:46:21.977Z</time>
      </trkpt>
      <trkpt lat="47.79552" lon="2.21712">
        <ele>120</ele>
        <time>2017-01-08T08:46:22.966Z</time>
      </trkpt>
      <trkpt lat="47.79549" lon="2.21723">
        <ele>120</ele>
        <time>2017-01-08T08:46:23.974Z</time>
      </trkpt>
      <trkpt lat="47.79548" lon="2.21728">
        <ele>121</ele>
        <time>2017-01-08T08:46:24.967Z</time>
      </trkpt>
      <trkpt lat="47.79548" lon="2.21728">
        <ele>121</ele>
        <time>2017-01-08T08:46:25.970Z</time>
      </trkpt>
      <trkpt lat="47.79547" lon="2.21732">
        <ele>121</ele>
        <time>2017-01-08T08:46:26.979Z</time>
      </trkpt>
      <trkpt lat="47.79546" lon="2.21741">
        <ele>121</ele>
        <time>2017-01-08T08:46:27.968Z</time>
      </trkpt>
      <trkpt lat="47.79546" lon="2.21741">
        <ele>121</ele>
        <time>2017-01-08T08:46:28.965Z</time>
      </trkpt>
      <trkpt lat="47.79544" lon="2.21751">
        <ele>122</ele>
        <time>2017-01-08T08:46:29.969Z</time>
      </trkpt>
      <trkpt lat="47.79544" lon="2.21751">
        <ele>122</ele>
        <time>2017-01-08T08:46:30.959Z</time>
      </trkpt>
      <trkpt lat="47.79542" lon="2.21762">
        <ele>123</ele>
        <time>2017-01-08T08:46:31.967Z</time>
      </trkpt>
      <trkpt lat="47.79542" lon="2.21762">
        <ele>123</ele>
        <time>2017-01-08T08:46:32.963Z</time>
      </trkpt>
      <trkpt lat="47.7954" lon="2.21771">
        <ele>124</ele>
        <time>2017-01-08T08:46:33.968Z</time>
      </trkpt>
      <trkpt lat="47.7954" lon="2.21771">
        <ele>124</ele>
        <time>2017-01-08T08:46:34.965Z</time>
      </trkpt>
      <trkpt lat="47.79539" lon="2.2178">
        <ele>123</ele>
        <time>2017-01-08T08:46:35.969Z</time>
      </trkpt>
      <trkpt lat="47.79539" lon="2.2178">
        <ele>123</ele>
        <time>2017-01-08T08:46:36.963Z</time>
      </trkpt>
      <trkpt lat="47.79538" lon="2.21787">
        <ele>124</ele>
        <time>2017-01-08T08:46:37.968Z</time>
      </trkpt>
      <trkpt lat="47.79538" lon="2.21787">
        <ele>124</ele>
        <time>2017-01-08T08:46:38.966Z</time>
      </trkpt>
      <trkpt lat="47.79537" lon="2.21794">
        <ele>123</ele>
        <time>2017-01-08T08:46:39.968Z</time>
      </trkpt>
      <trkpt lat="47.79537" lon="2.21794">
        <ele>123</ele>
        <time>2017-01-08T08:46:40.963Z</time>
      </trkpt>
      <trkpt lat="47.79538" lon="2.21801">
        <ele>122</ele>
        <time>2017-01-08T08:46:41.985Z</time>
      </trkpt>
      <trkpt lat="47.79538" lon="2.21801">
        <ele>122</ele>
        <time>2017-01-08T08:46:42.973Z</time>
      </trkpt>
      <trkpt lat="47.79539" lon="2.21806">
        <ele>121</ele>
        <time>2017-01-08T08:46:43.980Z</time>
      </trkpt>
      <trkpt lat="47.79539" lon="2.21806">
        <ele>121</ele>
        <time>2017-01-08T08:46:44.987Z</time>
      </trkpt>
      <trkpt lat="47.79539" lon="2.21813">
        <ele>121</ele>
        <time>2017-01-08T08:46:45.978Z</time>
      </trkpt>
      <trkpt lat="47.79539" lon="2.21813">
        <ele>121</ele>
        <time>2017-01-08T08:46:46.966Z</time>
      </trkpt>
      <trkpt lat="47.7954" lon="2.21822">
        <ele>120</ele>
        <time>2017-01-08T08:46:47.971Z</time>
      </trkpt>
      <trkpt lat="47.7954" lon="2.21822">
        <ele>120</ele>
        <time>2017-01-08T08:46:48.966Z</time>
      </trkpt>
      <trkpt lat="47.79544" lon="2.21825">
        <ele>120</ele>
        <time>2017-01-08T08:46:49.979Z</time>
      </trkpt>
      <trkpt lat="47.79544" lon="2.21825">
        <ele>120</ele>
        <time>2017-01-08T08:46:50.966Z</time>
      </trkpt>
      <trkpt lat="47.79549" lon="2.21828">
        <ele>119</ele>
        <time>2017-01-08T08:46:51.967Z</time>
      </trkpt>
      <trkpt lat="47.79552" lon="2.21828">
        <ele>119</ele>
        <time>2017-01-08T08:46:52.981Z</time>
      </trkpt>
      <trkpt lat="47.79555" lon="2.21829">
        <ele>119</ele>
        <time>2017-01-08T08:46:53.971Z</time>
      </trkpt>
      <trkpt lat="47.79555" lon="2.21829">
        <ele>119</ele>
        <time>2017-01-08T08:46:54.966Z</time>
      </trkpt>
      <trkpt lat="47.79559" lon="2.21831">
        <ele>119</ele>
        <time>2017-01-08T08:46:55.969Z</time>
      </trkpt>
      <trkpt lat="47.79559" lon="2.21831">
        <ele>119</ele>
        <time>2017-01-08T08:46:56.965Z</time>
      </trkpt>
      <trkpt lat="47.79564" lon="2.21833">
        <ele>120</ele>
        <time>2017-01-08T08:46:57.968Z</time>
      </trkpt>
      <trkpt lat="47.79567" lon="2.21834">
        <ele>120</ele>
        <time>2017-01-08T08:46:58.968Z</time>
      </trkpt>
      <trkpt lat="47.79569" lon="2.21835">
        <ele>120</ele>
        <time>2017-01-08T08:46:59.971Z</time>
      </trkpt>
      <trkpt lat="47.79569" lon="2.21835">
        <ele>120</ele>
        <time>2017-01-08T08:47:00.965Z</time>
      </trkpt>
      <trkpt lat="47.79571" lon="2.21838">
        <ele>120</ele>
        <time>2017-01-08T08:47:01.968Z</time>
      </trkpt>
      <trkpt lat="47.79571" lon="2.21838">
        <ele>120</ele>
        <time>2017-01-08T08:47:02.962Z</time>
      </trkpt>
      <trkpt lat="47.79573" lon="2.21839">
        <ele>120</ele>
        <time>2017-01-08T08:47:03.968Z</time>
      </trkpt>
      <trkpt lat="47.79573" lon="2.21839">
        <ele>120</ele>
        <time>2017-01-08T08:47:04.975Z</time>
      </trkpt>
      <trkpt lat="47.79574" lon="2.21839">
        <ele>119</ele>
        <time>2017-01-08T08:47:05.970Z</time>
      </trkpt>
      <trkpt lat="47.79574" lon="2.21839">
        <ele>119</ele>
        <time>2017-01-08T08:47:06.962Z</time>
      </trkpt>
      <trkpt lat="47.79565" lon="2.21831">
        <ele>117</ele>
        <time>2017-01-08T08:47:07.965Z</time>
      </trkpt>
      <trkpt lat="47.79564" lon="2.2183">
        <ele>117</ele>
        <time>2017-01-08T08:47:08.963Z</time>
      </trkpt>
      <trkpt lat="47.79564" lon="2.2183">
        <ele>117</ele>
        <time>2017-01-08T08:47:09.960Z</time>
      </trkpt>
      <trkpt lat="47.79559" lon="2.21829">
        <ele>117</ele>
        <time>2017-01-08T08:47:10.961Z</time>
      </trkpt>
      <trkpt lat="47.79559" lon="2.21829">
        <ele>117</ele>
        <time>2017-01-08T08:47:11.958Z</time>
      </trkpt>
      <trkpt lat="47.79555" lon="2.21828">
        <ele>116</ele>
        <time>2017-01-08T08:47:12.959Z</time>
      </trkpt>
      <trkpt lat="47.79555" lon="2.21828">
        <ele>116</ele>
        <time>2017-01-08T08:47:13.957Z</time>
      </trkpt>
      <trkpt lat="47.79551" lon="2.21827">
        <ele>116</ele>
        <time>2017-01-08T08:47:14.964Z</time>
      </trkpt>
      <trkpt lat="47.79551" lon="2.21827">
        <ele>116</ele>
        <time>2017-01-08T08:47:15.955Z</time>
      </trkpt>
      <trkpt lat="47.79546" lon="2.21827">
        <ele>115</ele>
        <time>2017-01-08T08:47:16.960Z</time>
      </trkpt>
      <trkpt lat="47.79546" lon="2.21827">
        <ele>115</ele>
        <time>2017-01-08T08:47:17.957Z</time>
      </trkpt>
      <trkpt lat="47.79542" lon="2.21826">
        <ele>115</ele>
        <time>2017-01-08T08:47:18.957Z</time>
      </trkpt>
      <trkpt lat="47.7954" lon="2.21825">
        <ele>115</ele>
        <time>2017-01-08T08:47:19.960Z</time>
      </trkpt>
      <trkpt lat="47.79538" lon="2.21825">
        <ele>115</ele>
        <time>2017-01-08T08:47:20.961Z</time>
      </trkpt>
      <trkpt lat="47.79538" lon="2.21825">
        <ele>115</ele>
        <time>2017-01-08T08:47:21.980Z</time>
      </trkpt>
      <trkpt lat="47.79534" lon="2.21824">
        <ele>115</ele>
        <time>2017-01-08T08:47:22.962Z</time>
      </trkpt>
      <trkpt lat="47.79534" lon="2.21824">
        <ele>115</ele>
        <time>2017-01-08T08:47:23.957Z</time>
      </trkpt>
      <trkpt lat="47.7953" lon="2.21823">
        <ele>115</ele>
        <time>2017-01-08T08:47:24.960Z</time>
      </trkpt>
      <trkpt lat="47.7953" lon="2.21823">
        <ele>115</ele>
        <time>2017-01-08T08:47:25.957Z</time>
      </trkpt>
      <trkpt lat="47.79527" lon="2.21822">
        <ele>115</ele>
        <time>2017-01-08T08:47:26.962Z</time>
      </trkpt>
      <trkpt lat="47.79527" lon="2.21822">
        <ele>115</ele>
        <time>2017-01-08T08:47:27.957Z</time>
      </trkpt>
      <trkpt lat="47.79525" lon="2.2182">
        <ele>115</ele>
        <time>2017-01-08T08:47:28.960Z</time>
      </trkpt>
      <trkpt lat="47.79525" lon="2.2182">
        <ele>115</ele>
        <time>2017-01-08T08:47:29.992Z</time>
      </trkpt>
      <trkpt lat="47.79524" lon="2.21818">
        <ele>115</ele>
        <time>2017-01-08T08:47:30.972Z</time>
      </trkpt>
      <trkpt lat="47.79524" lon="2.21818">
        <ele>115</ele>
        <time>2017-01-08T08:47:31.960Z</time>
      </trkpt>
      <trkpt lat="47.79524" lon="2.21817">
        <ele>116</ele>
        <time>2017-01-08T08:47:32.960Z</time>
      </trkpt>
      <trkpt lat="47.79514" lon="2.21815">
        <ele>115</ele>
        <time>2017-01-08T08:47:33.961Z</time>
      </trkpt>
      <trkpt lat="47.79514" lon="2.21815">
        <ele>115</ele>
        <time>2017-01-08T08:47:34.966Z</time>
      </trkpt>
      <trkpt lat="47.79512" lon="2.21816">
        <ele>115</ele>
        <time>2017-01-08T08:47:35.968Z</time>
      </trkpt>
      <trkpt lat="47.79512" lon="2.21816">
        <ele>115</ele>
        <time>2017-01-08T08:47:36.965Z</time>
      </trkpt>
      <trkpt lat="47.79508" lon="2.21815">
        <ele>115</ele>
        <time>2017-01-08T08:47:37.984Z</time>
      </trkpt>
      <trkpt lat="47.79506" lon="2.21814">
        <ele>115</ele>
        <time>2017-01-08T08:47:38.976Z</time>
      </trkpt>
      <trkpt lat="47.79506" lon="2.21814">
        <ele>115</ele>
        <time>2017-01-08T08:47:39.964Z</time>
      </trkpt>
      <trkpt lat="47.79502" lon="2.21812">
        <ele>115</ele>
        <time>2017-01-08T08:47:40.969Z</time>
      </trkpt>
      <trkpt lat="47.79502" lon="2.21812">
        <ele>115</ele>
        <time>2017-01-08T08:47:41.964Z</time>
      </trkpt>
      <trkpt lat="47.79497" lon="2.21811">
        <ele>115</ele>
        <time>2017-01-08T08:47:42.967Z</time>
      </trkpt>
      <trkpt lat="47.79497" lon="2.21811">
        <ele>115</ele>
        <time>2017-01-08T08:47:43.964Z</time>
      </trkpt>
      <trkpt lat="47.79493" lon="2.21809">
        <ele>115</ele>
        <time>2017-01-08T08:47:44.967Z</time>
      </trkpt>
      <trkpt lat="47.79491" lon="2.21809">
        <ele>115</ele>
        <time>2017-01-08T08:47:45.964Z</time>
      </trkpt>
      <trkpt lat="47.79491" lon="2.21809">
        <ele>115</ele>
        <time>2017-01-08T08:47:46.965Z</time>
      </trkpt>
      <trkpt lat="47.79486" lon="2.21807">
        <ele>115</ele>
        <time>2017-01-08T08:47:47.964Z</time>
      </trkpt>
      <trkpt lat="47.79484" lon="2.21806">
        <ele>115</ele>
        <time>2017-01-08T08:47:48.967Z</time>
      </trkpt>
      <trkpt lat="47.79484" lon="2.21806">
        <ele>115</ele>
        <time>2017-01-08T08:47:49.962Z</time>
      </trkpt>
      <trkpt lat="47.7948" lon="2.21804">
        <ele>114</ele>
        <time>2017-01-08T08:47:50.966Z</time>
      </trkpt>
      <trkpt lat="47.7948" lon="2.21804">
        <ele>114</ele>
        <time>2017-01-08T08:47:51.963Z</time>
      </trkpt>
      <trkpt lat="47.79476" lon="2.21802">
        <ele>114</ele>
        <time>2017-01-08T08:47:52.969Z</time>
      </trkpt>
      <trkpt lat="47.79476" lon="2.21802">
        <ele>114</ele>
        <time>2017-01-08T08:47:53.961Z</time>
      </trkpt>
      <trkpt lat="47.79471" lon="2.218">
        <ele>114</ele>
        <time>2017-01-08T08:47:54.964Z</time>
      </trkpt>
      <trkpt lat="47.79471" lon="2.218">
        <ele>114</ele>
        <time>2017-01-08T08:47:55.964Z</time>
      </trkpt>
      <trkpt lat="47.79466" lon="2.21798">
        <ele>114</ele>
        <time>2017-01-08T08:47:56.966Z</time>
      </trkpt>
      <trkpt lat="47.79466" lon="2.21798">
        <ele>114</ele>
        <time>2017-01-08T08:47:57.963Z</time>
      </trkpt>
      <trkpt lat="47.79461" lon="2.21797">
        <ele>114</ele>
        <time>2017-01-08T08:47:58.984Z</time>
      </trkpt>
      <trkpt lat="47.79459" lon="2.21796">
        <ele>114</ele>
        <time>2017-01-08T08:47:59.984Z</time>
      </trkpt>
      <trkpt lat="47.79457" lon="2.21795">
        <ele>114</ele>
        <time>2017-01-08T08:48:00.974Z</time>
      </trkpt>
      <trkpt lat="47.79457" lon="2.21795">
        <ele>114</ele>
        <time>2017-01-08T08:48:01.963Z</time>
      </trkpt>
      <trkpt lat="47.79452" lon="2.21794">
        <ele>114</ele>
        <time>2017-01-08T08:48:02.968Z</time>
      </trkpt>
      <trkpt lat="47.79452" lon="2.21794">
        <ele>114</ele>
        <time>2017-01-08T08:48:03.964Z</time>
      </trkpt>
      <trkpt lat="47.79448" lon="2.21792">
        <ele>114</ele>
        <time>2017-01-08T08:48:04.970Z</time>
      </trkpt>
      <trkpt lat="47.79448" lon="2.21792">
        <ele>114</ele>
        <time>2017-01-08T08:48:05.972Z</time>
      </trkpt>
      <trkpt lat="47.79445" lon="2.2179">
        <ele>114</ele>
        <time>2017-01-08T08:48:06.967Z</time>
      </trkpt>
      <trkpt lat="47.79445" lon="2.2179">
        <ele>114</ele>
        <time>2017-01-08T08:48:07.962Z</time>
      </trkpt>
      <trkpt lat="47.7944" lon="2.21788">
        <ele>114</ele>
        <time>2017-01-08T08:48:08.965Z</time>
      </trkpt>
      <trkpt lat="47.7944" lon="2.21788">
        <ele>114</ele>
        <time>2017-01-08T08:48:09.962Z</time>
      </trkpt>
      <trkpt lat="47.79437" lon="2.21787">
        <ele>114</ele>
        <time>2017-01-08T08:48:10.968Z</time>
      </trkpt>
      <trkpt lat="47.79437" lon="2.21787">
        <ele>114</ele>
        <time>2017-01-08T08:48:11.962Z</time>
      </trkpt>
      <trkpt lat="47.79433" lon="2.21785">
        <ele>114</ele>
        <time>2017-01-08T08:48:12.967Z</time>
      </trkpt>
      <trkpt lat="47.79433" lon="2.21785">
        <ele>114</ele>
        <time>2017-01-08T08:48:13.964Z</time>
      </trkpt>
      <trkpt lat="47.79429" lon="2.21783">
        <ele>114</ele>
        <time>2017-01-08T08:48:14.967Z</time>
      </trkpt>
      <trkpt lat="47.79427" lon="2.21782">
        <ele>113</ele>
        <time>2017-01-08T08:48:15.967Z</time>
      </trkpt>
      <trkpt lat="47.79426" lon="2.21781">
        <ele>113</ele>
        <time>2017-01-08T08:48:16.968Z</time>
      </trkpt>
      <trkpt lat="47.79426" lon="2.21781">
        <ele>113</ele>
        <time>2017-01-08T08:48:17.964Z</time>
      </trkpt>
      <trkpt lat="47.79422" lon="2.2178">
        <ele>114</ele>
        <time>2017-01-08T08:48:18.964Z</time>
      </trkpt>
      <trkpt lat="47.79421" lon="2.21779">
        <ele>114</ele>
        <time>2017-01-08T08:48:19.967Z</time>
      </trkpt>
      <trkpt lat="47.79421" lon="2.21779">
        <ele>114</ele>
        <time>2017-01-08T08:48:20.962Z</time>
      </trkpt>
      <trkpt lat="47.79418" lon="2.21778">
        <ele>114</ele>
        <time>2017-01-08T08:48:21.966Z</time>
      </trkpt>
      <trkpt lat="47.79418" lon="2.21778">
        <ele>114</ele>
        <time>2017-01-08T08:48:22.966Z</time>
      </trkpt>
      <trkpt lat="47.79415" lon="2.21776">
        <ele>114</ele>
        <time>2017-01-08T08:48:23.967Z</time>
      </trkpt>
      <trkpt lat="47.79415" lon="2.21776">
        <ele>114</ele>
        <time>2017-01-08T08:48:24.962Z</time>
      </trkpt>
      <trkpt lat="47.79413" lon="2.21776">
        <ele>114</ele>
        <time>2017-01-08T08:48:25.968Z</time>
      </trkpt>
      <trkpt lat="47.79413" lon="2.21776">
        <ele>114</ele>
        <time>2017-01-08T08:48:26.964Z</time>
      </trkpt>
      <trkpt lat="47.7941" lon="2.21775">
        <ele>114</ele>
        <time>2017-01-08T08:48:27.980Z</time>
      </trkpt>
      <trkpt lat="47.79409" lon="2.21776">
        <ele>115</ele>
        <time>2017-01-08T08:48:28.971Z</time>
      </trkpt>
      <trkpt lat="47.79409" lon="2.21776">
        <ele>115</ele>
        <time>2017-01-08T08:48:29.964Z</time>
      </trkpt>
      <trkpt lat="47.79406" lon="2.2178">
        <ele>115</ele>
        <time>2017-01-08T08:48:30.967Z</time>
      </trkpt>
      <trkpt lat="47.79406" lon="2.21783">
        <ele>115</ele>
        <time>2017-01-08T08:48:31.967Z</time>
      </trkpt>
      <trkpt lat="47.79406" lon="2.21783">
        <ele>115</ele>
        <time>2017-01-08T08:48:32.961Z</time>
      </trkpt>
      <trkpt lat="47.79405" lon="2.21791">
        <ele>115</ele>
        <time>2017-01-08T08:48:33.969Z</time>
      </trkpt>
      <trkpt lat="47.79405" lon="2.21791">
        <ele>115</ele>
        <time>2017-01-08T08:48:34.964Z</time>
      </trkpt>
      <trkpt lat="47.79404" lon="2.21798">
        <ele>114</ele>
        <time>2017-01-08T08:48:35.967Z</time>
      </trkpt>
      <trkpt lat="47.79404" lon="2.21798">
        <ele>114</ele>
        <time>2017-01-08T08:48:36.962Z</time>
      </trkpt>
      <trkpt lat="47.79403" lon="2.21807">
        <ele>114</ele>
        <time>2017-01-08T08:48:37.967Z</time>
      </trkpt>
      <trkpt lat="47.79403" lon="2.21812">
        <ele>114</ele>
        <time>2017-01-08T08:48:38.965Z</time>
      </trkpt>
      <trkpt lat="47.79403" lon="2.21812">
        <ele>114</ele>
        <time>2017-01-08T08:48:39.964Z</time>
      </trkpt>
      <trkpt lat="47.79402" lon="2.21823">
        <ele>114</ele>
        <time>2017-01-08T08:48:40.969Z</time>
      </trkpt>
      <trkpt lat="47.79402" lon="2.21823">
        <ele>114</ele>
        <time>2017-01-08T08:48:41.964Z</time>
      </trkpt>
      <trkpt lat="47.79402" lon="2.21835">
        <ele>114</ele>
        <time>2017-01-08T08:48:42.967Z</time>
      </trkpt>
      <trkpt lat="47.79402" lon="2.21835">
        <ele>114</ele>
        <time>2017-01-08T08:48:43.964Z</time>
      </trkpt>
      <trkpt lat="47.79401" lon="2.21848">
        <ele>113</ele>
        <time>2017-01-08T08:48:44.967Z</time>
      </trkpt>
      <trkpt lat="47.79401" lon="2.21848">
        <ele>113</ele>
        <time>2017-01-08T08:48:45.964Z</time>
      </trkpt>
      <trkpt lat="47.794" lon="2.21861">
        <ele>113</ele>
        <time>2017-01-08T08:48:46.968Z</time>
      </trkpt>
      <trkpt lat="47.794" lon="2.21861">
        <ele>113</ele>
        <time>2017-01-08T08:48:47.961Z</time>
      </trkpt>
      <trkpt lat="47.794" lon="2.21874">
        <ele>113</ele>
        <time>2017-01-08T08:48:48.977Z</time>
      </trkpt>
      <trkpt lat="47.794" lon="2.2188">
        <ele>113</ele>
        <time>2017-01-08T08:48:49.967Z</time>
      </trkpt>
      <trkpt lat="47.794" lon="2.2188">
        <ele>113</ele>
        <time>2017-01-08T08:48:50.955Z</time>
      </trkpt>
      <trkpt lat="47.79399" lon="2.21892">
        <ele>113</ele>
        <time>2017-01-08T08:48:51.968Z</time>
      </trkpt>
      <trkpt lat="47.79398" lon="2.21898">
        <ele>113</ele>
        <time>2017-01-08T08:48:52.970Z</time>
      </trkpt>
      <trkpt lat="47.79398" lon="2.21898">
        <ele>113</ele>
        <time>2017-01-08T08:48:53.970Z</time>
      </trkpt>
      <trkpt lat="47.79397" lon="2.2191">
        <ele>113</ele>
        <time>2017-01-08T08:48:54.967Z</time>
      </trkpt>
      <trkpt lat="47.79397" lon="2.21917">
        <ele>113</ele>
        <time>2017-01-08T08:48:55.967Z</time>
      </trkpt>
      <trkpt lat="47.79397" lon="2.21917">
        <ele>113</ele>
        <time>2017-01-08T08:48:56.964Z</time>
      </trkpt>
      <trkpt lat="47.79396" lon="2.21928">
        <ele>112</ele>
        <time>2017-01-08T08:48:57.968Z</time>
      </trkpt>
      <trkpt lat="47.79396" lon="2.21934">
        <ele>112</ele>
        <time>2017-01-08T08:48:58.989Z</time>
      </trkpt>
      <trkpt lat="47.79396" lon="2.21934">
        <ele>112</ele>
        <time>2017-01-08T08:48:59.977Z</time>
      </trkpt>
      <trkpt lat="47.79394" lon="2.21943">
        <ele>112</ele>
        <time>2017-01-08T08:49:00.967Z</time>
      </trkpt>
      <trkpt lat="47.79392" lon="2.21946">
        <ele>112</ele>
        <time>2017-01-08T08:49:01.964Z</time>
      </trkpt>
      <trkpt lat="47.79392" lon="2.21946">
        <ele>112</ele>
        <time>2017-01-08T08:49:02.964Z</time>
      </trkpt>
      <trkpt lat="47.79387" lon="2.21947">
        <ele>112</ele>
        <time>2017-01-08T08:49:03.965Z</time>
      </trkpt>
      <trkpt lat="47.79385" lon="2.21947">
        <ele>112</ele>
        <time>2017-01-08T08:49:04.985Z</time>
      </trkpt>
      <trkpt lat="47.79385" lon="2.21947">
        <ele>112</ele>
        <time>2017-01-08T08:49:05.984Z</time>
      </trkpt>
      <trkpt lat="47.79379" lon="2.21944">
        <ele>112</ele>
        <time>2017-01-08T08:49:06.973Z</time>
      </trkpt>
      <trkpt lat="47.79376" lon="2.21942">
        <ele>112</ele>
        <time>2017-01-08T08:49:07.967Z</time>
      </trkpt>
      <trkpt lat="47.79376" lon="2.21942">
        <ele>112</ele>
        <time>2017-01-08T08:49:08.972Z</time>
      </trkpt>
      <trkpt lat="47.79369" lon="2.21938">
        <ele>111</ele>
        <time>2017-01-08T08:49:09.968Z</time>
      </trkpt>
      <trkpt lat="47.79366" lon="2.21937">
        <ele>111</ele>
        <time>2017-01-08T08:49:10.980Z</time>
      </trkpt>
      <trkpt lat="47.79366" lon="2.21937">
        <ele>111</ele>
        <time>2017-01-08T08:49:11.968Z</time>
      </trkpt>
      <trkpt lat="47.79359" lon="2.21935">
        <ele>111</ele>
        <time>2017-01-08T08:49:12.967Z</time>
      </trkpt>
      <trkpt lat="47.79355" lon="2.21934">
        <ele>111</ele>
        <time>2017-01-08T08:49:13.967Z</time>
      </trkpt>
      <trkpt lat="47.79352" lon="2.21933">
        <ele>111</ele>
        <time>2017-01-08T08:49:14.965Z</time>
      </trkpt>
      <trkpt lat="47.79352" lon="2.21933">
        <ele>111</ele>
        <time>2017-01-08T08:49:15.964Z</time>
      </trkpt>
      <trkpt lat="47.79345" lon="2.21931">
        <ele>112</ele>
        <time>2017-01-08T08:49:16.971Z</time>
      </trkpt>
      <trkpt lat="47.79345" lon="2.21931">
        <ele>112</ele>
        <time>2017-01-08T08:49:17.964Z</time>
      </trkpt>
      <trkpt lat="47.79338" lon="2.21931">
        <ele>112</ele>
        <time>2017-01-08T08:49:18.967Z</time>
      </trkpt>
      <trkpt lat="47.79334" lon="2.2193">
        <ele>112</ele>
        <time>2017-01-08T08:49:19.967Z</time>
      </trkpt>
      <trkpt lat="47.79334" lon="2.2193">
        <ele>112</ele>
        <time>2017-01-08T08:49:20.965Z</time>
      </trkpt>
      <trkpt lat="47.79327" lon="2.2193">
        <ele>112</ele>
        <time>2017-01-08T08:49:21.967Z</time>
      </trkpt>
      <trkpt lat="47.79324" lon="2.21929">
        <ele>112</ele>
        <time>2017-01-08T08:49:22.972Z</time>
      </trkpt>
      <trkpt lat="47.79324" lon="2.21929">
        <ele>112</ele>
        <time>2017-01-08T08:49:23.964Z</time>
      </trkpt>
      <trkpt lat="47.79318" lon="2.21928">
        <ele>111</ele>
        <time>2017-01-08T08:49:24.965Z</time>
      </trkpt>
      <trkpt lat="47.79315" lon="2.21928">
        <ele>111</ele>
        <time>2017-01-08T08:49:25.967Z</time>
      </trkpt>
      <trkpt lat="47.79315" lon="2.21928">
        <ele>111</ele>
        <time>2017-01-08T08:49:26.961Z</time>
      </trkpt>
      <trkpt lat="47.79308" lon="2.21927">
        <ele>112</ele>
        <time>2017-01-08T08:49:27.972Z</time>
      </trkpt>
      <trkpt lat="47.79308" lon="2.21927">
        <ele>112</ele>
        <time>2017-01-08T08:49:28.971Z</time>
      </trkpt>
      <trkpt lat="47.79301" lon="2.21926">
        <ele>111</ele>
        <time>2017-01-08T08:49:29.967Z</time>
      </trkpt>
      <trkpt lat="47.79301" lon="2.21926">
        <ele>111</ele>
        <time>2017-01-08T08:49:30.962Z</time>
      </trkpt>
      <trkpt lat="47.79295" lon="2.21926">
        <ele>111</ele>
        <time>2017-01-08T08:49:31.967Z</time>
      </trkpt>
      <trkpt lat="47.79295" lon="2.21926">
        <ele>111</ele>
        <time>2017-01-08T08:49:32.964Z</time>
      </trkpt>
      <trkpt lat="47.79288" lon="2.21925">
        <ele>110</ele>
        <time>2017-01-08T08:49:33.967Z</time>
      </trkpt>
      <trkpt lat="47.79285" lon="2.21924">
        <ele>110</ele>
        <time>2017-01-08T08:49:34.969Z</time>
      </trkpt>
      <trkpt lat="47.79285" lon="2.21924">
        <ele>110</ele>
        <time>2017-01-08T08:49:35.963Z</time>
      </trkpt>
      <trkpt lat="47.79278" lon="2.21924">
        <ele>110</ele>
        <time>2017-01-08T08:49:36.968Z</time>
      </trkpt>
      <trkpt lat="47.79278" lon="2.21924">
        <ele>110</ele>
        <time>2017-01-08T08:49:37.964Z</time>
      </trkpt>
      <trkpt lat="47.79271" lon="2.21923">
        <ele>110</ele>
        <time>2017-01-08T08:49:38.960Z</time>
      </trkpt>
      <trkpt lat="47.79267" lon="2.21922">
        <ele>110</ele>
        <time>2017-01-08T08:49:39.968Z</time>
      </trkpt>
      <trkpt lat="47.79264" lon="2.21922">
        <ele>110</ele>
        <time>2017-01-08T08:49:40.968Z</time>
      </trkpt>
      <trkpt lat="47.79264" lon="2.21922">
        <ele>110</ele>
        <time>2017-01-08T08:49:41.965Z</time>
      </trkpt>
      <trkpt lat="47.79257" lon="2.21922">
        <ele>111</ele>
        <time>2017-01-08T08:49:42.968Z</time>
      </trkpt>
      <trkpt lat="47.79253" lon="2.21921">
        <ele>111</ele>
        <time>2017-01-08T08:49:43.968Z</time>
      </trkpt>
      <trkpt lat="47.7925" lon="2.21921">
        <ele>110</ele>
        <time>2017-01-08T08:49:44.965Z</time>
      </trkpt>
      <trkpt lat="47.7925" lon="2.21921">
        <ele>110</ele>
        <time>2017-01-08T08:49:45.964Z</time>
      </trkpt>
      <trkpt lat="47.79243" lon="2.2192">
        <ele>111</ele>
        <time>2017-01-08T08:49:46.971Z</time>
      </trkpt>
      <trkpt lat="47.79243" lon="2.2192">
        <ele>111</ele>
        <time>2017-01-08T08:49:47.962Z</time>
      </trkpt>
      <trkpt lat="47.79236" lon="2.2192">
        <ele>111</ele>
        <time>2017-01-08T08:49:48.973Z</time>
      </trkpt>
      <trkpt lat="47.79233" lon="2.2192">
        <ele>110</ele>
        <time>2017-01-08T08:49:49.969Z</time>
      </trkpt>
      <trkpt lat="47.79233" lon="2.2192">
        <ele>110</ele>
        <time>2017-01-08T08:49:50.965Z</time>
      </trkpt>
      <trkpt lat="47.79226" lon="2.21919">
        <ele>111</ele>
        <time>2017-01-08T08:49:51.967Z</time>
      </trkpt>
      <trkpt lat="47.79222" lon="2.21919">
        <ele>110</ele>
        <time>2017-01-08T08:49:52.971Z</time>
      </trkpt>
      <trkpt lat="47.79222" lon="2.21919">
        <ele>110</ele>
        <time>2017-01-08T08:49:53.965Z</time>
      </trkpt>
      <trkpt lat="47.79215" lon="2.21919">
        <ele>110</ele>
        <time>2017-01-08T08:49:54.967Z</time>
      </trkpt>
      <trkpt lat="47.79215" lon="2.21919">
        <ele>110</ele>
        <time>2017-01-08T08:49:55.965Z</time>
      </trkpt>
      <trkpt lat="47.79208" lon="2.21918">
        <ele>110</ele>
        <time>2017-01-08T08:49:56.969Z</time>
      </trkpt>
      <trkpt lat="47.79205" lon="2.21918">
        <ele>110</ele>
        <time>2017-01-08T08:49:57.965Z</time>
      </trkpt>
      <trkpt lat="47.79205" lon="2.21918">
        <ele>110</ele>
        <time>2017-01-08T08:49:58.956Z</time>
      </trkpt>
      <trkpt lat="47.79198" lon="2.21916">
        <ele>111</ele>
        <time>2017-01-08T08:49:59.967Z</time>
      </trkpt>
      <trkpt lat="47.79198" lon="2.21916">
        <ele>111</ele>
        <time>2017-01-08T08:50:00.961Z</time>
      </trkpt>
      <trkpt lat="47.79191" lon="2.21914">
        <ele>110</ele>
        <time>2017-01-08T08:50:01.967Z</time>
      </trkpt>
      <trkpt lat="47.79191" lon="2.21914">
        <ele>110</ele>
        <time>2017-01-08T08:50:02.965Z</time>
      </trkpt>
      <trkpt lat="47.79184" lon="2.21913">
        <ele>110</ele>
        <time>2017-01-08T08:50:03.967Z</time>
      </trkpt>
      <trkpt lat="47.79181" lon="2.21911">
        <ele>109</ele>
        <time>2017-01-08T08:50:04.985Z</time>
      </trkpt>
      <trkpt lat="47.79181" lon="2.21911">
        <ele>109</ele>
        <time>2017-01-08T08:50:05.973Z</time>
      </trkpt>
      <trkpt lat="47.79174" lon="2.21908">
        <ele>109</ele>
        <time>2017-01-08T08:50:06.967Z</time>
      </trkpt>
      <trkpt lat="47.79174" lon="2.21908">
        <ele>109</ele>
        <time>2017-01-08T08:50:07.964Z</time>
      </trkpt>
      <trkpt lat="47.79168" lon="2.21906">
        <ele>110</ele>
        <time>2017-01-08T08:50:08.966Z</time>
      </trkpt>
      <trkpt lat="47.79168" lon="2.21906">
        <ele>110</ele>
        <time>2017-01-08T08:50:09.965Z</time>
      </trkpt>
      <trkpt lat="47.79161" lon="2.21903">
        <ele>110</ele>
        <time>2017-01-08T08:50:10.966Z</time>
      </trkpt>
      <trkpt lat="47.79158" lon="2.21902">
        <ele>110</ele>
        <time>2017-01-08T08:50:11.970Z</time>
      </trkpt>
      <trkpt lat="47.79158" lon="2.21902">
        <ele>110</ele>
        <time>2017-01-08T08:50:12.962Z</time>
      </trkpt>
      <trkpt lat="47.79151" lon="2.21899">
        <ele>110</ele>
        <time>2017-01-08T08:50:13.968Z</time>
      </trkpt>
      <trkpt lat="47.79151" lon="2.21899">
        <ele>110</ele>
        <time>2017-01-08T08:50:14.965Z</time>
      </trkpt>
      <trkpt lat="47.79144" lon="2.21896">
        <ele>110</ele>
        <time>2017-01-08T08:50:15.965Z</time>
      </trkpt>
      <trkpt lat="47.79141" lon="2.21894">
        <ele>110</ele>
        <time>2017-01-08T08:50:16.974Z</time>
      </trkpt>
      <trkpt lat="47.79141" lon="2.21894">
        <ele>110</ele>
        <time>2017-01-08T08:50:17.965Z</time>
      </trkpt>
      <trkpt lat="47.79135" lon="2.2189">
        <ele>109</ele>
        <time>2017-01-08T08:50:18.965Z</time>
      </trkpt>
      <trkpt lat="47.79132" lon="2.21888">
        <ele>109</ele>
        <time>2017-01-08T08:50:19.967Z</time>
      </trkpt>
      <trkpt lat="47.79132" lon="2.21888">
        <ele>109</ele>
        <time>2017-01-08T08:50:20.964Z</time>
      </trkpt>
      <trkpt lat="47.79125" lon="2.21885">
        <ele>109</ele>
        <time>2017-01-08T08:50:21.970Z</time>
      </trkpt>
      <trkpt lat="47.79125" lon="2.21885">
        <ele>109</ele>
        <time>2017-01-08T08:50:22.966Z</time>
      </trkpt>
      <trkpt lat="47.79119" lon="2.21881">
        <ele>109</ele>
        <time>2017-01-08T08:50:23.989Z</time>
      </trkpt>
      <trkpt lat="47.79119" lon="2.21881">
        <ele>109</ele>
        <time>2017-01-08T08:50:24.955Z</time>
      </trkpt>
      <trkpt lat="47.79113" lon="2.21876">
        <ele>109</ele>
        <time>2017-01-08T08:50:25.968Z</time>
      </trkpt>
      <trkpt lat="47.79113" lon="2.21876">
        <ele>109</ele>
        <time>2017-01-08T08:50:26.974Z</time>
      </trkpt>
      <trkpt lat="47.79106" lon="2.21871">
        <ele>109</ele>
        <time>2017-01-08T08:50:27.981Z</time>
      </trkpt>
      <trkpt lat="47.79103" lon="2.21869">
        <ele>109</ele>
        <time>2017-01-08T08:50:28.970Z</time>
      </trkpt>
      <trkpt lat="47.79103" lon="2.21869">
        <ele>109</ele>
        <time>2017-01-08T08:50:29.963Z</time>
      </trkpt>
      <trkpt lat="47.79097" lon="2.21864">
        <ele>109</ele>
        <time>2017-01-08T08:50:30.968Z</time>
      </trkpt>
      <trkpt lat="47.79097" lon="2.21864">
        <ele>109</ele>
        <time>2017-01-08T08:50:31.965Z</time>
      </trkpt>
      <trkpt lat="47.79092" lon="2.21859">
        <ele>109</ele>
        <time>2017-01-08T08:50:32.967Z</time>
      </trkpt>
      <trkpt lat="47.79089" lon="2.21856">
        <ele>109</ele>
        <time>2017-01-08T08:50:33.965Z</time>
      </trkpt>
      <trkpt lat="47.79087" lon="2.21853">
        <ele>109</ele>
        <time>2017-01-08T08:50:34.971Z</time>
      </trkpt>
      <trkpt lat="47.79087" lon="2.21853">
        <ele>109</ele>
        <time>2017-01-08T08:50:35.965Z</time>
      </trkpt>
      <trkpt lat="47.79081" lon="2.21847">
        <ele>109</ele>
        <time>2017-01-08T08:50:36.968Z</time>
      </trkpt>
      <trkpt lat="47.79081" lon="2.21847">
        <ele>109</ele>
        <time>2017-01-08T08:50:37.965Z</time>
      </trkpt>
      <trkpt lat="47.79076" lon="2.21841">
        <ele>109</ele>
        <time>2017-01-08T08:50:38.968Z</time>
      </trkpt>
      <trkpt lat="47.79076" lon="2.21841">
        <ele>109</ele>
        <time>2017-01-08T08:50:39.965Z</time>
      </trkpt>
      <trkpt lat="47.79072" lon="2.21834">
        <ele>109</ele>
        <time>2017-01-08T08:50:40.971Z</time>
      </trkpt>
      <trkpt lat="47.79072" lon="2.21834">
        <ele>109</ele>
        <time>2017-01-08T08:50:41.965Z</time>
      </trkpt>
      <trkpt lat="47.79067" lon="2.21826">
        <ele>109</ele>
        <time>2017-01-08T08:50:42.968Z</time>
      </trkpt>
      <trkpt lat="47.79067" lon="2.21826">
        <ele>109</ele>
        <time>2017-01-08T08:50:43.964Z</time>
      </trkpt>
      <trkpt lat="47.79064" lon="2.21818">
        <ele>110</ele>
        <time>2017-01-08T08:50:44.967Z</time>
      </trkpt>
      <trkpt lat="47.79064" lon="2.21818">
        <ele>110</ele>
        <time>2017-01-08T08:50:45.965Z</time>
      </trkpt>
      <trkpt lat="47.7906" lon="2.21809">
        <ele>110</ele>
        <time>2017-01-08T08:50:46.971Z</time>
      </trkpt>
      <trkpt lat="47.7906" lon="2.21809">
        <ele>110</ele>
        <time>2017-01-08T08:50:47.963Z</time>
      </trkpt>
      <trkpt lat="47.79057" lon="2.21801">
        <ele>110</ele>
        <time>2017-01-08T08:50:48.969Z</time>
      </trkpt>
      <trkpt lat="47.79057" lon="2.21801">
        <ele>110</ele>
        <time>2017-01-08T08:50:49.965Z</time>
      </trkpt>
      <trkpt lat="47.79053" lon="2.21792">
        <ele>110</ele>
        <time>2017-01-08T08:50:50.968Z</time>
      </trkpt>
      <trkpt lat="47.79053" lon="2.21792">
        <ele>110</ele>
        <time>2017-01-08T08:50:51.963Z</time>
      </trkpt>
      <trkpt lat="47.79049" lon="2.21783">
        <ele>110</ele>
        <time>2017-01-08T08:50:52.972Z</time>
      </trkpt>
      <trkpt lat="47.79049" lon="2.21783">
        <ele>110</ele>
        <time>2017-01-08T08:50:53.965Z</time>
      </trkpt>
      <trkpt lat="47.79045" lon="2.21774">
        <ele>110</ele>
        <time>2017-01-08T08:50:54.968Z</time>
      </trkpt>
      <trkpt lat="47.79044" lon="2.21769">
        <ele>110</ele>
        <time>2017-01-08T08:50:55.968Z</time>
      </trkpt>
      <trkpt lat="47.79044" lon="2.21769">
        <ele>110</ele>
        <time>2017-01-08T08:50:56.964Z</time>
      </trkpt>
      <trkpt lat="47.7904" lon="2.2176">
        <ele>110</ele>
        <time>2017-01-08T08:50:57.967Z</time>
      </trkpt>
      <trkpt lat="47.79039" lon="2.21755">
        <ele>110</ele>
        <time>2017-01-08T08:50:58.978Z</time>
      </trkpt>
      <trkpt lat="47.79039" lon="2.21755">
        <ele>110</ele>
        <time>2017-01-08T08:50:59.988Z</time>
      </trkpt>
      <trkpt lat="47.79035" lon="2.21746">
        <ele>110</ele>
        <time>2017-01-08T08:51:00.978Z</time>
      </trkpt>
      <trkpt lat="47.79033" lon="2.21741">
        <ele>110</ele>
        <time>2017-01-08T08:51:01.967Z</time>
      </trkpt>
      <trkpt lat="47.79033" lon="2.21741">
        <ele>110</ele>
        <time>2017-01-08T08:51:02.965Z</time>
      </trkpt>
      <trkpt lat="47.7903" lon="2.21732">
        <ele>110</ele>
        <time>2017-01-08T08:51:03.976Z</time>
      </trkpt>
      <trkpt lat="47.79028" lon="2.21728">
        <ele>110</ele>
        <time>2017-01-08T08:51:04.971Z</time>
      </trkpt>
      <trkpt lat="47.79028" lon="2.21728">
        <ele>110</ele>
        <time>2017-01-08T08:51:05.963Z</time>
      </trkpt>
      <trkpt lat="47.79024" lon="2.21719">
        <ele>110</ele>
        <time>2017-01-08T08:51:06.968Z</time>
      </trkpt>
      <trkpt lat="47.79024" lon="2.21719">
        <ele>110</ele>
        <time>2017-01-08T08:51:07.966Z</time>
      </trkpt>
      <trkpt lat="47.79021" lon="2.21709">
        <ele>110</ele>
        <time>2017-01-08T08:51:08.967Z</time>
      </trkpt>
      <trkpt lat="47.79021" lon="2.21709">
        <ele>110</ele>
        <time>2017-01-08T08:51:09.962Z</time>
      </trkpt>
      <trkpt lat="47.79018" lon="2.217">
        <ele>110</ele>
        <time>2017-01-08T08:51:10.990Z</time>
      </trkpt>
      <trkpt lat="47.79018" lon="2.217">
        <ele>110</ele>
        <time>2017-01-08T08:51:11.987Z</time>
      </trkpt>
      <trkpt lat="47.79015" lon="2.2169">
        <ele>110</ele>
        <time>2017-01-08T08:51:12.977Z</time>
      </trkpt>
      <trkpt lat="47.79013" lon="2.21685">
        <ele>110</ele>
        <time>2017-01-08T08:51:13.968Z</time>
      </trkpt>
      <trkpt lat="47.79011" lon="2.2168">
        <ele>110</ele>
        <time>2017-01-08T08:51:14.966Z</time>
      </trkpt>
      <trkpt lat="47.79011" lon="2.2168">
        <ele>110</ele>
        <time>2017-01-08T08:51:15.965Z</time>
      </trkpt>
      <trkpt lat="47.79007" lon="2.2167">
        <ele>110</ele>
        <time>2017-01-08T08:51:16.971Z</time>
      </trkpt>
      <trkpt lat="47.79007" lon="2.2167">
        <ele>110</ele>
        <time>2017-01-08T08:51:17.965Z</time>
      </trkpt>
      <trkpt lat="47.79003" lon="2.2166">
        <ele>110</ele>
        <time>2017-01-08T08:51:18.968Z</time>
      </trkpt>
      <trkpt lat="47.79003" lon="2.2166">
        <ele>110</ele>
        <time>2017-01-08T08:51:19.963Z</time>
      </trkpt>
      <trkpt lat="47.78999" lon="2.2165">
        <ele>110</ele>
        <time>2017-01-08T08:51:20.968Z</time>
      </trkpt>
      <trkpt lat="47.78999" lon="2.2165">
        <ele>110</ele>
        <time>2017-01-08T08:51:21.965Z</time>
      </trkpt>
      <trkpt lat="47.78994" lon="2.2164">
        <ele>110</ele>
        <time>2017-01-08T08:51:22.971Z</time>
      </trkpt>
      <trkpt lat="47.78994" lon="2.2164">
        <ele>110</ele>
        <time>2017-01-08T08:51:23.965Z</time>
      </trkpt>
      <trkpt lat="47.78989" lon="2.2163">
        <ele>110</ele>
        <time>2017-01-08T08:51:24.965Z</time>
      </trkpt>
      <trkpt lat="47.78987" lon="2.21625">
        <ele>110</ele>
        <time>2017-01-08T08:51:25.954Z</time>
      </trkpt>
      <trkpt lat="47.78987" lon="2.21625">
        <ele>110</ele>
        <time>2017-01-08T08:51:26.985Z</time>
      </trkpt>
      <trkpt lat="47.78982" lon="2.21615">
        <ele>110</ele>
        <time>2017-01-08T08:51:27.978Z</time>
      </trkpt>
      <trkpt lat="47.7898" lon="2.2161">
        <ele>110</ele>
        <time>2017-01-08T08:51:28.971Z</time>
      </trkpt>
      <trkpt lat="47.7898" lon="2.2161">
        <ele>110</ele>
        <time>2017-01-08T08:51:29.962Z</time>
      </trkpt>
      <trkpt lat="47.78975" lon="2.21601">
        <ele>110</ele>
        <time>2017-01-08T08:51:30.977Z</time>
      </trkpt>
      <trkpt lat="47.78972" lon="2.21597">
        <ele>110</ele>
        <time>2017-01-08T08:51:31.968Z</time>
      </trkpt>
      <trkpt lat="47.78972" lon="2.21597">
        <ele>110</ele>
        <time>2017-01-08T08:51:32.967Z</time>
      </trkpt>
      <trkpt lat="47.78967" lon="2.21588">
        <ele>110</ele>
        <time>2017-01-08T08:51:33.968Z</time>
      </trkpt>
      <trkpt lat="47.78964" lon="2.21584">
        <ele>110</ele>
        <time>2017-01-08T08:51:34.967Z</time>
      </trkpt>
      <trkpt lat="47.78964" lon="2.21584">
        <ele>110</ele>
        <time>2017-01-08T08:51:35.963Z</time>
      </trkpt>
      <trkpt lat="47.78958" lon="2.21576">
        <ele>110</ele>
        <time>2017-01-08T08:51:36.968Z</time>
      </trkpt>
      <trkpt lat="47.78955" lon="2.21573">
        <ele>110</ele>
        <time>2017-01-08T08:51:37.967Z</time>
      </trkpt>
      <trkpt lat="47.78955" lon="2.21573">
        <ele>110</ele>
        <time>2017-01-08T08:51:38.966Z</time>
      </trkpt>
      <trkpt lat="47.7895" lon="2.21566">
        <ele>111</ele>
        <time>2017-01-08T08:51:39.971Z</time>
      </trkpt>
      <trkpt lat="47.78947" lon="2.21563">
        <ele>111</ele>
        <time>2017-01-08T08:51:40.971Z</time>
      </trkpt>
      <trkpt lat="47.78947" lon="2.21563">
        <ele>111</ele>
        <time>2017-01-08T08:51:41.965Z</time>
      </trkpt>
      <trkpt lat="47.78942" lon="2.21556">
        <ele>111</ele>
        <time>2017-01-08T08:51:42.968Z</time>
      </trkpt>
      <trkpt lat="47.78939" lon="2.21553">
        <ele>111</ele>
        <time>2017-01-08T08:51:43.968Z</time>
      </trkpt>
      <trkpt lat="47.78939" lon="2.21553">
        <ele>111</ele>
        <time>2017-01-08T08:51:44.963Z</time>
      </trkpt>
      <trkpt lat="47.78933" lon="2.21547">
        <ele>111</ele>
        <time>2017-01-08T08:51:45.966Z</time>
      </trkpt>
      <trkpt lat="47.7893" lon="2.21543">
        <ele>111</ele>
        <time>2017-01-08T08:51:46.972Z</time>
      </trkpt>
      <trkpt lat="47.7893" lon="2.21543">
        <ele>111</ele>
        <time>2017-01-08T08:51:47.971Z</time>
      </trkpt>
      <trkpt lat="47.78925" lon="2.21537">
        <ele>111</ele>
        <time>2017-01-08T08:51:48.976Z</time>
      </trkpt>
      <trkpt lat="47.78925" lon="2.21537">
        <ele>111</ele>
        <time>2017-01-08T08:51:49.970Z</time>
      </trkpt>
      <trkpt lat="47.78919" lon="2.2153">
        <ele>111</ele>
        <time>2017-01-08T08:51:50.968Z</time>
      </trkpt>
      <trkpt lat="47.78919" lon="2.2153">
        <ele>111</ele>
        <time>2017-01-08T08:51:51.966Z</time>
      </trkpt>
      <trkpt lat="47.78913" lon="2.21522">
        <ele>111</ele>
        <time>2017-01-08T08:51:52.971Z</time>
      </trkpt>
      <trkpt lat="47.78913" lon="2.21522">
        <ele>111</ele>
        <time>2017-01-08T08:51:53.963Z</time>
      </trkpt>
      <trkpt lat="47.78908" lon="2.21515">
        <ele>111</ele>
        <time>2017-01-08T08:51:54.967Z</time>
      </trkpt>
      <trkpt lat="47.78905" lon="2.2151">
        <ele>111</ele>
        <time>2017-01-08T08:51:55.967Z</time>
      </trkpt>
      <trkpt lat="47.78905" lon="2.2151">
        <ele>111</ele>
        <time>2017-01-08T08:51:56.963Z</time>
      </trkpt>
      <trkpt lat="47.789" lon="2.21503">
        <ele>111</ele>
        <time>2017-01-08T08:51:57.970Z</time>
      </trkpt>
      <trkpt lat="47.789" lon="2.21503">
        <ele>111</ele>
        <time>2017-01-08T08:51:58.967Z</time>
      </trkpt>
      <trkpt lat="47.78896" lon="2.21495">
        <ele>111</ele>
        <time>2017-01-08T08:51:59.968Z</time>
      </trkpt>
      <trkpt lat="47.78893" lon="2.21491">
        <ele>111</ele>
        <time>2017-01-08T08:52:00.968Z</time>
      </trkpt>
      <trkpt lat="47.78893" lon="2.21491">
        <ele>111</ele>
        <time>2017-01-08T08:52:01.965Z</time>
      </trkpt>
      <trkpt lat="47.78889" lon="2.21484">
        <ele>111</ele>
        <time>2017-01-08T08:52:02.968Z</time>
      </trkpt>
      <trkpt lat="47.78889" lon="2.21484">
        <ele>111</ele>
        <time>2017-01-08T08:52:03.979Z</time>
      </trkpt>
      <trkpt lat="47.78883" lon="2.21477">
        <ele>111</ele>
        <time>2017-01-08T08:52:04.971Z</time>
      </trkpt>
      <trkpt lat="47.78883" lon="2.21477">
        <ele>111</ele>
        <time>2017-01-08T08:52:05.966Z</time>
      </trkpt>
      <trkpt lat="47.78878" lon="2.21471">
        <ele>112</ele>
        <time>2017-01-08T08:52:06.969Z</time>
      </trkpt>
      <trkpt lat="47.78875" lon="2.21468">
        <ele>112</ele>
        <time>2017-01-08T08:52:07.969Z</time>
      </trkpt>
      <trkpt lat="47.78875" lon="2.21468">
        <ele>112</ele>
        <time>2017-01-08T08:52:08.965Z</time>
      </trkpt>
      <trkpt lat="47.78868" lon="2.21462">
        <ele>112</ele>
        <time>2017-01-08T08:52:09.969Z</time>
      </trkpt>
      <trkpt lat="47.78864" lon="2.2146">
        <ele>112</ele>
        <time>2017-01-08T08:52:10.971Z</time>
      </trkpt>
      <trkpt lat="47.78864" lon="2.2146">
        <ele>112</ele>
        <time>2017-01-08T08:52:11.964Z</time>
      </trkpt>
      <trkpt lat="47.78858" lon="2.21454">
        <ele>111</ele>
        <time>2017-01-08T08:52:12.969Z</time>
      </trkpt>
      <trkpt lat="47.78858" lon="2.21454">
        <ele>111</ele>
        <time>2017-01-08T08:52:13.965Z</time>
      </trkpt>
      <trkpt lat="47.7885" lon="2.2145">
        <ele>111</ele>
        <time>2017-01-08T08:52:14.969Z</time>
      </trkpt>
      <trkpt lat="47.7885" lon="2.2145">
        <ele>111</ele>
        <time>2017-01-08T08:52:15.963Z</time>
      </trkpt>
      <trkpt lat="47.78842" lon="2.21447">
        <ele>111</ele>
        <time>2017-01-08T08:52:16.991Z</time>
      </trkpt>
      <trkpt lat="47.78842" lon="2.21447">
        <ele>111</ele>
        <time>2017-01-08T08:52:17.992Z</time>
      </trkpt>
      <trkpt lat="47.78834" lon="2.21443">
        <ele>111</ele>
        <time>2017-01-08T08:52:18.979Z</time>
      </trkpt>
      <trkpt lat="47.7883" lon="2.21441">
        <ele>112</ele>
        <time>2017-01-08T08:52:19.969Z</time>
      </trkpt>
      <trkpt lat="47.78826" lon="2.21439">
        <ele>113</ele>
        <time>2017-01-08T08:52:20.969Z</time>
      </trkpt>
      <trkpt lat="47.78826" lon="2.21439">
        <ele>113</ele>
        <time>2017-01-08T08:52:21.965Z</time>
      </trkpt>
      <trkpt lat="47.78817" lon="2.21436">
        <ele>113</ele>
        <time>2017-01-08T08:52:22.969Z</time>
      </trkpt>
      <trkpt lat="47.78812" lon="2.21434">
        <ele>112</ele>
        <time>2017-01-08T08:52:23.967Z</time>
      </trkpt>
      <trkpt lat="47.78808" lon="2.21433">
        <ele>112</ele>
        <time>2017-01-08T08:52:24.968Z</time>
      </trkpt>
      <trkpt lat="47.78808" lon="2.21433">
        <ele>112</ele>
        <time>2017-01-08T08:52:25.966Z</time>
      </trkpt>
      <trkpt lat="47.788" lon="2.21429">
        <ele>113</ele>
        <time>2017-01-08T08:52:26.968Z</time>
      </trkpt>
      <trkpt lat="47.78796" lon="2.21428">
        <ele>112</ele>
        <time>2017-01-08T08:52:27.969Z</time>
      </trkpt>
      <trkpt lat="47.78792" lon="2.21427">
        <ele>113</ele>
        <time>2017-01-08T08:52:28.971Z</time>
      </trkpt>
      <trkpt lat="47.78792" lon="2.21427">
        <ele>113</ele>
        <time>2017-01-08T08:52:29.966Z</time>
      </trkpt>
      <trkpt lat="47.78784" lon="2.21423">
        <ele>114</ele>
        <time>2017-01-08T08:52:30.969Z</time>
      </trkpt>
      <trkpt lat="47.7878" lon="2.21421">
        <ele>114</ele>
        <time>2017-01-08T08:52:31.965Z</time>
      </trkpt>
      <trkpt lat="47.78777" lon="2.21419">
        <ele>114</ele>
        <time>2017-01-08T08:52:32.969Z</time>
      </trkpt>
      <trkpt lat="47.78777" lon="2.21419">
        <ele>114</ele>
        <time>2017-01-08T08:52:33.965Z</time>
      </trkpt>
      <trkpt lat="47.78771" lon="2.21415">
        <ele>114</ele>
        <time>2017-01-08T08:52:34.969Z</time>
      </trkpt>
      <trkpt lat="47.78771" lon="2.21415">
        <ele>114</ele>
        <time>2017-01-08T08:52:35.966Z</time>
      </trkpt>
      <trkpt lat="47.78765" lon="2.21409">
        <ele>114</ele>
        <time>2017-01-08T08:52:36.968Z</time>
      </trkpt>
      <trkpt lat="47.78762" lon="2.21405">
        <ele>114</ele>
        <time>2017-01-08T08:52:37.967Z</time>
      </trkpt>
      <trkpt lat="47.78762" lon="2.21405">
        <ele>114</ele>
        <time>2017-01-08T08:52:38.965Z</time>
      </trkpt>
      <trkpt lat="47.78758" lon="2.21397">
        <ele>114</ele>
        <time>2017-01-08T08:52:39.969Z</time>
      </trkpt>
      <trkpt lat="47.78755" lon="2.21392">
        <ele>114</ele>
        <time>2017-01-08T08:52:40.991Z</time>
      </trkpt>
      <trkpt lat="47.78755" lon="2.21392">
        <ele>114</ele>
        <time>2017-01-08T08:52:41.990Z</time>
      </trkpt>
      <trkpt lat="47.78751" lon="2.21381">
        <ele>114</ele>
        <time>2017-01-08T08:52:42.978Z</time>
      </trkpt>
      <trkpt lat="47.78751" lon="2.21381">
        <ele>114</ele>
        <time>2017-01-08T08:52:43.966Z</time>
      </trkpt>
      <trkpt lat="47.78748" lon="2.21369">
        <ele>115</ele>
        <time>2017-01-08T08:52:44.965Z</time>
      </trkpt>
      <trkpt lat="47.78746" lon="2.21364">
        <ele>114</ele>
        <time>2017-01-08T08:52:45.971Z</time>
      </trkpt>
      <trkpt lat="47.78746" lon="2.21364">
        <ele>114</ele>
        <time>2017-01-08T08:52:46.967Z</time>
      </trkpt>
      <trkpt lat="47.78742" lon="2.21353">
        <ele>114</ele>
        <time>2017-01-08T08:52:47.968Z</time>
      </trkpt>
      <trkpt lat="47.78741" lon="2.21348">
        <ele>114</ele>
        <time>2017-01-08T08:52:48.970Z</time>
      </trkpt>
      <trkpt lat="47.78741" lon="2.21348">
        <ele>114</ele>
        <time>2017-01-08T08:52:49.964Z</time>
      </trkpt>
      <trkpt lat="47.78737" lon="2.21337">
        <ele>114</ele>
        <time>2017-01-08T08:52:50.974Z</time>
      </trkpt>
      <trkpt lat="47.78737" lon="2.21337">
        <ele>114</ele>
        <time>2017-01-08T08:52:51.962Z</time>
      </trkpt>
      <trkpt lat="47.78734" lon="2.21326">
        <ele>114</ele>
        <time>2017-01-08T08:52:52.971Z</time>
      </trkpt>
      <trkpt lat="47.78734" lon="2.21326">
        <ele>114</ele>
        <time>2017-01-08T08:52:53.963Z</time>
      </trkpt>
      <trkpt lat="47.7873" lon="2.21316">
        <ele>114</ele>
        <time>2017-01-08T08:52:54.968Z</time>
      </trkpt>
      <trkpt lat="47.7873" lon="2.21316">
        <ele>114</ele>
        <time>2017-01-08T08:52:55.966Z</time>
      </trkpt>
      <trkpt lat="47.78727" lon="2.21306">
        <ele>114</ele>
        <time>2017-01-08T08:52:56.969Z</time>
      </trkpt>
      <trkpt lat="47.78725" lon="2.213">
        <ele>114</ele>
        <time>2017-01-08T08:52:57.970Z</time>
      </trkpt>
      <trkpt lat="47.78725" lon="2.213">
        <ele>114</ele>
        <time>2017-01-08T08:52:58.961Z</time>
      </trkpt>
      <trkpt lat="47.78721" lon="2.2129">
        <ele>114</ele>
        <time>2017-01-08T08:52:59.970Z</time>
      </trkpt>
      <trkpt lat="47.78721" lon="2.2129">
        <ele>114</ele>
        <time>2017-01-08T08:53:00.960Z</time>
      </trkpt>
      <trkpt lat="47.78718" lon="2.21279">
        <ele>114</ele>
        <time>2017-01-08T08:53:01.970Z</time>
      </trkpt>
      <trkpt lat="47.78718" lon="2.21279">
        <ele>114</ele>
        <time>2017-01-08T08:53:02.965Z</time>
      </trkpt>
      <trkpt lat="47.78715" lon="2.21269">
        <ele>113</ele>
        <time>2017-01-08T08:53:03.961Z</time>
      </trkpt>
      <trkpt lat="47.78713" lon="2.21264">
        <ele>113</ele>
        <time>2017-01-08T08:53:04.981Z</time>
      </trkpt>
      <trkpt lat="47.78713" lon="2.21264">
        <ele>113</ele>
        <time>2017-01-08T08:53:05.970Z</time>
      </trkpt>
      <trkpt lat="47.7871" lon="2.21253">
        <ele>113</ele>
        <time>2017-01-08T08:53:06.969Z</time>
      </trkpt>
      <trkpt lat="47.7871" lon="2.21253">
        <ele>113</ele>
        <time>2017-01-08T08:53:07.965Z</time>
      </trkpt>
      <trkpt lat="47.78706" lon="2.21243">
        <ele>114</ele>
        <time>2017-01-08T08:53:08.966Z</time>
      </trkpt>
      <trkpt lat="47.78706" lon="2.21243">
        <ele>114</ele>
        <time>2017-01-08T08:53:09.966Z</time>
      </trkpt>
      <trkpt lat="47.78703" lon="2.21233">
        <ele>114</ele>
        <time>2017-01-08T08:53:10.966Z</time>
      </trkpt>
      <trkpt lat="47.78701" lon="2.21228">
        <ele>114</ele>
        <time>2017-01-08T08:53:11.966Z</time>
      </trkpt>
      <trkpt lat="47.78701" lon="2.21228">
        <ele>114</ele>
        <time>2017-01-08T08:53:12.966Z</time>
      </trkpt>
      <trkpt lat="47.78698" lon="2.21217">
        <ele>115</ele>
        <time>2017-01-08T08:53:13.966Z</time>
      </trkpt>
      <trkpt lat="47.78698" lon="2.21217">
        <ele>115</ele>
        <time>2017-01-08T08:53:14.963Z</time>
      </trkpt>
      <trkpt lat="47.78694" lon="2.21207">
        <ele>115</ele>
        <time>2017-01-08T08:53:15.969Z</time>
      </trkpt>
      <trkpt lat="47.78692" lon="2.21202">
        <ele>115</ele>
        <time>2017-01-08T08:53:16.972Z</time>
      </trkpt>
      <trkpt lat="47.78692" lon="2.21202">
        <ele>115</ele>
        <time>2017-01-08T08:53:17.966Z</time>
      </trkpt>
      <trkpt lat="47.78687" lon="2.21192">
        <ele>115</ele>
        <time>2017-01-08T08:53:18.968Z</time>
      </trkpt>
      <trkpt lat="47.78687" lon="2.21192">
        <ele>115</ele>
        <time>2017-01-08T08:53:19.964Z</time>
      </trkpt>
      <trkpt lat="47.78683" lon="2.21182">
        <ele>115</ele>
        <time>2017-01-08T08:53:20.961Z</time>
      </trkpt>
      <trkpt lat="47.7868" lon="2.21177">
        <ele>115</ele>
        <time>2017-01-08T08:53:21.966Z</time>
      </trkpt>
      <trkpt lat="47.78678" lon="2.21173">
        <ele>115</ele>
        <time>2017-01-08T08:53:22.971Z</time>
      </trkpt>
      <trkpt lat="47.78678" lon="2.21173">
        <ele>115</ele>
        <time>2017-01-08T08:53:23.963Z</time>
      </trkpt>
      <trkpt lat="47.78672" lon="2.21163">
        <ele>115</ele>
        <time>2017-01-08T08:53:24.968Z</time>
      </trkpt>
      <trkpt lat="47.7867" lon="2.21159">
        <ele>114</ele>
        <time>2017-01-08T08:53:25.974Z</time>
      </trkpt>
      <trkpt lat="47.7867" lon="2.21159">
        <ele>114</ele>
        <time>2017-01-08T08:53:26.972Z</time>
      </trkpt>
      <trkpt lat="47.78664" lon="2.21151">
        <ele>114</ele>
        <time>2017-01-08T08:53:27.969Z</time>
      </trkpt>
      <trkpt lat="47.78664" lon="2.21151">
        <ele>114</ele>
        <time>2017-01-08T08:53:28.964Z</time>
      </trkpt>
      <trkpt lat="47.78658" lon="2.21143">
        <ele>113</ele>
        <time>2017-01-08T08:53:29.966Z</time>
      </trkpt>
      <trkpt lat="47.78658" lon="2.21143">
        <ele>113</ele>
        <time>2017-01-08T08:53:30.967Z</time>
      </trkpt>
      <trkpt lat="47.78653" lon="2.21135">
        <ele>113</ele>
        <time>2017-01-08T08:53:31.966Z</time>
      </trkpt>
      <trkpt lat="47.78653" lon="2.21135">
        <ele>113</ele>
        <time>2017-01-08T08:53:32.966Z</time>
      </trkpt>
      <trkpt lat="47.78647" lon="2.21126">
        <ele>113</ele>
        <time>2017-01-08T08:53:33.969Z</time>
      </trkpt>
      <trkpt lat="47.78645" lon="2.21121">
        <ele>113</ele>
        <time>2017-01-08T08:53:34.971Z</time>
      </trkpt>
      <trkpt lat="47.78645" lon="2.21121">
        <ele>113</ele>
        <time>2017-01-08T08:53:35.964Z</time>
      </trkpt>
      <trkpt lat="47.78639" lon="2.21113">
        <ele>113</ele>
        <time>2017-01-08T08:53:36.969Z</time>
      </trkpt>
      <trkpt lat="47.78639" lon="2.21113">
        <ele>113</ele>
        <time>2017-01-08T08:53:37.965Z</time>
      </trkpt>
      <trkpt lat="47.78633" lon="2.21106">
        <ele>113</ele>
        <time>2017-01-08T08:53:38.969Z</time>
      </trkpt>
      <trkpt lat="47.78633" lon="2.21106">
        <ele>113</ele>
        <time>2017-01-08T08:53:39.963Z</time>
      </trkpt>
      <trkpt lat="47.78627" lon="2.21098">
        <ele>113</ele>
        <time>2017-01-08T08:53:40.969Z</time>
      </trkpt>
      <trkpt lat="47.78627" lon="2.21098">
        <ele>113</ele>
        <time>2017-01-08T08:53:41.965Z</time>
      </trkpt>
      <trkpt lat="47.78621" lon="2.2109">
        <ele>113</ele>
        <time>2017-01-08T08:53:42.968Z</time>
      </trkpt>
      <trkpt lat="47.78618" lon="2.21086">
        <ele>113</ele>
        <time>2017-01-08T08:53:43.966Z</time>
      </trkpt>
      <trkpt lat="47.78618" lon="2.21086">
        <ele>113</ele>
        <time>2017-01-08T08:53:44.964Z</time>
      </trkpt>
      <trkpt lat="47.78613" lon="2.21077">
        <ele>112</ele>
        <time>2017-01-08T08:53:45.970Z</time>
      </trkpt>
      <trkpt lat="47.78611" lon="2.21074">
        <ele>112</ele>
        <time>2017-01-08T08:53:46.969Z</time>
      </trkpt>
      <trkpt lat="47.78611" lon="2.21074">
        <ele>112</ele>
        <time>2017-01-08T08:53:47.967Z</time>
      </trkpt>
      <trkpt lat="47.78606" lon="2.21067">
        <ele>111</ele>
        <time>2017-01-08T08:53:48.977Z</time>
      </trkpt>
      <trkpt lat="47.78603" lon="2.21063">
        <ele>111</ele>
        <time>2017-01-08T08:53:49.968Z</time>
      </trkpt>
      <trkpt lat="47.78603" lon="2.21063">
        <ele>111</ele>
        <time>2017-01-08T08:53:50.964Z</time>
      </trkpt>
      <trkpt lat="47.78599" lon="2.21057">
        <ele>110</ele>
        <time>2017-01-08T08:53:51.966Z</time>
      </trkpt>
      <trkpt lat="47.78597" lon="2.21053">
        <ele>109</ele>
        <time>2017-01-08T08:53:52.971Z</time>
      </trkpt>
      <trkpt lat="47.78597" lon="2.21053">
        <ele>109</ele>
        <time>2017-01-08T08:53:53.964Z</time>
      </trkpt>
      <trkpt lat="47.78593" lon="2.21047">
        <ele>109</ele>
        <time>2017-01-08T08:53:54.970Z</time>
      </trkpt>
      <trkpt lat="47.78593" lon="2.21047">
        <ele>109</ele>
        <time>2017-01-08T08:53:55.963Z</time>
      </trkpt>
      <trkpt lat="47.78589" lon="2.21042">
        <ele>109</ele>
        <time>2017-01-08T08:53:56.969Z</time>
      </trkpt>
      <trkpt lat="47.78588" lon="2.2104">
        <ele>109</ele>
        <time>2017-01-08T08:53:57.969Z</time>
      </trkpt>
      <trkpt lat="47.78588" lon="2.2104">
        <ele>109</ele>
        <time>2017-01-08T08:53:58.967Z</time>
      </trkpt>
      <trkpt lat="47.78584" lon="2.21036">
        <ele>109</ele>
        <time>2017-01-08T08:53:59.969Z</time>
      </trkpt>
      <trkpt lat="47.78584" lon="2.21036">
        <ele>109</ele>
        <time>2017-01-08T08:54:00.963Z</time>
      </trkpt>
      <trkpt lat="47.78581" lon="2.21032">
        <ele>109</ele>
        <time>2017-01-08T08:54:01.966Z</time>
      </trkpt>
      <trkpt lat="47.78581" lon="2.21032">
        <ele>109</ele>
        <time>2017-01-08T08:54:02.964Z</time>
      </trkpt>
      <trkpt lat="47.78579" lon="2.21027">
        <ele>109</ele>
        <time>2017-01-08T08:54:03.961Z</time>
      </trkpt>
      <trkpt lat="47.78578" lon="2.21025">
        <ele>109</ele>
        <time>2017-01-08T08:54:04.978Z</time>
      </trkpt>
      <trkpt lat="47.78578" lon="2.21025">
        <ele>109</ele>
        <time>2017-01-08T08:54:05.967Z</time>
      </trkpt>
      <trkpt lat="47.78573" lon="2.21021">
        <ele>110</ele>
        <time>2017-01-08T08:54:06.969Z</time>
      </trkpt>
      <trkpt lat="47.78573" lon="2.21021">
        <ele>110</ele>
        <time>2017-01-08T08:54:07.963Z</time>
      </trkpt>
      <trkpt lat="47.78569" lon="2.21017">
        <ele>110</ele>
        <time>2017-01-08T08:54:08.967Z</time>
      </trkpt>
      <trkpt lat="47.78569" lon="2.21017">
        <ele>110</ele>
        <time>2017-01-08T08:54:09.963Z</time>
      </trkpt>
      <trkpt lat="47.78564" lon="2.2101">
        <ele>110</ele>
        <time>2017-01-08T08:54:10.971Z</time>
      </trkpt>
      <trkpt lat="47.78564" lon="2.2101">
        <ele>110</ele>
        <time>2017-01-08T08:54:11.964Z</time>
      </trkpt>
      <trkpt lat="47.7856" lon="2.21003">
        <ele>110</ele>
        <time>2017-01-08T08:54:12.981Z</time>
      </trkpt>
      <trkpt lat="47.7856" lon="2.21003">
        <ele>110</ele>
        <time>2017-01-08T08:54:13.969Z</time>
      </trkpt>
      <trkpt lat="47.78555" lon="2.20995">
        <ele>110</ele>
        <time>2017-01-08T08:54:14.967Z</time>
      </trkpt>
      <trkpt lat="47.78555" lon="2.20995">
        <ele>110</ele>
        <time>2017-01-08T08:54:15.963Z</time>
      </trkpt>
      <trkpt lat="47.78549" lon="2.20988">
        <ele>111</ele>
        <time>2017-01-08T08:54:16.991Z</time>
      </trkpt>
      <trkpt lat="47.78549" lon="2.20988">
        <ele>111</ele>
        <time>2017-01-08T08:54:17.979Z</time>
      </trkpt>
      <trkpt lat="47.78543" lon="2.20983">
        <ele>111</ele>
        <time>2017-01-08T08:54:18.969Z</time>
      </trkpt>
      <trkpt lat="47.7854" lon="2.2098">
        <ele>111</ele>
        <time>2017-01-08T08:54:19.966Z</time>
      </trkpt>
      <trkpt lat="47.7854" lon="2.2098">
        <ele>111</ele>
        <time>2017-01-08T08:54:20.965Z</time>
      </trkpt>
      <trkpt lat="47.78535" lon="2.20973">
        <ele>111</ele>
        <time>2017-01-08T08:54:21.967Z</time>
      </trkpt>
      <trkpt lat="47.78533" lon="2.2097">
        <ele>111</ele>
        <time>2017-01-08T08:54:22.972Z</time>
      </trkpt>
      <trkpt lat="47.78533" lon="2.2097">
        <ele>111</ele>
        <time>2017-01-08T08:54:23.966Z</time>
      </trkpt>
      <trkpt lat="47.78529" lon="2.20964">
        <ele>111</ele>
        <time>2017-01-08T08:54:24.969Z</time>
      </trkpt>
      <trkpt lat="47.78529" lon="2.20964">
        <ele>111</ele>
        <time>2017-01-08T08:54:25.987Z</time>
      </trkpt>
      <trkpt lat="47.78525" lon="2.20959">
        <ele>110</ele>
        <time>2017-01-08T08:54:26.975Z</time>
      </trkpt>
      <trkpt lat="47.78525" lon="2.20959">
        <ele>110</ele>
        <time>2017-01-08T08:54:27.966Z</time>
      </trkpt>
      <trkpt lat="47.78519" lon="2.20952">
        <ele>110</ele>
        <time>2017-01-08T08:54:28.971Z</time>
      </trkpt>
      <trkpt lat="47.78516" lon="2.20948">
        <ele>110</ele>
        <time>2017-01-08T08:54:29.968Z</time>
      </trkpt>
      <trkpt lat="47.78516" lon="2.20948">
        <ele>110</ele>
        <time>2017-01-08T08:54:30.967Z</time>
      </trkpt>
      <trkpt lat="47.7851" lon="2.20941">
        <ele>110</ele>
        <time>2017-01-08T08:54:31.969Z</time>
      </trkpt>
      <trkpt lat="47.7851" lon="2.20941">
        <ele>110</ele>
        <time>2017-01-08T08:54:32.966Z</time>
      </trkpt>
      <trkpt lat="47.78504" lon="2.20933">
        <ele>109</ele>
        <time>2017-01-08T08:54:33.971Z</time>
      </trkpt>
      <trkpt lat="47.78501" lon="2.20928">
        <ele>109</ele>
        <time>2017-01-08T08:54:34.973Z</time>
      </trkpt>
      <trkpt lat="47.78501" lon="2.20928">
        <ele>109</ele>
        <time>2017-01-08T08:54:35.963Z</time>
      </trkpt>
      <trkpt lat="47.78496" lon="2.20915">
        <ele>109</ele>
        <time>2017-01-08T08:54:36.969Z</time>
      </trkpt>
      <trkpt lat="47.78496" lon="2.20915">
        <ele>109</ele>
        <time>2017-01-08T08:54:37.966Z</time>
      </trkpt>
      <trkpt lat="47.7849" lon="2.20908">
        <ele>109</ele>
        <time>2017-01-08T08:54:38.966Z</time>
      </trkpt>
      <trkpt lat="47.7849" lon="2.20908">
        <ele>109</ele>
        <time>2017-01-08T08:54:39.963Z</time>
      </trkpt>
      <trkpt lat="47.78484" lon="2.20899">
        <ele>109</ele>
        <time>2017-01-08T08:54:40.971Z</time>
      </trkpt>
      <trkpt lat="47.78484" lon="2.20899">
        <ele>109</ele>
        <time>2017-01-08T08:54:41.970Z</time>
      </trkpt>
      <trkpt lat="47.78478" lon="2.20891">
        <ele>108</ele>
        <time>2017-01-08T08:54:42.969Z</time>
      </trkpt>
      <trkpt lat="47.78478" lon="2.20891">
        <ele>108</ele>
        <time>2017-01-08T08:54:43.963Z</time>
      </trkpt>
      <trkpt lat="47.78472" lon="2.20884">
        <ele>109</ele>
        <time>2017-01-08T08:54:44.969Z</time>
      </trkpt>
      <trkpt lat="47.78472" lon="2.20884">
        <ele>109</ele>
        <time>2017-01-08T08:54:45.964Z</time>
      </trkpt>
      <trkpt lat="47.78465" lon="2.20877">
        <ele>109</ele>
        <time>2017-01-08T08:54:46.971Z</time>
      </trkpt>
      <trkpt lat="47.78465" lon="2.20877">
        <ele>109</ele>
        <time>2017-01-08T08:54:47.964Z</time>
      </trkpt>
      <trkpt lat="47.78459" lon="2.2087">
        <ele>109</ele>
        <time>2017-01-08T08:54:48.969Z</time>
      </trkpt>
      <trkpt lat="47.78459" lon="2.2087">
        <ele>109</ele>
        <time>2017-01-08T08:54:49.977Z</time>
      </trkpt>
      <trkpt lat="47.78452" lon="2.20864">
        <ele>108</ele>
        <time>2017-01-08T08:54:50.967Z</time>
      </trkpt>
      <trkpt lat="47.78452" lon="2.20864">
        <ele>108</ele>
        <time>2017-01-08T08:54:51.967Z</time>
      </trkpt>
      <trkpt lat="47.78444" lon="2.2086">
        <ele>108</ele>
        <time>2017-01-08T08:54:52.972Z</time>
      </trkpt>
      <trkpt lat="47.78444" lon="2.2086">
        <ele>108</ele>
        <time>2017-01-08T08:54:53.964Z</time>
      </trkpt>
      <trkpt lat="47.78436" lon="2.20856">
        <ele>109</ele>
        <time>2017-01-08T08:54:54.969Z</time>
      </trkpt>
      <trkpt lat="47.78436" lon="2.20856">
        <ele>109</ele>
        <time>2017-01-08T08:54:55.963Z</time>
      </trkpt>
      <trkpt lat="47.78428" lon="2.20853">
        <ele>109</ele>
        <time>2017-01-08T08:54:56.971Z</time>
      </trkpt>
      <trkpt lat="47.78428" lon="2.20853">
        <ele>109</ele>
        <time>2017-01-08T08:54:57.964Z</time>
      </trkpt>
      <trkpt lat="47.78421" lon="2.2085">
        <ele>109</ele>
        <time>2017-01-08T08:54:58.971Z</time>
      </trkpt>
      <trkpt lat="47.78418" lon="2.20848">
        <ele>109</ele>
        <time>2017-01-08T08:54:59.982Z</time>
      </trkpt>
      <trkpt lat="47.78415" lon="2.20847">
        <ele>109</ele>
        <time>2017-01-08T08:55:00.971Z</time>
      </trkpt>
      <trkpt lat="47.78415" lon="2.20847">
        <ele>109</ele>
        <time>2017-01-08T08:55:01.966Z</time>
      </trkpt>
      <trkpt lat="47.78407" lon="2.20843">
        <ele>110</ele>
        <time>2017-01-08T08:55:02.970Z</time>
      </trkpt>
      <trkpt lat="47.78403" lon="2.20841">
        <ele>110</ele>
        <time>2017-01-08T08:55:03.968Z</time>
      </trkpt>
      <trkpt lat="47.784" lon="2.20839">
        <ele>110</ele>
        <time>2017-01-08T08:55:04.987Z</time>
      </trkpt>
      <trkpt lat="47.784" lon="2.20839">
        <ele>110</ele>
        <time>2017-01-08T08:55:05.975Z</time>
      </trkpt>
      <trkpt lat="47.78392" lon="2.20834">
        <ele>110</ele>
        <time>2017-01-08T08:55:06.978Z</time>
      </trkpt>
      <trkpt lat="47.78388" lon="2.20832">
        <ele>110</ele>
        <time>2017-01-08T08:55:07.970Z</time>
      </trkpt>
      <trkpt lat="47.78388" lon="2.20832">
        <ele>110</ele>
        <time>2017-01-08T08:55:08.963Z</time>
      </trkpt>
      <trkpt lat="47.78379" lon="2.20827">
        <ele>111</ele>
        <time>2017-01-08T08:55:09.969Z</time>
      </trkpt>
      <trkpt lat="47.78375" lon="2.20825">
        <ele>111</ele>
        <time>2017-01-08T08:55:10.971Z</time>
      </trkpt>
      <trkpt lat="47.78375" lon="2.20825">
        <ele>111</ele>
        <time>2017-01-08T08:55:11.965Z</time>
      </trkpt>
      <trkpt lat="47.78367" lon="2.20821">
        <ele>111</ele>
        <time>2017-01-08T08:55:12.969Z</time>
      </trkpt>
      <trkpt lat="47.78363" lon="2.20819">
        <ele>112</ele>
        <time>2017-01-08T08:55:13.969Z</time>
      </trkpt>
      <trkpt lat="47.78363" lon="2.20819">
        <ele>112</ele>
        <time>2017-01-08T08:55:14.964Z</time>
      </trkpt>
      <trkpt lat="47.78356" lon="2.20815">
        <ele>112</ele>
        <time>2017-01-08T08:55:15.969Z</time>
      </trkpt>
      <trkpt lat="47.78356" lon="2.20815">
        <ele>112</ele>
        <time>2017-01-08T08:55:16.965Z</time>
      </trkpt>
      <trkpt lat="47.78348" lon="2.2081">
        <ele>112</ele>
        <time>2017-01-08T08:55:17.969Z</time>
      </trkpt>
      <trkpt lat="47.78348" lon="2.2081">
        <ele>112</ele>
        <time>2017-01-08T08:55:18.964Z</time>
      </trkpt>
      <trkpt lat="47.7834" lon="2.20806">
        <ele>113</ele>
        <time>2017-01-08T08:55:19.970Z</time>
      </trkpt>
      <trkpt lat="47.7834" lon="2.20806">
        <ele>113</ele>
        <time>2017-01-08T08:55:20.964Z</time>
      </trkpt>
      <trkpt lat="47.78333" lon="2.208">
        <ele>113</ele>
        <time>2017-01-08T08:55:21.961Z</time>
      </trkpt>
      <trkpt lat="47.78329" lon="2.20798">
        <ele>113</ele>
        <time>2017-01-08T08:55:22.971Z</time>
      </trkpt>
      <trkpt lat="47.78329" lon="2.20798">
        <ele>113</ele>
        <time>2017-01-08T08:55:23.964Z</time>
      </trkpt>
      <trkpt lat="47.78322" lon="2.20794">
        <ele>113</ele>
        <time>2017-01-08T08:55:24.970Z</time>
      </trkpt>
      <trkpt lat="47.78322" lon="2.20794">
        <ele>113</ele>
        <time>2017-01-08T08:55:25.963Z</time>
      </trkpt>
      <trkpt lat="47.78314" lon="2.20789">
        <ele>113</ele>
        <time>2017-01-08T08:55:26.970Z</time>
      </trkpt>
      <trkpt lat="47.78314" lon="2.20789">
        <ele>113</ele>
        <time>2017-01-08T08:55:27.966Z</time>
      </trkpt>
      <trkpt lat="47.78307" lon="2.20785">
        <ele>113</ele>
        <time>2017-01-08T08:55:28.972Z</time>
      </trkpt>
      <trkpt lat="47.78307" lon="2.20785">
        <ele>113</ele>
        <time>2017-01-08T08:55:29.966Z</time>
      </trkpt>
      <trkpt lat="47.78299" lon="2.20781">
        <ele>113</ele>
        <time>2017-01-08T08:55:30.969Z</time>
      </trkpt>
      <trkpt lat="47.78299" lon="2.20781">
        <ele>113</ele>
        <time>2017-01-08T08:55:31.965Z</time>
      </trkpt>
      <trkpt lat="47.78291" lon="2.20776">
        <ele>114</ele>
        <time>2017-01-08T08:55:32.969Z</time>
      </trkpt>
      <trkpt lat="47.78287" lon="2.20774">
        <ele>114</ele>
        <time>2017-01-08T08:55:33.970Z</time>
      </trkpt>
      <trkpt lat="47.78283" lon="2.20772">
        <ele>114</ele>
        <time>2017-01-08T08:55:34.971Z</time>
      </trkpt>
      <trkpt lat="47.78283" lon="2.20772">
        <ele>114</ele>
        <time>2017-01-08T08:55:35.965Z</time>
      </trkpt>
      <trkpt lat="47.78275" lon="2.20768">
        <ele>114</ele>
        <time>2017-01-08T08:55:36.971Z</time>
      </trkpt>
      <trkpt lat="47.78269" lon="2.20764">
        <ele>114</ele>
        <time>2017-01-08T08:55:37.969Z</time>
      </trkpt>
      <trkpt lat="47.78269" lon="2.20764">
        <ele>114</ele>
        <time>2017-01-08T08:55:38.964Z</time>
      </trkpt>
      <trkpt lat="47.78261" lon="2.20759">
        <ele>115</ele>
        <time>2017-01-08T08:55:39.969Z</time>
      </trkpt>
      <trkpt lat="47.78257" lon="2.20757">
        <ele>115</ele>
        <time>2017-01-08T08:55:40.971Z</time>
      </trkpt>
      <trkpt lat="47.78257" lon="2.20757">
        <ele>115</ele>
        <time>2017-01-08T08:55:41.968Z</time>
      </trkpt>
      <trkpt lat="47.78248" lon="2.20752">
        <ele>115</ele>
        <time>2017-01-08T08:55:42.969Z</time>
      </trkpt>
      <trkpt lat="47.78244" lon="2.20749">
        <ele>116</ele>
        <time>2017-01-08T08:55:43.970Z</time>
      </trkpt>
      <trkpt lat="47.78244" lon="2.20749">
        <ele>116</ele>
        <time>2017-01-08T08:55:44.964Z</time>
      </trkpt>
      <trkpt lat="47.78237" lon="2.20745">
        <ele>117</ele>
        <time>2017-01-08T08:55:45.970Z</time>
      </trkpt>
      <trkpt lat="47.78234" lon="2.20743">
        <ele>118</ele>
        <time>2017-01-08T08:55:46.971Z</time>
      </trkpt>
      <trkpt lat="47.78234" lon="2.20743">
        <ele>118</ele>
        <time>2017-01-08T08:55:47.964Z</time>
      </trkpt>
      <trkpt lat="47.78227" lon="2.20739">
        <ele>120</ele>
        <time>2017-01-08T08:55:48.969Z</time>
      </trkpt>
      <trkpt lat="47.78227" lon="2.20739">
        <ele>120</ele>
        <time>2017-01-08T08:55:49.978Z</time>
      </trkpt>
      <trkpt lat="47.7822" lon="2.20735">
        <ele>121</ele>
        <time>2017-01-08T08:55:50.969Z</time>
      </trkpt>
      <trkpt lat="47.7822" lon="2.20735">
        <ele>121</ele>
        <time>2017-01-08T08:55:51.964Z</time>
      </trkpt>
      <trkpt lat="47.78212" lon="2.20731">
        <ele>122</ele>
        <time>2017-01-08T08:55:52.993Z</time>
      </trkpt>
      <trkpt lat="47.78212" lon="2.20731">
        <ele>122</ele>
        <time>2017-01-08T08:55:53.987Z</time>
      </trkpt>
      <trkpt lat="47.78207" lon="2.20728">
        <ele>123</ele>
        <time>2017-01-08T08:55:54.978Z</time>
      </trkpt>
      <trkpt lat="47.78204" lon="2.20726">
        <ele>123</ele>
        <time>2017-01-08T08:55:55.969Z</time>
      </trkpt>
      <trkpt lat="47.78204" lon="2.20726">
        <ele>123</ele>
        <time>2017-01-08T08:55:56.964Z</time>
      </trkpt>
      <trkpt lat="47.78199" lon="2.20722">
        <ele>123</ele>
        <time>2017-01-08T08:55:57.969Z</time>
      </trkpt>
      <trkpt lat="47.78197" lon="2.2072">
        <ele>123</ele>
        <time>2017-01-08T08:55:58.970Z</time>
      </trkpt>
      <trkpt lat="47.78195" lon="2.20717">
        <ele>123</ele>
        <time>2017-01-08T08:55:59.969Z</time>
      </trkpt>
      <trkpt lat="47.78194" lon="2.20714">
        <ele>123</ele>
        <time>2017-01-08T08:56:00.969Z</time>
      </trkpt>
      <trkpt lat="47.78194" lon="2.20714">
        <ele>123</ele>
        <time>2017-01-08T08:56:01.965Z</time>
      </trkpt>
      <trkpt lat="47.78193" lon="2.20707">
        <ele>123</ele>
        <time>2017-01-08T08:56:02.970Z</time>
      </trkpt>
      <trkpt lat="47.78193" lon="2.20707">
        <ele>123</ele>
        <time>2017-01-08T08:56:03.966Z</time>
      </trkpt>
      <trkpt lat="47.78194" lon="2.20699">
        <ele>123</ele>
        <time>2017-01-08T08:56:04.988Z</time>
      </trkpt>
      <trkpt lat="47.78194" lon="2.20699">
        <ele>123</ele>
        <time>2017-01-08T08:56:05.976Z</time>
      </trkpt>
      <trkpt lat="47.78196" lon="2.20693">
        <ele>123</ele>
        <time>2017-01-08T08:56:06.987Z</time>
      </trkpt>
      <trkpt lat="47.78196" lon="2.20693">
        <ele>123</ele>
        <time>2017-01-08T08:56:07.976Z</time>
      </trkpt>
      <trkpt lat="47.782" lon="2.20686">
        <ele>123</ele>
        <time>2017-01-08T08:56:08.969Z</time>
      </trkpt>
      <trkpt lat="47.782" lon="2.20686">
        <ele>123</ele>
        <time>2017-01-08T08:56:09.965Z</time>
      </trkpt>
      <trkpt lat="47.78204" lon="2.20678">
        <ele>123</ele>
        <time>2017-01-08T08:56:10.973Z</time>
      </trkpt>
      <trkpt lat="47.78204" lon="2.20678">
        <ele>123</ele>
        <time>2017-01-08T08:56:11.967Z</time>
      </trkpt>
      <trkpt lat="47.78209" lon="2.20669">
        <ele>123</ele>
        <time>2017-01-08T08:56:12.970Z</time>
      </trkpt>
      <trkpt lat="47.78209" lon="2.20669">
        <ele>123</ele>
        <time>2017-01-08T08:56:13.965Z</time>
      </trkpt>
      <trkpt lat="47.78215" lon="2.20658">
        <ele>123</ele>
        <time>2017-01-08T08:56:14.970Z</time>
      </trkpt>
      <trkpt lat="47.78215" lon="2.20658">
        <ele>123</ele>
        <time>2017-01-08T08:56:15.965Z</time>
      </trkpt>
      <trkpt lat="47.7822" lon="2.20648">
        <ele>124</ele>
        <time>2017-01-08T08:56:16.971Z</time>
      </trkpt>
      <trkpt lat="47.7822" lon="2.20648">
        <ele>124</ele>
        <time>2017-01-08T08:56:17.965Z</time>
      </trkpt>
      <trkpt lat="47.78226" lon="2.2064">
        <ele>124</ele>
        <time>2017-01-08T08:56:18.971Z</time>
      </trkpt>
      <trkpt lat="47.78226" lon="2.2064">
        <ele>124</ele>
        <time>2017-01-08T08:56:19.965Z</time>
      </trkpt>
      <trkpt lat="47.78231" lon="2.20631">
        <ele>124</ele>
        <time>2017-01-08T08:56:20.971Z</time>
      </trkpt>
      <trkpt lat="47.78231" lon="2.20631">
        <ele>124</ele>
        <time>2017-01-08T08:56:21.965Z</time>
      </trkpt>
      <trkpt lat="47.78236" lon="2.20622">
        <ele>125</ele>
        <time>2017-01-08T08:56:22.993Z</time>
      </trkpt>
      <trkpt lat="47.78236" lon="2.20622">
        <ele>125</ele>
        <time>2017-01-08T08:56:23.987Z</time>
      </trkpt>
      <trkpt lat="47.78243" lon="2.20613">
        <ele>125</ele>
        <time>2017-01-08T08:56:24.977Z</time>
      </trkpt>
      <trkpt lat="47.78246" lon="2.20609">
        <ele>126</ele>
        <time>2017-01-08T08:56:25.987Z</time>
      </trkpt>
      <trkpt lat="47.78246" lon="2.20609">
        <ele>126</ele>
        <time>2017-01-08T08:56:26.976Z</time>
      </trkpt>
      <trkpt lat="47.78253" lon="2.206">
        <ele>126</ele>
        <time>2017-01-08T08:56:27.971Z</time>
      </trkpt>
      <trkpt lat="47.78256" lon="2.20595">
        <ele>127</ele>
        <time>2017-01-08T08:56:28.971Z</time>
      </trkpt>
      <trkpt lat="47.78256" lon="2.20595">
        <ele>127</ele>
        <time>2017-01-08T08:56:29.965Z</time>
      </trkpt>
      <trkpt lat="47.78262" lon="2.20586">
        <ele>128</ele>
        <time>2017-01-08T08:56:30.976Z</time>
      </trkpt>
      <trkpt lat="47.78262" lon="2.20586">
        <ele>128</ele>
        <time>2017-01-08T08:56:31.965Z</time>
      </trkpt>
      <trkpt lat="47.78269" lon="2.20576">
        <ele>128</ele>
        <time>2017-01-08T08:56:32.988Z</time>
      </trkpt>
      <trkpt lat="47.78269" lon="2.20576">
        <ele>128</ele>
        <time>2017-01-08T08:56:33.975Z</time>
      </trkpt>
      <trkpt lat="47.78275" lon="2.20565">
        <ele>129</ele>
        <time>2017-01-08T08:56:34.972Z</time>
      </trkpt>
      <trkpt lat="47.78275" lon="2.20565">
        <ele>129</ele>
        <time>2017-01-08T08:56:35.964Z</time>
      </trkpt>
      <trkpt lat="47.78282" lon="2.20555">
        <ele>129</ele>
        <time>2017-01-08T08:56:36.970Z</time>
      </trkpt>
      <trkpt lat="47.78286" lon="2.20549">
        <ele>129</ele>
        <time>2017-01-08T08:56:37.969Z</time>
      </trkpt>
      <trkpt lat="47.78286" lon="2.20549">
        <ele>129</ele>
        <time>2017-01-08T08:56:38.964Z</time>
      </trkpt>
      <trkpt lat="47.78294" lon="2.20537">
        <ele>130</ele>
        <time>2017-01-08T08:56:39.969Z</time>
      </trkpt>
      <trkpt lat="47.78298" lon="2.20531">
        <ele>130</ele>
        <time>2017-01-08T08:56:40.972Z</time>
      </trkpt>
      <trkpt lat="47.78301" lon="2.20525">
        <ele>130</ele>
        <time>2017-01-08T08:56:41.969Z</time>
      </trkpt>
      <trkpt lat="47.78301" lon="2.20525">
        <ele>130</ele>
        <time>2017-01-08T08:56:42.961Z</time>
      </trkpt>
      <trkpt lat="47.78308" lon="2.20516">
        <ele>131</ele>
        <time>2017-01-08T08:56:43.970Z</time>
      </trkpt>
      <trkpt lat="47.78308" lon="2.20516">
        <ele>131</ele>
        <time>2017-01-08T08:56:44.965Z</time>
      </trkpt>
      <trkpt lat="47.78316" lon="2.20507">
        <ele>131</ele>
        <time>2017-01-08T08:56:45.971Z</time>
      </trkpt>
      <trkpt lat="47.7832" lon="2.20503">
        <ele>131</ele>
        <time>2017-01-08T08:56:46.971Z</time>
      </trkpt>
      <trkpt lat="47.7832" lon="2.20503">
        <ele>131</ele>
        <time>2017-01-08T08:56:47.967Z</time>
      </trkpt>
      <trkpt lat="47.78326" lon="2.20496">
        <ele>132</ele>
        <time>2017-01-08T08:56:48.971Z</time>
      </trkpt>
      <trkpt lat="47.78326" lon="2.20496">
        <ele>132</ele>
        <time>2017-01-08T08:56:49.969Z</time>
      </trkpt>
      <trkpt lat="47.78332" lon="2.20489">
        <ele>132</ele>
        <time>2017-01-08T08:56:50.970Z</time>
      </trkpt>
      <trkpt lat="47.78332" lon="2.20489">
        <ele>132</ele>
        <time>2017-01-08T08:56:51.965Z</time>
      </trkpt>
      <trkpt lat="47.78339" lon="2.20483">
        <ele>132</ele>
        <time>2017-01-08T08:56:52.971Z</time>
      </trkpt>
      <trkpt lat="47.78339" lon="2.20483">
        <ele>132</ele>
        <time>2017-01-08T08:56:53.965Z</time>
      </trkpt>
      <trkpt lat="47.78346" lon="2.20477">
        <ele>131</ele>
        <time>2017-01-08T08:56:54.971Z</time>
      </trkpt>
      <trkpt lat="47.7835" lon="2.20473">
        <ele>130</ele>
        <time>2017-01-08T08:56:55.971Z</time>
      </trkpt>
      <trkpt lat="47.7835" lon="2.20473">
        <ele>130</ele>
        <time>2017-01-08T08:56:56.964Z</time>
      </trkpt>
      <trkpt lat="47.78358" lon="2.20466">
        <ele>130</ele>
        <time>2017-01-08T08:56:57.971Z</time>
      </trkpt>
      <trkpt lat="47.78362" lon="2.20463">
        <ele>130</ele>
        <time>2017-01-08T08:56:58.988Z</time>
      </trkpt>
      <trkpt lat="47.78362" lon="2.20463">
        <ele>130</ele>
        <time>2017-01-08T08:56:59.987Z</time>
      </trkpt>
      <trkpt lat="47.7837" lon="2.20456">
        <ele>129</ele>
        <time>2017-01-08T08:57:00.976Z</time>
      </trkpt>
      <trkpt lat="47.78376" lon="2.20452">
        <ele>129</ele>
        <time>2017-01-08T08:57:01.970Z</time>
      </trkpt>
      <trkpt lat="47.78376" lon="2.20452">
        <ele>129</ele>
        <time>2017-01-08T08:57:02.967Z</time>
      </trkpt>
      <trkpt lat="47.78386" lon="2.20445">
        <ele>129</ele>
        <time>2017-01-08T08:57:03.969Z</time>
      </trkpt>
      <trkpt lat="47.78391" lon="2.20442">
        <ele>128</ele>
        <time>2017-01-08T08:57:04.988Z</time>
      </trkpt>
      <trkpt lat="47.78391" lon="2.20442">
        <ele>128</ele>
        <time>2017-01-08T08:57:05.991Z</time>
      </trkpt>
      <trkpt lat="47.784" lon="2.20435">
        <ele>128</ele>
        <time>2017-01-08T08:57:06.979Z</time>
      </trkpt>
      <trkpt lat="47.78405" lon="2.20433">
        <ele>128</ele>
        <time>2017-01-08T08:57:07.970Z</time>
      </trkpt>
      <trkpt lat="47.78409" lon="2.2043">
        <ele>127</ele>
        <time>2017-01-08T08:57:08.969Z</time>
      </trkpt>
      <trkpt lat="47.78409" lon="2.2043">
        <ele>127</ele>
        <time>2017-01-08T08:57:09.965Z</time>
      </trkpt>
      <trkpt lat="47.78419" lon="2.20424">
        <ele>126</ele>
        <time>2017-01-08T08:57:10.972Z</time>
      </trkpt>
      <trkpt lat="47.78419" lon="2.20424">
        <ele>126</ele>
        <time>2017-01-08T08:57:11.966Z</time>
      </trkpt>
      <trkpt lat="47.78428" lon="2.20417">
        <ele>125</ele>
        <time>2017-01-08T08:57:12.964Z</time>
      </trkpt>
      <trkpt lat="47.78433" lon="2.20412">
        <ele>125</ele>
        <time>2017-01-08T08:57:13.971Z</time>
      </trkpt>
      <trkpt lat="47.78433" lon="2.20412">
        <ele>125</ele>
        <time>2017-01-08T08:57:14.965Z</time>
      </trkpt>
      <trkpt lat="47.78441" lon="2.20404">
        <ele>125</ele>
        <time>2017-01-08T08:57:15.972Z</time>
      </trkpt>
      <trkpt lat="47.78445" lon="2.20399">
        <ele>125</ele>
        <time>2017-01-08T08:57:16.972Z</time>
      </trkpt>
      <trkpt lat="47.78445" lon="2.20399">
        <ele>125</ele>
        <time>2017-01-08T08:57:17.967Z</time>
      </trkpt>
      <trkpt lat="47.78452" lon="2.20391">
        <ele>125</ele>
        <time>2017-01-08T08:57:18.971Z</time>
      </trkpt>
      <trkpt lat="47.78452" lon="2.20391">
        <ele>125</ele>
        <time>2017-01-08T08:57:19.965Z</time>
      </trkpt>
      <trkpt lat="47.7846" lon="2.20384">
        <ele>125</ele>
        <time>2017-01-08T08:57:20.970Z</time>
      </trkpt>
      <trkpt lat="47.78464" lon="2.2038">
        <ele>125</ele>
        <time>2017-01-08T08:57:21.969Z</time>
      </trkpt>
      <trkpt lat="47.78464" lon="2.2038">
        <ele>125</ele>
        <time>2017-01-08T08:57:22.973Z</time>
      </trkpt>
      <trkpt lat="47.78472" lon="2.20373">
        <ele>125</ele>
        <time>2017-01-08T08:57:23.971Z</time>
      </trkpt>
      <trkpt lat="47.78476" lon="2.20369">
        <ele>125</ele>
        <time>2017-01-08T08:57:24.972Z</time>
      </trkpt>
      <trkpt lat="47.78476" lon="2.20369">
        <ele>125</ele>
        <time>2017-01-08T08:57:25.966Z</time>
      </trkpt>
      <trkpt lat="47.78483" lon="2.20361">
        <ele>124</ele>
        <time>2017-01-08T08:57:26.967Z</time>
      </trkpt>
      <trkpt lat="47.78483" lon="2.20361">
        <ele>124</ele>
        <time>2017-01-08T08:57:27.965Z</time>
      </trkpt>
      <trkpt lat="47.78491" lon="2.20353">
        <ele>124</ele>
        <time>2017-01-08T08:57:28.972Z</time>
      </trkpt>
      <trkpt lat="47.78491" lon="2.20353">
        <ele>124</ele>
        <time>2017-01-08T08:57:29.965Z</time>
      </trkpt>
      <trkpt lat="47.78499" lon="2.20345">
        <ele>124</ele>
        <time>2017-01-08T08:57:30.971Z</time>
      </trkpt>
      <trkpt lat="47.78502" lon="2.20342">
        <ele>125</ele>
        <time>2017-01-08T08:57:31.971Z</time>
      </trkpt>
      <trkpt lat="47.78502" lon="2.20342">
        <ele>125</ele>
        <time>2017-01-08T08:57:32.965Z</time>
      </trkpt>
      <trkpt lat="47.78509" lon="2.20334">
        <ele>126</ele>
        <time>2017-01-08T08:57:33.971Z</time>
      </trkpt>
      <trkpt lat="47.78513" lon="2.20331">
        <ele>126</ele>
        <time>2017-01-08T08:57:34.971Z</time>
      </trkpt>
      <trkpt lat="47.78513" lon="2.20331">
        <ele>126</ele>
        <time>2017-01-08T08:57:35.965Z</time>
      </trkpt>
      <trkpt lat="47.7852" lon="2.20324">
        <ele>126</ele>
        <time>2017-01-08T08:57:36.971Z</time>
      </trkpt>
      <trkpt lat="47.78524" lon="2.20319">
        <ele>126</ele>
        <time>2017-01-08T08:57:37.970Z</time>
      </trkpt>
      <trkpt lat="47.78524" lon="2.20319">
        <ele>126</ele>
        <time>2017-01-08T08:57:38.965Z</time>
      </trkpt>
      <trkpt lat="47.78531" lon="2.20311">
        <ele>125</ele>
        <time>2017-01-08T08:57:39.971Z</time>
      </trkpt>
      <trkpt lat="47.78535" lon="2.20306">
        <ele>125</ele>
        <time>2017-01-08T08:57:40.973Z</time>
      </trkpt>
      <trkpt lat="47.78535" lon="2.20306">
        <ele>125</ele>
        <time>2017-01-08T08:57:41.965Z</time>
      </trkpt>
      <trkpt lat="47.78544" lon="2.20296">
        <ele>125</ele>
        <time>2017-01-08T08:57:42.971Z</time>
      </trkpt>
      <trkpt lat="47.78547" lon="2.20292">
        <ele>125</ele>
        <time>2017-01-08T08:57:43.971Z</time>
      </trkpt>
      <trkpt lat="47.78547" lon="2.20292">
        <ele>125</ele>
        <time>2017-01-08T08:57:44.965Z</time>
      </trkpt>
      <trkpt lat="47.78555" lon="2.20283">
        <ele>124</ele>
        <time>2017-01-08T08:57:45.969Z</time>
      </trkpt>
      <trkpt lat="47.78559" lon="2.20279">
        <ele>124</ele>
        <time>2017-01-08T08:57:46.971Z</time>
      </trkpt>
      <trkpt lat="47.78559" lon="2.20279">
        <ele>124</ele>
        <time>2017-01-08T08:57:47.968Z</time>
      </trkpt>
      <trkpt lat="47.78566" lon="2.20272">
        <ele>123</ele>
        <time>2017-01-08T08:57:48.979Z</time>
      </trkpt>
      <trkpt lat="47.7857" lon="2.20267">
        <ele>123</ele>
        <time>2017-01-08T08:57:49.971Z</time>
      </trkpt>
      <trkpt lat="47.78573" lon="2.20263">
        <ele>123</ele>
        <time>2017-01-08T08:57:50.969Z</time>
      </trkpt>
      <trkpt lat="47.78573" lon="2.20263">
        <ele>123</ele>
        <time>2017-01-08T08:57:51.965Z</time>
      </trkpt>
      <trkpt lat="47.78581" lon="2.20255">
        <ele>123</ele>
        <time>2017-01-08T08:57:52.974Z</time>
      </trkpt>
      <trkpt lat="47.78581" lon="2.20255">
        <ele>123</ele>
        <time>2017-01-08T08:57:53.968Z</time>
      </trkpt>
      <trkpt lat="47.78589" lon="2.20246">
        <ele>123</ele>
        <time>2017-01-08T08:57:54.970Z</time>
      </trkpt>
      <trkpt lat="47.78589" lon="2.20246">
        <ele>123</ele>
        <time>2017-01-08T08:57:55.966Z</time>
      </trkpt>
      <trkpt lat="47.78597" lon="2.20238">
        <ele>122</ele>
        <time>2017-01-08T08:57:56.971Z</time>
      </trkpt>
      <trkpt lat="47.78597" lon="2.20238">
        <ele>122</ele>
        <time>2017-01-08T08:57:57.965Z</time>
      </trkpt>
      <trkpt lat="47.78604" lon="2.2023">
        <ele>122</ele>
        <time>2017-01-08T08:57:58.976Z</time>
      </trkpt>
      <trkpt lat="47.78608" lon="2.20225">
        <ele>123</ele>
        <time>2017-01-08T08:57:59.969Z</time>
      </trkpt>
      <trkpt lat="47.78612" lon="2.20222">
        <ele>122</ele>
        <time>2017-01-08T08:58:00.971Z</time>
      </trkpt>
      <trkpt lat="47.78612" lon="2.20222">
        <ele>122</ele>
        <time>2017-01-08T08:58:01.965Z</time>
      </trkpt>
      <trkpt lat="47.78619" lon="2.20214">
        <ele>122</ele>
        <time>2017-01-08T08:58:02.972Z</time>
      </trkpt>
      <trkpt lat="47.78622" lon="2.20211">
        <ele>122</ele>
        <time>2017-01-08T08:58:03.969Z</time>
      </trkpt>
      <trkpt lat="47.78625" lon="2.20208">
        <ele>122</ele>
        <time>2017-01-08T08:58:04.962Z</time>
      </trkpt>
      <trkpt lat="47.78625" lon="2.20208">
        <ele>122</ele>
        <time>2017-01-08T08:58:05.968Z</time>
      </trkpt>
      <trkpt lat="47.78631" lon="2.20201">
        <ele>122</ele>
        <time>2017-01-08T08:58:06.971Z</time>
      </trkpt>
      <trkpt lat="47.78631" lon="2.20201">
        <ele>122</ele>
        <time>2017-01-08T08:58:07.967Z</time>
      </trkpt>
      <trkpt lat="47.78636" lon="2.20195">
        <ele>122</ele>
        <time>2017-01-08T08:58:08.971Z</time>
      </trkpt>
      <trkpt lat="47.78636" lon="2.20195">
        <ele>122</ele>
        <time>2017-01-08T08:58:09.966Z</time>
      </trkpt>
      <trkpt lat="47.78641" lon="2.20189">
        <ele>121</ele>
        <time>2017-01-08T08:58:10.973Z</time>
      </trkpt>
      <trkpt lat="47.78641" lon="2.20189">
        <ele>121</ele>
        <time>2017-01-08T08:58:11.965Z</time>
      </trkpt>
      <trkpt lat="47.78647" lon="2.20184">
        <ele>121</ele>
        <time>2017-01-08T08:58:12.968Z</time>
      </trkpt>
      <trkpt lat="47.78649" lon="2.20182">
        <ele>121</ele>
        <time>2017-01-08T08:58:13.971Z</time>
      </trkpt>
      <trkpt lat="47.78649" lon="2.20182">
        <ele>121</ele>
        <time>2017-01-08T08:58:14.965Z</time>
      </trkpt>
      <trkpt lat="47.78652" lon="2.20177">
        <ele>121</ele>
        <time>2017-01-08T08:58:15.971Z</time>
      </trkpt>
      <trkpt lat="47.78652" lon="2.20177">
        <ele>121</ele>
        <time>2017-01-08T08:58:16.967Z</time>
      </trkpt>
      <trkpt lat="47.78653" lon="2.20172">
        <ele>121</ele>
        <time>2017-01-08T08:58:17.971Z</time>
      </trkpt>
      <trkpt lat="47.78653" lon="2.20169">
        <ele>120</ele>
        <time>2017-01-08T08:58:18.971Z</time>
      </trkpt>
      <trkpt lat="47.78653" lon="2.20169">
        <ele>120</ele>
        <time>2017-01-08T08:58:19.965Z</time>
      </trkpt>
      <trkpt lat="47.78652" lon="2.20162">
        <ele>119</ele>
        <time>2017-01-08T08:58:20.971Z</time>
      </trkpt>
      <trkpt lat="47.78652" lon="2.20162">
        <ele>119</ele>
        <time>2017-01-08T08:58:21.965Z</time>
      </trkpt>
      <trkpt lat="47.78649" lon="2.20154">
        <ele>119</ele>
        <time>2017-01-08T08:58:22.972Z</time>
      </trkpt>
      <trkpt lat="47.78649" lon="2.20154">
        <ele>119</ele>
        <time>2017-01-08T08:58:23.969Z</time>
      </trkpt>
      <trkpt lat="47.78645" lon="2.20146">
        <ele>119</ele>
        <time>2017-01-08T08:58:24.970Z</time>
      </trkpt>
      <trkpt lat="47.78645" lon="2.20146">
        <ele>119</ele>
        <time>2017-01-08T08:58:25.966Z</time>
      </trkpt>
      <trkpt lat="47.78641" lon="2.20139">
        <ele>118</ele>
        <time>2017-01-08T08:58:26.976Z</time>
      </trkpt>
      <trkpt lat="47.78641" lon="2.20139">
        <ele>118</ele>
        <time>2017-01-08T08:58:27.966Z</time>
      </trkpt>
      <trkpt lat="47.78635" lon="2.20131">
        <ele>118</ele>
        <time>2017-01-08T08:58:28.972Z</time>
      </trkpt>
      <trkpt lat="47.78635" lon="2.20131">
        <ele>118</ele>
        <time>2017-01-08T08:58:29.965Z</time>
      </trkpt>
      <trkpt lat="47.7863" lon="2.20123">
        <ele>117</ele>
        <time>2017-01-08T08:58:30.971Z</time>
      </trkpt>
      <trkpt lat="47.78627" lon="2.20119">
        <ele>116</ele>
        <time>2017-01-08T08:58:31.971Z</time>
      </trkpt>
      <trkpt lat="47.78627" lon="2.20119">
        <ele>116</ele>
        <time>2017-01-08T08:58:32.967Z</time>
      </trkpt>
      <trkpt lat="47.7862" lon="2.20112">
        <ele>115</ele>
        <time>2017-01-08T08:58:33.967Z</time>
      </trkpt>
      <trkpt lat="47.78617" lon="2.20108">
        <ele>115</ele>
        <time>2017-01-08T08:58:34.973Z</time>
      </trkpt>
      <trkpt lat="47.78617" lon="2.20108">
        <ele>115</ele>
        <time>2017-01-08T08:58:35.966Z</time>
      </trkpt>
      <trkpt lat="47.78611" lon="2.201">
        <ele>114</ele>
        <time>2017-01-08T08:58:36.971Z</time>
      </trkpt>
      <trkpt lat="47.78611" lon="2.201">
        <ele>114</ele>
        <time>2017-01-08T08:58:37.968Z</time>
      </trkpt>
      <trkpt lat="47.78604" lon="2.20092">
        <ele>114</ele>
        <time>2017-01-08T08:58:38.971Z</time>
      </trkpt>
      <trkpt lat="47.78604" lon="2.20092">
        <ele>114</ele>
        <time>2017-01-08T08:58:39.966Z</time>
      </trkpt>
      <trkpt lat="47.78597" lon="2.20085">
        <ele>114</ele>
        <time>2017-01-08T08:58:40.971Z</time>
      </trkpt>
      <trkpt lat="47.78597" lon="2.20085">
        <ele>114</ele>
        <time>2017-01-08T08:58:41.966Z</time>
      </trkpt>
      <trkpt lat="47.7859" lon="2.20077">
        <ele>113</ele>
        <time>2017-01-08T08:58:42.971Z</time>
      </trkpt>
      <trkpt lat="47.7859" lon="2.20077">
        <ele>113</ele>
        <time>2017-01-08T08:58:43.966Z</time>
      </trkpt>
      <trkpt lat="47.78584" lon="2.20069">
        <ele>113</ele>
        <time>2017-01-08T08:58:44.971Z</time>
      </trkpt>
      <trkpt lat="47.78584" lon="2.20069">
        <ele>113</ele>
        <time>2017-01-08T08:58:45.965Z</time>
      </trkpt>
      <trkpt lat="47.78578" lon="2.20061">
        <ele>113</ele>
        <time>2017-01-08T08:58:46.993Z</time>
      </trkpt>
      <trkpt lat="47.78578" lon="2.20061">
        <ele>113</ele>
        <time>2017-01-08T08:58:47.988Z</time>
      </trkpt>
      <trkpt lat="47.78572" lon="2.20054">
        <ele>113</ele>
        <time>2017-01-08T08:58:48.990Z</time>
      </trkpt>
      <trkpt lat="47.78572" lon="2.20054">
        <ele>113</ele>
        <time>2017-01-08T08:58:49.978Z</time>
      </trkpt>
      <trkpt lat="47.78568" lon="2.20045">
        <ele>113</ele>
        <time>2017-01-08T08:58:50.971Z</time>
      </trkpt>
      <trkpt lat="47.78568" lon="2.20045">
        <ele>113</ele>
        <time>2017-01-08T08:58:51.967Z</time>
      </trkpt>
      <trkpt lat="47.78567" lon="2.20038">
        <ele>113</ele>
        <time>2017-01-08T08:58:52.972Z</time>
      </trkpt>
      <trkpt lat="47.78567" lon="2.20038">
        <ele>113</ele>
        <time>2017-01-08T08:58:53.965Z</time>
      </trkpt>
      <trkpt lat="47.78567" lon="2.20033">
        <ele>114</ele>
        <time>2017-01-08T08:58:54.971Z</time>
      </trkpt>
      <trkpt lat="47.78567" lon="2.20031">
        <ele>114</ele>
        <time>2017-01-08T08:58:55.971Z</time>
      </trkpt>
      <trkpt lat="47.78567" lon="2.20031">
        <ele>114</ele>
        <time>2017-01-08T08:58:56.965Z</time>
      </trkpt>
      <trkpt lat="47.78567" lon="2.20027">
        <ele>114</ele>
        <time>2017-01-08T08:58:57.971Z</time>
      </trkpt>
      <trkpt lat="47.78567" lon="2.20027">
        <ele>114</ele>
        <time>2017-01-08T08:58:58.961Z</time>
      </trkpt>
      <trkpt lat="47.78567" lon="2.20022">
        <ele>114</ele>
        <time>2017-01-08T08:58:59.971Z</time>
      </trkpt>
      <trkpt lat="47.78567" lon="2.20022">
        <ele>114</ele>
        <time>2017-01-08T08:59:00.966Z</time>
      </trkpt>
      <trkpt lat="47.78569" lon="2.20017">
        <ele>115</ele>
        <time>2017-01-08T08:59:01.971Z</time>
      </trkpt>
      <trkpt lat="47.78569" lon="2.20017">
        <ele>115</ele>
        <time>2017-01-08T08:59:02.965Z</time>
      </trkpt>
      <trkpt lat="47.78573" lon="2.20012">
        <ele>115</ele>
        <time>2017-01-08T08:59:03.966Z</time>
      </trkpt>
      <trkpt lat="47.78575" lon="2.20008">
        <ele>115</ele>
        <time>2017-01-08T08:59:04.989Z</time>
      </trkpt>
      <trkpt lat="47.78575" lon="2.20008">
        <ele>115</ele>
        <time>2017-01-08T08:59:05.977Z</time>
      </trkpt>
      <trkpt lat="47.78578" lon="2.2">
        <ele>116</ele>
        <time>2017-01-08T08:59:06.971Z</time>
      </trkpt>
      <trkpt lat="47.78579" lon="2.19994">
        <ele>116</ele>
        <time>2017-01-08T08:59:07.973Z</time>
      </trkpt>
      <trkpt lat="47.78579" lon="2.19994">
        <ele>116</ele>
        <time>2017-01-08T08:59:08.966Z</time>
      </trkpt>
      <trkpt lat="47.78582" lon="2.19982">
        <ele>117</ele>
        <time>2017-01-08T08:59:09.971Z</time>
      </trkpt>
      <trkpt lat="47.78582" lon="2.19977">
        <ele>117</ele>
        <time>2017-01-08T08:59:10.972Z</time>
      </trkpt>
      <trkpt lat="47.78582" lon="2.19977">
        <ele>117</ele>
        <time>2017-01-08T08:59:11.966Z</time>
      </trkpt>
      <trkpt lat="47.78584" lon="2.19965">
        <ele>117</ele>
        <time>2017-01-08T08:59:12.968Z</time>
      </trkpt>
      <trkpt lat="47.78584" lon="2.19965">
        <ele>117</ele>
        <time>2017-01-08T08:59:13.967Z</time>
      </trkpt>
      <trkpt lat="47.78585" lon="2.19955">
        <ele>118</ele>
        <time>2017-01-08T08:59:14.971Z</time>
      </trkpt>
      <trkpt lat="47.78585" lon="2.19955">
        <ele>118</ele>
        <time>2017-01-08T08:59:15.967Z</time>
      </trkpt>
      <trkpt lat="47.78587" lon="2.19944">
        <ele>118</ele>
        <time>2017-01-08T08:59:16.970Z</time>
      </trkpt>
      <trkpt lat="47.78587" lon="2.19944">
        <ele>118</ele>
        <time>2017-01-08T08:59:17.966Z</time>
      </trkpt>
      <trkpt lat="47.78588" lon="2.19932">
        <ele>118</ele>
        <time>2017-01-08T08:59:18.971Z</time>
      </trkpt>
      <trkpt lat="47.78588" lon="2.19932">
        <ele>118</ele>
        <time>2017-01-08T08:59:19.966Z</time>
      </trkpt>
      <trkpt lat="47.7859" lon="2.19921">
        <ele>118</ele>
        <time>2017-01-08T08:59:20.971Z</time>
      </trkpt>
      <trkpt lat="47.7859" lon="2.19921">
        <ele>118</ele>
        <time>2017-01-08T08:59:21.965Z</time>
      </trkpt>
      <trkpt lat="47.78592" lon="2.1991">
        <ele>118</ele>
        <time>2017-01-08T08:59:22.972Z</time>
      </trkpt>
      <trkpt lat="47.78592" lon="2.1991">
        <ele>118</ele>
        <time>2017-01-08T08:59:23.966Z</time>
      </trkpt>
      <trkpt lat="47.78594" lon="2.19902">
        <ele>118</ele>
        <time>2017-01-08T08:59:24.971Z</time>
      </trkpt>
      <trkpt lat="47.78594" lon="2.19898">
        <ele>118</ele>
        <time>2017-01-08T08:59:25.977Z</time>
      </trkpt>
      <trkpt lat="47.78594" lon="2.19898">
        <ele>118</ele>
        <time>2017-01-08T08:59:26.966Z</time>
      </trkpt>
      <trkpt lat="47.78596" lon="2.19893">
        <ele>118</ele>
        <time>2017-01-08T08:59:27.967Z</time>
      </trkpt>
      <trkpt lat="47.78597" lon="2.19892">
        <ele>118</ele>
        <time>2017-01-08T08:59:28.972Z</time>
      </trkpt>
      <trkpt lat="47.78597" lon="2.19892">
        <ele>118</ele>
        <time>2017-01-08T08:59:29.966Z</time>
      </trkpt>
      <trkpt lat="47.78598" lon="2.19888">
        <ele>118</ele>
        <time>2017-01-08T08:59:30.971Z</time>
      </trkpt>
      <trkpt lat="47.78598" lon="2.19886">
        <ele>118</ele>
        <time>2017-01-08T08:59:31.970Z</time>
      </trkpt>
      <trkpt lat="47.78598" lon="2.19886">
        <ele>118</ele>
        <time>2017-01-08T08:59:32.967Z</time>
      </trkpt>
      <trkpt lat="47.78596" lon="2.19882">
        <ele>118</ele>
        <time>2017-01-08T08:59:33.971Z</time>
      </trkpt>
      <trkpt lat="47.78595" lon="2.1988">
        <ele>118</ele>
        <time>2017-01-08T08:59:34.973Z</time>
      </trkpt>
      <trkpt lat="47.78595" lon="2.1988">
        <ele>118</ele>
        <time>2017-01-08T08:59:35.966Z</time>
      </trkpt>
      <trkpt lat="47.78592" lon="2.19875">
        <ele>118</ele>
        <time>2017-01-08T08:59:36.972Z</time>
      </trkpt>
      <trkpt lat="47.78592" lon="2.19875">
        <ele>118</ele>
        <time>2017-01-08T08:59:37.965Z</time>
      </trkpt>
      <trkpt lat="47.78587" lon="2.19871">
        <ele>117</ele>
        <time>2017-01-08T08:59:38.971Z</time>
      </trkpt>
      <trkpt lat="47.78587" lon="2.19871">
        <ele>117</ele>
        <time>2017-01-08T08:59:39.966Z</time>
      </trkpt>
      <trkpt lat="47.7858" lon="2.19868">
        <ele>117</ele>
        <time>2017-01-08T08:59:40.981Z</time>
      </trkpt>
      <trkpt lat="47.7858" lon="2.19868">
        <ele>117</ele>
        <time>2017-01-08T08:59:41.969Z</time>
      </trkpt>
      <trkpt lat="47.78572" lon="2.19868">
        <ele>117</ele>
        <time>2017-01-08T08:59:42.972Z</time>
      </trkpt>
      <trkpt lat="47.78572" lon="2.19868">
        <ele>117</ele>
        <time>2017-01-08T08:59:43.966Z</time>
      </trkpt>
      <trkpt lat="47.78565" lon="2.19867">
        <ele>116</ele>
        <time>2017-01-08T08:59:44.971Z</time>
      </trkpt>
      <trkpt lat="47.78565" lon="2.19867">
        <ele>116</ele>
        <time>2017-01-08T08:59:45.966Z</time>
      </trkpt>
      <trkpt lat="47.78558" lon="2.19866">
        <ele>116</ele>
        <time>2017-01-08T08:59:46.972Z</time>
      </trkpt>
      <trkpt lat="47.78558" lon="2.19866">
        <ele>116</ele>
        <time>2017-01-08T08:59:47.966Z</time>
      </trkpt>
      <trkpt lat="47.7855" lon="2.19865">
        <ele>116</ele>
        <time>2017-01-08T08:59:48.971Z</time>
      </trkpt>
      <trkpt lat="47.78546" lon="2.19865">
        <ele>116</ele>
        <time>2017-01-08T08:59:49.977Z</time>
      </trkpt>
      <trkpt lat="47.78546" lon="2.19865">
        <ele>116</ele>
        <time>2017-01-08T08:59:50.967Z</time>
      </trkpt>
      <trkpt lat="47.78539" lon="2.19864">
        <ele>116</ele>
        <time>2017-01-08T08:59:51.972Z</time>
      </trkpt>
      <trkpt lat="47.78539" lon="2.19864">
        <ele>116</ele>
        <time>2017-01-08T08:59:52.967Z</time>
      </trkpt>
      <trkpt lat="47.78531" lon="2.19864">
        <ele>116</ele>
        <time>2017-01-08T08:59:53.971Z</time>
      </trkpt>
      <trkpt lat="47.78531" lon="2.19864">
        <ele>116</ele>
        <time>2017-01-08T08:59:54.966Z</time>
      </trkpt>
      <trkpt lat="47.78524" lon="2.19863">
        <ele>116</ele>
        <time>2017-01-08T08:59:55.972Z</time>
      </trkpt>
      <trkpt lat="47.78524" lon="2.19863">
        <ele>116</ele>
        <time>2017-01-08T08:59:56.968Z</time>
      </trkpt>
      <trkpt lat="47.78516" lon="2.19862">
        <ele>116</ele>
        <time>2017-01-08T08:59:57.971Z</time>
      </trkpt>
      <trkpt lat="47.78512" lon="2.19861">
        <ele>116</ele>
        <time>2017-01-08T08:59:58.989Z</time>
      </trkpt>
      <trkpt lat="47.78512" lon="2.19861">
        <ele>116</ele>
        <time>2017-01-08T08:59:59.976Z</time>
      </trkpt>
      <trkpt lat="47.78504" lon="2.19861">
        <ele>116</ele>
        <time>2017-01-08T09:00:00.971Z</time>
      </trkpt>
      <trkpt lat="47.78504" lon="2.19861">
        <ele>116</ele>
        <time>2017-01-08T09:00:01.965Z</time>
      </trkpt>
      <trkpt lat="47.78496" lon="2.1986">
        <ele>116</ele>
        <time>2017-01-08T09:00:02.980Z</time>
      </trkpt>
      <trkpt lat="47.78496" lon="2.1986">
        <ele>116</ele>
        <time>2017-01-08T09:00:03.966Z</time>
      </trkpt>
      <trkpt lat="47.78488" lon="2.19859">
        <ele>116</ele>
        <time>2017-01-08T09:00:04.983Z</time>
      </trkpt>
      <trkpt lat="47.78488" lon="2.19859">
        <ele>116</ele>
        <time>2017-01-08T09:00:05.970Z</time>
      </trkpt>
      <trkpt lat="47.7848" lon="2.19857">
        <ele>115</ele>
        <time>2017-01-08T09:00:06.972Z</time>
      </trkpt>
      <trkpt lat="47.78476" lon="2.19857">
        <ele>115</ele>
        <time>2017-01-08T09:00:07.972Z</time>
      </trkpt>
      <trkpt lat="47.78476" lon="2.19857">
        <ele>115</ele>
        <time>2017-01-08T09:00:08.969Z</time>
      </trkpt>
      <trkpt lat="47.78468" lon="2.19857">
        <ele>115</ele>
        <time>2017-01-08T09:00:09.972Z</time>
      </trkpt>
      <trkpt lat="47.78464" lon="2.19857">
        <ele>115</ele>
        <time>2017-01-08T09:00:10.974Z</time>
      </trkpt>
      <trkpt lat="47.78464" lon="2.19857">
        <ele>115</ele>
        <time>2017-01-08T09:00:11.967Z</time>
      </trkpt>
      <trkpt lat="47.78456" lon="2.19856">
        <ele>116</ele>
        <time>2017-01-08T09:00:12.971Z</time>
      </trkpt>
      <trkpt lat="47.78452" lon="2.19855">
        <ele>116</ele>
        <time>2017-01-08T09:00:13.972Z</time>
      </trkpt>
      <trkpt lat="47.78452" lon="2.19855">
        <ele>116</ele>
        <time>2017-01-08T09:00:14.974Z</time>
      </trkpt>
      <trkpt lat="47.78444" lon="2.19854">
        <ele>116</ele>
        <time>2017-01-08T09:00:15.971Z</time>
      </trkpt>
      <trkpt lat="47.7844" lon="2.19853">
        <ele>116</ele>
        <time>2017-01-08T09:00:16.974Z</time>
      </trkpt>
      <trkpt lat="47.7844" lon="2.19853">
        <ele>116</ele>
        <time>2017-01-08T09:00:17.966Z</time>
      </trkpt>
      <trkpt lat="47.78433" lon="2.19852">
        <ele>116</ele>
        <time>2017-01-08T09:00:18.971Z</time>
      </trkpt>
      <trkpt lat="47.78433" lon="2.19852">
        <ele>116</ele>
        <time>2017-01-08T09:00:19.966Z</time>
      </trkpt>
      <trkpt lat="47.78425" lon="2.1985">
        <ele>116</ele>
        <time>2017-01-08T09:00:20.970Z</time>
      </trkpt>
      <trkpt lat="47.78425" lon="2.1985">
        <ele>116</ele>
        <time>2017-01-08T09:00:21.968Z</time>
      </trkpt>
      <trkpt lat="47.78418" lon="2.1985">
        <ele>117</ele>
        <time>2017-01-08T09:00:22.972Z</time>
      </trkpt>
      <trkpt lat="47.78418" lon="2.1985">
        <ele>117</ele>
        <time>2017-01-08T09:00:23.968Z</time>
      </trkpt>
      <trkpt lat="47.78411" lon="2.1985">
        <ele>117</ele>
        <time>2017-01-08T09:00:24.976Z</time>
      </trkpt>
      <trkpt lat="47.78408" lon="2.1985">
        <ele>117</ele>
        <time>2017-01-08T09:00:25.971Z</time>
      </trkpt>
      <trkpt lat="47.78408" lon="2.1985">
        <ele>117</ele>
        <time>2017-01-08T09:00:26.969Z</time>
      </trkpt>
      <trkpt lat="47.78401" lon="2.1985">
        <ele>117</ele>
        <time>2017-01-08T09:00:27.969Z</time>
      </trkpt>
      <trkpt lat="47.78399" lon="2.19849">
        <ele>118</ele>
        <time>2017-01-08T09:00:28.972Z</time>
      </trkpt>
      <trkpt lat="47.78399" lon="2.19849">
        <ele>118</ele>
        <time>2017-01-08T09:00:29.969Z</time>
      </trkpt>
      <trkpt lat="47.78397" lon="2.19841">
        <ele>120</ele>
        <time>2017-01-08T09:00:30.971Z</time>
      </trkpt>
      <trkpt lat="47.78397" lon="2.19841">
        <ele>120</ele>
        <time>2017-01-08T09:00:31.969Z</time>
      </trkpt>
      <trkpt lat="47.78397" lon="2.19829">
        <ele>120</ele>
        <time>2017-01-08T09:00:32.972Z</time>
      </trkpt>
      <trkpt lat="47.78397" lon="2.19829">
        <ele>120</ele>
        <time>2017-01-08T09:00:33.966Z</time>
      </trkpt>
      <trkpt lat="47.78398" lon="2.19817">
        <ele>120</ele>
        <time>2017-01-08T09:00:34.993Z</time>
      </trkpt>
      <trkpt lat="47.78398" lon="2.19817">
        <ele>120</ele>
        <time>2017-01-08T09:00:35.981Z</time>
      </trkpt>
      <trkpt lat="47.78398" lon="2.19802">
        <ele>120</ele>
        <time>2017-01-08T09:00:36.971Z</time>
      </trkpt>
      <trkpt lat="47.78399" lon="2.19795">
        <ele>120</ele>
        <time>2017-01-08T09:00:37.972Z</time>
      </trkpt>
      <trkpt lat="47.78399" lon="2.19795">
        <ele>120</ele>
        <time>2017-01-08T09:00:38.968Z</time>
      </trkpt>
      <trkpt lat="47.78399" lon="2.19781">
        <ele>120</ele>
        <time>2017-01-08T09:00:39.971Z</time>
      </trkpt>
      <trkpt lat="47.784" lon="2.19774">
        <ele>120</ele>
        <time>2017-01-08T09:00:40.972Z</time>
      </trkpt>
      <trkpt lat="47.784" lon="2.19774">
        <ele>120</ele>
        <time>2017-01-08T09:00:41.966Z</time>
      </trkpt>
      <trkpt lat="47.78401" lon="2.1976">
        <ele>120</ele>
        <time>2017-01-08T09:00:42.971Z</time>
      </trkpt>
      <trkpt lat="47.78401" lon="2.1976">
        <ele>120</ele>
        <time>2017-01-08T09:00:43.968Z</time>
      </trkpt>
      <trkpt lat="47.78401" lon="2.19747">
        <ele>121</ele>
        <time>2017-01-08T09:00:44.971Z</time>
      </trkpt>
      <trkpt lat="47.78402" lon="2.1974">
        <ele>121</ele>
        <time>2017-01-08T09:00:45.971Z</time>
      </trkpt>
      <trkpt lat="47.78402" lon="2.19733">
        <ele>121</ele>
        <time>2017-01-08T09:00:46.973Z</time>
      </trkpt>
      <trkpt lat="47.78402" lon="2.19733">
        <ele>121</ele>
        <time>2017-01-08T09:00:47.966Z</time>
      </trkpt>
      <trkpt lat="47.78403" lon="2.1972">
        <ele>122</ele>
        <time>2017-01-08T09:00:48.980Z</time>
      </trkpt>
      <trkpt lat="47.78403" lon="2.19714">
        <ele>122</ele>
        <time>2017-01-08T09:00:49.972Z</time>
      </trkpt>
      <trkpt lat="47.78403" lon="2.19714">
        <ele>122</ele>
        <time>2017-01-08T09:00:50.969Z</time>
      </trkpt>
      <trkpt lat="47.78404" lon="2.19701">
        <ele>122</ele>
        <time>2017-01-08T09:00:51.980Z</time>
      </trkpt>
      <trkpt lat="47.78404" lon="2.19701">
        <ele>122</ele>
        <time>2017-01-08T09:00:52.969Z</time>
      </trkpt>
      <trkpt lat="47.78404" lon="2.19688">
        <ele>122</ele>
        <time>2017-01-08T09:00:53.971Z</time>
      </trkpt>
      <trkpt lat="47.78404" lon="2.19688">
        <ele>122</ele>
        <time>2017-01-08T09:00:54.966Z</time>
      </trkpt>
      <trkpt lat="47.78404" lon="2.19677">
        <ele>122</ele>
        <time>2017-01-08T09:00:55.971Z</time>
      </trkpt>
      <trkpt lat="47.78404" lon="2.19677">
        <ele>122</ele>
        <time>2017-01-08T09:00:56.967Z</time>
      </trkpt>
      <trkpt lat="47.78403" lon="2.19669">
        <ele>122</ele>
        <time>2017-01-08T09:00:57.972Z</time>
      </trkpt>
      <trkpt lat="47.78403" lon="2.19666">
        <ele>122</ele>
        <time>2017-01-08T09:00:58.977Z</time>
      </trkpt>
      <trkpt lat="47.78403" lon="2.19666">
        <ele>122</ele>
        <time>2017-01-08T09:00:59.966Z</time>
      </trkpt>
      <trkpt lat="47.78403" lon="2.19658">
        <ele>122</ele>
        <time>2017-01-08T09:01:00.972Z</time>
      </trkpt>
      <trkpt lat="47.78403" lon="2.19658">
        <ele>122</ele>
        <time>2017-01-08T09:01:01.967Z</time>
      </trkpt>
      <trkpt lat="47.78404" lon="2.19649">
        <ele>120</ele>
        <time>2017-01-08T09:01:02.972Z</time>
      </trkpt>
      <trkpt lat="47.78404" lon="2.19649">
        <ele>120</ele>
        <time>2017-01-08T09:01:03.971Z</time>
      </trkpt>
      <trkpt lat="47.78404" lon="2.1964">
        <ele>120</ele>
        <time>2017-01-08T09:01:04.973Z</time>
      </trkpt>
      <trkpt lat="47.78404" lon="2.19635">
        <ele>120</ele>
        <time>2017-01-08T09:01:05.972Z</time>
      </trkpt>
      <trkpt lat="47.78404" lon="2.1963">
        <ele>120</ele>
        <time>2017-01-08T09:01:06.972Z</time>
      </trkpt>
      <trkpt lat="47.78404" lon="2.1963">
        <ele>120</ele>
        <time>2017-01-08T09:01:07.975Z</time>
      </trkpt>
      <trkpt lat="47.78404" lon="2.19621">
        <ele>120</ele>
        <time>2017-01-08T09:01:08.971Z</time>
      </trkpt>
      <trkpt lat="47.78404" lon="2.19621">
        <ele>120</ele>
        <time>2017-01-08T09:01:09.967Z</time>
      </trkpt>
      <trkpt lat="47.78405" lon="2.19612">
        <ele>120</ele>
        <time>2017-01-08T09:01:10.974Z</time>
      </trkpt>
      <trkpt lat="47.78405" lon="2.19612">
        <ele>120</ele>
        <time>2017-01-08T09:01:11.969Z</time>
      </trkpt>
      <trkpt lat="47.78405" lon="2.19603">
        <ele>120</ele>
        <time>2017-01-08T09:01:12.971Z</time>
      </trkpt>
      <trkpt lat="47.78405" lon="2.19603">
        <ele>120</ele>
        <time>2017-01-08T09:01:13.967Z</time>
      </trkpt>
      <trkpt lat="47.78406" lon="2.19593">
        <ele>120</ele>
        <time>2017-01-08T09:01:14.971Z</time>
      </trkpt>
      <trkpt lat="47.78406" lon="2.19593">
        <ele>120</ele>
        <time>2017-01-08T09:01:15.969Z</time>
      </trkpt>
      <trkpt lat="47.78407" lon="2.19582">
        <ele>120</ele>
        <time>2017-01-08T09:01:16.970Z</time>
      </trkpt>
      <trkpt lat="47.78407" lon="2.19582">
        <ele>120</ele>
        <time>2017-01-08T09:01:17.965Z</time>
      </trkpt>
      <trkpt lat="47.78409" lon="2.19571">
        <ele>120</ele>
        <time>2017-01-08T09:01:18.971Z</time>
      </trkpt>
      <trkpt lat="47.78409" lon="2.19571">
        <ele>120</ele>
        <time>2017-01-08T09:01:19.968Z</time>
      </trkpt>
      <trkpt lat="47.7841" lon="2.1956">
        <ele>120</ele>
        <time>2017-01-08T09:01:20.971Z</time>
      </trkpt>
      <trkpt lat="47.7841" lon="2.19555">
        <ele>120</ele>
        <time>2017-01-08T09:01:21.971Z</time>
      </trkpt>
      <trkpt lat="47.7841" lon="2.19555">
        <ele>120</ele>
        <time>2017-01-08T09:01:22.967Z</time>
      </trkpt>
      <trkpt lat="47.78411" lon="2.19543">
        <ele>120</ele>
        <time>2017-01-08T09:01:23.980Z</time>
      </trkpt>
      <trkpt lat="47.78411" lon="2.19543">
        <ele>120</ele>
        <time>2017-01-08T09:01:24.971Z</time>
      </trkpt>
      <trkpt lat="47.78412" lon="2.19531">
        <ele>120</ele>
        <time>2017-01-08T09:01:25.971Z</time>
      </trkpt>
      <trkpt lat="47.78412" lon="2.19531">
        <ele>120</ele>
        <time>2017-01-08T09:01:26.967Z</time>
      </trkpt>
      <trkpt lat="47.78413" lon="2.1952">
        <ele>119</ele>
        <time>2017-01-08T09:01:27.971Z</time>
      </trkpt>
      <trkpt lat="47.78413" lon="2.19514">
        <ele>119</ele>
        <time>2017-01-08T09:01:28.973Z</time>
      </trkpt>
      <trkpt lat="47.78413" lon="2.19514">
        <ele>119</ele>
        <time>2017-01-08T09:01:29.974Z</time>
      </trkpt>
      <trkpt lat="47.78414" lon="2.19502">
        <ele>119</ele>
        <time>2017-01-08T09:01:30.971Z</time>
      </trkpt>
      <trkpt lat="47.78414" lon="2.19496">
        <ele>119</ele>
        <time>2017-01-08T09:01:31.972Z</time>
      </trkpt>
      <trkpt lat="47.78414" lon="2.19496">
        <ele>119</ele>
        <time>2017-01-08T09:01:32.969Z</time>
      </trkpt>
      <trkpt lat="47.78415" lon="2.19483">
        <ele>119</ele>
        <time>2017-01-08T09:01:33.971Z</time>
      </trkpt>
      <trkpt lat="47.78415" lon="2.19477">
        <ele>119</ele>
        <time>2017-01-08T09:01:34.974Z</time>
      </trkpt>
      <trkpt lat="47.78415" lon="2.19477">
        <ele>119</ele>
        <time>2017-01-08T09:01:35.967Z</time>
      </trkpt>
      <trkpt lat="47.78416" lon="2.19464">
        <ele>118</ele>
        <time>2017-01-08T09:01:36.972Z</time>
      </trkpt>
      <trkpt lat="47.78416" lon="2.19464">
        <ele>118</ele>
        <time>2017-01-08T09:01:37.966Z</time>
      </trkpt>
      <trkpt lat="47.78417" lon="2.19452">
        <ele>118</ele>
        <time>2017-01-08T09:01:38.972Z</time>
      </trkpt>
      <trkpt lat="47.78417" lon="2.19452">
        <ele>118</ele>
        <time>2017-01-08T09:01:39.969Z</time>
      </trkpt>
      <trkpt lat="47.78418" lon="2.19441">
        <ele>118</ele>
        <time>2017-01-08T09:01:40.973Z</time>
      </trkpt>
      <trkpt lat="47.78418" lon="2.19441">
        <ele>118</ele>
        <time>2017-01-08T09:01:41.969Z</time>
      </trkpt>
      <trkpt lat="47.78418" lon="2.1943">
        <ele>118</ele>
        <time>2017-01-08T09:01:42.971Z</time>
      </trkpt>
      <trkpt lat="47.78419" lon="2.19424">
        <ele>118</ele>
        <time>2017-01-08T09:01:43.971Z</time>
      </trkpt>
      <trkpt lat="47.78419" lon="2.19424">
        <ele>118</ele>
        <time>2017-01-08T09:01:44.969Z</time>
      </trkpt>
      <trkpt lat="47.78419" lon="2.19412">
        <ele>119</ele>
        <time>2017-01-08T09:01:45.971Z</time>
      </trkpt>
      <trkpt lat="47.78419" lon="2.19405">
        <ele>119</ele>
        <time>2017-01-08T09:01:46.973Z</time>
      </trkpt>
      <trkpt lat="47.78419" lon="2.19405">
        <ele>119</ele>
        <time>2017-01-08T09:01:47.977Z</time>
      </trkpt>
      <trkpt lat="47.7842" lon="2.19393">
        <ele>119</ele>
        <time>2017-01-08T09:01:48.973Z</time>
      </trkpt>
      <trkpt lat="47.7842" lon="2.19393">
        <ele>119</ele>
        <time>2017-01-08T09:01:49.969Z</time>
      </trkpt>
      <trkpt lat="47.78422" lon="2.1938">
        <ele>119</ele>
        <time>2017-01-08T09:01:50.971Z</time>
      </trkpt>
      <trkpt lat="47.78422" lon="2.1938">
        <ele>119</ele>
        <time>2017-01-08T09:01:51.967Z</time>
      </trkpt>
      <trkpt lat="47.78423" lon="2.19368">
        <ele>119</ele>
        <time>2017-01-08T09:01:52.975Z</time>
      </trkpt>
      <trkpt lat="47.78423" lon="2.19368">
        <ele>119</ele>
        <time>2017-01-08T09:01:53.969Z</time>
      </trkpt>
      <trkpt lat="47.78424" lon="2.19356">
        <ele>119</ele>
        <time>2017-01-08T09:01:54.972Z</time>
      </trkpt>
      <trkpt lat="47.78424" lon="2.19356">
        <ele>119</ele>
        <time>2017-01-08T09:01:55.966Z</time>
      </trkpt>
      <trkpt lat="47.78424" lon="2.19344">
        <ele>120</ele>
        <time>2017-01-08T09:01:56.970Z</time>
      </trkpt>
      <trkpt lat="47.78424" lon="2.19344">
        <ele>120</ele>
        <time>2017-01-08T09:01:57.969Z</time>
      </trkpt>
      <trkpt lat="47.78422" lon="2.19333">
        <ele>120</ele>
        <time>2017-01-08T09:01:58.976Z</time>
      </trkpt>
      <trkpt lat="47.7842" lon="2.19328">
        <ele>120</ele>
        <time>2017-01-08T09:01:59.971Z</time>
      </trkpt>
      <trkpt lat="47.78418" lon="2.19323">
        <ele>120</ele>
        <time>2017-01-08T09:02:00.972Z</time>
      </trkpt>
      <trkpt lat="47.78418" lon="2.19323">
        <ele>120</ele>
        <time>2017-01-08T09:02:01.966Z</time>
      </trkpt>
      <trkpt lat="47.78413" lon="2.19314">
        <ele>120</ele>
        <time>2017-01-08T09:02:02.976Z</time>
      </trkpt>
      <trkpt lat="47.78413" lon="2.19314">
        <ele>120</ele>
        <time>2017-01-08T09:02:03.972Z</time>
      </trkpt>
      <trkpt lat="47.78408" lon="2.19306">
        <ele>120</ele>
        <time>2017-01-08T09:02:04.984Z</time>
      </trkpt>
      <trkpt lat="47.78408" lon="2.19306">
        <ele>120</ele>
        <time>2017-01-08T09:02:05.967Z</time>
      </trkpt>
      <trkpt lat="47.78403" lon="2.19297">
        <ele>121</ele>
        <time>2017-01-08T09:02:06.972Z</time>
      </trkpt>
      <trkpt lat="47.78403" lon="2.19297">
        <ele>121</ele>
        <time>2017-01-08T09:02:07.967Z</time>
      </trkpt>
      <trkpt lat="47.78398" lon="2.1929">
        <ele>121</ele>
        <time>2017-01-08T09:02:08.972Z</time>
      </trkpt>
      <trkpt lat="47.78398" lon="2.1929">
        <ele>121</ele>
        <time>2017-01-08T09:02:09.968Z</time>
      </trkpt>
      <trkpt lat="47.78393" lon="2.19282">
        <ele>121</ele>
        <time>2017-01-08T09:02:10.973Z</time>
      </trkpt>
      <trkpt lat="47.78393" lon="2.19282">
        <ele>121</ele>
        <time>2017-01-08T09:02:11.967Z</time>
      </trkpt>
      <trkpt lat="47.78388" lon="2.19274">
        <ele>121</ele>
        <time>2017-01-08T09:02:12.973Z</time>
      </trkpt>
      <trkpt lat="47.78386" lon="2.19269">
        <ele>121</ele>
        <time>2017-01-08T09:02:13.972Z</time>
      </trkpt>
      <trkpt lat="47.78386" lon="2.19269">
        <ele>121</ele>
        <time>2017-01-08T09:02:14.967Z</time>
      </trkpt>
      <trkpt lat="47.78382" lon="2.19262">
        <ele>121</ele>
        <time>2017-01-08T09:02:15.973Z</time>
      </trkpt>
      <trkpt lat="47.78379" lon="2.19258">
        <ele>121</ele>
        <time>2017-01-08T09:02:16.975Z</time>
      </trkpt>
      <trkpt lat="47.78379" lon="2.19258">
        <ele>121</ele>
        <time>2017-01-08T09:02:17.967Z</time>
      </trkpt>
      <trkpt lat="47.78373" lon="2.19252">
        <ele>122</ele>
        <time>2017-01-08T09:02:18.972Z</time>
      </trkpt>
      <trkpt lat="47.78371" lon="2.19249">
        <ele>122</ele>
        <time>2017-01-08T09:02:19.973Z</time>
      </trkpt>
      <trkpt lat="47.78371" lon="2.19249">
        <ele>122</ele>
        <time>2017-01-08T09:02:20.967Z</time>
      </trkpt>
      <trkpt lat="47.78367" lon="2.19241">
        <ele>122</ele>
        <time>2017-01-08T09:02:21.972Z</time>
      </trkpt>
      <trkpt lat="47.78365" lon="2.19238">
        <ele>122</ele>
        <time>2017-01-08T09:02:22.975Z</time>
      </trkpt>
      <trkpt lat="47.78365" lon="2.19238">
        <ele>122</ele>
        <time>2017-01-08T09:02:23.967Z</time>
      </trkpt>
      <trkpt lat="47.78361" lon="2.19233">
        <ele>122</ele>
        <time>2017-01-08T09:02:24.973Z</time>
      </trkpt>
      <trkpt lat="47.78361" lon="2.19233">
        <ele>122</ele>
        <time>2017-01-08T09:02:25.966Z</time>
      </trkpt>
      <trkpt lat="47.78359" lon="2.19227">
        <ele>121</ele>
        <time>2017-01-08T09:02:26.972Z</time>
      </trkpt>
      <trkpt lat="47.78359" lon="2.19227">
        <ele>121</ele>
        <time>2017-01-08T09:02:27.968Z</time>
      </trkpt>
      <trkpt lat="47.78355" lon="2.19221">
        <ele>121</ele>
        <time>2017-01-08T09:02:28.974Z</time>
      </trkpt>
      <trkpt lat="47.78355" lon="2.19221">
        <ele>121</ele>
        <time>2017-01-08T09:02:29.968Z</time>
      </trkpt>
      <trkpt lat="47.7835" lon="2.19213">
        <ele>121</ele>
        <time>2017-01-08T09:02:30.972Z</time>
      </trkpt>
      <trkpt lat="47.78347" lon="2.19209">
        <ele>121</ele>
        <time>2017-01-08T09:02:31.973Z</time>
      </trkpt>
      <trkpt lat="47.78347" lon="2.19209">
        <ele>121</ele>
        <time>2017-01-08T09:02:32.967Z</time>
      </trkpt>
      <trkpt lat="47.78342" lon="2.19201">
        <ele>121</ele>
        <time>2017-01-08T09:02:33.970Z</time>
      </trkpt>
      <trkpt lat="47.78339" lon="2.19197">
        <ele>121</ele>
        <time>2017-01-08T09:02:34.974Z</time>
      </trkpt>
      <trkpt lat="47.78339" lon="2.19197">
        <ele>121</ele>
        <time>2017-01-08T09:02:35.967Z</time>
      </trkpt>
      <trkpt lat="47.78334" lon="2.19186">
        <ele>121</ele>
        <time>2017-01-08T09:02:36.971Z</time>
      </trkpt>
      <trkpt lat="47.78334" lon="2.19186">
        <ele>121</ele>
        <time>2017-01-08T09:02:37.966Z</time>
      </trkpt>
      <trkpt lat="47.78329" lon="2.19176">
        <ele>121</ele>
        <time>2017-01-08T09:02:38.972Z</time>
      </trkpt>
      <trkpt lat="47.78329" lon="2.19176">
        <ele>121</ele>
        <time>2017-01-08T09:02:39.967Z</time>
      </trkpt>
      <trkpt lat="47.78323" lon="2.19165">
        <ele>121</ele>
        <time>2017-01-08T09:02:40.973Z</time>
      </trkpt>
      <trkpt lat="47.78323" lon="2.19165">
        <ele>121</ele>
        <time>2017-01-08T09:02:41.967Z</time>
      </trkpt>
      <trkpt lat="47.78318" lon="2.19153">
        <ele>121</ele>
        <time>2017-01-08T09:02:42.980Z</time>
      </trkpt>
      <trkpt lat="47.78316" lon="2.19148">
        <ele>121</ele>
        <time>2017-01-08T09:02:43.972Z</time>
      </trkpt>
      <trkpt lat="47.78316" lon="2.19148">
        <ele>121</ele>
        <time>2017-01-08T09:02:44.967Z</time>
      </trkpt>
      <trkpt lat="47.78312" lon="2.19137">
        <ele>121</ele>
        <time>2017-01-08T09:02:45.967Z</time>
      </trkpt>
      <trkpt lat="47.78309" lon="2.19131">
        <ele>121</ele>
        <time>2017-01-08T09:02:46.973Z</time>
      </trkpt>
      <trkpt lat="47.78309" lon="2.19131">
        <ele>121</ele>
        <time>2017-01-08T09:02:47.967Z</time>
      </trkpt>
      <trkpt lat="47.78305" lon="2.19119">
        <ele>120</ele>
        <time>2017-01-08T09:02:48.972Z</time>
      </trkpt>
      <trkpt lat="47.78302" lon="2.19113">
        <ele>120</ele>
        <time>2017-01-08T09:02:49.973Z</time>
      </trkpt>
      <trkpt lat="47.78302" lon="2.19113">
        <ele>120</ele>
        <time>2017-01-08T09:02:50.967Z</time>
      </trkpt>
      <trkpt lat="47.78298" lon="2.19103">
        <ele>120</ele>
        <time>2017-01-08T09:02:51.972Z</time>
      </trkpt>
      <trkpt lat="47.78296" lon="2.19098">
        <ele>120</ele>
        <time>2017-01-08T09:02:52.974Z</time>
      </trkpt>
      <trkpt lat="47.78296" lon="2.19098">
        <ele>120</ele>
        <time>2017-01-08T09:02:53.968Z</time>
      </trkpt>
      <trkpt lat="47.78292" lon="2.19089">
        <ele>120</ele>
        <time>2017-01-08T09:02:54.970Z</time>
      </trkpt>
      <trkpt lat="47.78292" lon="2.19089">
        <ele>120</ele>
        <time>2017-01-08T09:02:55.968Z</time>
      </trkpt>
      <trkpt lat="47.78288" lon="2.19079">
        <ele>120</ele>
        <time>2017-01-08T09:02:56.990Z</time>
      </trkpt>
      <trkpt lat="47.78286" lon="2.19074">
        <ele>120</ele>
        <time>2017-01-08T09:02:57.981Z</time>
      </trkpt>
      <trkpt lat="47.78286" lon="2.19074">
        <ele>120</ele>
        <time>2017-01-08T09:02:58.981Z</time>
      </trkpt>
      <trkpt lat="47.78282" lon="2.19064">
        <ele>121</ele>
        <time>2017-01-08T09:02:59.972Z</time>
      </trkpt>
      <trkpt lat="47.78282" lon="2.19064">
        <ele>121</ele>
        <time>2017-01-08T09:03:00.968Z</time>
      </trkpt>
      <trkpt lat="47.78279" lon="2.19054">
        <ele>120</ele>
        <time>2017-01-08T09:03:01.972Z</time>
      </trkpt>
      <trkpt lat="47.78279" lon="2.19054">
        <ele>120</ele>
        <time>2017-01-08T09:03:02.966Z</time>
      </trkpt>
      <trkpt lat="47.78277" lon="2.19042">
        <ele>121</ele>
        <time>2017-01-08T09:03:03.972Z</time>
      </trkpt>
      <trkpt lat="47.78277" lon="2.19037">
        <ele>121</ele>
        <time>2017-01-08T09:03:04.975Z</time>
      </trkpt>
      <trkpt lat="47.78277" lon="2.19037">
        <ele>121</ele>
        <time>2017-01-08T09:03:05.968Z</time>
      </trkpt>
      <trkpt lat="47.78279" lon="2.19026">
        <ele>122</ele>
        <time>2017-01-08T09:03:06.972Z</time>
      </trkpt>
      <trkpt lat="47.78279" lon="2.19026">
        <ele>122</ele>
        <time>2017-01-08T09:03:07.967Z</time>
      </trkpt>
      <trkpt lat="47.78284" lon="2.19018">
        <ele>122</ele>
        <time>2017-01-08T09:03:08.973Z</time>
      </trkpt>
      <trkpt lat="47.78284" lon="2.19018">
        <ele>122</ele>
        <time>2017-01-08T09:03:09.967Z</time>
      </trkpt>
      <trkpt lat="47.7829" lon="2.1901">
        <ele>122</ele>
        <time>2017-01-08T09:03:10.974Z</time>
      </trkpt>
      <trkpt lat="47.7829" lon="2.1901">
        <ele>122</ele>
        <time>2017-01-08T09:03:11.967Z</time>
      </trkpt>
      <trkpt lat="47.78297" lon="2.19001">
        <ele>122</ele>
        <time>2017-01-08T09:03:12.972Z</time>
      </trkpt>
      <trkpt lat="47.78297" lon="2.19001">
        <ele>122</ele>
        <time>2017-01-08T09:03:13.969Z</time>
      </trkpt>
      <trkpt lat="47.78303" lon="2.18993">
        <ele>123</ele>
        <time>2017-01-08T09:03:14.972Z</time>
      </trkpt>
      <trkpt lat="47.78303" lon="2.18993">
        <ele>123</ele>
        <time>2017-01-08T09:03:15.968Z</time>
      </trkpt>
      <trkpt lat="47.78309" lon="2.18985">
        <ele>123</ele>
        <time>2017-01-08T09:03:16.974Z</time>
      </trkpt>
      <trkpt lat="47.78309" lon="2.18985">
        <ele>123</ele>
        <time>2017-01-08T09:03:17.971Z</time>
      </trkpt>
      <trkpt lat="47.78314" lon="2.18978">
        <ele>123</ele>
        <time>2017-01-08T09:03:18.973Z</time>
      </trkpt>
      <trkpt lat="47.78314" lon="2.18978">
        <ele>123</ele>
        <time>2017-01-08T09:03:19.971Z</time>
      </trkpt>
      <trkpt lat="47.78319" lon="2.18972">
        <ele>123</ele>
        <time>2017-01-08T09:03:20.971Z</time>
      </trkpt>
      <trkpt lat="47.78319" lon="2.18972">
        <ele>123</ele>
        <time>2017-01-08T09:03:21.968Z</time>
      </trkpt>
      <trkpt lat="47.78323" lon="2.18967">
        <ele>123</ele>
        <time>2017-01-08T09:03:22.974Z</time>
      </trkpt>
      <trkpt lat="47.78323" lon="2.18967">
        <ele>123</ele>
        <time>2017-01-08T09:03:23.969Z</time>
      </trkpt>
      <trkpt lat="47.78327" lon="2.18961">
        <ele>123</ele>
        <time>2017-01-08T09:03:24.972Z</time>
      </trkpt>
      <trkpt lat="47.78327" lon="2.18961">
        <ele>123</ele>
        <time>2017-01-08T09:03:25.967Z</time>
      </trkpt>
      <trkpt lat="47.78331" lon="2.18954">
        <ele>124</ele>
        <time>2017-01-08T09:03:26.972Z</time>
      </trkpt>
      <trkpt lat="47.78331" lon="2.18954">
        <ele>124</ele>
        <time>2017-01-08T09:03:27.978Z</time>
      </trkpt>
      <trkpt lat="47.78334" lon="2.18945">
        <ele>124</ele>
        <time>2017-01-08T09:03:28.974Z</time>
      </trkpt>
      <trkpt lat="47.78334" lon="2.18941">
        <ele>124</ele>
        <time>2017-01-08T09:03:29.974Z</time>
      </trkpt>
      <trkpt lat="47.78334" lon="2.18941">
        <ele>124</ele>
        <time>2017-01-08T09:03:30.968Z</time>
      </trkpt>
      <trkpt lat="47.78333" lon="2.18933">
        <ele>124</ele>
        <time>2017-01-08T09:03:31.973Z</time>
      </trkpt>
      <trkpt lat="47.78333" lon="2.18933">
        <ele>124</ele>
        <time>2017-01-08T09:03:32.967Z</time>
      </trkpt>
      <trkpt lat="47.7833" lon="2.18925">
        <ele>124</ele>
        <time>2017-01-08T09:03:33.973Z</time>
      </trkpt>
      <trkpt lat="47.78327" lon="2.18922">
        <ele>124</ele>
        <time>2017-01-08T09:03:34.974Z</time>
      </trkpt>
      <trkpt lat="47.78327" lon="2.18922">
        <ele>124</ele>
        <time>2017-01-08T09:03:35.968Z</time>
      </trkpt>
      <trkpt lat="47.78322" lon="2.18915">
        <ele>123</ele>
        <time>2017-01-08T09:03:36.972Z</time>
      </trkpt>
      <trkpt lat="47.78322" lon="2.18915">
        <ele>123</ele>
        <time>2017-01-08T09:03:37.968Z</time>
      </trkpt>
      <trkpt lat="47.78319" lon="2.18907">
        <ele>123</ele>
        <time>2017-01-08T09:03:38.972Z</time>
      </trkpt>
      <trkpt lat="47.78319" lon="2.18907">
        <ele>123</ele>
        <time>2017-01-08T09:03:39.967Z</time>
      </trkpt>
      <trkpt lat="47.78314" lon="2.189">
        <ele>123</ele>
        <time>2017-01-08T09:03:40.974Z</time>
      </trkpt>
      <trkpt lat="47.78314" lon="2.189">
        <ele>123</ele>
        <time>2017-01-08T09:03:41.967Z</time>
      </trkpt>
      <trkpt lat="47.78311" lon="2.18892">
        <ele>123</ele>
        <time>2017-01-08T09:03:42.974Z</time>
      </trkpt>
      <trkpt lat="47.78309" lon="2.18887">
        <ele>124</ele>
        <time>2017-01-08T09:03:43.971Z</time>
      </trkpt>
      <trkpt lat="47.78307" lon="2.18882">
        <ele>124</ele>
        <time>2017-01-08T09:03:44.973Z</time>
      </trkpt>
      <trkpt lat="47.78307" lon="2.18882">
        <ele>124</ele>
        <time>2017-01-08T09:03:45.970Z</time>
      </trkpt>
      <trkpt lat="47.78303" lon="2.18874">
        <ele>124</ele>
        <time>2017-01-08T09:03:46.974Z</time>
      </trkpt>
      <trkpt lat="47.78303" lon="2.18874">
        <ele>124</ele>
        <time>2017-01-08T09:03:47.969Z</time>
      </trkpt>
      <trkpt lat="47.783" lon="2.18865">
        <ele>124</ele>
        <time>2017-01-08T09:03:48.969Z</time>
      </trkpt>
      <trkpt lat="47.783" lon="2.18865">
        <ele>124</ele>
        <time>2017-01-08T09:03:49.970Z</time>
      </trkpt>
      <trkpt lat="47.78296" lon="2.18857">
        <ele>125</ele>
        <time>2017-01-08T09:03:50.972Z</time>
      </trkpt>
      <trkpt lat="47.78293" lon="2.18854">
        <ele>125</ele>
        <time>2017-01-08T09:03:51.974Z</time>
      </trkpt>
      <trkpt lat="47.78293" lon="2.18854">
        <ele>125</ele>
        <time>2017-01-08T09:03:52.972Z</time>
      </trkpt>
      <trkpt lat="47.7829" lon="2.18847">
        <ele>125</ele>
        <time>2017-01-08T09:03:53.973Z</time>
      </trkpt>
      <trkpt lat="47.7829" lon="2.18847">
        <ele>125</ele>
        <time>2017-01-08T09:03:54.964Z</time>
      </trkpt>
      <trkpt lat="47.78286" lon="2.18838">
        <ele>126</ele>
        <time>2017-01-08T09:03:55.973Z</time>
      </trkpt>
      <trkpt lat="47.78286" lon="2.18838">
        <ele>126</ele>
        <time>2017-01-08T09:03:56.970Z</time>
      </trkpt>
      <trkpt lat="47.78282" lon="2.18829">
        <ele>126</ele>
        <time>2017-01-08T09:03:57.969Z</time>
      </trkpt>
      <trkpt lat="47.78282" lon="2.18829">
        <ele>126</ele>
        <time>2017-01-08T09:03:58.962Z</time>
      </trkpt>
      <trkpt lat="47.78278" lon="2.1882">
        <ele>127</ele>
        <time>2017-01-08T09:03:59.990Z</time>
      </trkpt>
      <trkpt lat="47.78278" lon="2.1882">
        <ele>127</ele>
        <time>2017-01-08T09:04:00.978Z</time>
      </trkpt>
      <trkpt lat="47.78276" lon="2.1881">
        <ele>127</ele>
        <time>2017-01-08T09:04:01.972Z</time>
      </trkpt>
      <trkpt lat="47.78276" lon="2.1881">
        <ele>127</ele>
        <time>2017-01-08T09:04:02.964Z</time>
      </trkpt>
      <trkpt lat="47.78272" lon="2.18802">
        <ele>128</ele>
        <time>2017-01-08T09:04:03.975Z</time>
      </trkpt>
      <trkpt lat="47.78271" lon="2.18798">
        <ele>128</ele>
        <time>2017-01-08T09:04:04.974Z</time>
      </trkpt>
      <trkpt lat="47.78269" lon="2.18793">
        <ele>129</ele>
        <time>2017-01-08T09:04:05.973Z</time>
      </trkpt>
      <trkpt lat="47.78269" lon="2.18793">
        <ele>129</ele>
        <time>2017-01-08T09:04:06.985Z</time>
      </trkpt>
      <trkpt lat="47.78267" lon="2.18784">
        <ele>129</ele>
        <time>2017-01-08T09:04:07.974Z</time>
      </trkpt>
      <trkpt lat="47.78267" lon="2.18784">
        <ele>129</ele>
        <time>2017-01-08T09:04:08.968Z</time>
      </trkpt>
      <trkpt lat="47.78265" lon="2.18773">
        <ele>130</ele>
        <time>2017-01-08T09:04:09.975Z</time>
      </trkpt>
      <trkpt lat="47.78265" lon="2.18773">
        <ele>130</ele>
        <time>2017-01-08T09:04:10.970Z</time>
      </trkpt>
      <trkpt lat="47.78262" lon="2.18765">
        <ele>130</ele>
        <time>2017-01-08T09:04:11.975Z</time>
      </trkpt>
      <trkpt lat="47.78262" lon="2.18765">
        <ele>130</ele>
        <time>2017-01-08T09:04:12.968Z</time>
      </trkpt>
      <trkpt lat="47.7826" lon="2.18758">
        <ele>131</ele>
        <time>2017-01-08T09:04:13.972Z</time>
      </trkpt>
      <trkpt lat="47.78259" lon="2.18754">
        <ele>131</ele>
        <time>2017-01-08T09:04:14.972Z</time>
      </trkpt>
      <trkpt lat="47.78258" lon="2.1875">
        <ele>131</ele>
        <time>2017-01-08T09:04:15.971Z</time>
      </trkpt>
      <trkpt lat="47.78258" lon="2.1875">
        <ele>131</ele>
        <time>2017-01-08T09:04:16.970Z</time>
      </trkpt>
      <trkpt lat="47.78258" lon="2.1874">
        <ele>132</ele>
        <time>2017-01-08T09:04:17.973Z</time>
      </trkpt>
      <trkpt lat="47.78258" lon="2.1874">
        <ele>132</ele>
        <time>2017-01-08T09:04:18.968Z</time>
      </trkpt>
      <trkpt lat="47.78259" lon="2.18731">
        <ele>132</ele>
        <time>2017-01-08T09:04:19.960Z</time>
      </trkpt>
      <trkpt lat="47.78259" lon="2.18731">
        <ele>132</ele>
        <time>2017-01-08T09:04:20.990Z</time>
      </trkpt>
      <trkpt lat="47.78262" lon="2.18721">
        <ele>133</ele>
        <time>2017-01-08T09:04:21.979Z</time>
      </trkpt>
      <trkpt lat="47.78262" lon="2.18721">
        <ele>133</ele>
        <time>2017-01-08T09:04:22.968Z</time>
      </trkpt>
      <trkpt lat="47.78264" lon="2.18712">
        <ele>133</ele>
        <time>2017-01-08T09:04:23.974Z</time>
      </trkpt>
      <trkpt lat="47.78264" lon="2.18712">
        <ele>133</ele>
        <time>2017-01-08T09:04:24.968Z</time>
      </trkpt>
      <trkpt lat="47.78268" lon="2.18705">
        <ele>134</ele>
        <time>2017-01-08T09:04:25.973Z</time>
      </trkpt>
      <trkpt lat="47.78268" lon="2.18705">
        <ele>134</ele>
        <time>2017-01-08T09:04:26.969Z</time>
      </trkpt>
      <trkpt lat="47.78271" lon="2.18697">
        <ele>134</ele>
        <time>2017-01-08T09:04:27.970Z</time>
      </trkpt>
      <trkpt lat="47.78272" lon="2.18692">
        <ele>134</ele>
        <time>2017-01-08T09:04:28.990Z</time>
      </trkpt>
      <trkpt lat="47.78272" lon="2.18692">
        <ele>134</ele>
        <time>2017-01-08T09:04:29.978Z</time>
      </trkpt>
      <trkpt lat="47.78275" lon="2.18683">
        <ele>135</ele>
        <time>2017-01-08T09:04:30.973Z</time>
      </trkpt>
      <trkpt lat="47.78277" lon="2.18678">
        <ele>135</ele>
        <time>2017-01-08T09:04:31.974Z</time>
      </trkpt>
      <trkpt lat="47.78277" lon="2.18678">
        <ele>135</ele>
        <time>2017-01-08T09:04:32.971Z</time>
      </trkpt>
      <trkpt lat="47.7828" lon="2.1867">
        <ele>135</ele>
        <time>2017-01-08T09:04:33.978Z</time>
      </trkpt>
      <trkpt lat="47.78282" lon="2.18666">
        <ele>134</ele>
        <time>2017-01-08T09:04:34.974Z</time>
      </trkpt>
      <trkpt lat="47.78283" lon="2.18661">
        <ele>134</ele>
        <time>2017-01-08T09:04:35.974Z</time>
      </trkpt>
      <trkpt lat="47.78283" lon="2.18661">
        <ele>134</ele>
        <time>2017-01-08T09:04:36.968Z</time>
      </trkpt>
      <trkpt lat="47.78288" lon="2.18652">
        <ele>134</ele>
        <time>2017-01-08T09:04:37.973Z</time>
      </trkpt>
      <trkpt lat="47.7829" lon="2.18648">
        <ele>134</ele>
        <time>2017-01-08T09:04:38.973Z</time>
      </trkpt>
      <trkpt lat="47.7829" lon="2.18648">
        <ele>134</ele>
        <time>2017-01-08T09:04:39.970Z</time>
      </trkpt>
      <trkpt lat="47.78295" lon="2.18637">
        <ele>135</ele>
        <time>2017-01-08T09:04:40.974Z</time>
      </trkpt>
      <trkpt lat="47.78295" lon="2.18637">
        <ele>135</ele>
        <time>2017-01-08T09:04:41.970Z</time>
      </trkpt>
      <trkpt lat="47.78299" lon="2.18628">
        <ele>134</ele>
        <time>2017-01-08T09:04:42.973Z</time>
      </trkpt>
      <trkpt lat="47.783" lon="2.18625">
        <ele>134</ele>
        <time>2017-01-08T09:04:43.977Z</time>
      </trkpt>
      <trkpt lat="47.783" lon="2.18625">
        <ele>134</ele>
        <time>2017-01-08T09:04:44.968Z</time>
      </trkpt>
      <trkpt lat="47.78304" lon="2.18617">
        <ele>134</ele>
        <time>2017-01-08T09:04:45.974Z</time>
      </trkpt>
      <trkpt lat="47.78304" lon="2.18617">
        <ele>134</ele>
        <time>2017-01-08T09:04:46.968Z</time>
      </trkpt>
      <trkpt lat="47.78308" lon="2.18608">
        <ele>134</ele>
        <time>2017-01-08T09:04:47.974Z</time>
      </trkpt>
      <trkpt lat="47.78308" lon="2.18608">
        <ele>134</ele>
        <time>2017-01-08T09:04:48.968Z</time>
      </trkpt>
      <trkpt lat="47.78312" lon="2.186">
        <ele>134</ele>
        <time>2017-01-08T09:04:49.973Z</time>
      </trkpt>
      <trkpt lat="47.78313" lon="2.18596">
        <ele>134</ele>
        <time>2017-01-08T09:04:50.975Z</time>
      </trkpt>
      <trkpt lat="47.78313" lon="2.18596">
        <ele>134</ele>
        <time>2017-01-08T09:04:51.971Z</time>
      </trkpt>
      <trkpt lat="47.78317" lon="2.18589">
        <ele>133</ele>
        <time>2017-01-08T09:04:52.975Z</time>
      </trkpt>
      <trkpt lat="47.78318" lon="2.18584">
        <ele>133</ele>
        <time>2017-01-08T09:04:53.974Z</time>
      </trkpt>
      <trkpt lat="47.78318" lon="2.18584">
        <ele>133</ele>
        <time>2017-01-08T09:04:54.968Z</time>
      </trkpt>
      <trkpt lat="47.78322" lon="2.18577">
        <ele>132</ele>
        <time>2017-01-08T09:04:55.974Z</time>
      </trkpt>
      <trkpt lat="47.78322" lon="2.18577">
        <ele>132</ele>
        <time>2017-01-08T09:04:56.977Z</time>
      </trkpt>
      <trkpt lat="47.78325" lon="2.18568">
        <ele>132</ele>
        <time>2017-01-08T09:04:57.974Z</time>
      </trkpt>
      <trkpt lat="47.78325" lon="2.18568">
        <ele>132</ele>
        <time>2017-01-08T09:04:58.967Z</time>
      </trkpt>
      <trkpt lat="47.78328" lon="2.18559">
        <ele>132</ele>
        <time>2017-01-08T09:04:59.974Z</time>
      </trkpt>
      <trkpt lat="47.78328" lon="2.18559">
        <ele>132</ele>
        <time>2017-01-08T09:05:00.968Z</time>
      </trkpt>
      <trkpt lat="47.78331" lon="2.18549">
        <ele>131</ele>
        <time>2017-01-08T09:05:01.974Z</time>
      </trkpt>
      <trkpt lat="47.78332" lon="2.18545">
        <ele>131</ele>
        <time>2017-01-08T09:05:02.977Z</time>
      </trkpt>
      <trkpt lat="47.78332" lon="2.18545">
        <ele>131</ele>
        <time>2017-01-08T09:05:03.968Z</time>
      </trkpt>
      <trkpt lat="47.78334" lon="2.18537">
        <ele>130</ele>
        <time>2017-01-08T09:05:04.975Z</time>
      </trkpt>
      <trkpt lat="47.78335" lon="2.18533">
        <ele>130</ele>
        <time>2017-01-08T09:05:05.974Z</time>
      </trkpt>
      <trkpt lat="47.78335" lon="2.18533">
        <ele>130</ele>
        <time>2017-01-08T09:05:06.968Z</time>
      </trkpt>
      <trkpt lat="47.78339" lon="2.18525">
        <ele>130</ele>
        <time>2017-01-08T09:05:07.974Z</time>
      </trkpt>
      <trkpt lat="47.78339" lon="2.18525">
        <ele>130</ele>
        <time>2017-01-08T09:05:08.969Z</time>
      </trkpt>
      <trkpt lat="47.78341" lon="2.18516">
        <ele>129</ele>
        <time>2017-01-08T09:05:09.974Z</time>
      </trkpt>
      <trkpt lat="47.78341" lon="2.18516">
        <ele>129</ele>
        <time>2017-01-08T09:05:10.972Z</time>
      </trkpt>
      <trkpt lat="47.78346" lon="2.18502">
        <ele>129</ele>
        <time>2017-01-08T09:05:11.974Z</time>
      </trkpt>
      <trkpt lat="47.78346" lon="2.18502">
        <ele>129</ele>
        <time>2017-01-08T09:05:12.972Z</time>
      </trkpt>
      <trkpt lat="47.7835" lon="2.18494">
        <ele>128</ele>
        <time>2017-01-08T09:05:13.973Z</time>
      </trkpt>
      <trkpt lat="47.78352" lon="2.18489">
        <ele>128</ele>
        <time>2017-01-08T09:05:14.974Z</time>
      </trkpt>
      <trkpt lat="47.78354" lon="2.18484">
        <ele>128</ele>
        <time>2017-01-08T09:05:15.974Z</time>
      </trkpt>
      <trkpt lat="47.78354" lon="2.18484">
        <ele>128</ele>
        <time>2017-01-08T09:05:16.973Z</time>
      </trkpt>
      <trkpt lat="47.78358" lon="2.18473">
        <ele>127</ele>
        <time>2017-01-08T09:05:17.972Z</time>
      </trkpt>
      <trkpt lat="47.7836" lon="2.18467">
        <ele>127</ele>
        <time>2017-01-08T09:05:18.973Z</time>
      </trkpt>
      <trkpt lat="47.7836" lon="2.18467">
        <ele>127</ele>
        <time>2017-01-08T09:05:19.975Z</time>
      </trkpt>
      <trkpt lat="47.78364" lon="2.18457">
        <ele>126</ele>
        <time>2017-01-08T09:05:20.974Z</time>
      </trkpt>
      <trkpt lat="47.78364" lon="2.18457">
        <ele>126</ele>
        <time>2017-01-08T09:05:21.971Z</time>
      </trkpt>
      <trkpt lat="47.78369" lon="2.18446">
        <ele>126</ele>
        <time>2017-01-08T09:05:22.976Z</time>
      </trkpt>
      <trkpt lat="47.78371" lon="2.18441">
        <ele>126</ele>
        <time>2017-01-08T09:05:23.979Z</time>
      </trkpt>
      <trkpt lat="47.78371" lon="2.18441">
        <ele>126</ele>
        <time>2017-01-08T09:05:24.968Z</time>
      </trkpt>
      <trkpt lat="47.78375" lon="2.1843">
        <ele>125</ele>
        <time>2017-01-08T09:05:25.988Z</time>
      </trkpt>
      <trkpt lat="47.78375" lon="2.1843">
        <ele>125</ele>
        <time>2017-01-08T09:05:26.978Z</time>
      </trkpt>
      <trkpt lat="47.7838" lon="2.18417">
        <ele>125</ele>
        <time>2017-01-08T09:05:27.978Z</time>
      </trkpt>
      <trkpt lat="47.7838" lon="2.18417">
        <ele>125</ele>
        <time>2017-01-08T09:05:28.975Z</time>
      </trkpt>
      <trkpt lat="47.78385" lon="2.18407">
        <ele>125</ele>
        <time>2017-01-08T09:05:29.978Z</time>
      </trkpt>
      <trkpt lat="47.78388" lon="2.18402">
        <ele>125</ele>
        <time>2017-01-08T09:05:30.982Z</time>
      </trkpt>
      <trkpt lat="47.78388" lon="2.18402">
        <ele>125</ele>
        <time>2017-01-08T09:05:31.976Z</time>
      </trkpt>
      <trkpt lat="47.78393" lon="2.18393">
        <ele>125</ele>
        <time>2017-01-08T09:05:32.978Z</time>
      </trkpt>
      <trkpt lat="47.78393" lon="2.18393">
        <ele>125</ele>
        <time>2017-01-08T09:05:33.976Z</time>
      </trkpt>
      <trkpt lat="47.78397" lon="2.18383">
        <ele>124</ele>
        <time>2017-01-08T09:05:34.981Z</time>
      </trkpt>
      <trkpt lat="47.78397" lon="2.18383">
        <ele>124</ele>
        <time>2017-01-08T09:05:35.976Z</time>
      </trkpt>
      <trkpt lat="47.784" lon="2.18374">
        <ele>124</ele>
        <time>2017-01-08T09:05:36.983Z</time>
      </trkpt>
      <trkpt lat="47.78401" lon="2.1837">
        <ele>123</ele>
        <time>2017-01-08T09:05:37.980Z</time>
      </trkpt>
      <trkpt lat="47.78401" lon="2.1837">
        <ele>123</ele>
        <time>2017-01-08T09:05:38.976Z</time>
      </trkpt>
      <trkpt lat="47.78406" lon="2.18361">
        <ele>123</ele>
        <time>2017-01-08T09:05:39.977Z</time>
      </trkpt>
      <trkpt lat="47.78408" lon="2.18357">
        <ele>122</ele>
        <time>2017-01-08T09:05:40.982Z</time>
      </trkpt>
      <trkpt lat="47.78411" lon="2.18351">
        <ele>122</ele>
        <time>2017-01-08T09:05:41.977Z</time>
      </trkpt>
      <trkpt lat="47.78411" lon="2.18351">
        <ele>122</ele>
        <time>2017-01-08T09:05:42.976Z</time>
      </trkpt>
      <trkpt lat="47.78418" lon="2.18344">
        <ele>121</ele>
        <time>2017-01-08T09:05:43.979Z</time>
      </trkpt>
      <trkpt lat="47.78418" lon="2.18344">
        <ele>121</ele>
        <time>2017-01-08T09:05:44.976Z</time>
      </trkpt>
      <trkpt lat="47.78422" lon="2.18336">
        <ele>121</ele>
        <time>2017-01-08T09:05:45.979Z</time>
      </trkpt>
      <trkpt lat="47.78422" lon="2.18336">
        <ele>121</ele>
        <time>2017-01-08T09:05:46.978Z</time>
      </trkpt>
      <trkpt lat="47.78428" lon="2.18329">
        <ele>120</ele>
        <time>2017-01-08T09:05:47.978Z</time>
      </trkpt>
      <trkpt lat="47.7843" lon="2.18325">
        <ele>120</ele>
        <time>2017-01-08T09:05:48.975Z</time>
      </trkpt>
      <trkpt lat="47.7843" lon="2.18325">
        <ele>120</ele>
        <time>2017-01-08T09:05:49.973Z</time>
      </trkpt>
      <trkpt lat="47.78434" lon="2.18317">
        <ele>120</ele>
        <time>2017-01-08T09:05:50.978Z</time>
      </trkpt>
      <trkpt lat="47.78434" lon="2.18317">
        <ele>120</ele>
        <time>2017-01-08T09:05:51.988Z</time>
      </trkpt>
      <trkpt lat="47.78437" lon="2.18309">
        <ele>119</ele>
        <time>2017-01-08T09:05:52.981Z</time>
      </trkpt>
      <trkpt lat="47.78439" lon="2.18305">
        <ele>119</ele>
        <time>2017-01-08T09:05:53.976Z</time>
      </trkpt>
      <trkpt lat="47.78442" lon="2.18301">
        <ele>119</ele>
        <time>2017-01-08T09:05:54.979Z</time>
      </trkpt>
      <trkpt lat="47.78442" lon="2.18301">
        <ele>119</ele>
        <time>2017-01-08T09:05:55.976Z</time>
      </trkpt>
      <trkpt lat="47.78448" lon="2.18293">
        <ele>119</ele>
        <time>2017-01-08T09:05:56.990Z</time>
      </trkpt>
      <trkpt lat="47.78452" lon="2.18289">
        <ele>119</ele>
        <time>2017-01-08T09:05:57.979Z</time>
      </trkpt>
      <trkpt lat="47.78452" lon="2.18289">
        <ele>119</ele>
        <time>2017-01-08T09:05:58.981Z</time>
      </trkpt>
      <trkpt lat="47.78458" lon="2.18278">
        <ele>118</ele>
        <time>2017-01-08T09:05:59.979Z</time>
      </trkpt>
      <trkpt lat="47.78462" lon="2.18273">
        <ele>118</ele>
        <time>2017-01-08T09:06:00.978Z</time>
      </trkpt>
      <trkpt lat="47.78462" lon="2.18273">
        <ele>118</ele>
        <time>2017-01-08T09:06:01.976Z</time>
      </trkpt>
      <trkpt lat="47.78468" lon="2.18263">
        <ele>117</ele>
        <time>2017-01-08T09:06:02.978Z</time>
      </trkpt>
      <trkpt lat="47.78468" lon="2.18263">
        <ele>117</ele>
        <time>2017-01-08T09:06:03.973Z</time>
      </trkpt>
      <trkpt lat="47.78475" lon="2.18252">
        <ele>117</ele>
        <time>2017-01-08T09:06:04.976Z</time>
      </trkpt>
      <trkpt lat="47.78478" lon="2.18246">
        <ele>118</ele>
        <time>2017-01-08T09:06:05.979Z</time>
      </trkpt>
      <trkpt lat="47.78478" lon="2.18246">
        <ele>118</ele>
        <time>2017-01-08T09:06:06.976Z</time>
      </trkpt>
      <trkpt lat="47.78485" lon="2.18236">
        <ele>119</ele>
        <time>2017-01-08T09:06:07.987Z</time>
      </trkpt>
      <trkpt lat="47.78488" lon="2.1823">
        <ele>120</ele>
        <time>2017-01-08T09:06:08.979Z</time>
      </trkpt>
      <trkpt lat="47.78488" lon="2.1823">
        <ele>120</ele>
        <time>2017-01-08T09:06:09.968Z</time>
      </trkpt>
      <trkpt lat="47.78494" lon="2.18219">
        <ele>121</ele>
        <time>2017-01-08T09:06:10.980Z</time>
      </trkpt>
      <trkpt lat="47.78494" lon="2.18219">
        <ele>121</ele>
        <time>2017-01-08T09:06:11.976Z</time>
      </trkpt>
      <trkpt lat="47.78499" lon="2.18206">
        <ele>122</ele>
        <time>2017-01-08T09:06:12.975Z</time>
      </trkpt>
      <trkpt lat="47.78502" lon="2.182">
        <ele>123</ele>
        <time>2017-01-08T09:06:13.978Z</time>
      </trkpt>
      <trkpt lat="47.78504" lon="2.18193">
        <ele>123</ele>
        <time>2017-01-08T09:06:14.979Z</time>
      </trkpt>
      <trkpt lat="47.78504" lon="2.18193">
        <ele>123</ele>
        <time>2017-01-08T09:06:15.977Z</time>
      </trkpt>
      <trkpt lat="47.78507" lon="2.1818">
        <ele>125</ele>
        <time>2017-01-08T09:06:16.980Z</time>
      </trkpt>
      <trkpt lat="47.78507" lon="2.1818">
        <ele>125</ele>
        <time>2017-01-08T09:06:17.974Z</time>
      </trkpt>
      <trkpt lat="47.78511" lon="2.18168">
        <ele>125</ele>
        <time>2017-01-08T09:06:18.978Z</time>
      </trkpt>
      <trkpt lat="47.78511" lon="2.18168">
        <ele>125</ele>
        <time>2017-01-08T09:06:19.976Z</time>
      </trkpt>
      <trkpt lat="47.78515" lon="2.18157">
        <ele>125</ele>
        <time>2017-01-08T09:06:20.975Z</time>
      </trkpt>
      <trkpt lat="47.78517" lon="2.18151">
        <ele>125</ele>
        <time>2017-01-08T09:06:21.977Z</time>
      </trkpt>
      <trkpt lat="47.78517" lon="2.18151">
        <ele>125</ele>
        <time>2017-01-08T09:06:22.978Z</time>
      </trkpt>
      <trkpt lat="47.7852" lon="2.18139">
        <ele>126</ele>
        <time>2017-01-08T09:06:23.978Z</time>
      </trkpt>
      <trkpt lat="47.78522" lon="2.18132">
        <ele>126</ele>
        <time>2017-01-08T09:06:24.984Z</time>
      </trkpt>
      <trkpt lat="47.78522" lon="2.18132">
        <ele>126</ele>
        <time>2017-01-08T09:06:25.972Z</time>
      </trkpt>
      <trkpt lat="47.78525" lon="2.18119">
        <ele>128</ele>
        <time>2017-01-08T09:06:26.979Z</time>
      </trkpt>
      <trkpt lat="47.78525" lon="2.18119">
        <ele>128</ele>
        <time>2017-01-08T09:06:27.968Z</time>
      </trkpt>
      <trkpt lat="47.78528" lon="2.18107">
        <ele>129</ele>
        <time>2017-01-08T09:06:28.979Z</time>
      </trkpt>
      <trkpt lat="47.78528" lon="2.18107">
        <ele>129</ele>
        <time>2017-01-08T09:06:29.973Z</time>
      </trkpt>
      <trkpt lat="47.78531" lon="2.18095">
        <ele>129</ele>
        <time>2017-01-08T09:06:30.979Z</time>
      </trkpt>
      <trkpt lat="47.78531" lon="2.18095">
        <ele>129</ele>
        <time>2017-01-08T09:06:31.975Z</time>
      </trkpt>
      <trkpt lat="47.78535" lon="2.18084">
        <ele>129</ele>
        <time>2017-01-08T09:06:32.978Z</time>
      </trkpt>
      <trkpt lat="47.78535" lon="2.18084">
        <ele>129</ele>
        <time>2017-01-08T09:06:33.977Z</time>
      </trkpt>
      <trkpt lat="47.78539" lon="2.18072">
        <ele>130</ele>
        <time>2017-01-08T09:06:34.980Z</time>
      </trkpt>
      <trkpt lat="47.78539" lon="2.18072">
        <ele>130</ele>
        <time>2017-01-08T09:06:35.976Z</time>
      </trkpt>
      <trkpt lat="47.78543" lon="2.18061">
        <ele>130</ele>
        <time>2017-01-08T09:06:36.979Z</time>
      </trkpt>
      <trkpt lat="47.78543" lon="2.18061">
        <ele>130</ele>
        <time>2017-01-08T09:06:37.967Z</time>
      </trkpt>
      <trkpt lat="47.78547" lon="2.1805">
        <ele>131</ele>
        <time>2017-01-08T09:06:38.978Z</time>
      </trkpt>
      <trkpt lat="47.78547" lon="2.1805">
        <ele>131</ele>
        <time>2017-01-08T09:06:39.975Z</time>
      </trkpt>
      <trkpt lat="47.7855" lon="2.18039">
        <ele>131</ele>
        <time>2017-01-08T09:06:40.979Z</time>
      </trkpt>
      <trkpt lat="47.7855" lon="2.18039">
        <ele>131</ele>
        <time>2017-01-08T09:06:41.972Z</time>
      </trkpt>
      <trkpt lat="47.78554" lon="2.18028">
        <ele>131</ele>
        <time>2017-01-08T09:06:42.979Z</time>
      </trkpt>
      <trkpt lat="47.78557" lon="2.18023">
        <ele>131</ele>
        <time>2017-01-08T09:06:43.978Z</time>
      </trkpt>
      <trkpt lat="47.78557" lon="2.18023">
        <ele>131</ele>
        <time>2017-01-08T09:06:44.976Z</time>
      </trkpt>
      <trkpt lat="47.7856" lon="2.18012">
        <ele>131</ele>
        <time>2017-01-08T09:06:45.977Z</time>
      </trkpt>
      <trkpt lat="47.78562" lon="2.18006">
        <ele>131</ele>
        <time>2017-01-08T09:06:46.978Z</time>
      </trkpt>
      <trkpt lat="47.78562" lon="2.18006">
        <ele>131</ele>
        <time>2017-01-08T09:06:47.976Z</time>
      </trkpt>
      <trkpt lat="47.78565" lon="2.17992">
        <ele>132</ele>
        <time>2017-01-08T09:06:48.989Z</time>
      </trkpt>
      <trkpt lat="47.78565" lon="2.17992">
        <ele>132</ele>
        <time>2017-01-08T09:06:49.976Z</time>
      </trkpt>
      <trkpt lat="47.78568" lon="2.17978">
        <ele>132</ele>
        <time>2017-01-08T09:06:50.979Z</time>
      </trkpt>
      <trkpt lat="47.78569" lon="2.17971">
        <ele>133</ele>
        <time>2017-01-08T09:06:51.980Z</time>
      </trkpt>
      <trkpt lat="47.78569" lon="2.17971">
        <ele>133</ele>
        <time>2017-01-08T09:06:52.983Z</time>
      </trkpt>
      <trkpt lat="47.78571" lon="2.17957">
        <ele>133</ele>
        <time>2017-01-08T09:06:53.982Z</time>
      </trkpt>
      <trkpt lat="47.78572" lon="2.1795">
        <ele>133</ele>
        <time>2017-01-08T09:06:54.979Z</time>
      </trkpt>
      <trkpt lat="47.78572" lon="2.1795">
        <ele>133</ele>
        <time>2017-01-08T09:06:55.973Z</time>
      </trkpt>
      <trkpt lat="47.78574" lon="2.17937">
        <ele>134</ele>
        <time>2017-01-08T09:06:56.978Z</time>
      </trkpt>
      <trkpt lat="47.78574" lon="2.17937">
        <ele>134</ele>
        <time>2017-01-08T09:06:57.977Z</time>
      </trkpt>
      <trkpt lat="47.78575" lon="2.17923">
        <ele>134</ele>
        <time>2017-01-08T09:06:58.977Z</time>
      </trkpt>
      <trkpt lat="47.78575" lon="2.17923">
        <ele>134</ele>
        <time>2017-01-08T09:06:59.977Z</time>
      </trkpt>
      <trkpt lat="47.78577" lon="2.17911">
        <ele>134</ele>
        <time>2017-01-08T09:07:00.979Z</time>
      </trkpt>
      <trkpt lat="47.78577" lon="2.17911">
        <ele>134</ele>
        <time>2017-01-08T09:07:01.975Z</time>
      </trkpt>
      <trkpt lat="47.78578" lon="2.17898">
        <ele>135</ele>
        <time>2017-01-08T09:07:02.980Z</time>
      </trkpt>
      <trkpt lat="47.78578" lon="2.17898">
        <ele>135</ele>
        <time>2017-01-08T09:07:03.988Z</time>
      </trkpt>
      <trkpt lat="47.78579" lon="2.17885">
        <ele>136</ele>
        <time>2017-01-08T09:07:04.985Z</time>
      </trkpt>
      <trkpt lat="47.78579" lon="2.17885">
        <ele>136</ele>
        <time>2017-01-08T09:07:05.985Z</time>
      </trkpt>
      <trkpt lat="47.7858" lon="2.17874">
        <ele>136</ele>
        <time>2017-01-08T09:07:06.989Z</time>
      </trkpt>
      <trkpt lat="47.7858" lon="2.17874">
        <ele>136</ele>
        <time>2017-01-08T09:07:07.956Z</time>
      </trkpt>
      <trkpt lat="47.78581" lon="2.17863">
        <ele>136</ele>
        <time>2017-01-08T09:07:08.983Z</time>
      </trkpt>
      <trkpt lat="47.78582" lon="2.17857">
        <ele>137</ele>
        <time>2017-01-08T09:07:09.988Z</time>
      </trkpt>
      <trkpt lat="47.78582" lon="2.17851">
        <ele>137</ele>
        <time>2017-01-08T09:07:10.988Z</time>
      </trkpt>
      <trkpt lat="47.78582" lon="2.17851">
        <ele>137</ele>
        <time>2017-01-08T09:07:11.989Z</time>
      </trkpt>
      <trkpt lat="47.78583" lon="2.1784">
        <ele>137</ele>
        <time>2017-01-08T09:07:12.988Z</time>
      </trkpt>
      <trkpt lat="47.78583" lon="2.1784">
        <ele>137</ele>
        <time>2017-01-08T09:07:13.984Z</time>
      </trkpt>
      <trkpt lat="47.78583" lon="2.17828">
        <ele>136</ele>
        <time>2017-01-08T09:07:14.988Z</time>
      </trkpt>
      <trkpt lat="47.78583" lon="2.17828">
        <ele>136</ele>
        <time>2017-01-08T09:07:15.988Z</time>
      </trkpt>
      <trkpt lat="47.78585" lon="2.17817">
        <ele>136</ele>
        <time>2017-01-08T09:07:16.983Z</time>
      </trkpt>
      <trkpt lat="47.78585" lon="2.17817">
        <ele>136</ele>
        <time>2017-01-08T09:07:17.979Z</time>
      </trkpt>
      <trkpt lat="47.78586" lon="2.17805">
        <ele>135</ele>
        <time>2017-01-08T09:07:18.981Z</time>
      </trkpt>
      <trkpt lat="47.78586" lon="2.17805">
        <ele>135</ele>
        <time>2017-01-08T09:07:19.978Z</time>
      </trkpt>
      <trkpt lat="47.78587" lon="2.17792">
        <ele>135</ele>
        <time>2017-01-08T09:07:20.980Z</time>
      </trkpt>
      <trkpt lat="47.78587" lon="2.17792">
        <ele>135</ele>
        <time>2017-01-08T09:07:21.975Z</time>
      </trkpt>
      <trkpt lat="47.78588" lon="2.17779">
        <ele>135</ele>
        <time>2017-01-08T09:07:22.981Z</time>
      </trkpt>
      <trkpt lat="47.78589" lon="2.17773">
        <ele>135</ele>
        <time>2017-01-08T09:07:23.980Z</time>
      </trkpt>
      <trkpt lat="47.78589" lon="2.17767">
        <ele>135</ele>
        <time>2017-01-08T09:07:24.982Z</time>
      </trkpt>
      <trkpt lat="47.78589" lon="2.17767">
        <ele>135</ele>
        <time>2017-01-08T09:07:25.979Z</time>
      </trkpt>
      <trkpt lat="47.7859" lon="2.17755">
        <ele>135</ele>
        <time>2017-01-08T09:07:26.981Z</time>
      </trkpt>
      <trkpt lat="47.7859" lon="2.17755">
        <ele>135</ele>
        <time>2017-01-08T09:07:27.990Z</time>
      </trkpt>
      <trkpt lat="47.78591" lon="2.17743">
        <ele>135</ele>
        <time>2017-01-08T09:07:28.987Z</time>
      </trkpt>
      <trkpt lat="47.78591" lon="2.17743">
        <ele>135</ele>
        <time>2017-01-08T09:07:29.982Z</time>
      </trkpt>
      <trkpt lat="47.78593" lon="2.17731">
        <ele>136</ele>
        <time>2017-01-08T09:07:30.981Z</time>
      </trkpt>
      <trkpt lat="47.78593" lon="2.17731">
        <ele>136</ele>
        <time>2017-01-08T09:07:31.979Z</time>
      </trkpt>
      <trkpt lat="47.78594" lon="2.17718">
        <ele>136</ele>
        <time>2017-01-08T09:07:32.979Z</time>
      </trkpt>
      <trkpt lat="47.78594" lon="2.17718">
        <ele>136</ele>
        <time>2017-01-08T09:07:33.979Z</time>
      </trkpt>
      <trkpt lat="47.78595" lon="2.17706">
        <ele>136</ele>
        <time>2017-01-08T09:07:34.979Z</time>
      </trkpt>
      <trkpt lat="47.78595" lon="2.17706">
        <ele>136</ele>
        <time>2017-01-08T09:07:35.975Z</time>
      </trkpt>
      <trkpt lat="47.78596" lon="2.17694">
        <ele>136</ele>
        <time>2017-01-08T09:07:36.979Z</time>
      </trkpt>
      <trkpt lat="47.78596" lon="2.17694">
        <ele>136</ele>
        <time>2017-01-08T09:07:37.978Z</time>
      </trkpt>
      <trkpt lat="47.78597" lon="2.17682">
        <ele>136</ele>
        <time>2017-01-08T09:07:38.981Z</time>
      </trkpt>
      <trkpt lat="47.78597" lon="2.17682">
        <ele>136</ele>
        <time>2017-01-08T09:07:39.977Z</time>
      </trkpt>
      <trkpt lat="47.78598" lon="2.17671">
        <ele>136</ele>
        <time>2017-01-08T09:07:40.983Z</time>
      </trkpt>
      <trkpt lat="47.78598" lon="2.17671">
        <ele>136</ele>
        <time>2017-01-08T09:07:41.979Z</time>
      </trkpt>
      <trkpt lat="47.786" lon="2.17659">
        <ele>136</ele>
        <time>2017-01-08T09:07:42.982Z</time>
      </trkpt>
      <trkpt lat="47.786" lon="2.17652">
        <ele>136</ele>
        <time>2017-01-08T09:07:43.981Z</time>
      </trkpt>
      <trkpt lat="47.786" lon="2.17652">
        <ele>136</ele>
        <time>2017-01-08T09:07:44.978Z</time>
      </trkpt>
      <trkpt lat="47.78602" lon="2.17641">
        <ele>136</ele>
        <time>2017-01-08T09:07:45.981Z</time>
      </trkpt>
      <trkpt lat="47.78602" lon="2.17635">
        <ele>136</ele>
        <time>2017-01-08T09:07:46.982Z</time>
      </trkpt>
      <trkpt lat="47.78602" lon="2.17635">
        <ele>136</ele>
        <time>2017-01-08T09:07:47.976Z</time>
      </trkpt>
      <trkpt lat="47.78603" lon="2.17622">
        <ele>136</ele>
        <time>2017-01-08T09:07:48.979Z</time>
      </trkpt>
      <trkpt lat="47.78603" lon="2.17622">
        <ele>136</ele>
        <time>2017-01-08T09:07:49.978Z</time>
      </trkpt>
      <trkpt lat="47.78605" lon="2.17607">
        <ele>136</ele>
        <time>2017-01-08T09:07:50.980Z</time>
      </trkpt>
      <trkpt lat="47.78605" lon="2.17607">
        <ele>136</ele>
        <time>2017-01-08T09:07:51.957Z</time>
      </trkpt>
      <trkpt lat="47.78607" lon="2.17593">
        <ele>136</ele>
        <time>2017-01-08T09:07:52.991Z</time>
      </trkpt>
      <trkpt lat="47.78607" lon="2.17593">
        <ele>136</ele>
        <time>2017-01-08T09:07:53.985Z</time>
      </trkpt>
      <trkpt lat="47.78608" lon="2.1758">
        <ele>136</ele>
        <time>2017-01-08T09:07:54.983Z</time>
      </trkpt>
      <trkpt lat="47.78608" lon="2.1758">
        <ele>136</ele>
        <time>2017-01-08T09:07:55.979Z</time>
      </trkpt>
      <trkpt lat="47.78609" lon="2.17567">
        <ele>136</ele>
        <time>2017-01-08T09:07:56.983Z</time>
      </trkpt>
      <trkpt lat="47.78609" lon="2.17567">
        <ele>136</ele>
        <time>2017-01-08T09:07:57.982Z</time>
      </trkpt>
      <trkpt lat="47.78611" lon="2.17555">
        <ele>136</ele>
        <time>2017-01-08T09:07:58.967Z</time>
      </trkpt>
      <trkpt lat="47.78613" lon="2.1755">
        <ele>136</ele>
        <time>2017-01-08T09:07:59.983Z</time>
      </trkpt>
      <trkpt lat="47.78615" lon="2.17545">
        <ele>135</ele>
        <time>2017-01-08T09:08:00.984Z</time>
      </trkpt>
      <trkpt lat="47.78615" lon="2.17545">
        <ele>135</ele>
        <time>2017-01-08T09:08:01.980Z</time>
      </trkpt>
      <trkpt lat="47.7862" lon="2.17535">
        <ele>135</ele>
        <time>2017-01-08T09:08:02.979Z</time>
      </trkpt>
      <trkpt lat="47.7862" lon="2.17535">
        <ele>135</ele>
        <time>2017-01-08T09:08:03.986Z</time>
      </trkpt>
      <trkpt lat="47.78624" lon="2.17522">
        <ele>136</ele>
        <time>2017-01-08T09:08:04.988Z</time>
      </trkpt>
      <trkpt lat="47.78624" lon="2.17522">
        <ele>136</ele>
        <time>2017-01-08T09:08:05.978Z</time>
      </trkpt>
      <trkpt lat="47.78626" lon="2.1751">
        <ele>135</ele>
        <time>2017-01-08T09:08:06.979Z</time>
      </trkpt>
      <trkpt lat="47.78626" lon="2.1751">
        <ele>135</ele>
        <time>2017-01-08T09:08:07.975Z</time>
      </trkpt>
      <trkpt lat="47.78628" lon="2.17497">
        <ele>136</ele>
        <time>2017-01-08T09:08:08.981Z</time>
      </trkpt>
      <trkpt lat="47.7863" lon="2.17491">
        <ele>136</ele>
        <time>2017-01-08T09:08:09.981Z</time>
      </trkpt>
      <trkpt lat="47.78631" lon="2.17484">
        <ele>135</ele>
        <time>2017-01-08T09:08:10.982Z</time>
      </trkpt>
      <trkpt lat="47.78631" lon="2.17484">
        <ele>135</ele>
        <time>2017-01-08T09:08:11.977Z</time>
      </trkpt>
      <trkpt lat="47.78633" lon="2.1747">
        <ele>135</ele>
        <time>2017-01-08T09:08:12.979Z</time>
      </trkpt>
      <trkpt lat="47.78633" lon="2.1747">
        <ele>135</ele>
        <time>2017-01-08T09:08:13.977Z</time>
      </trkpt>
      <trkpt lat="47.78636" lon="2.17457">
        <ele>135</ele>
        <time>2017-01-08T09:08:14.980Z</time>
      </trkpt>
      <trkpt lat="47.78636" lon="2.17457">
        <ele>135</ele>
        <time>2017-01-08T09:08:15.976Z</time>
      </trkpt>
      <trkpt lat="47.7864" lon="2.17444">
        <ele>135</ele>
        <time>2017-01-08T09:08:16.977Z</time>
      </trkpt>
      <trkpt lat="47.7864" lon="2.17444">
        <ele>135</ele>
        <time>2017-01-08T09:08:17.977Z</time>
      </trkpt>
      <trkpt lat="47.78647" lon="2.17431">
        <ele>133</ele>
        <time>2017-01-08T09:08:18.980Z</time>
      </trkpt>
      <trkpt lat="47.78652" lon="2.17425">
        <ele>133</ele>
        <time>2017-01-08T09:08:19.978Z</time>
      </trkpt>
      <trkpt lat="47.78657" lon="2.17421">
        <ele>132</ele>
        <time>2017-01-08T09:08:20.980Z</time>
      </trkpt>
      <trkpt lat="47.78657" lon="2.17421">
        <ele>132</ele>
        <time>2017-01-08T09:08:21.978Z</time>
      </trkpt>
      <trkpt lat="47.78667" lon="2.17411">
        <ele>131</ele>
        <time>2017-01-08T09:08:22.982Z</time>
      </trkpt>
      <trkpt lat="47.78667" lon="2.17411">
        <ele>131</ele>
        <time>2017-01-08T09:08:23.977Z</time>
      </trkpt>
      <trkpt lat="47.78677" lon="2.17402">
        <ele>130</ele>
        <time>2017-01-08T09:08:24.980Z</time>
      </trkpt>
      <trkpt lat="47.78677" lon="2.17402">
        <ele>130</ele>
        <time>2017-01-08T09:08:25.976Z</time>
      </trkpt>
      <trkpt lat="47.78686" lon="2.17394">
        <ele>129</ele>
        <time>2017-01-08T09:08:26.987Z</time>
      </trkpt>
      <trkpt lat="47.78686" lon="2.17394">
        <ele>129</ele>
        <time>2017-01-08T09:08:27.978Z</time>
      </trkpt>
      <trkpt lat="47.78694" lon="2.17384">
        <ele>129</ele>
        <time>2017-01-08T09:08:28.968Z</time>
      </trkpt>
      <trkpt lat="47.78699" lon="2.17378">
        <ele>128</ele>
        <time>2017-01-08T09:08:29.980Z</time>
      </trkpt>
      <trkpt lat="47.78703" lon="2.17372">
        <ele>128</ele>
        <time>2017-01-08T09:08:30.981Z</time>
      </trkpt>
      <trkpt lat="47.78703" lon="2.17372">
        <ele>128</ele>
        <time>2017-01-08T09:08:31.978Z</time>
      </trkpt>
      <trkpt lat="47.78712" lon="2.17359">
        <ele>128</ele>
        <time>2017-01-08T09:08:32.991Z</time>
      </trkpt>
      <trkpt lat="47.78712" lon="2.17359">
        <ele>128</ele>
        <time>2017-01-08T09:08:33.980Z</time>
      </trkpt>
      <trkpt lat="47.78718" lon="2.17346">
        <ele>128</ele>
        <time>2017-01-08T09:08:34.981Z</time>
      </trkpt>
      <trkpt lat="47.78718" lon="2.17346">
        <ele>128</ele>
        <time>2017-01-08T09:08:35.976Z</time>
      </trkpt>
      <trkpt lat="47.78724" lon="2.17333">
        <ele>127</ele>
        <time>2017-01-08T09:08:36.979Z</time>
      </trkpt>
      <trkpt lat="47.78724" lon="2.17333">
        <ele>127</ele>
        <time>2017-01-08T09:08:37.975Z</time>
      </trkpt>
      <trkpt lat="47.78729" lon="2.17319">
        <ele>127</ele>
        <time>2017-01-08T09:08:38.986Z</time>
      </trkpt>
      <trkpt lat="47.78731" lon="2.17312">
        <ele>127</ele>
        <time>2017-01-08T09:08:39.982Z</time>
      </trkpt>
      <trkpt lat="47.78733" lon="2.17305">
        <ele>127</ele>
        <time>2017-01-08T09:08:40.980Z</time>
      </trkpt>
      <trkpt lat="47.78733" lon="2.17305">
        <ele>127</ele>
        <time>2017-01-08T09:08:41.974Z</time>
      </trkpt>
      <trkpt lat="47.78736" lon="2.17291">
        <ele>128</ele>
        <time>2017-01-08T09:08:42.980Z</time>
      </trkpt>
      <trkpt lat="47.78736" lon="2.17291">
        <ele>128</ele>
        <time>2017-01-08T09:08:43.978Z</time>
      </trkpt>
      <trkpt lat="47.7874" lon="2.17278">
        <ele>129</ele>
        <time>2017-01-08T09:08:44.980Z</time>
      </trkpt>
      <trkpt lat="47.7874" lon="2.17278">
        <ele>129</ele>
        <time>2017-01-08T09:08:45.975Z</time>
      </trkpt>
      <trkpt lat="47.78744" lon="2.17266">
        <ele>129</ele>
        <time>2017-01-08T09:08:46.981Z</time>
      </trkpt>
      <trkpt lat="47.78744" lon="2.17266">
        <ele>129</ele>
        <time>2017-01-08T09:08:47.976Z</time>
      </trkpt>
      <trkpt lat="47.78747" lon="2.17255">
        <ele>130</ele>
        <time>2017-01-08T09:08:48.989Z</time>
      </trkpt>
      <trkpt lat="47.78747" lon="2.17255">
        <ele>130</ele>
        <time>2017-01-08T09:08:49.978Z</time>
      </trkpt>
      <trkpt lat="47.7875" lon="2.17244">
        <ele>130</ele>
        <time>2017-01-08T09:08:50.985Z</time>
      </trkpt>
      <trkpt lat="47.7875" lon="2.17244">
        <ele>130</ele>
        <time>2017-01-08T09:08:51.978Z</time>
      </trkpt>
      <trkpt lat="47.78754" lon="2.17233">
        <ele>131</ele>
        <time>2017-01-08T09:08:52.981Z</time>
      </trkpt>
      <trkpt lat="47.78755" lon="2.17227">
        <ele>131</ele>
        <time>2017-01-08T09:08:53.980Z</time>
      </trkpt>
      <trkpt lat="47.78757" lon="2.17221">
        <ele>131</ele>
        <time>2017-01-08T09:08:54.979Z</time>
      </trkpt>
      <trkpt lat="47.78757" lon="2.17221">
        <ele>131</ele>
        <time>2017-01-08T09:08:55.977Z</time>
      </trkpt>
      <trkpt lat="47.78761" lon="2.17209">
        <ele>131</ele>
        <time>2017-01-08T09:08:56.979Z</time>
      </trkpt>
      <trkpt lat="47.78763" lon="2.17204">
        <ele>131</ele>
        <time>2017-01-08T09:08:57.981Z</time>
      </trkpt>
      <trkpt lat="47.78763" lon="2.17204">
        <ele>131</ele>
        <time>2017-01-08T09:08:58.979Z</time>
      </trkpt>
      <trkpt lat="47.78766" lon="2.17191">
        <ele>131</ele>
        <time>2017-01-08T09:08:59.979Z</time>
      </trkpt>
      <trkpt lat="47.78768" lon="2.17185">
        <ele>131</ele>
        <time>2017-01-08T09:09:00.981Z</time>
      </trkpt>
      <trkpt lat="47.78768" lon="2.17185">
        <ele>131</ele>
        <time>2017-01-08T09:09:01.978Z</time>
      </trkpt>
      <trkpt lat="47.78772" lon="2.17173">
        <ele>131</ele>
        <time>2017-01-08T09:09:02.979Z</time>
      </trkpt>
      <trkpt lat="47.78772" lon="2.17173">
        <ele>131</ele>
        <time>2017-01-08T09:09:03.976Z</time>
      </trkpt>
      <trkpt lat="47.78775" lon="2.17161">
        <ele>132</ele>
        <time>2017-01-08T09:09:04.980Z</time>
      </trkpt>
      <trkpt lat="47.78775" lon="2.17161">
        <ele>132</ele>
        <time>2017-01-08T09:09:05.975Z</time>
      </trkpt>
      <trkpt lat="47.78779" lon="2.17148">
        <ele>132</ele>
        <time>2017-01-08T09:09:06.980Z</time>
      </trkpt>
      <trkpt lat="47.78779" lon="2.17148">
        <ele>132</ele>
        <time>2017-01-08T09:09:07.979Z</time>
      </trkpt>
      <trkpt lat="47.78783" lon="2.17137">
        <ele>131</ele>
        <time>2017-01-08T09:09:08.979Z</time>
      </trkpt>
      <trkpt lat="47.78783" lon="2.17137">
        <ele>131</ele>
        <time>2017-01-08T09:09:09.976Z</time>
      </trkpt>
      <trkpt lat="47.78786" lon="2.17125">
        <ele>131</ele>
        <time>2017-01-08T09:09:10.992Z</time>
      </trkpt>
      <trkpt lat="47.78786" lon="2.17125">
        <ele>131</ele>
        <time>2017-01-08T09:09:11.980Z</time>
      </trkpt>
      <trkpt lat="47.7879" lon="2.17112">
        <ele>131</ele>
        <time>2017-01-08T09:09:12.980Z</time>
      </trkpt>
      <trkpt lat="47.7879" lon="2.17112">
        <ele>131</ele>
        <time>2017-01-08T09:09:13.977Z</time>
      </trkpt>
      <trkpt lat="47.78795" lon="2.17099">
        <ele>130</ele>
        <time>2017-01-08T09:09:14.983Z</time>
      </trkpt>
      <trkpt lat="47.78795" lon="2.17099">
        <ele>130</ele>
        <time>2017-01-08T09:09:15.980Z</time>
      </trkpt>
      <trkpt lat="47.788" lon="2.17085">
        <ele>130</ele>
        <time>2017-01-08T09:09:16.982Z</time>
      </trkpt>
      <trkpt lat="47.78802" lon="2.17078">
        <ele>129</ele>
        <time>2017-01-08T09:09:17.977Z</time>
      </trkpt>
      <trkpt lat="47.78802" lon="2.17078">
        <ele>129</ele>
        <time>2017-01-08T09:09:18.979Z</time>
      </trkpt>
      <trkpt lat="47.78807" lon="2.17064">
        <ele>129</ele>
        <time>2017-01-08T09:09:19.980Z</time>
      </trkpt>
      <trkpt lat="47.78807" lon="2.17064">
        <ele>129</ele>
        <time>2017-01-08T09:09:20.978Z</time>
      </trkpt>
      <trkpt lat="47.78811" lon="2.17048">
        <ele>128</ele>
        <time>2017-01-08T09:09:21.981Z</time>
      </trkpt>
      <trkpt lat="47.78811" lon="2.17048">
        <ele>128</ele>
        <time>2017-01-08T09:09:22.976Z</time>
      </trkpt>
      <trkpt lat="47.78814" lon="2.17034">
        <ele>128</ele>
        <time>2017-01-08T09:09:23.979Z</time>
      </trkpt>
      <trkpt lat="47.78815" lon="2.17027">
        <ele>128</ele>
        <time>2017-01-08T09:09:24.980Z</time>
      </trkpt>
      <trkpt lat="47.78815" lon="2.17027">
        <ele>128</ele>
        <time>2017-01-08T09:09:25.977Z</time>
      </trkpt>
      <trkpt lat="47.78815" lon="2.17016">
        <ele>128</ele>
        <time>2017-01-08T09:09:26.980Z</time>
      </trkpt>
      <trkpt lat="47.78815" lon="2.17016">
        <ele>128</ele>
        <time>2017-01-08T09:09:27.954Z</time>
      </trkpt>
      <trkpt lat="47.78814" lon="2.17008">
        <ele>128</ele>
        <time>2017-01-08T09:09:28.984Z</time>
      </trkpt>
      <trkpt lat="47.78814" lon="2.17008">
        <ele>128</ele>
        <time>2017-01-08T09:09:29.977Z</time>
      </trkpt>
      <trkpt lat="47.78812" lon="2.17">
        <ele>128</ele>
        <time>2017-01-08T09:09:30.976Z</time>
      </trkpt>
      <trkpt lat="47.78812" lon="2.16996">
        <ele>129</ele>
        <time>2017-01-08T09:09:31.983Z</time>
      </trkpt>
      <trkpt lat="47.78812" lon="2.16996">
        <ele>129</ele>
        <time>2017-01-08T09:09:32.977Z</time>
      </trkpt>
      <trkpt lat="47.78812" lon="2.16987">
        <ele>129</ele>
        <time>2017-01-08T09:09:33.980Z</time>
      </trkpt>
      <trkpt lat="47.78812" lon="2.16987">
        <ele>129</ele>
        <time>2017-01-08T09:09:34.978Z</time>
      </trkpt>
      <trkpt lat="47.78811" lon="2.16979">
        <ele>130</ele>
        <time>2017-01-08T09:09:35.980Z</time>
      </trkpt>
      <trkpt lat="47.78811" lon="2.16979">
        <ele>130</ele>
        <time>2017-01-08T09:09:36.977Z</time>
      </trkpt>
      <trkpt lat="47.7881" lon="2.1697">
        <ele>130</ele>
        <time>2017-01-08T09:09:37.980Z</time>
      </trkpt>
      <trkpt lat="47.7881" lon="2.1697">
        <ele>130</ele>
        <time>2017-01-08T09:09:38.978Z</time>
      </trkpt>
      <trkpt lat="47.78809" lon="2.16962">
        <ele>131</ele>
        <time>2017-01-08T09:09:39.981Z</time>
      </trkpt>
      <trkpt lat="47.78809" lon="2.16958">
        <ele>131</ele>
        <time>2017-01-08T09:09:40.980Z</time>
      </trkpt>
      <trkpt lat="47.78809" lon="2.16958">
        <ele>131</ele>
        <time>2017-01-08T09:09:41.978Z</time>
      </trkpt>
      <trkpt lat="47.78809" lon="2.16952">
        <ele>131</ele>
        <time>2017-01-08T09:09:42.981Z</time>
      </trkpt>
      <trkpt lat="47.78809" lon="2.16952">
        <ele>131</ele>
        <time>2017-01-08T09:09:43.978Z</time>
      </trkpt>
      <trkpt lat="47.78809" lon="2.16947">
        <ele>131</ele>
        <time>2017-01-08T09:09:44.977Z</time>
      </trkpt>
      <trkpt lat="47.78809" lon="2.16947">
        <ele>131</ele>
        <time>2017-01-08T09:09:45.978Z</time>
      </trkpt>
      <trkpt lat="47.78808" lon="2.16942">
        <ele>131</ele>
        <time>2017-01-08T09:09:46.981Z</time>
      </trkpt>
      <trkpt lat="47.78808" lon="2.16941">
        <ele>131</ele>
        <time>2017-01-08T09:09:47.980Z</time>
      </trkpt>
      <trkpt lat="47.78808" lon="2.16941">
        <ele>131</ele>
        <time>2017-01-08T09:09:48.978Z</time>
      </trkpt>
      <trkpt lat="47.78808" lon="2.16939">
        <ele>131</ele>
        <time>2017-01-08T09:09:49.990Z</time>
      </trkpt>
      <trkpt lat="47.78808" lon="2.16939">
        <ele>131</ele>
        <time>2017-01-08T09:09:50.978Z</time>
      </trkpt>
      <trkpt lat="47.78808" lon="2.16938">
        <ele>131</ele>
        <time>2017-01-08T09:09:51.990Z</time>
      </trkpt>
      <trkpt lat="47.78808" lon="2.16938">
        <ele>131</ele>
        <time>2017-01-08T09:09:52.982Z</time>
      </trkpt>
      <trkpt lat="47.78807" lon="2.16929">
        <ele>132</ele>
        <time>2017-01-08T09:09:53.962Z</time>
      </trkpt>
      <trkpt lat="47.78807" lon="2.16929">
        <ele>132</ele>
        <time>2017-01-08T09:09:54.955Z</time>
      </trkpt>
      <trkpt lat="47.78804" lon="2.16925">
        <ele>132</ele>
        <time>2017-01-08T09:09:55.961Z</time>
      </trkpt>
      <trkpt lat="47.78803" lon="2.16923">
        <ele>132</ele>
        <time>2017-01-08T09:09:56.957Z</time>
      </trkpt>
      <trkpt lat="47.78803" lon="2.16923">
        <ele>132</ele>
        <time>2017-01-08T09:09:57.987Z</time>
      </trkpt>
      <trkpt lat="47.78796" lon="2.16925">
        <ele>132</ele>
        <time>2017-01-08T09:09:58.992Z</time>
      </trkpt>
      <trkpt lat="47.78793" lon="2.16927">
        <ele>133</ele>
        <time>2017-01-08T09:09:59.991Z</time>
      </trkpt>
      <trkpt lat="47.7879" lon="2.16928">
        <ele>133</ele>
        <time>2017-01-08T09:10:00.991Z</time>
      </trkpt>
      <trkpt lat="47.7879" lon="2.16928">
        <ele>133</ele>
        <time>2017-01-08T09:10:01.988Z</time>
      </trkpt>
      <trkpt lat="47.78782" lon="2.16931">
        <ele>133</ele>
        <time>2017-01-08T09:10:02.988Z</time>
      </trkpt>
      <trkpt lat="47.78778" lon="2.16932">
        <ele>134</ele>
        <time>2017-01-08T09:10:03.990Z</time>
      </trkpt>
      <trkpt lat="47.78778" lon="2.16932">
        <ele>134</ele>
        <time>2017-01-08T09:10:04.986Z</time>
      </trkpt>
      <trkpt lat="47.78771" lon="2.16933">
        <ele>134</ele>
        <time>2017-01-08T09:10:05.992Z</time>
      </trkpt>
      <trkpt lat="47.78771" lon="2.16933">
        <ele>134</ele>
        <time>2017-01-08T09:10:06.958Z</time>
      </trkpt>
      <trkpt lat="47.78771" lon="2.16933">
        <ele>134</ele>
        <time>2017-01-08T09:10:07.955Z</time>
      </trkpt>
      <trkpt lat="47.78764" lon="2.16937">
        <ele>134</ele>
        <time>2017-01-08T09:10:08.989Z</time>
      </trkpt>
      <trkpt lat="47.78758" lon="2.1694">
        <ele>135</ele>
        <time>2017-01-08T09:10:09.990Z</time>
      </trkpt>
      <trkpt lat="47.78758" lon="2.1694">
        <ele>135</ele>
        <time>2017-01-08T09:10:10.990Z</time>
      </trkpt>
      <trkpt lat="47.78752" lon="2.16942">
        <ele>135</ele>
        <time>2017-01-08T09:10:11.991Z</time>
      </trkpt>
      <trkpt lat="47.78752" lon="2.16942">
        <ele>135</ele>
        <time>2017-01-08T09:10:12.995Z</time>
      </trkpt>
      <trkpt lat="47.78746" lon="2.16944">
        <ele>135</ele>
        <time>2017-01-08T09:10:13.992Z</time>
      </trkpt>
      <trkpt lat="47.78746" lon="2.16944">
        <ele>135</ele>
        <time>2017-01-08T09:10:14.989Z</time>
      </trkpt>
      <trkpt lat="47.7874" lon="2.16947">
        <ele>136</ele>
        <time>2017-01-08T09:10:15.990Z</time>
      </trkpt>
      <trkpt lat="47.7874" lon="2.16947">
        <ele>136</ele>
        <time>2017-01-08T09:10:16.989Z</time>
      </trkpt>
      <trkpt lat="47.78732" lon="2.1695">
        <ele>136</ele>
        <time>2017-01-08T09:10:17.993Z</time>
      </trkpt>
      <trkpt lat="47.78732" lon="2.1695">
        <ele>136</ele>
        <time>2017-01-08T09:10:18.988Z</time>
      </trkpt>
      <trkpt lat="47.78725" lon="2.16952">
        <ele>137</ele>
        <time>2017-01-08T09:10:19.991Z</time>
      </trkpt>
      <trkpt lat="47.78722" lon="2.16952">
        <ele>137</ele>
        <time>2017-01-08T09:10:20.991Z</time>
      </trkpt>
      <trkpt lat="47.78722" lon="2.16952">
        <ele>137</ele>
        <time>2017-01-08T09:10:21.984Z</time>
      </trkpt>
      <trkpt lat="47.78714" lon="2.16955">
        <ele>137</ele>
        <time>2017-01-08T09:10:22.955Z</time>
      </trkpt>
      <trkpt lat="47.78714" lon="2.16955">
        <ele>137</ele>
        <time>2017-01-08T09:10:23.990Z</time>
      </trkpt>
      <trkpt lat="47.78705" lon="2.16957">
        <ele>137</ele>
        <time>2017-01-08T09:10:24.990Z</time>
      </trkpt>
      <trkpt lat="47.78701" lon="2.16958">
        <ele>137</ele>
        <time>2017-01-08T09:10:25.987Z</time>
      </trkpt>
      <trkpt lat="47.78697" lon="2.16959">
        <ele>137</ele>
        <time>2017-01-08T09:10:26.991Z</time>
      </trkpt>
      <trkpt lat="47.78697" lon="2.16959">
        <ele>137</ele>
        <time>2017-01-08T09:10:27.976Z</time>
      </trkpt>
      <trkpt lat="47.78688" lon="2.16961">
        <ele>138</ele>
        <time>2017-01-08T09:10:28.992Z</time>
      </trkpt>
      <trkpt lat="47.78684" lon="2.16962">
        <ele>138</ele>
        <time>2017-01-08T09:10:29.992Z</time>
      </trkpt>
      <trkpt lat="47.78684" lon="2.16962">
        <ele>138</ele>
        <time>2017-01-08T09:10:30.986Z</time>
      </trkpt>
      <trkpt lat="47.78676" lon="2.16964">
        <ele>138</ele>
        <time>2017-01-08T09:10:31.991Z</time>
      </trkpt>
      <trkpt lat="47.78676" lon="2.16964">
        <ele>138</ele>
        <time>2017-01-08T09:10:32.988Z</time>
      </trkpt>
      <trkpt lat="47.78668" lon="2.16966">
        <ele>138</ele>
        <time>2017-01-08T09:10:33.990Z</time>
      </trkpt>
      <trkpt lat="47.78668" lon="2.16966">
        <ele>138</ele>
        <time>2017-01-08T09:10:34.985Z</time>
      </trkpt>
      <trkpt lat="47.7866" lon="2.16967">
        <ele>139</ele>
        <time>2017-01-08T09:10:35.991Z</time>
      </trkpt>
      <trkpt lat="47.7866" lon="2.16967">
        <ele>139</ele>
        <time>2017-01-08T09:10:36.989Z</time>
      </trkpt>
      <trkpt lat="47.78651" lon="2.1697">
        <ele>139</ele>
        <time>2017-01-08T09:10:37.991Z</time>
      </trkpt>
      <trkpt lat="47.78651" lon="2.1697">
        <ele>139</ele>
        <time>2017-01-08T09:10:38.980Z</time>
      </trkpt>
      <trkpt lat="47.78643" lon="2.16972">
        <ele>139</ele>
        <time>2017-01-08T09:10:39.991Z</time>
      </trkpt>
      <trkpt lat="47.78643" lon="2.16972">
        <ele>139</ele>
        <time>2017-01-08T09:10:40.990Z</time>
      </trkpt>
      <trkpt lat="47.78635" lon="2.16974">
        <ele>139</ele>
        <time>2017-01-08T09:10:41.993Z</time>
      </trkpt>
      <trkpt lat="47.78631" lon="2.16975">
        <ele>139</ele>
        <time>2017-01-08T09:10:42.991Z</time>
      </trkpt>
      <trkpt lat="47.78627" lon="2.16976">
        <ele>140</ele>
        <time>2017-01-08T09:10:43.991Z</time>
      </trkpt>
      <trkpt lat="47.78627" lon="2.16976">
        <ele>140</ele>
        <time>2017-01-08T09:10:44.987Z</time>
      </trkpt>
      <trkpt lat="47.78619" lon="2.16979">
        <ele>140</ele>
        <time>2017-01-08T09:10:45.990Z</time>
      </trkpt>
      <trkpt lat="47.78619" lon="2.16979">
        <ele>140</ele>
        <time>2017-01-08T09:10:46.989Z</time>
      </trkpt>
      <trkpt lat="47.78612" lon="2.16981">
        <ele>140</ele>
        <time>2017-01-08T09:10:47.992Z</time>
      </trkpt>
      <trkpt lat="47.78612" lon="2.16981">
        <ele>140</ele>
        <time>2017-01-08T09:10:48.988Z</time>
      </trkpt>
      <trkpt lat="47.78605" lon="2.16983">
        <ele>141</ele>
        <time>2017-01-08T09:10:49.992Z</time>
      </trkpt>
      <trkpt lat="47.78605" lon="2.16983">
        <ele>141</ele>
        <time>2017-01-08T09:10:50.988Z</time>
      </trkpt>
      <trkpt lat="47.78598" lon="2.16985">
        <ele>141</ele>
        <time>2017-01-08T09:10:51.991Z</time>
      </trkpt>
      <trkpt lat="47.78598" lon="2.16985">
        <ele>141</ele>
        <time>2017-01-08T09:10:52.989Z</time>
      </trkpt>
      <trkpt lat="47.78591" lon="2.16986">
        <ele>142</ele>
        <time>2017-01-08T09:10:53.992Z</time>
      </trkpt>
      <trkpt lat="47.78591" lon="2.16986">
        <ele>142</ele>
        <time>2017-01-08T09:10:54.989Z</time>
      </trkpt>
      <trkpt lat="47.78583" lon="2.16988">
        <ele>142</ele>
        <time>2017-01-08T09:10:55.991Z</time>
      </trkpt>
      <trkpt lat="47.78583" lon="2.16988">
        <ele>142</ele>
        <time>2017-01-08T09:10:56.988Z</time>
      </trkpt>
      <trkpt lat="47.78575" lon="2.1699">
        <ele>143</ele>
        <time>2017-01-08T09:10:57.987Z</time>
      </trkpt>
      <trkpt lat="47.78575" lon="2.1699">
        <ele>143</ele>
        <time>2017-01-08T09:10:58.988Z</time>
      </trkpt>
      <trkpt lat="47.78566" lon="2.16994">
        <ele>144</ele>
        <time>2017-01-08T09:10:59.992Z</time>
      </trkpt>
      <trkpt lat="47.78566" lon="2.16994">
        <ele>144</ele>
        <time>2017-01-08T09:11:00.988Z</time>
      </trkpt>
      <trkpt lat="47.78557" lon="2.16997">
        <ele>145</ele>
        <time>2017-01-08T09:11:01.992Z</time>
      </trkpt>
      <trkpt lat="47.78557" lon="2.16997">
        <ele>145</ele>
        <time>2017-01-08T09:11:02.986Z</time>
      </trkpt>
      <trkpt lat="47.78546" lon="2.17001">
        <ele>145</ele>
        <time>2017-01-08T09:11:03.986Z</time>
      </trkpt>
      <trkpt lat="47.78546" lon="2.17001">
        <ele>145</ele>
        <time>2017-01-08T09:11:04.990Z</time>
      </trkpt>
      <trkpt lat="47.78533" lon="2.17003">
        <ele>145</ele>
        <time>2017-01-08T09:11:05.992Z</time>
      </trkpt>
      <trkpt lat="47.78533" lon="2.17003">
        <ele>145</ele>
        <time>2017-01-08T09:11:06.985Z</time>
      </trkpt>
      <trkpt lat="47.78522" lon="2.17005">
        <ele>145</ele>
        <time>2017-01-08T09:11:07.991Z</time>
      </trkpt>
      <trkpt lat="47.78522" lon="2.17005">
        <ele>145</ele>
        <time>2017-01-08T09:11:08.988Z</time>
      </trkpt>
      <trkpt lat="47.78512" lon="2.17009">
        <ele>146</ele>
        <time>2017-01-08T09:11:09.991Z</time>
      </trkpt>
      <trkpt lat="47.78512" lon="2.17009">
        <ele>146</ele>
        <time>2017-01-08T09:11:10.975Z</time>
      </trkpt>
      <trkpt lat="47.78503" lon="2.17013">
        <ele>146</ele>
        <time>2017-01-08T09:11:11.993Z</time>
      </trkpt>
      <trkpt lat="47.78503" lon="2.17013">
        <ele>146</ele>
        <time>2017-01-08T09:11:12.989Z</time>
      </trkpt>
      <trkpt lat="47.78493" lon="2.17017">
        <ele>146</ele>
        <time>2017-01-08T09:11:13.992Z</time>
      </trkpt>
      <trkpt lat="47.78493" lon="2.17017">
        <ele>146</ele>
        <time>2017-01-08T09:11:14.988Z</time>
      </trkpt>
      <trkpt lat="47.78484" lon="2.17022">
        <ele>147</ele>
        <time>2017-01-08T09:11:15.961Z</time>
      </trkpt>
      <trkpt lat="47.78484" lon="2.17022">
        <ele>147</ele>
        <time>2017-01-08T09:11:16.990Z</time>
      </trkpt>
      <trkpt lat="47.78476" lon="2.17026">
        <ele>148</ele>
        <time>2017-01-08T09:11:17.992Z</time>
      </trkpt>
      <trkpt lat="47.78476" lon="2.17026">
        <ele>148</ele>
        <time>2017-01-08T09:11:18.988Z</time>
      </trkpt>
      <trkpt lat="47.78468" lon="2.17029">
        <ele>148</ele>
        <time>2017-01-08T09:11:19.991Z</time>
      </trkpt>
      <trkpt lat="47.78468" lon="2.17029">
        <ele>148</ele>
        <time>2017-01-08T09:11:20.988Z</time>
      </trkpt>
      <trkpt lat="47.78461" lon="2.17033">
        <ele>149</ele>
        <time>2017-01-08T09:11:21.991Z</time>
      </trkpt>
      <trkpt lat="47.78461" lon="2.17033">
        <ele>149</ele>
        <time>2017-01-08T09:11:22.990Z</time>
      </trkpt>
      <trkpt lat="47.78454" lon="2.17037">
        <ele>149</ele>
        <time>2017-01-08T09:11:23.992Z</time>
      </trkpt>
      <trkpt lat="47.7845" lon="2.17038">
        <ele>150</ele>
        <time>2017-01-08T09:11:24.958Z</time>
      </trkpt>
      <trkpt lat="47.7845" lon="2.17038">
        <ele>150</ele>
        <time>2017-01-08T09:11:25.989Z</time>
      </trkpt>
      <trkpt lat="47.78443" lon="2.17043">
        <ele>150</ele>
        <time>2017-01-08T09:11:26.991Z</time>
      </trkpt>
      <trkpt lat="47.78443" lon="2.17043">
        <ele>150</ele>
        <time>2017-01-08T09:11:27.968Z</time>
      </trkpt>
      <trkpt lat="47.78434" lon="2.17046">
        <ele>150</ele>
        <time>2017-01-08T09:11:28.993Z</time>
      </trkpt>
      <trkpt lat="47.78434" lon="2.17046">
        <ele>150</ele>
        <time>2017-01-08T09:11:29.996Z</time>
      </trkpt>
      <trkpt lat="47.78425" lon="2.17047">
        <ele>149</ele>
        <time>2017-01-08T09:11:30.990Z</time>
      </trkpt>
      <trkpt lat="47.7842" lon="2.17047">
        <ele>149</ele>
        <time>2017-01-08T09:11:31.992Z</time>
      </trkpt>
      <trkpt lat="47.7842" lon="2.17047">
        <ele>149</ele>
        <time>2017-01-08T09:11:32.993Z</time>
      </trkpt>
      <trkpt lat="47.7841" lon="2.17044">
        <ele>149</ele>
        <time>2017-01-08T09:11:33.959Z</time>
      </trkpt>
      <trkpt lat="47.7841" lon="2.17044">
        <ele>149</ele>
        <time>2017-01-08T09:11:34.989Z</time>
      </trkpt>
      <trkpt lat="47.78398" lon="2.17041">
        <ele>150</ele>
        <time>2017-01-08T09:11:35.992Z</time>
      </trkpt>
      <trkpt lat="47.78398" lon="2.17041">
        <ele>150</ele>
        <time>2017-01-08T09:11:36.989Z</time>
      </trkpt>
      <trkpt lat="47.78387" lon="2.17037">
        <ele>149</ele>
        <time>2017-01-08T09:11:37.991Z</time>
      </trkpt>
      <trkpt lat="47.78387" lon="2.17037">
        <ele>149</ele>
        <time>2017-01-08T09:11:38.988Z</time>
      </trkpt>
      <trkpt lat="47.78377" lon="2.17033">
        <ele>149</ele>
        <time>2017-01-08T09:11:39.991Z</time>
      </trkpt>
      <trkpt lat="47.78377" lon="2.17033">
        <ele>149</ele>
        <time>2017-01-08T09:11:40.988Z</time>
      </trkpt>
      <trkpt lat="47.78368" lon="2.17027">
        <ele>149</ele>
        <time>2017-01-08T09:11:41.955Z</time>
      </trkpt>
      <trkpt lat="47.78364" lon="2.17025">
        <ele>149</ele>
        <time>2017-01-08T09:11:42.991Z</time>
      </trkpt>
      <trkpt lat="47.7836" lon="2.17023">
        <ele>149</ele>
        <time>2017-01-08T09:11:43.991Z</time>
      </trkpt>
      <trkpt lat="47.7836" lon="2.17023">
        <ele>149</ele>
        <time>2017-01-08T09:11:44.988Z</time>
      </trkpt>
      <trkpt lat="47.78351" lon="2.17018">
        <ele>149</ele>
        <time>2017-01-08T09:11:45.991Z</time>
      </trkpt>
      <trkpt lat="47.78346" lon="2.17017">
        <ele>148</ele>
        <time>2017-01-08T09:11:46.992Z</time>
      </trkpt>
      <trkpt lat="47.78346" lon="2.17017">
        <ele>148</ele>
        <time>2017-01-08T09:11:47.989Z</time>
      </trkpt>
      <trkpt lat="47.78339" lon="2.17012">
        <ele>147</ele>
        <time>2017-01-08T09:11:48.990Z</time>
      </trkpt>
      <trkpt lat="47.78339" lon="2.17012">
        <ele>147</ele>
        <time>2017-01-08T09:11:49.980Z</time>
      </trkpt>
      <trkpt lat="47.78331" lon="2.17008">
        <ele>147</ele>
        <time>2017-01-08T09:11:50.991Z</time>
      </trkpt>
      <trkpt lat="47.78331" lon="2.17008">
        <ele>147</ele>
        <time>2017-01-08T09:11:51.989Z</time>
      </trkpt>
      <trkpt lat="47.78322" lon="2.17004">
        <ele>147</ele>
        <time>2017-01-08T09:11:52.992Z</time>
      </trkpt>
      <trkpt lat="47.78322" lon="2.17004">
        <ele>147</ele>
        <time>2017-01-08T09:11:53.979Z</time>
      </trkpt>
      <trkpt lat="47.78314" lon="2.17">
        <ele>147</ele>
        <time>2017-01-08T09:11:54.990Z</time>
      </trkpt>
      <trkpt lat="47.78309" lon="2.16998">
        <ele>146</ele>
        <time>2017-01-08T09:11:55.990Z</time>
      </trkpt>
      <trkpt lat="47.78309" lon="2.16998">
        <ele>146</ele>
        <time>2017-01-08T09:11:56.988Z</time>
      </trkpt>
      <trkpt lat="47.78301" lon="2.16994">
        <ele>146</ele>
        <time>2017-01-08T09:11:57.991Z</time>
      </trkpt>
      <trkpt lat="47.78301" lon="2.16994">
        <ele>146</ele>
        <time>2017-01-08T09:11:58.990Z</time>
      </trkpt>
      <trkpt lat="47.78292" lon="2.1699">
        <ele>144</ele>
        <time>2017-01-08T09:11:59.992Z</time>
      </trkpt>
      <trkpt lat="47.78292" lon="2.1699">
        <ele>144</ele>
        <time>2017-01-08T09:12:00.988Z</time>
      </trkpt>
      <trkpt lat="47.78282" lon="2.16985">
        <ele>144</ele>
        <time>2017-01-08T09:12:01.991Z</time>
      </trkpt>
      <trkpt lat="47.78282" lon="2.16985">
        <ele>144</ele>
        <time>2017-01-08T09:12:02.988Z</time>
      </trkpt>
      <trkpt lat="47.78272" lon="2.1698">
        <ele>142</ele>
        <time>2017-01-08T09:12:03.957Z</time>
      </trkpt>
      <trkpt lat="47.78268" lon="2.16978">
        <ele>141</ele>
        <time>2017-01-08T09:12:04.979Z</time>
      </trkpt>
      <trkpt lat="47.78268" lon="2.16978">
        <ele>141</ele>
        <time>2017-01-08T09:12:05.990Z</time>
      </trkpt>
      <trkpt lat="47.78258" lon="2.16973">
        <ele>140</ele>
        <time>2017-01-08T09:12:06.990Z</time>
      </trkpt>
      <trkpt lat="47.78254" lon="2.16971">
        <ele>140</ele>
        <time>2017-01-08T09:12:07.991Z</time>
      </trkpt>
      <trkpt lat="47.78254" lon="2.16971">
        <ele>140</ele>
        <time>2017-01-08T09:12:08.956Z</time>
      </trkpt>
      <trkpt lat="47.78244" lon="2.16967">
        <ele>139</ele>
        <time>2017-01-08T09:12:09.992Z</time>
      </trkpt>
      <trkpt lat="47.78239" lon="2.16966">
        <ele>139</ele>
        <time>2017-01-08T09:12:10.992Z</time>
      </trkpt>
      <trkpt lat="47.78234" lon="2.16965">
        <ele>139</ele>
        <time>2017-01-08T09:12:11.987Z</time>
      </trkpt>
      <trkpt lat="47.78234" lon="2.16965">
        <ele>139</ele>
        <time>2017-01-08T09:12:12.988Z</time>
      </trkpt>
      <trkpt lat="47.78224" lon="2.16963">
        <ele>138</ele>
        <time>2017-01-08T09:12:13.961Z</time>
      </trkpt>
      <trkpt lat="47.78219" lon="2.16961">
        <ele>138</ele>
        <time>2017-01-08T09:12:14.969Z</time>
      </trkpt>
      <trkpt lat="47.78219" lon="2.16961">
        <ele>138</ele>
        <time>2017-01-08T09:12:15.990Z</time>
      </trkpt>
      <trkpt lat="47.78208" lon="2.1696">
        <ele>138</ele>
        <time>2017-01-08T09:12:16.992Z</time>
      </trkpt>
      <trkpt lat="47.78202" lon="2.16959">
        <ele>137</ele>
        <time>2017-01-08T09:12:17.990Z</time>
      </trkpt>
      <trkpt lat="47.78197" lon="2.16958">
        <ele>137</ele>
        <time>2017-01-08T09:12:18.991Z</time>
      </trkpt>
      <trkpt lat="47.78197" lon="2.16958">
        <ele>137</ele>
        <time>2017-01-08T09:12:19.982Z</time>
      </trkpt>
      <trkpt lat="47.78187" lon="2.16957">
        <ele>137</ele>
        <time>2017-01-08T09:12:20.991Z</time>
      </trkpt>
      <trkpt lat="47.78181" lon="2.16957">
        <ele>137</ele>
        <time>2017-01-08T09:12:21.991Z</time>
      </trkpt>
      <trkpt lat="47.78176" lon="2.16956">
        <ele>137</ele>
        <time>2017-01-08T09:12:22.992Z</time>
      </trkpt>
      <trkpt lat="47.7817" lon="2.16956">
        <ele>137</ele>
        <time>2017-01-08T09:12:23.992Z</time>
      </trkpt>
      <trkpt lat="47.7817" lon="2.16956">
        <ele>137</ele>
        <time>2017-01-08T09:12:24.989Z</time>
      </trkpt>
      <trkpt lat="47.78158" lon="2.16956">
        <ele>136</ele>
        <time>2017-01-08T09:12:25.991Z</time>
      </trkpt>
      <trkpt lat="47.78152" lon="2.16955">
        <ele>136</ele>
        <time>2017-01-08T09:12:26.990Z</time>
      </trkpt>
      <trkpt lat="47.78152" lon="2.16955">
        <ele>136</ele>
        <time>2017-01-08T09:12:27.990Z</time>
      </trkpt>
      <trkpt lat="47.78142" lon="2.16953">
        <ele>136</ele>
        <time>2017-01-08T09:12:28.991Z</time>
      </trkpt>
      <trkpt lat="47.78142" lon="2.16953">
        <ele>136</ele>
        <time>2017-01-08T09:12:29.986Z</time>
      </trkpt>
      <trkpt lat="47.78132" lon="2.16952">
        <ele>136</ele>
        <time>2017-01-08T09:12:30.991Z</time>
      </trkpt>
      <trkpt lat="47.78132" lon="2.16952">
        <ele>136</ele>
        <time>2017-01-08T09:12:31.988Z</time>
      </trkpt>
      <trkpt lat="47.78121" lon="2.16952">
        <ele>136</ele>
        <time>2017-01-08T09:12:32.960Z</time>
      </trkpt>
      <trkpt lat="47.78121" lon="2.16952">
        <ele>136</ele>
        <time>2017-01-08T09:12:33.956Z</time>
      </trkpt>
      <trkpt lat="47.7811" lon="2.1695">
        <ele>136</ele>
        <time>2017-01-08T09:12:34.993Z</time>
      </trkpt>
      <trkpt lat="47.78104" lon="2.16949">
        <ele>136</ele>
        <time>2017-01-08T09:12:35.992Z</time>
      </trkpt>
      <trkpt lat="47.78104" lon="2.16949">
        <ele>136</ele>
        <time>2017-01-08T09:12:36.988Z</time>
      </trkpt>
      <trkpt lat="47.78092" lon="2.16948">
        <ele>136</ele>
        <time>2017-01-08T09:12:37.992Z</time>
      </trkpt>
      <trkpt lat="47.78092" lon="2.16948">
        <ele>136</ele>
        <time>2017-01-08T09:12:38.985Z</time>
      </trkpt>
      <trkpt lat="47.78079" lon="2.16945">
        <ele>136</ele>
        <time>2017-01-08T09:12:39.990Z</time>
      </trkpt>
      <trkpt lat="47.78079" lon="2.16945">
        <ele>136</ele>
        <time>2017-01-08T09:12:40.989Z</time>
      </trkpt>
      <trkpt lat="47.78066" lon="2.16944">
        <ele>136</ele>
        <time>2017-01-08T09:12:41.992Z</time>
      </trkpt>
      <trkpt lat="47.78066" lon="2.16944">
        <ele>136</ele>
        <time>2017-01-08T09:12:42.987Z</time>
      </trkpt>
      <trkpt lat="47.78055" lon="2.16942">
        <ele>135</ele>
        <time>2017-01-08T09:12:43.992Z</time>
      </trkpt>
      <trkpt lat="47.78055" lon="2.16942">
        <ele>135</ele>
        <time>2017-01-08T09:12:44.981Z</time>
      </trkpt>
      <trkpt lat="47.78044" lon="2.16942">
        <ele>136</ele>
        <time>2017-01-08T09:12:45.990Z</time>
      </trkpt>
      <trkpt lat="47.78039" lon="2.16942">
        <ele>136</ele>
        <time>2017-01-08T09:12:46.991Z</time>
      </trkpt>
      <trkpt lat="47.78033" lon="2.16942">
        <ele>136</ele>
        <time>2017-01-08T09:12:47.992Z</time>
      </trkpt>
      <trkpt lat="47.78033" lon="2.16942">
        <ele>136</ele>
        <time>2017-01-08T09:12:48.981Z</time>
      </trkpt>
      <trkpt lat="47.78022" lon="2.16943">
        <ele>135</ele>
        <time>2017-01-08T09:12:49.991Z</time>
      </trkpt>
      <trkpt lat="47.78022" lon="2.16943">
        <ele>135</ele>
        <time>2017-01-08T09:12:50.988Z</time>
      </trkpt>
      <trkpt lat="47.78022" lon="2.16943">
        <ele>135</ele>
        <time>2017-01-08T09:12:51.956Z</time>
      </trkpt>
      <trkpt lat="47.78011" lon="2.16943">
        <ele>135</ele>
        <time>2017-01-08T09:12:52.962Z</time>
      </trkpt>
      <trkpt lat="47.78" lon="2.16944">
        <ele>136</ele>
        <time>2017-01-08T09:12:53.992Z</time>
      </trkpt>
      <trkpt lat="47.78" lon="2.16944">
        <ele>136</ele>
        <time>2017-01-08T09:12:54.989Z</time>
      </trkpt>
      <trkpt lat="47.77989" lon="2.16945">
        <ele>136</ele>
        <time>2017-01-08T09:12:55.991Z</time>
      </trkpt>
      <trkpt lat="47.77983" lon="2.16946">
        <ele>136</ele>
        <time>2017-01-08T09:12:56.990Z</time>
      </trkpt>
      <trkpt lat="47.77983" lon="2.16946">
        <ele>136</ele>
        <time>2017-01-08T09:12:57.985Z</time>
      </trkpt>
      <trkpt lat="47.77972" lon="2.16946">
        <ele>136</ele>
        <time>2017-01-08T09:12:58.991Z</time>
      </trkpt>
      <trkpt lat="47.77972" lon="2.16946">
        <ele>136</ele>
        <time>2017-01-08T09:12:59.989Z</time>
      </trkpt>
      <trkpt lat="47.77961" lon="2.16947">
        <ele>136</ele>
        <time>2017-01-08T09:13:00.993Z</time>
      </trkpt>
      <trkpt lat="47.77955" lon="2.16947">
        <ele>136</ele>
        <time>2017-01-08T09:13:01.992Z</time>
      </trkpt>
      <trkpt lat="47.77955" lon="2.16947">
        <ele>136</ele>
        <time>2017-01-08T09:13:02.988Z</time>
      </trkpt>
      <trkpt lat="47.77945" lon="2.16947">
        <ele>135</ele>
        <time>2017-01-08T09:13:03.986Z</time>
      </trkpt>
      <trkpt lat="47.77939" lon="2.16947">
        <ele>135</ele>
        <time>2017-01-08T09:13:04.992Z</time>
      </trkpt>
      <trkpt lat="47.77934" lon="2.16948">
        <ele>136</ele>
        <time>2017-01-08T09:13:05.954Z</time>
      </trkpt>
      <trkpt lat="47.77929" lon="2.16948">
        <ele>136</ele>
        <time>2017-01-08T09:13:06.992Z</time>
      </trkpt>
      <trkpt lat="47.77929" lon="2.16948">
        <ele>136</ele>
        <time>2017-01-08T09:13:07.989Z</time>
      </trkpt>
      <trkpt lat="47.77918" lon="2.1695">
        <ele>136</ele>
        <time>2017-01-08T09:13:08.991Z</time>
      </trkpt>
      <trkpt lat="47.77918" lon="2.1695">
        <ele>136</ele>
        <time>2017-01-08T09:13:09.989Z</time>
      </trkpt>
      <trkpt lat="47.77907" lon="2.1695">
        <ele>136</ele>
        <time>2017-01-08T09:13:10.993Z</time>
      </trkpt>
      <trkpt lat="47.77907" lon="2.1695">
        <ele>136</ele>
        <time>2017-01-08T09:13:11.990Z</time>
      </trkpt>
      <trkpt lat="47.77896" lon="2.16952">
        <ele>136</ele>
        <time>2017-01-08T09:13:12.991Z</time>
      </trkpt>
      <trkpt lat="47.77891" lon="2.16953">
        <ele>136</ele>
        <time>2017-01-08T09:13:13.992Z</time>
      </trkpt>
      <trkpt lat="47.77891" lon="2.16953">
        <ele>136</ele>
        <time>2017-01-08T09:13:14.981Z</time>
      </trkpt>
      <trkpt lat="47.7788" lon="2.16955">
        <ele>136</ele>
        <time>2017-01-08T09:13:15.991Z</time>
      </trkpt>
      <trkpt lat="47.7788" lon="2.16955">
        <ele>136</ele>
        <time>2017-01-08T09:13:16.989Z</time>
      </trkpt>
      <trkpt lat="47.7787" lon="2.16959">
        <ele>136</ele>
        <time>2017-01-08T09:13:17.992Z</time>
      </trkpt>
      <trkpt lat="47.7787" lon="2.16959">
        <ele>136</ele>
        <time>2017-01-08T09:13:18.981Z</time>
      </trkpt>
      <trkpt lat="47.77859" lon="2.16963">
        <ele>136</ele>
        <time>2017-01-08T09:13:19.991Z</time>
      </trkpt>
      <trkpt lat="47.77859" lon="2.16963">
        <ele>136</ele>
        <time>2017-01-08T09:13:20.988Z</time>
      </trkpt>
      <trkpt lat="47.77849" lon="2.16966">
        <ele>136</ele>
        <time>2017-01-08T09:13:21.990Z</time>
      </trkpt>
      <trkpt lat="47.77849" lon="2.16966">
        <ele>136</ele>
        <time>2017-01-08T09:13:22.990Z</time>
      </trkpt>
      <trkpt lat="47.77838" lon="2.1697">
        <ele>136</ele>
        <time>2017-01-08T09:13:23.992Z</time>
      </trkpt>
      <trkpt lat="47.77838" lon="2.1697">
        <ele>136</ele>
        <time>2017-01-08T09:13:24.985Z</time>
      </trkpt>
      <trkpt lat="47.77827" lon="2.16974">
        <ele>136</ele>
        <time>2017-01-08T09:13:25.991Z</time>
      </trkpt>
      <trkpt lat="47.77827" lon="2.16974">
        <ele>136</ele>
        <time>2017-01-08T09:13:26.988Z</time>
      </trkpt>
      <trkpt lat="47.77816" lon="2.16977">
        <ele>136</ele>
        <time>2017-01-08T09:13:27.992Z</time>
      </trkpt>
      <trkpt lat="47.7781" lon="2.16979">
        <ele>136</ele>
        <time>2017-01-08T09:13:28.993Z</time>
      </trkpt>
      <trkpt lat="47.77804" lon="2.1698">
        <ele>135</ele>
        <time>2017-01-08T09:13:29.992Z</time>
      </trkpt>
      <trkpt lat="47.77804" lon="2.1698">
        <ele>135</ele>
        <time>2017-01-08T09:13:30.990Z</time>
      </trkpt>
      <trkpt lat="47.77793" lon="2.16983">
        <ele>135</ele>
        <time>2017-01-08T09:13:31.954Z</time>
      </trkpt>
      <trkpt lat="47.77793" lon="2.16983">
        <ele>135</ele>
        <time>2017-01-08T09:13:32.988Z</time>
      </trkpt>
      <trkpt lat="47.77782" lon="2.16985">
        <ele>136</ele>
        <time>2017-01-08T09:13:33.991Z</time>
      </trkpt>
      <trkpt lat="47.77782" lon="2.16985">
        <ele>136</ele>
        <time>2017-01-08T09:13:34.990Z</time>
      </trkpt>
      <trkpt lat="47.77771" lon="2.16986">
        <ele>135</ele>
        <time>2017-01-08T09:13:35.954Z</time>
      </trkpt>
      <trkpt lat="47.77766" lon="2.16986">
        <ele>135</ele>
        <time>2017-01-08T09:13:36.992Z</time>
      </trkpt>
      <trkpt lat="47.77766" lon="2.16986">
        <ele>135</ele>
        <time>2017-01-08T09:13:37.987Z</time>
      </trkpt>
      <trkpt lat="47.77754" lon="2.16985">
        <ele>136</ele>
        <time>2017-01-08T09:13:38.991Z</time>
      </trkpt>
      <trkpt lat="47.77749" lon="2.16985">
        <ele>136</ele>
        <time>2017-01-08T09:13:39.990Z</time>
      </trkpt>
      <trkpt lat="47.77749" lon="2.16985">
        <ele>136</ele>
        <time>2017-01-08T09:13:40.989Z</time>
      </trkpt>
      <trkpt lat="47.77737" lon="2.16984">
        <ele>136</ele>
        <time>2017-01-08T09:13:41.992Z</time>
      </trkpt>
      <trkpt lat="47.77731" lon="2.16983">
        <ele>136</ele>
        <time>2017-01-08T09:13:42.961Z</time>
      </trkpt>
      <trkpt lat="47.77731" lon="2.16983">
        <ele>136</ele>
        <time>2017-01-08T09:13:43.956Z</time>
      </trkpt>
      <trkpt lat="47.7772" lon="2.16982">
        <ele>136</ele>
        <time>2017-01-08T09:13:44.985Z</time>
      </trkpt>
      <trkpt lat="47.77715" lon="2.16982">
        <ele>137</ele>
        <time>2017-01-08T09:13:45.992Z</time>
      </trkpt>
      <trkpt lat="47.77715" lon="2.16982">
        <ele>137</ele>
        <time>2017-01-08T09:13:46.956Z</time>
      </trkpt>
      <trkpt lat="47.77704" lon="2.16981">
        <ele>137</ele>
        <time>2017-01-08T09:13:47.992Z</time>
      </trkpt>
      <trkpt lat="47.77704" lon="2.16981">
        <ele>137</ele>
        <time>2017-01-08T09:13:48.988Z</time>
      </trkpt>
      <trkpt lat="47.77693" lon="2.16981">
        <ele>137</ele>
        <time>2017-01-08T09:13:49.992Z</time>
      </trkpt>
      <trkpt lat="47.77693" lon="2.16981">
        <ele>137</ele>
        <time>2017-01-08T09:13:50.990Z</time>
      </trkpt>
      <trkpt lat="47.77682" lon="2.16978">
        <ele>138</ele>
        <time>2017-01-08T09:13:51.960Z</time>
      </trkpt>
      <trkpt lat="47.77676" lon="2.16978">
        <ele>138</ele>
        <time>2017-01-08T09:13:52.993Z</time>
      </trkpt>
      <trkpt lat="47.77671" lon="2.16978">
        <ele>138</ele>
        <time>2017-01-08T09:13:53.954Z</time>
      </trkpt>
      <trkpt lat="47.77671" lon="2.16978">
        <ele>138</ele>
        <time>2017-01-08T09:13:54.978Z</time>
      </trkpt>
      <trkpt lat="47.7766" lon="2.16977">
        <ele>139</ele>
        <time>2017-01-08T09:13:55.961Z</time>
      </trkpt>
      <trkpt lat="47.7766" lon="2.16977">
        <ele>139</ele>
        <time>2017-01-08T09:13:56.990Z</time>
      </trkpt>
      <trkpt lat="47.77648" lon="2.16976">
        <ele>139</ele>
        <time>2017-01-08T09:13:57.992Z</time>
      </trkpt>
      <trkpt lat="47.77643" lon="2.16976">
        <ele>139</ele>
        <time>2017-01-08T09:13:58.992Z</time>
      </trkpt>
      <trkpt lat="47.77643" lon="2.16976">
        <ele>139</ele>
        <time>2017-01-08T09:13:59.990Z</time>
      </trkpt>
      <trkpt lat="47.77632" lon="2.16975">
        <ele>139</ele>
        <time>2017-01-08T09:14:00.991Z</time>
      </trkpt>
      <trkpt lat="47.77627" lon="2.16975">
        <ele>139</ele>
        <time>2017-01-08T09:14:01.992Z</time>
      </trkpt>
      <trkpt lat="47.77627" lon="2.16975">
        <ele>139</ele>
        <time>2017-01-08T09:14:02.989Z</time>
      </trkpt>
      <trkpt lat="47.77627" lon="2.16975">
        <ele>139</ele>
        <time>2017-01-08T09:14:03.996Z</time>
      </trkpt>
      <trkpt lat="47.77615" lon="2.16973">
        <ele>139</ele>
        <time>2017-01-08T09:14:04.972Z</time>
      </trkpt>
      <trkpt lat="47.77604" lon="2.16972">
        <ele>140</ele>
        <time>2017-01-08T09:14:05.963Z</time>
      </trkpt>
      <trkpt lat="47.77604" lon="2.16972">
        <ele>140</ele>
        <time>2017-01-08T09:14:06.986Z</time>
      </trkpt>
      <trkpt lat="47.77592" lon="2.16971">
        <ele>140</ele>
        <time>2017-01-08T09:14:07.992Z</time>
      </trkpt>
      <trkpt lat="47.77592" lon="2.16971">
        <ele>140</ele>
        <time>2017-01-08T09:14:08.958Z</time>
      </trkpt>
      <trkpt lat="47.7758" lon="2.1697">
        <ele>140</ele>
        <time>2017-01-08T09:14:09.993Z</time>
      </trkpt>
      <trkpt lat="47.77574" lon="2.16969">
        <ele>141</ele>
        <time>2017-01-08T09:14:10.993Z</time>
      </trkpt>
      <trkpt lat="47.77574" lon="2.16969">
        <ele>141</ele>
        <time>2017-01-08T09:14:11.990Z</time>
      </trkpt>
      <trkpt lat="47.77563" lon="2.16969">
        <ele>141</ele>
        <time>2017-01-08T09:14:12.991Z</time>
      </trkpt>
      <trkpt lat="47.77563" lon="2.16969">
        <ele>141</ele>
        <time>2017-01-08T09:14:13.989Z</time>
      </trkpt>
      <trkpt lat="47.77551" lon="2.16967">
        <ele>141</ele>
        <time>2017-01-08T09:14:14.991Z</time>
      </trkpt>
      <trkpt lat="47.77551" lon="2.16967">
        <ele>141</ele>
        <time>2017-01-08T09:14:15.993Z</time>
      </trkpt>
      <trkpt lat="47.77539" lon="2.16965">
        <ele>141</ele>
        <time>2017-01-08T09:14:16.992Z</time>
      </trkpt>
      <trkpt lat="47.77533" lon="2.16964">
        <ele>141</ele>
        <time>2017-01-08T09:14:17.993Z</time>
      </trkpt>
      <trkpt lat="47.77533" lon="2.16964">
        <ele>141</ele>
        <time>2017-01-08T09:14:18.981Z</time>
      </trkpt>
      <trkpt lat="47.77521" lon="2.16963">
        <ele>141</ele>
        <time>2017-01-08T09:14:19.988Z</time>
      </trkpt>
      <trkpt lat="47.77521" lon="2.16963">
        <ele>141</ele>
        <time>2017-01-08T09:14:20.989Z</time>
      </trkpt>
      <trkpt lat="47.77509" lon="2.16962">
        <ele>141</ele>
        <time>2017-01-08T09:14:21.991Z</time>
      </trkpt>
      <trkpt lat="47.77509" lon="2.16962">
        <ele>141</ele>
        <time>2017-01-08T09:14:22.987Z</time>
      </trkpt>
      <trkpt lat="47.77497" lon="2.1696">
        <ele>141</ele>
        <time>2017-01-08T09:14:23.992Z</time>
      </trkpt>
      <trkpt lat="47.77497" lon="2.1696">
        <ele>141</ele>
        <time>2017-01-08T09:14:24.989Z</time>
      </trkpt>
      <trkpt lat="47.77485" lon="2.1696">
        <ele>141</ele>
        <time>2017-01-08T09:14:25.992Z</time>
      </trkpt>
      <trkpt lat="47.77485" lon="2.1696">
        <ele>141</ele>
        <time>2017-01-08T09:14:26.981Z</time>
      </trkpt>
      <trkpt lat="47.77473" lon="2.16958">
        <ele>141</ele>
        <time>2017-01-08T09:14:27.979Z</time>
      </trkpt>
      <trkpt lat="47.77473" lon="2.16958">
        <ele>141</ele>
        <time>2017-01-08T09:14:28.990Z</time>
      </trkpt>
      <trkpt lat="47.7746" lon="2.16956">
        <ele>141</ele>
        <time>2017-01-08T09:14:29.993Z</time>
      </trkpt>
      <trkpt lat="47.7746" lon="2.16956">
        <ele>141</ele>
        <time>2017-01-08T09:14:30.987Z</time>
      </trkpt>
      <trkpt lat="47.77448" lon="2.16955">
        <ele>140</ele>
        <time>2017-01-08T09:14:31.990Z</time>
      </trkpt>
      <trkpt lat="47.77448" lon="2.16955">
        <ele>140</ele>
        <time>2017-01-08T09:14:32.956Z</time>
      </trkpt>
      <trkpt lat="47.77436" lon="2.16955">
        <ele>140</ele>
        <time>2017-01-08T09:14:33.991Z</time>
      </trkpt>
      <trkpt lat="47.77436" lon="2.16955">
        <ele>140</ele>
        <time>2017-01-08T09:14:34.988Z</time>
      </trkpt>
      <trkpt lat="47.77424" lon="2.16955">
        <ele>140</ele>
        <time>2017-01-08T09:14:35.992Z</time>
      </trkpt>
      <trkpt lat="47.77424" lon="2.16955">
        <ele>140</ele>
        <time>2017-01-08T09:14:36.988Z</time>
      </trkpt>
      <trkpt lat="47.77412" lon="2.16957">
        <ele>140</ele>
        <time>2017-01-08T09:14:37.989Z</time>
      </trkpt>
      <trkpt lat="47.77412" lon="2.16957">
        <ele>140</ele>
        <time>2017-01-08T09:14:38.989Z</time>
      </trkpt>
      <trkpt lat="47.774" lon="2.16958">
        <ele>139</ele>
        <time>2017-01-08T09:14:39.989Z</time>
      </trkpt>
      <trkpt lat="47.77394" lon="2.16959">
        <ele>139</ele>
        <time>2017-01-08T09:14:40.992Z</time>
      </trkpt>
      <trkpt lat="47.77394" lon="2.16959">
        <ele>139</ele>
        <time>2017-01-08T09:14:41.981Z</time>
      </trkpt>
      <trkpt lat="47.77382" lon="2.16963">
        <ele>139</ele>
        <time>2017-01-08T09:14:42.961Z</time>
      </trkpt>
      <trkpt lat="47.77376" lon="2.16965">
        <ele>139</ele>
        <time>2017-01-08T09:14:43.992Z</time>
      </trkpt>
      <trkpt lat="47.77376" lon="2.16965">
        <ele>139</ele>
        <time>2017-01-08T09:14:44.989Z</time>
      </trkpt>
      <trkpt lat="47.77364" lon="2.16969">
        <ele>138</ele>
        <time>2017-01-08T09:14:45.990Z</time>
      </trkpt>
      <trkpt lat="47.77359" lon="2.16971">
        <ele>139</ele>
        <time>2017-01-08T09:14:46.990Z</time>
      </trkpt>
      <trkpt lat="47.77359" lon="2.16971">
        <ele>139</ele>
        <time>2017-01-08T09:14:47.990Z</time>
      </trkpt>
      <trkpt lat="47.77347" lon="2.16975">
        <ele>138</ele>
        <time>2017-01-08T09:14:48.992Z</time>
      </trkpt>
      <trkpt lat="47.77347" lon="2.16975">
        <ele>138</ele>
        <time>2017-01-08T09:14:49.988Z</time>
      </trkpt>
      <trkpt lat="47.77336" lon="2.16977">
        <ele>138</ele>
        <time>2017-01-08T09:14:50.992Z</time>
      </trkpt>
      <trkpt lat="47.77336" lon="2.16977">
        <ele>138</ele>
        <time>2017-01-08T09:14:51.989Z</time>
      </trkpt>
      <trkpt lat="47.77324" lon="2.1698">
        <ele>138</ele>
        <time>2017-01-08T09:14:52.993Z</time>
      </trkpt>
      <trkpt lat="47.77318" lon="2.16982">
        <ele>137</ele>
        <time>2017-01-08T09:14:53.990Z</time>
      </trkpt>
      <trkpt lat="47.77318" lon="2.16982">
        <ele>137</ele>
        <time>2017-01-08T09:14:54.987Z</time>
      </trkpt>
      <trkpt lat="47.77307" lon="2.16984">
        <ele>138</ele>
        <time>2017-01-08T09:14:55.993Z</time>
      </trkpt>
      <trkpt lat="47.77307" lon="2.16984">
        <ele>138</ele>
        <time>2017-01-08T09:14:56.989Z</time>
      </trkpt>
      <trkpt lat="47.77307" lon="2.16984">
        <ele>138</ele>
        <time>2017-01-08T09:14:57.958Z</time>
      </trkpt>
      <trkpt lat="47.77295" lon="2.16987">
        <ele>139</ele>
        <time>2017-01-08T09:14:58.962Z</time>
      </trkpt>
      <trkpt lat="47.77285" lon="2.16989">
        <ele>139</ele>
        <time>2017-01-08T09:14:59.993Z</time>
      </trkpt>
      <trkpt lat="47.77285" lon="2.16989">
        <ele>139</ele>
        <time>2017-01-08T09:15:00.989Z</time>
      </trkpt>
      <trkpt lat="47.77276" lon="2.1699">
        <ele>139</ele>
        <time>2017-01-08T09:15:01.991Z</time>
      </trkpt>
      <trkpt lat="47.77276" lon="2.1699">
        <ele>139</ele>
        <time>2017-01-08T09:15:02.958Z</time>
      </trkpt>
      <trkpt lat="47.77267" lon="2.16991">
        <ele>139</ele>
        <time>2017-01-08T09:15:03.992Z</time>
      </trkpt>
      <trkpt lat="47.77267" lon="2.16991">
        <ele>139</ele>
        <time>2017-01-08T09:15:04.963Z</time>
      </trkpt>
      <trkpt lat="47.77258" lon="2.16992">
        <ele>138</ele>
        <time>2017-01-08T09:15:05.993Z</time>
      </trkpt>
      <trkpt lat="47.77254" lon="2.16993">
        <ele>138</ele>
        <time>2017-01-08T09:15:06.992Z</time>
      </trkpt>
      <trkpt lat="47.77254" lon="2.16993">
        <ele>138</ele>
        <time>2017-01-08T09:15:07.979Z</time>
      </trkpt>
      <trkpt lat="47.77247" lon="2.16995">
        <ele>138</ele>
        <time>2017-01-08T09:15:08.992Z</time>
      </trkpt>
      <trkpt lat="47.77244" lon="2.16996">
        <ele>137</ele>
        <time>2017-01-08T09:15:09.992Z</time>
      </trkpt>
      <trkpt lat="47.77244" lon="2.16996">
        <ele>137</ele>
        <time>2017-01-08T09:15:10.991Z</time>
      </trkpt>
      <trkpt lat="47.77238" lon="2.16996">
        <ele>137</ele>
        <time>2017-01-08T09:15:11.993Z</time>
      </trkpt>
      <trkpt lat="47.77238" lon="2.16996">
        <ele>137</ele>
        <time>2017-01-08T09:15:12.990Z</time>
      </trkpt>
      <trkpt lat="47.77236" lon="2.16996">
        <ele>137</ele>
        <time>2017-01-08T09:15:13.992Z</time>
      </trkpt>
      <trkpt lat="47.77235" lon="2.16996">
        <ele>137</ele>
        <time>2017-01-08T09:15:14.992Z</time>
      </trkpt>
      <trkpt lat="47.77235" lon="2.16996">
        <ele>137</ele>
        <time>2017-01-08T09:15:15.960Z</time>
      </trkpt>
      <trkpt lat="47.77234" lon="2.16996">
        <ele>138</ele>
        <time>2017-01-08T09:15:16.992Z</time>
      </trkpt>
      <trkpt lat="47.77234" lon="2.16996">
        <ele>138</ele>
        <time>2017-01-08T09:15:17.993Z</time>
      </trkpt>
      <trkpt lat="47.77229" lon="2.16991">
        <ele>140</ele>
        <time>2017-01-08T09:15:18.968Z</time>
      </trkpt>
      <trkpt lat="47.77229" lon="2.16991">
        <ele>140</ele>
        <time>2017-01-08T09:15:19.963Z</time>
      </trkpt>
      <trkpt lat="47.77228" lon="2.16986">
        <ele>140</ele>
        <time>2017-01-08T09:15:20.969Z</time>
      </trkpt>
      <trkpt lat="47.77228" lon="2.16986">
        <ele>140</ele>
        <time>2017-01-08T09:15:21.984Z</time>
      </trkpt>
      <trkpt lat="47.77228" lon="2.1698">
        <ele>140</ele>
        <time>2017-01-08T09:15:22.988Z</time>
      </trkpt>
      <trkpt lat="47.77228" lon="2.16976">
        <ele>140</ele>
        <time>2017-01-08T09:15:23.969Z</time>
      </trkpt>
      <trkpt lat="47.77228" lon="2.16976">
        <ele>140</ele>
        <time>2017-01-08T09:15:24.963Z</time>
      </trkpt>
      <trkpt lat="47.77228" lon="2.16968">
        <ele>140</ele>
        <time>2017-01-08T09:15:25.969Z</time>
      </trkpt>
      <trkpt lat="47.77227" lon="2.16964">
        <ele>140</ele>
        <time>2017-01-08T09:15:26.969Z</time>
      </trkpt>
      <trkpt lat="47.77227" lon="2.16964">
        <ele>140</ele>
        <time>2017-01-08T09:15:27.971Z</time>
      </trkpt>
      <trkpt lat="47.77227" lon="2.16954">
        <ele>140</ele>
        <time>2017-01-08T09:15:28.968Z</time>
      </trkpt>
      <trkpt lat="47.77227" lon="2.1695">
        <ele>140</ele>
        <time>2017-01-08T09:15:29.967Z</time>
      </trkpt>
      <trkpt lat="47.77227" lon="2.1695">
        <ele>140</ele>
        <time>2017-01-08T09:15:30.966Z</time>
      </trkpt>
      <trkpt lat="47.77227" lon="2.1694">
        <ele>140</ele>
        <time>2017-01-08T09:15:31.966Z</time>
      </trkpt>
      <trkpt lat="47.77226" lon="2.16935">
        <ele>140</ele>
        <time>2017-01-08T09:15:32.970Z</time>
      </trkpt>
      <trkpt lat="47.77226" lon="2.16935">
        <ele>140</ele>
        <time>2017-01-08T09:15:33.963Z</time>
      </trkpt>
      <trkpt lat="47.77226" lon="2.16926">
        <ele>140</ele>
        <time>2017-01-08T09:15:34.968Z</time>
      </trkpt>
      <trkpt lat="47.77226" lon="2.16926">
        <ele>140</ele>
        <time>2017-01-08T09:15:35.965Z</time>
      </trkpt>
      <trkpt lat="47.77226" lon="2.16916">
        <ele>141</ele>
        <time>2017-01-08T09:15:36.968Z</time>
      </trkpt>
      <trkpt lat="47.77226" lon="2.16912">
        <ele>141</ele>
        <time>2017-01-08T09:15:37.969Z</time>
      </trkpt>
      <trkpt lat="47.77226" lon="2.16907">
        <ele>141</ele>
        <time>2017-01-08T09:15:38.969Z</time>
      </trkpt>
      <trkpt lat="47.77226" lon="2.16907">
        <ele>141</ele>
        <time>2017-01-08T09:15:39.966Z</time>
      </trkpt>
      <trkpt lat="47.77226" lon="2.16901">
        <ele>141</ele>
        <time>2017-01-08T09:15:40.969Z</time>
      </trkpt>
      <trkpt lat="47.77226" lon="2.16901">
        <ele>141</ele>
        <time>2017-01-08T09:15:41.958Z</time>
      </trkpt>
      <trkpt lat="47.77226" lon="2.16896">
        <ele>141</ele>
        <time>2017-01-08T09:15:42.967Z</time>
      </trkpt>
      <trkpt lat="47.77226" lon="2.16896">
        <ele>141</ele>
        <time>2017-01-08T09:15:43.966Z</time>
      </trkpt>
      <trkpt lat="47.77226" lon="2.16895">
        <ele>141</ele>
        <time>2017-01-08T09:15:44.968Z</time>
      </trkpt>
      <trkpt lat="47.77226" lon="2.16895">
        <ele>141</ele>
        <time>2017-01-08T09:15:45.965Z</time>
      </trkpt>
      <trkpt lat="47.77227" lon="2.16895">
        <ele>141</ele>
        <time>2017-01-08T09:15:46.968Z</time>
      </trkpt>
      <trkpt lat="47.77227" lon="2.16895">
        <ele>141</ele>
        <time>2017-01-08T09:15:47.980Z</time>
      </trkpt>
      <trkpt lat="47.77224" lon="2.16885">
        <ele>140</ele>
        <time>2017-01-08T09:15:48.977Z</time>
      </trkpt>
      <trkpt lat="47.77224" lon="2.16882">
        <ele>140</ele>
        <time>2017-01-08T09:15:49.965Z</time>
      </trkpt>
      <trkpt lat="47.77225" lon="2.16879">
        <ele>140</ele>
        <time>2017-01-08T09:15:50.960Z</time>
      </trkpt>
      <trkpt lat="47.77225" lon="2.16879">
        <ele>140</ele>
        <time>2017-01-08T09:15:51.957Z</time>
      </trkpt>
      <trkpt lat="47.77225" lon="2.16875">
        <ele>140</ele>
        <time>2017-01-08T09:15:52.958Z</time>
      </trkpt>
      <trkpt lat="47.77225" lon="2.16875">
        <ele>140</ele>
        <time>2017-01-08T09:15:53.966Z</time>
      </trkpt>
      <trkpt lat="47.77225" lon="2.16874">
        <ele>139</ele>
        <time>2017-01-08T09:15:54.956Z</time>
      </trkpt>
      <trkpt lat="47.77225" lon="2.16874">
        <ele>139</ele>
        <time>2017-01-08T09:15:55.956Z</time>
      </trkpt>
      <trkpt lat="47.77225" lon="2.16874">
        <ele>139</ele>
        <time>2017-01-08T09:15:56.992Z</time>
      </trkpt>
      <trkpt lat="47.77224" lon="2.16873">
        <ele>139</ele>
        <time>2017-01-08T09:15:57.969Z</time>
      </trkpt>
      <trkpt lat="47.77224" lon="2.16873">
        <ele>139</ele>
        <time>2017-01-08T09:15:58.964Z</time>
      </trkpt>
      <trkpt lat="47.77224" lon="2.16855">
        <ele>140</ele>
        <time>2017-01-08T09:15:59.993Z</time>
      </trkpt>
      <trkpt lat="47.77223" lon="2.16849">
        <ele>140</ele>
        <time>2017-01-08T09:16:00.973Z</time>
      </trkpt>
      <trkpt lat="47.77223" lon="2.16849">
        <ele>140</ele>
        <time>2017-01-08T09:16:01.968Z</time>
      </trkpt>
      <trkpt lat="47.77222" lon="2.16835">
        <ele>140</ele>
        <time>2017-01-08T09:16:02.965Z</time>
      </trkpt>
      <trkpt lat="47.77222" lon="2.16827">
        <ele>140</ele>
        <time>2017-01-08T09:16:03.980Z</time>
      </trkpt>
      <trkpt lat="47.77222" lon="2.16827">
        <ele>140</ele>
        <time>2017-01-08T09:16:04.958Z</time>
      </trkpt>
      <trkpt lat="47.77222" lon="2.16811">
        <ele>140</ele>
        <time>2017-01-08T09:16:05.963Z</time>
      </trkpt>
      <trkpt lat="47.77222" lon="2.16811">
        <ele>140</ele>
        <time>2017-01-08T09:16:06.964Z</time>
      </trkpt>
      <trkpt lat="47.77222" lon="2.16793">
        <ele>140</ele>
        <time>2017-01-08T09:16:07.964Z</time>
      </trkpt>
      <trkpt lat="47.77222" lon="2.16793">
        <ele>140</ele>
        <time>2017-01-08T09:16:08.962Z</time>
      </trkpt>
      <trkpt lat="47.77224" lon="2.16776">
        <ele>141</ele>
        <time>2017-01-08T09:16:09.968Z</time>
      </trkpt>
      <trkpt lat="47.77224" lon="2.16767">
        <ele>141</ele>
        <time>2017-01-08T09:16:10.967Z</time>
      </trkpt>
      <trkpt lat="47.77224" lon="2.16767">
        <ele>141</ele>
        <time>2017-01-08T09:16:11.960Z</time>
      </trkpt>
      <trkpt lat="47.77225" lon="2.16752">
        <ele>141</ele>
        <time>2017-01-08T09:16:12.965Z</time>
      </trkpt>
      <trkpt lat="47.77225" lon="2.16745">
        <ele>141</ele>
        <time>2017-01-08T09:16:13.965Z</time>
      </trkpt>
      <trkpt lat="47.77225" lon="2.16737">
        <ele>141</ele>
        <time>2017-01-08T09:16:14.965Z</time>
      </trkpt>
      <trkpt lat="47.77225" lon="2.16737">
        <ele>141</ele>
        <time>2017-01-08T09:16:15.961Z</time>
      </trkpt>
      <trkpt lat="47.77222" lon="2.16722">
        <ele>142</ele>
        <time>2017-01-08T09:16:16.969Z</time>
      </trkpt>
      <trkpt lat="47.77222" lon="2.16722">
        <ele>142</ele>
        <time>2017-01-08T09:16:17.967Z</time>
      </trkpt>
      <trkpt lat="47.77216" lon="2.16708">
        <ele>142</ele>
        <time>2017-01-08T09:16:18.966Z</time>
      </trkpt>
      <trkpt lat="47.77212" lon="2.16702">
        <ele>142</ele>
        <time>2017-01-08T09:16:19.966Z</time>
      </trkpt>
      <trkpt lat="47.77212" lon="2.16702">
        <ele>142</ele>
        <time>2017-01-08T09:16:20.960Z</time>
      </trkpt>
      <trkpt lat="47.77205" lon="2.16689">
        <ele>142</ele>
        <time>2017-01-08T09:16:21.967Z</time>
      </trkpt>
      <trkpt lat="47.77205" lon="2.16689">
        <ele>142</ele>
        <time>2017-01-08T09:16:22.977Z</time>
      </trkpt>
      <trkpt lat="47.77201" lon="2.16673">
        <ele>142</ele>
        <time>2017-01-08T09:16:23.968Z</time>
      </trkpt>
      <trkpt lat="47.772" lon="2.16664">
        <ele>142</ele>
        <time>2017-01-08T09:16:24.965Z</time>
      </trkpt>
      <trkpt lat="47.772" lon="2.16664">
        <ele>142</ele>
        <time>2017-01-08T09:16:25.961Z</time>
      </trkpt>
      <trkpt lat="47.772" lon="2.16646">
        <ele>143</ele>
        <time>2017-01-08T09:16:26.966Z</time>
      </trkpt>
      <trkpt lat="47.772" lon="2.16646">
        <ele>143</ele>
        <time>2017-01-08T09:16:27.990Z</time>
      </trkpt>
      <trkpt lat="47.77201" lon="2.16629">
        <ele>143</ele>
        <time>2017-01-08T09:16:28.964Z</time>
      </trkpt>
      <trkpt lat="47.77201" lon="2.16629">
        <ele>143</ele>
        <time>2017-01-08T09:16:29.960Z</time>
      </trkpt>
      <trkpt lat="47.77203" lon="2.16612">
        <ele>143</ele>
        <time>2017-01-08T09:16:30.966Z</time>
      </trkpt>
      <trkpt lat="47.77204" lon="2.16604">
        <ele>143</ele>
        <time>2017-01-08T09:16:31.966Z</time>
      </trkpt>
      <trkpt lat="47.77204" lon="2.16604">
        <ele>143</ele>
        <time>2017-01-08T09:16:32.961Z</time>
      </trkpt>
      <trkpt lat="47.77206" lon="2.16586">
        <ele>143</ele>
        <time>2017-01-08T09:16:33.967Z</time>
      </trkpt>
      <trkpt lat="47.77207" lon="2.16577">
        <ele>143</ele>
        <time>2017-01-08T09:16:34.964Z</time>
      </trkpt>
      <trkpt lat="47.77207" lon="2.16577">
        <ele>143</ele>
        <time>2017-01-08T09:16:35.963Z</time>
      </trkpt>
      <trkpt lat="47.77208" lon="2.16562">
        <ele>143</ele>
        <time>2017-01-08T09:16:36.963Z</time>
      </trkpt>
      <trkpt lat="47.77209" lon="2.16554">
        <ele>143</ele>
        <time>2017-01-08T09:16:37.962Z</time>
      </trkpt>
      <trkpt lat="47.77209" lon="2.16554">
        <ele>143</ele>
        <time>2017-01-08T09:16:38.963Z</time>
      </trkpt>
      <trkpt lat="47.77211" lon="2.16538">
        <ele>144</ele>
        <time>2017-01-08T09:16:39.965Z</time>
      </trkpt>
      <trkpt lat="47.77211" lon="2.16529">
        <ele>144</ele>
        <time>2017-01-08T09:16:40.966Z</time>
      </trkpt>
      <trkpt lat="47.77211" lon="2.16529">
        <ele>144</ele>
        <time>2017-01-08T09:16:41.960Z</time>
      </trkpt>
      <trkpt lat="47.77213" lon="2.16513">
        <ele>144</ele>
        <time>2017-01-08T09:16:42.966Z</time>
      </trkpt>
      <trkpt lat="47.77214" lon="2.16505">
        <ele>144</ele>
        <time>2017-01-08T09:16:43.965Z</time>
      </trkpt>
      <trkpt lat="47.77215" lon="2.16497">
        <ele>144</ele>
        <time>2017-01-08T09:16:44.965Z</time>
      </trkpt>
      <trkpt lat="47.77215" lon="2.16497">
        <ele>144</ele>
        <time>2017-01-08T09:16:45.962Z</time>
      </trkpt>
      <trkpt lat="47.77216" lon="2.16481">
        <ele>143</ele>
        <time>2017-01-08T09:16:46.963Z</time>
      </trkpt>
      <trkpt lat="47.77216" lon="2.16481">
        <ele>143</ele>
        <time>2017-01-08T09:16:47.960Z</time>
      </trkpt>
      <trkpt lat="47.77218" lon="2.16464">
        <ele>143</ele>
        <time>2017-01-08T09:16:48.966Z</time>
      </trkpt>
      <trkpt lat="47.77218" lon="2.16464">
        <ele>143</ele>
        <time>2017-01-08T09:16:49.963Z</time>
      </trkpt>
      <trkpt lat="47.77219" lon="2.16447">
        <ele>143</ele>
        <time>2017-01-08T09:16:50.966Z</time>
      </trkpt>
      <trkpt lat="47.77219" lon="2.16447">
        <ele>143</ele>
        <time>2017-01-08T09:16:51.963Z</time>
      </trkpt>
      <trkpt lat="47.77221" lon="2.16431">
        <ele>143</ele>
        <time>2017-01-08T09:16:52.977Z</time>
      </trkpt>
      <trkpt lat="47.77221" lon="2.16431">
        <ele>143</ele>
        <time>2017-01-08T09:16:53.978Z</time>
      </trkpt>
      <trkpt lat="47.77223" lon="2.16416">
        <ele>143</ele>
        <time>2017-01-08T09:16:54.968Z</time>
      </trkpt>
      <trkpt lat="47.77223" lon="2.16408">
        <ele>143</ele>
        <time>2017-01-08T09:16:55.966Z</time>
      </trkpt>
      <trkpt lat="47.77223" lon="2.16408">
        <ele>143</ele>
        <time>2017-01-08T09:16:56.964Z</time>
      </trkpt>
      <trkpt lat="47.77225" lon="2.16392">
        <ele>143</ele>
        <time>2017-01-08T09:16:57.968Z</time>
      </trkpt>
      <trkpt lat="47.77226" lon="2.16385">
        <ele>144</ele>
        <time>2017-01-08T09:16:58.964Z</time>
      </trkpt>
      <trkpt lat="47.77226" lon="2.16385">
        <ele>144</ele>
        <time>2017-01-08T09:16:59.961Z</time>
      </trkpt>
      <trkpt lat="47.77229" lon="2.1637">
        <ele>144</ele>
        <time>2017-01-08T09:17:00.967Z</time>
      </trkpt>
      <trkpt lat="47.77229" lon="2.1637">
        <ele>144</ele>
        <time>2017-01-08T09:17:01.964Z</time>
      </trkpt>
      <trkpt lat="47.77231" lon="2.16355">
        <ele>145</ele>
        <time>2017-01-08T09:17:02.972Z</time>
      </trkpt>
      <trkpt lat="47.77231" lon="2.16355">
        <ele>145</ele>
        <time>2017-01-08T09:17:03.991Z</time>
      </trkpt>
      <trkpt lat="47.77234" lon="2.16339">
        <ele>145</ele>
        <time>2017-01-08T09:17:04.983Z</time>
      </trkpt>
      <trkpt lat="47.77234" lon="2.16339">
        <ele>145</ele>
        <time>2017-01-08T09:17:05.990Z</time>
      </trkpt>
      <trkpt lat="47.77236" lon="2.16326">
        <ele>145</ele>
        <time>2017-01-08T09:17:06.955Z</time>
      </trkpt>
      <trkpt lat="47.77236" lon="2.16326">
        <ele>145</ele>
        <time>2017-01-08T09:17:07.961Z</time>
      </trkpt>
      <trkpt lat="47.77239" lon="2.16311">
        <ele>146</ele>
        <time>2017-01-08T09:17:08.992Z</time>
      </trkpt>
      <trkpt lat="47.77239" lon="2.16311">
        <ele>146</ele>
        <time>2017-01-08T09:17:09.962Z</time>
      </trkpt>
      <trkpt lat="47.77242" lon="2.16299">
        <ele>147</ele>
        <time>2017-01-08T09:17:10.964Z</time>
      </trkpt>
      <trkpt lat="47.77242" lon="2.16299">
        <ele>147</ele>
        <time>2017-01-08T09:17:11.971Z</time>
      </trkpt>
      <trkpt lat="47.77244" lon="2.16285">
        <ele>147</ele>
        <time>2017-01-08T09:17:12.965Z</time>
      </trkpt>
      <trkpt lat="47.77246" lon="2.16277">
        <ele>147</ele>
        <time>2017-01-08T09:17:13.972Z</time>
      </trkpt>
      <trkpt lat="47.77246" lon="2.16277">
        <ele>147</ele>
        <time>2017-01-08T09:17:14.963Z</time>
      </trkpt>
      <trkpt lat="47.77251" lon="2.16262">
        <ele>148</ele>
        <time>2017-01-08T09:17:15.966Z</time>
      </trkpt>
      <trkpt lat="47.77251" lon="2.16262">
        <ele>148</ele>
        <time>2017-01-08T09:17:16.964Z</time>
      </trkpt>
      <trkpt lat="47.77254" lon="2.16247">
        <ele>148</ele>
        <time>2017-01-08T09:17:17.966Z</time>
      </trkpt>
      <trkpt lat="47.77254" lon="2.16247">
        <ele>148</ele>
        <time>2017-01-08T09:17:18.956Z</time>
      </trkpt>
      <trkpt lat="47.77258" lon="2.1623">
        <ele>148</ele>
        <time>2017-01-08T09:17:19.966Z</time>
      </trkpt>
      <trkpt lat="47.77258" lon="2.1623">
        <ele>148</ele>
        <time>2017-01-08T09:17:20.964Z</time>
      </trkpt>
      <trkpt lat="47.77261" lon="2.16213">
        <ele>148</ele>
        <time>2017-01-08T09:17:21.967Z</time>
      </trkpt>
      <trkpt lat="47.77261" lon="2.16213">
        <ele>148</ele>
        <time>2017-01-08T09:17:22.968Z</time>
      </trkpt>
      <trkpt lat="47.77264" lon="2.16194">
        <ele>148</ele>
        <time>2017-01-08T09:17:23.992Z</time>
      </trkpt>
      <trkpt lat="47.77264" lon="2.16194">
        <ele>148</ele>
        <time>2017-01-08T09:17:24.994Z</time>
      </trkpt>
      <trkpt lat="47.77267" lon="2.16174">
        <ele>147</ele>
        <time>2017-01-08T09:17:25.966Z</time>
      </trkpt>
      <trkpt lat="47.77267" lon="2.16174">
        <ele>147</ele>
        <time>2017-01-08T09:17:26.960Z</time>
      </trkpt>
      <trkpt lat="47.77269" lon="2.16152">
        <ele>146</ele>
        <time>2017-01-08T09:17:27.969Z</time>
      </trkpt>
      <trkpt lat="47.77269" lon="2.16152">
        <ele>146</ele>
        <time>2017-01-08T09:17:28.964Z</time>
      </trkpt>
      <trkpt lat="47.77271" lon="2.16132">
        <ele>145</ele>
        <time>2017-01-08T09:17:29.967Z</time>
      </trkpt>
      <trkpt lat="47.77271" lon="2.16132">
        <ele>145</ele>
        <time>2017-01-08T09:17:30.970Z</time>
      </trkpt>
      <trkpt lat="47.77274" lon="2.16114">
        <ele>144</ele>
        <time>2017-01-08T09:17:31.966Z</time>
      </trkpt>
      <trkpt lat="47.77274" lon="2.16114">
        <ele>144</ele>
        <time>2017-01-08T09:17:32.977Z</time>
      </trkpt>
      <trkpt lat="47.77275" lon="2.16096">
        <ele>144</ele>
        <time>2017-01-08T09:17:33.967Z</time>
      </trkpt>
      <trkpt lat="47.77276" lon="2.16088">
        <ele>143</ele>
        <time>2017-01-08T09:17:34.964Z</time>
      </trkpt>
      <trkpt lat="47.77276" lon="2.16088">
        <ele>143</ele>
        <time>2017-01-08T09:17:35.954Z</time>
      </trkpt>
      <trkpt lat="47.77279" lon="2.16074">
        <ele>143</ele>
        <time>2017-01-08T09:17:36.967Z</time>
      </trkpt>
      <trkpt lat="47.77279" lon="2.16074">
        <ele>143</ele>
        <time>2017-01-08T09:17:37.960Z</time>
      </trkpt>
      <trkpt lat="47.77281" lon="2.16059">
        <ele>142</ele>
        <time>2017-01-08T09:17:38.965Z</time>
      </trkpt>
      <trkpt lat="47.77282" lon="2.16052">
        <ele>142</ele>
        <time>2017-01-08T09:17:39.968Z</time>
      </trkpt>
      <trkpt lat="47.77282" lon="2.16052">
        <ele>142</ele>
        <time>2017-01-08T09:17:40.960Z</time>
      </trkpt>
      <trkpt lat="47.77284" lon="2.16037">
        <ele>143</ele>
        <time>2017-01-08T09:17:41.965Z</time>
      </trkpt>
      <trkpt lat="47.77284" lon="2.16037">
        <ele>143</ele>
        <time>2017-01-08T09:17:42.991Z</time>
      </trkpt>
      <trkpt lat="47.77286" lon="2.16021">
        <ele>142</ele>
        <time>2017-01-08T09:17:43.966Z</time>
      </trkpt>
      <trkpt lat="47.77287" lon="2.16013">
        <ele>143</ele>
        <time>2017-01-08T09:17:44.966Z</time>
      </trkpt>
      <trkpt lat="47.77287" lon="2.16013">
        <ele>143</ele>
        <time>2017-01-08T09:17:45.962Z</time>
      </trkpt>
      <trkpt lat="47.77289" lon="2.15997">
        <ele>142</ele>
        <time>2017-01-08T09:17:46.964Z</time>
      </trkpt>
      <trkpt lat="47.77289" lon="2.15997">
        <ele>142</ele>
        <time>2017-01-08T09:17:47.965Z</time>
      </trkpt>
      <trkpt lat="47.77291" lon="2.15982">
        <ele>142</ele>
        <time>2017-01-08T09:17:48.968Z</time>
      </trkpt>
      <trkpt lat="47.77292" lon="2.15975">
        <ele>142</ele>
        <time>2017-01-08T09:17:49.962Z</time>
      </trkpt>
      <trkpt lat="47.77292" lon="2.15975">
        <ele>142</ele>
        <time>2017-01-08T09:17:50.963Z</time>
      </trkpt>
      <trkpt lat="47.77293" lon="2.15961">
        <ele>142</ele>
        <time>2017-01-08T09:17:51.968Z</time>
      </trkpt>
      <trkpt lat="47.77293" lon="2.15961">
        <ele>142</ele>
        <time>2017-01-08T09:17:52.955Z</time>
      </trkpt>
      <trkpt lat="47.77295" lon="2.15946">
        <ele>142</ele>
        <time>2017-01-08T09:17:53.963Z</time>
      </trkpt>
      <trkpt lat="47.77296" lon="2.15939">
        <ele>142</ele>
        <time>2017-01-08T09:17:54.966Z</time>
      </trkpt>
      <trkpt lat="47.77296" lon="2.15939">
        <ele>142</ele>
        <time>2017-01-08T09:17:55.964Z</time>
      </trkpt>
      <trkpt lat="47.77297" lon="2.15924">
        <ele>142</ele>
        <time>2017-01-08T09:17:56.967Z</time>
      </trkpt>
      <trkpt lat="47.77297" lon="2.15916">
        <ele>141</ele>
        <time>2017-01-08T09:17:57.966Z</time>
      </trkpt>
      <trkpt lat="47.77297" lon="2.15916">
        <ele>141</ele>
        <time>2017-01-08T09:17:58.964Z</time>
      </trkpt>
      <trkpt lat="47.77299" lon="2.159">
        <ele>141</ele>
        <time>2017-01-08T09:17:59.965Z</time>
      </trkpt>
      <trkpt lat="47.77299" lon="2.159">
        <ele>141</ele>
        <time>2017-01-08T09:18:00.964Z</time>
      </trkpt>
      <trkpt lat="47.77301" lon="2.15885">
        <ele>141</ele>
        <time>2017-01-08T09:18:01.967Z</time>
      </trkpt>
      <trkpt lat="47.77301" lon="2.15885">
        <ele>141</ele>
        <time>2017-01-08T09:18:02.960Z</time>
      </trkpt>
      <trkpt lat="47.77302" lon="2.15869">
        <ele>140</ele>
        <time>2017-01-08T09:18:03.975Z</time>
      </trkpt>
      <trkpt lat="47.77302" lon="2.15869">
        <ele>140</ele>
        <time>2017-01-08T09:18:04.961Z</time>
      </trkpt>
      <trkpt lat="47.77304" lon="2.15853">
        <ele>140</ele>
        <time>2017-01-08T09:18:05.964Z</time>
      </trkpt>
      <trkpt lat="47.77304" lon="2.15853">
        <ele>140</ele>
        <time>2017-01-08T09:18:06.954Z</time>
      </trkpt>
      <trkpt lat="47.77306" lon="2.15838">
        <ele>139</ele>
        <time>2017-01-08T09:18:07.963Z</time>
      </trkpt>
      <trkpt lat="47.77307" lon="2.1583">
        <ele>139</ele>
        <time>2017-01-08T09:18:08.967Z</time>
      </trkpt>
      <trkpt lat="47.77307" lon="2.1583">
        <ele>139</ele>
        <time>2017-01-08T09:18:09.965Z</time>
      </trkpt>
      <trkpt lat="47.77309" lon="2.15815">
        <ele>139</ele>
        <time>2017-01-08T09:18:10.965Z</time>
      </trkpt>
      <trkpt lat="47.77309" lon="2.15815">
        <ele>139</ele>
        <time>2017-01-08T09:18:11.961Z</time>
      </trkpt>
      <trkpt lat="47.77311" lon="2.15799">
        <ele>139</ele>
        <time>2017-01-08T09:18:12.968Z</time>
      </trkpt>
      <trkpt lat="47.77311" lon="2.15799">
        <ele>139</ele>
        <time>2017-01-08T09:18:13.964Z</time>
      </trkpt>
      <trkpt lat="47.77312" lon="2.15784">
        <ele>139</ele>
        <time>2017-01-08T09:18:14.971Z</time>
      </trkpt>
      <trkpt lat="47.77313" lon="2.15776">
        <ele>138</ele>
        <time>2017-01-08T09:18:15.976Z</time>
      </trkpt>
      <trkpt lat="47.77313" lon="2.15776">
        <ele>138</ele>
        <time>2017-01-08T09:18:16.965Z</time>
      </trkpt>
      <trkpt lat="47.77314" lon="2.15761">
        <ele>137</ele>
        <time>2017-01-08T09:18:17.966Z</time>
      </trkpt>
      <trkpt lat="47.77314" lon="2.15754">
        <ele>137</ele>
        <time>2017-01-08T09:18:18.966Z</time>
      </trkpt>
      <trkpt lat="47.77314" lon="2.15754">
        <ele>137</ele>
        <time>2017-01-08T09:18:19.960Z</time>
      </trkpt>
      <trkpt lat="47.77314" lon="2.15739">
        <ele>137</ele>
        <time>2017-01-08T09:18:20.966Z</time>
      </trkpt>
      <trkpt lat="47.77313" lon="2.15732">
        <ele>137</ele>
        <time>2017-01-08T09:18:21.967Z</time>
      </trkpt>
      <trkpt lat="47.77313" lon="2.15732">
        <ele>137</ele>
        <time>2017-01-08T09:18:22.990Z</time>
      </trkpt>
      <trkpt lat="47.77309" lon="2.15719">
        <ele>137</ele>
        <time>2017-01-08T09:18:23.978Z</time>
      </trkpt>
      <trkpt lat="47.77306" lon="2.15714">
        <ele>137</ele>
        <time>2017-01-08T09:18:24.967Z</time>
      </trkpt>
      <trkpt lat="47.77306" lon="2.15714">
        <ele>137</ele>
        <time>2017-01-08T09:18:25.961Z</time>
      </trkpt>
      <trkpt lat="47.773" lon="2.15703">
        <ele>137</ele>
        <time>2017-01-08T09:18:26.967Z</time>
      </trkpt>
      <trkpt lat="47.773" lon="2.15703">
        <ele>137</ele>
        <time>2017-01-08T09:18:27.968Z</time>
      </trkpt>
      <trkpt lat="47.77294" lon="2.15693">
        <ele>138</ele>
        <time>2017-01-08T09:18:28.967Z</time>
      </trkpt>
      <trkpt lat="47.77294" lon="2.15693">
        <ele>138</ele>
        <time>2017-01-08T09:18:29.965Z</time>
      </trkpt>
      <trkpt lat="47.77293" lon="2.1568">
        <ele>137</ele>
        <time>2017-01-08T09:18:30.967Z</time>
      </trkpt>
      <trkpt lat="47.77293" lon="2.1568">
        <ele>137</ele>
        <time>2017-01-08T09:18:31.962Z</time>
      </trkpt>
      <trkpt lat="47.77293" lon="2.15667">
        <ele>137</ele>
        <time>2017-01-08T09:18:32.970Z</time>
      </trkpt>
      <trkpt lat="47.77293" lon="2.15667">
        <ele>137</ele>
        <time>2017-01-08T09:18:33.965Z</time>
      </trkpt>
      <trkpt lat="47.77296" lon="2.15658">
        <ele>137</ele>
        <time>2017-01-08T09:18:34.965Z</time>
      </trkpt>
      <trkpt lat="47.77296" lon="2.15658">
        <ele>137</ele>
        <time>2017-01-08T09:18:35.963Z</time>
      </trkpt>
      <trkpt lat="47.77302" lon="2.15651">
        <ele>137</ele>
        <time>2017-01-08T09:18:36.964Z</time>
      </trkpt>
      <trkpt lat="47.77306" lon="2.15646">
        <ele>137</ele>
        <time>2017-01-08T09:18:37.963Z</time>
      </trkpt>
      <trkpt lat="47.7731" lon="2.15642">
        <ele>136</ele>
        <time>2017-01-08T09:18:38.966Z</time>
      </trkpt>
      <trkpt lat="47.7731" lon="2.15642">
        <ele>136</ele>
        <time>2017-01-08T09:18:39.965Z</time>
      </trkpt>
      <trkpt lat="47.77315" lon="2.1563">
        <ele>136</ele>
        <time>2017-01-08T09:18:40.965Z</time>
      </trkpt>
      <trkpt lat="47.77315" lon="2.1563">
        <ele>136</ele>
        <time>2017-01-08T09:18:41.961Z</time>
      </trkpt>
      <trkpt lat="47.77321" lon="2.15618">
        <ele>136</ele>
        <time>2017-01-08T09:18:42.967Z</time>
      </trkpt>
      <trkpt lat="47.77323" lon="2.15612">
        <ele>135</ele>
        <time>2017-01-08T09:18:43.965Z</time>
      </trkpt>
      <trkpt lat="47.77323" lon="2.15612">
        <ele>135</ele>
        <time>2017-01-08T09:18:44.961Z</time>
      </trkpt>
      <trkpt lat="47.77328" lon="2.15601">
        <ele>134</ele>
        <time>2017-01-08T09:18:45.965Z</time>
      </trkpt>
      <trkpt lat="47.77328" lon="2.15601">
        <ele>134</ele>
        <time>2017-01-08T09:18:46.962Z</time>
      </trkpt>
      <trkpt lat="47.77333" lon="2.15588">
        <ele>133</ele>
        <time>2017-01-08T09:18:47.965Z</time>
      </trkpt>
      <trkpt lat="47.77335" lon="2.15582">
        <ele>133</ele>
        <time>2017-01-08T09:18:48.963Z</time>
      </trkpt>
      <trkpt lat="47.77335" lon="2.15582">
        <ele>133</ele>
        <time>2017-01-08T09:18:49.961Z</time>
      </trkpt>
      <trkpt lat="47.77341" lon="2.1557">
        <ele>132</ele>
        <time>2017-01-08T09:18:50.963Z</time>
      </trkpt>
      <trkpt lat="47.77344" lon="2.15564">
        <ele>132</ele>
        <time>2017-01-08T09:18:51.965Z</time>
      </trkpt>
      <trkpt lat="47.77344" lon="2.15564">
        <ele>132</ele>
        <time>2017-01-08T09:18:52.965Z</time>
      </trkpt>
      <trkpt lat="47.7735" lon="2.15551">
        <ele>132</ele>
        <time>2017-01-08T09:18:53.967Z</time>
      </trkpt>
      <trkpt lat="47.77352" lon="2.15545">
        <ele>132</ele>
        <time>2017-01-08T09:18:54.967Z</time>
      </trkpt>
      <trkpt lat="47.77352" lon="2.15545">
        <ele>132</ele>
        <time>2017-01-08T09:18:55.965Z</time>
      </trkpt>
      <trkpt lat="47.77358" lon="2.15533">
        <ele>132</ele>
        <time>2017-01-08T09:18:56.966Z</time>
      </trkpt>
      <trkpt lat="47.77361" lon="2.15527">
        <ele>131</ele>
        <time>2017-01-08T09:18:57.968Z</time>
      </trkpt>
      <trkpt lat="47.77364" lon="2.15522">
        <ele>131</ele>
        <time>2017-01-08T09:18:58.991Z</time>
      </trkpt>
      <trkpt lat="47.77364" lon="2.15522">
        <ele>131</ele>
        <time>2017-01-08T09:18:59.961Z</time>
      </trkpt>
      <trkpt lat="47.77371" lon="2.1551">
        <ele>131</ele>
        <time>2017-01-08T09:19:00.966Z</time>
      </trkpt>
      <trkpt lat="47.77374" lon="2.15505">
        <ele>131</ele>
        <time>2017-01-08T09:19:01.967Z</time>
      </trkpt>
      <trkpt lat="47.77374" lon="2.15505">
        <ele>131</ele>
        <time>2017-01-08T09:19:02.961Z</time>
      </trkpt>
      <trkpt lat="47.77382" lon="2.15496">
        <ele>131</ele>
        <time>2017-01-08T09:19:03.985Z</time>
      </trkpt>
      <trkpt lat="47.77382" lon="2.15496">
        <ele>131</ele>
        <time>2017-01-08T09:19:04.962Z</time>
      </trkpt>
      <trkpt lat="47.77389" lon="2.15488">
        <ele>131</ele>
        <time>2017-01-08T09:19:05.964Z</time>
      </trkpt>
      <trkpt lat="47.77394" lon="2.15484">
        <ele>131</ele>
        <time>2017-01-08T09:19:06.967Z</time>
      </trkpt>
      <trkpt lat="47.77394" lon="2.15484">
        <ele>131</ele>
        <time>2017-01-08T09:19:07.966Z</time>
      </trkpt>
      <trkpt lat="47.77401" lon="2.15477">
        <ele>131</ele>
        <time>2017-01-08T09:19:08.979Z</time>
      </trkpt>
      <trkpt lat="47.77401" lon="2.15477">
        <ele>131</ele>
        <time>2017-01-08T09:19:09.967Z</time>
      </trkpt>
      <trkpt lat="47.7741" lon="2.15469">
        <ele>131</ele>
        <time>2017-01-08T09:19:10.969Z</time>
      </trkpt>
      <trkpt lat="47.7741" lon="2.15469">
        <ele>131</ele>
        <time>2017-01-08T09:19:11.964Z</time>
      </trkpt>
      <trkpt lat="47.7742" lon="2.15461">
        <ele>132</ele>
        <time>2017-01-08T09:19:12.974Z</time>
      </trkpt>
      <trkpt lat="47.7742" lon="2.15461">
        <ele>132</ele>
        <time>2017-01-08T09:19:13.965Z</time>
      </trkpt>
      <trkpt lat="47.77429" lon="2.15452">
        <ele>132</ele>
        <time>2017-01-08T09:19:14.973Z</time>
      </trkpt>
      <trkpt lat="47.77429" lon="2.15452">
        <ele>132</ele>
        <time>2017-01-08T09:19:15.965Z</time>
      </trkpt>
      <trkpt lat="47.77437" lon="2.15441">
        <ele>132</ele>
        <time>2017-01-08T09:19:16.968Z</time>
      </trkpt>
      <trkpt lat="47.77437" lon="2.15441">
        <ele>132</ele>
        <time>2017-01-08T09:19:17.963Z</time>
      </trkpt>
      <trkpt lat="47.77443" lon="2.15429">
        <ele>132</ele>
        <time>2017-01-08T09:19:18.966Z</time>
      </trkpt>
      <trkpt lat="47.77445" lon="2.15423">
        <ele>132</ele>
        <time>2017-01-08T09:19:19.960Z</time>
      </trkpt>
      <trkpt lat="47.77445" lon="2.15423">
        <ele>132</ele>
        <time>2017-01-08T09:19:20.961Z</time>
      </trkpt>
      <trkpt lat="47.77449" lon="2.1541">
        <ele>132</ele>
        <time>2017-01-08T09:19:21.972Z</time>
      </trkpt>
      <trkpt lat="47.77451" lon="2.15403">
        <ele>133</ele>
        <time>2017-01-08T09:19:22.967Z</time>
      </trkpt>
      <trkpt lat="47.77451" lon="2.15403">
        <ele>133</ele>
        <time>2017-01-08T09:19:23.965Z</time>
      </trkpt>
      <trkpt lat="47.77455" lon="2.15387">
        <ele>134</ele>
        <time>2017-01-08T09:19:24.967Z</time>
      </trkpt>
      <trkpt lat="47.77455" lon="2.15387">
        <ele>134</ele>
        <time>2017-01-08T09:19:25.962Z</time>
      </trkpt>
      <trkpt lat="47.77458" lon="2.15372">
        <ele>135</ele>
        <time>2017-01-08T09:19:26.964Z</time>
      </trkpt>
      <trkpt lat="47.77458" lon="2.15372">
        <ele>135</ele>
        <time>2017-01-08T09:19:27.964Z</time>
      </trkpt>
      <trkpt lat="47.77462" lon="2.15358">
        <ele>135</ele>
        <time>2017-01-08T09:19:28.976Z</time>
      </trkpt>
      <trkpt lat="47.77462" lon="2.15358">
        <ele>135</ele>
        <time>2017-01-08T09:19:29.966Z</time>
      </trkpt>
      <trkpt lat="47.77466" lon="2.15342">
        <ele>135</ele>
        <time>2017-01-08T09:19:30.967Z</time>
      </trkpt>
      <trkpt lat="47.77466" lon="2.15342">
        <ele>135</ele>
        <time>2017-01-08T09:19:31.964Z</time>
      </trkpt>
      <trkpt lat="47.77471" lon="2.15324">
        <ele>134</ele>
        <time>2017-01-08T09:19:32.967Z</time>
      </trkpt>
      <trkpt lat="47.77471" lon="2.15324">
        <ele>134</ele>
        <time>2017-01-08T09:19:33.962Z</time>
      </trkpt>
      <trkpt lat="47.77476" lon="2.15308">
        <ele>135</ele>
        <time>2017-01-08T09:19:34.965Z</time>
      </trkpt>
      <trkpt lat="47.77476" lon="2.15308">
        <ele>135</ele>
        <time>2017-01-08T09:19:35.962Z</time>
      </trkpt>
      <trkpt lat="47.77479" lon="2.15292">
        <ele>135</ele>
        <time>2017-01-08T09:19:36.967Z</time>
      </trkpt>
      <trkpt lat="47.77479" lon="2.15292">
        <ele>135</ele>
        <time>2017-01-08T09:19:37.963Z</time>
      </trkpt>
      <trkpt lat="47.77483" lon="2.15276">
        <ele>136</ele>
        <time>2017-01-08T09:19:38.965Z</time>
      </trkpt>
      <trkpt lat="47.77483" lon="2.15276">
        <ele>136</ele>
        <time>2017-01-08T09:19:39.962Z</time>
      </trkpt>
      <trkpt lat="47.77487" lon="2.1526">
        <ele>136</ele>
        <time>2017-01-08T09:19:40.967Z</time>
      </trkpt>
      <trkpt lat="47.77487" lon="2.1526">
        <ele>136</ele>
        <time>2017-01-08T09:19:41.956Z</time>
      </trkpt>
      <trkpt lat="47.77491" lon="2.15244">
        <ele>136</ele>
        <time>2017-01-08T09:19:42.968Z</time>
      </trkpt>
      <trkpt lat="47.77492" lon="2.15236">
        <ele>137</ele>
        <time>2017-01-08T09:19:43.964Z</time>
      </trkpt>
      <trkpt lat="47.77492" lon="2.15236">
        <ele>137</ele>
        <time>2017-01-08T09:19:44.961Z</time>
      </trkpt>
      <trkpt lat="47.77496" lon="2.15221">
        <ele>137</ele>
        <time>2017-01-08T09:19:45.965Z</time>
      </trkpt>
      <trkpt lat="47.77497" lon="2.15213">
        <ele>137</ele>
        <time>2017-01-08T09:19:46.968Z</time>
      </trkpt>
      <trkpt lat="47.77497" lon="2.15213">
        <ele>137</ele>
        <time>2017-01-08T09:19:47.961Z</time>
      </trkpt>
      <trkpt lat="47.775" lon="2.15197">
        <ele>137</ele>
        <time>2017-01-08T09:19:48.968Z</time>
      </trkpt>
      <trkpt lat="47.77502" lon="2.15189">
        <ele>137</ele>
        <time>2017-01-08T09:19:49.964Z</time>
      </trkpt>
      <trkpt lat="47.77502" lon="2.15189">
        <ele>137</ele>
        <time>2017-01-08T09:19:50.961Z</time>
      </trkpt>
      <trkpt lat="47.77506" lon="2.15172">
        <ele>136</ele>
        <time>2017-01-08T09:19:51.969Z</time>
      </trkpt>
      <trkpt lat="47.77508" lon="2.15164">
        <ele>136</ele>
        <time>2017-01-08T09:19:52.975Z</time>
      </trkpt>
      <trkpt lat="47.7751" lon="2.15156">
        <ele>136</ele>
        <time>2017-01-08T09:19:53.977Z</time>
      </trkpt>
      <trkpt lat="47.7751" lon="2.15156">
        <ele>136</ele>
        <time>2017-01-08T09:19:54.966Z</time>
      </trkpt>
      <trkpt lat="47.77513" lon="2.1514">
        <ele>136</ele>
        <time>2017-01-08T09:19:55.965Z</time>
      </trkpt>
      <trkpt lat="47.77513" lon="2.1514">
        <ele>136</ele>
        <time>2017-01-08T09:19:56.961Z</time>
      </trkpt>
      <trkpt lat="47.77517" lon="2.15124">
        <ele>136</ele>
        <time>2017-01-08T09:19:57.966Z</time>
      </trkpt>
      <trkpt lat="47.77517" lon="2.15124">
        <ele>136</ele>
        <time>2017-01-08T09:19:58.964Z</time>
      </trkpt>
      <trkpt lat="47.7752" lon="2.15108">
        <ele>136</ele>
        <time>2017-01-08T09:19:59.968Z</time>
      </trkpt>
      <trkpt lat="47.7752" lon="2.15108">
        <ele>136</ele>
        <time>2017-01-08T09:20:00.956Z</time>
      </trkpt>
      <trkpt lat="47.77524" lon="2.15091">
        <ele>137</ele>
        <time>2017-01-08T09:20:01.964Z</time>
      </trkpt>
      <trkpt lat="47.77524" lon="2.15091">
        <ele>137</ele>
        <time>2017-01-08T09:20:02.991Z</time>
      </trkpt>
      <trkpt lat="47.77527" lon="2.15074">
        <ele>137</ele>
        <time>2017-01-08T09:20:03.981Z</time>
      </trkpt>
      <trkpt lat="47.77529" lon="2.15065">
        <ele>137</ele>
        <time>2017-01-08T09:20:04.990Z</time>
      </trkpt>
      <trkpt lat="47.77529" lon="2.15065">
        <ele>137</ele>
        <time>2017-01-08T09:20:05.956Z</time>
      </trkpt>
      <trkpt lat="47.77532" lon="2.15048">
        <ele>136</ele>
        <time>2017-01-08T09:20:06.962Z</time>
      </trkpt>
      <trkpt lat="47.77534" lon="2.1504">
        <ele>136</ele>
        <time>2017-01-08T09:20:07.968Z</time>
      </trkpt>
      <trkpt lat="47.77536" lon="2.15032">
        <ele>136</ele>
        <time>2017-01-08T09:20:08.965Z</time>
      </trkpt>
      <trkpt lat="47.77536" lon="2.15032">
        <ele>136</ele>
        <time>2017-01-08T09:20:09.965Z</time>
      </trkpt>
      <trkpt lat="47.77539" lon="2.15015">
        <ele>136</ele>
        <time>2017-01-08T09:20:10.966Z</time>
      </trkpt>
      <trkpt lat="47.77539" lon="2.15015">
        <ele>136</ele>
        <time>2017-01-08T09:20:11.970Z</time>
      </trkpt>
      <trkpt lat="47.77542" lon="2.14999">
        <ele>136</ele>
        <time>2017-01-08T09:20:12.966Z</time>
      </trkpt>
      <trkpt lat="47.77542" lon="2.14999">
        <ele>136</ele>
        <time>2017-01-08T09:20:13.964Z</time>
      </trkpt>
      <trkpt lat="47.77546" lon="2.14983">
        <ele>136</ele>
        <time>2017-01-08T09:20:14.968Z</time>
      </trkpt>
      <trkpt lat="47.77546" lon="2.14983">
        <ele>136</ele>
        <time>2017-01-08T09:20:15.962Z</time>
      </trkpt>
      <trkpt lat="47.7755" lon="2.14966">
        <ele>136</ele>
        <time>2017-01-08T09:20:16.993Z</time>
      </trkpt>
      <trkpt lat="47.7755" lon="2.14966">
        <ele>136</ele>
        <time>2017-01-08T09:20:17.969Z</time>
      </trkpt>
      <trkpt lat="47.77553" lon="2.1495">
        <ele>134</ele>
        <time>2017-01-08T09:20:18.968Z</time>
      </trkpt>
      <trkpt lat="47.77554" lon="2.14941">
        <ele>135</ele>
        <time>2017-01-08T09:20:19.964Z</time>
      </trkpt>
      <trkpt lat="47.77554" lon="2.14941">
        <ele>135</ele>
        <time>2017-01-08T09:20:20.962Z</time>
      </trkpt>
      <trkpt lat="47.77559" lon="2.14926">
        <ele>134</ele>
        <time>2017-01-08T09:20:21.968Z</time>
      </trkpt>
      <trkpt lat="47.77562" lon="2.1492">
        <ele>134</ele>
        <time>2017-01-08T09:20:22.967Z</time>
      </trkpt>
      <trkpt lat="47.77562" lon="2.1492">
        <ele>134</ele>
        <time>2017-01-08T09:20:23.962Z</time>
      </trkpt>
      <trkpt lat="47.77572" lon="2.14912">
        <ele>134</ele>
        <time>2017-01-08T09:20:24.967Z</time>
      </trkpt>
      <trkpt lat="47.77572" lon="2.14912">
        <ele>134</ele>
        <time>2017-01-08T09:20:25.962Z</time>
      </trkpt>
      <trkpt lat="47.77583" lon="2.14912">
        <ele>134</ele>
        <time>2017-01-08T09:20:26.964Z</time>
      </trkpt>
      <trkpt lat="47.77583" lon="2.14912">
        <ele>134</ele>
        <time>2017-01-08T09:20:27.963Z</time>
      </trkpt>
      <trkpt lat="47.77593" lon="2.14914">
        <ele>133</ele>
        <time>2017-01-08T09:20:28.977Z</time>
      </trkpt>
      <trkpt lat="47.77593" lon="2.14914">
        <ele>133</ele>
        <time>2017-01-08T09:20:29.966Z</time>
      </trkpt>
      <trkpt lat="47.77604" lon="2.14918">
        <ele>132</ele>
        <time>2017-01-08T09:20:30.966Z</time>
      </trkpt>
      <trkpt lat="47.77609" lon="2.1492">
        <ele>131</ele>
        <time>2017-01-08T09:20:31.966Z</time>
      </trkpt>
      <trkpt lat="47.77609" lon="2.1492">
        <ele>131</ele>
        <time>2017-01-08T09:20:32.956Z</time>
      </trkpt>
      <trkpt lat="47.77619" lon="2.14924">
        <ele>130</ele>
        <time>2017-01-08T09:20:33.969Z</time>
      </trkpt>
      <trkpt lat="47.77619" lon="2.14924">
        <ele>130</ele>
        <time>2017-01-08T09:20:34.961Z</time>
      </trkpt>
      <trkpt lat="47.7763" lon="2.14929">
        <ele>128</ele>
        <time>2017-01-08T09:20:35.964Z</time>
      </trkpt>
      <trkpt lat="47.77635" lon="2.14931">
        <ele>128</ele>
        <time>2017-01-08T09:20:36.967Z</time>
      </trkpt>
      <trkpt lat="47.77635" lon="2.14931">
        <ele>128</ele>
        <time>2017-01-08T09:20:37.961Z</time>
      </trkpt>
      <trkpt lat="47.77646" lon="2.14936">
        <ele>128</ele>
        <time>2017-01-08T09:20:38.965Z</time>
      </trkpt>
      <trkpt lat="47.77646" lon="2.14936">
        <ele>128</ele>
        <time>2017-01-08T09:20:39.965Z</time>
      </trkpt>
      <trkpt lat="47.77656" lon="2.14941">
        <ele>127</ele>
        <time>2017-01-08T09:20:40.968Z</time>
      </trkpt>
      <trkpt lat="47.77656" lon="2.14941">
        <ele>127</ele>
        <time>2017-01-08T09:20:41.966Z</time>
      </trkpt>
      <trkpt lat="47.77666" lon="2.14946">
        <ele>127</ele>
        <time>2017-01-08T09:20:42.968Z</time>
      </trkpt>
      <trkpt lat="47.77666" lon="2.14946">
        <ele>127</ele>
        <time>2017-01-08T09:20:43.964Z</time>
      </trkpt>
      <trkpt lat="47.77675" lon="2.14952">
        <ele>128</ele>
        <time>2017-01-08T09:20:44.965Z</time>
      </trkpt>
      <trkpt lat="47.77675" lon="2.14952">
        <ele>128</ele>
        <time>2017-01-08T09:20:45.963Z</time>
      </trkpt>
      <trkpt lat="47.77683" lon="2.1496">
        <ele>128</ele>
        <time>2017-01-08T09:20:46.969Z</time>
      </trkpt>
      <trkpt lat="47.77683" lon="2.1496">
        <ele>128</ele>
        <time>2017-01-08T09:20:47.963Z</time>
      </trkpt>
      <trkpt lat="47.7769" lon="2.14971">
        <ele>129</ele>
        <time>2017-01-08T09:20:48.967Z</time>
      </trkpt>
      <trkpt lat="47.77693" lon="2.14976">
        <ele>129</ele>
        <time>2017-01-08T09:20:49.964Z</time>
      </trkpt>
      <trkpt lat="47.77695" lon="2.14981">
        <ele>130</ele>
        <time>2017-01-08T09:20:50.964Z</time>
      </trkpt>
      <trkpt lat="47.77695" lon="2.14981">
        <ele>130</ele>
        <time>2017-01-08T09:20:51.966Z</time>
      </trkpt>
      <trkpt lat="47.77699" lon="2.14991">
        <ele>131</ele>
        <time>2017-01-08T09:20:52.969Z</time>
      </trkpt>
      <trkpt lat="47.77699" lon="2.14991">
        <ele>131</ele>
        <time>2017-01-08T09:20:53.963Z</time>
      </trkpt>
      <trkpt lat="47.77704" lon="2.15001">
        <ele>131</ele>
        <time>2017-01-08T09:20:54.967Z</time>
      </trkpt>
      <trkpt lat="47.77704" lon="2.15001">
        <ele>131</ele>
        <time>2017-01-08T09:20:55.963Z</time>
      </trkpt>
      <trkpt lat="47.77709" lon="2.15009">
        <ele>132</ele>
        <time>2017-01-08T09:20:56.964Z</time>
      </trkpt>
      <trkpt lat="47.77709" lon="2.15009">
        <ele>132</ele>
        <time>2017-01-08T09:20:57.964Z</time>
      </trkpt>
      <trkpt lat="47.77712" lon="2.15015">
        <ele>132</ele>
        <time>2017-01-08T09:20:58.968Z</time>
      </trkpt>
      <trkpt lat="47.77712" lon="2.15015">
        <ele>132</ele>
        <time>2017-01-08T09:20:59.962Z</time>
      </trkpt>
      <trkpt lat="47.77714" lon="2.15017">
        <ele>133</ele>
        <time>2017-01-08T09:21:00.964Z</time>
      </trkpt>
      <trkpt lat="47.77714" lon="2.15017">
        <ele>133</ele>
        <time>2017-01-08T09:21:01.963Z</time>
      </trkpt>
      <trkpt lat="47.77716" lon="2.15017">
        <ele>133</ele>
        <time>2017-01-08T09:21:02.968Z</time>
      </trkpt>
      <trkpt lat="47.77716" lon="2.15017">
        <ele>133</ele>
        <time>2017-01-08T09:21:03.961Z</time>
      </trkpt>
      <trkpt lat="47.77716" lon="2.15017">
        <ele>133</ele>
        <time>2017-01-08T09:21:04.956Z</time>
      </trkpt>
      <trkpt lat="47.77716" lon="2.15017">
        <ele>133</ele>
        <time>2017-01-08T09:21:05.966Z</time>
      </trkpt>
      <trkpt lat="47.77716" lon="2.15026">
        <ele>139</ele>
        <time>2017-01-08T09:21:06.954Z</time>
      </trkpt>
      <trkpt lat="47.77717" lon="2.15028">
        <ele>139</ele>
        <time>2017-01-08T09:21:07.988Z</time>
      </trkpt>
      <trkpt lat="47.77717" lon="2.15028">
        <ele>139</ele>
        <time>2017-01-08T09:21:08.992Z</time>
      </trkpt>
      <trkpt lat="47.7772" lon="2.15035">
        <ele>139</ele>
        <time>2017-01-08T09:21:09.961Z</time>
      </trkpt>
      <trkpt lat="47.77722" lon="2.15038">
        <ele>139</ele>
        <time>2017-01-08T09:21:10.962Z</time>
      </trkpt>
      <trkpt lat="47.77722" lon="2.15038">
        <ele>139</ele>
        <time>2017-01-08T09:21:11.993Z</time>
      </trkpt>
      <trkpt lat="47.77725" lon="2.15045">
        <ele>139</ele>
        <time>2017-01-08T09:21:12.959Z</time>
      </trkpt>
      <trkpt lat="47.77725" lon="2.15045">
        <ele>139</ele>
        <time>2017-01-08T09:21:13.992Z</time>
      </trkpt>
      <trkpt lat="47.77729" lon="2.15051">
        <ele>139</ele>
        <time>2017-01-08T09:21:14.958Z</time>
      </trkpt>
      <trkpt lat="47.77729" lon="2.15051">
        <ele>139</ele>
        <time>2017-01-08T09:21:15.955Z</time>
      </trkpt>
      <trkpt lat="47.77732" lon="2.15058">
        <ele>139</ele>
        <time>2017-01-08T09:21:16.974Z</time>
      </trkpt>
      <trkpt lat="47.77734" lon="2.15062">
        <ele>139</ele>
        <time>2017-01-08T09:21:17.966Z</time>
      </trkpt>
      <trkpt lat="47.77736" lon="2.15065">
        <ele>139</ele>
        <time>2017-01-08T09:21:18.959Z</time>
      </trkpt>
      <trkpt lat="47.77736" lon="2.15065">
        <ele>139</ele>
        <time>2017-01-08T09:21:19.992Z</time>
      </trkpt>
      <trkpt lat="47.77739" lon="2.15072">
        <ele>139</ele>
        <time>2017-01-08T09:21:20.959Z</time>
      </trkpt>
      <trkpt lat="47.77739" lon="2.15072">
        <ele>139</ele>
        <time>2017-01-08T09:21:21.994Z</time>
      </trkpt>
      <trkpt lat="47.77742" lon="2.15078">
        <ele>139</ele>
        <time>2017-01-08T09:21:22.960Z</time>
      </trkpt>
      <trkpt lat="47.77742" lon="2.15078">
        <ele>139</ele>
        <time>2017-01-08T09:21:23.993Z</time>
      </trkpt>
      <trkpt lat="47.77746" lon="2.15086">
        <ele>140</ele>
        <time>2017-01-08T09:21:24.956Z</time>
      </trkpt>
      <trkpt lat="47.77746" lon="2.15086">
        <ele>140</ele>
        <time>2017-01-08T09:21:25.995Z</time>
      </trkpt>
      <trkpt lat="47.7775" lon="2.15092">
        <ele>140</ele>
        <time>2017-01-08T09:21:26.965Z</time>
      </trkpt>
      <trkpt lat="47.7775" lon="2.15092">
        <ele>140</ele>
        <time>2017-01-08T09:21:27.955Z</time>
      </trkpt>
      <trkpt lat="47.77754" lon="2.15098">
        <ele>140</ele>
        <time>2017-01-08T09:21:28.959Z</time>
      </trkpt>
      <trkpt lat="47.77754" lon="2.15098">
        <ele>140</ele>
        <time>2017-01-08T09:21:29.988Z</time>
      </trkpt>
      <trkpt lat="47.77758" lon="2.15106">
        <ele>140</ele>
        <time>2017-01-08T09:21:30.958Z</time>
      </trkpt>
      <trkpt lat="47.77758" lon="2.15106">
        <ele>140</ele>
        <time>2017-01-08T09:21:31.954Z</time>
      </trkpt>
      <trkpt lat="47.77762" lon="2.15116">
        <ele>140</ele>
        <time>2017-01-08T09:21:32.959Z</time>
      </trkpt>
      <trkpt lat="47.77762" lon="2.15116">
        <ele>140</ele>
        <time>2017-01-08T09:21:33.956Z</time>
      </trkpt>
      <trkpt lat="47.77767" lon="2.15125">
        <ele>141</ele>
        <time>2017-01-08T09:21:34.960Z</time>
      </trkpt>
      <trkpt lat="47.77767" lon="2.15125">
        <ele>141</ele>
        <time>2017-01-08T09:21:35.999Z</time>
      </trkpt>
      <trkpt lat="47.77773" lon="2.15134">
        <ele>141</ele>
        <time>2017-01-08T09:21:36.961Z</time>
      </trkpt>
      <trkpt lat="47.77773" lon="2.15134">
        <ele>141</ele>
        <time>2017-01-08T09:21:37.959Z</time>
      </trkpt>
      <trkpt lat="47.77781" lon="2.15138">
        <ele>142</ele>
        <time>2017-01-08T09:21:38.959Z</time>
      </trkpt>
      <trkpt lat="47.77781" lon="2.15138">
        <ele>142</ele>
        <time>2017-01-08T09:21:39.956Z</time>
      </trkpt>
      <trkpt lat="47.77789" lon="2.15139">
        <ele>143</ele>
        <time>2017-01-08T09:21:40.960Z</time>
      </trkpt>
      <trkpt lat="47.77789" lon="2.15139">
        <ele>143</ele>
        <time>2017-01-08T09:21:41.954Z</time>
      </trkpt>
      <trkpt lat="47.77797" lon="2.1514">
        <ele>143</ele>
        <time>2017-01-08T09:21:42.959Z</time>
      </trkpt>
      <trkpt lat="47.77797" lon="2.1514">
        <ele>143</ele>
        <time>2017-01-08T09:21:43.989Z</time>
      </trkpt>
      <trkpt lat="47.77807" lon="2.1514">
        <ele>144</ele>
        <time>2017-01-08T09:21:44.959Z</time>
      </trkpt>
      <trkpt lat="47.77807" lon="2.1514">
        <ele>144</ele>
        <time>2017-01-08T09:21:45.955Z</time>
      </trkpt>
      <trkpt lat="47.77816" lon="2.1514">
        <ele>144</ele>
        <time>2017-01-08T09:21:46.971Z</time>
      </trkpt>
      <trkpt lat="47.77816" lon="2.1514">
        <ele>144</ele>
        <time>2017-01-08T09:21:47.959Z</time>
      </trkpt>
      <trkpt lat="47.77824" lon="2.15139">
        <ele>145</ele>
        <time>2017-01-08T09:21:48.959Z</time>
      </trkpt>
      <trkpt lat="47.77828" lon="2.1514">
        <ele>144</ele>
        <time>2017-01-08T09:21:49.959Z</time>
      </trkpt>
      <trkpt lat="47.77828" lon="2.1514">
        <ele>144</ele>
        <time>2017-01-08T09:21:50.989Z</time>
      </trkpt>
      <trkpt lat="47.77837" lon="2.15142">
        <ele>144</ele>
        <time>2017-01-08T09:21:51.960Z</time>
      </trkpt>
      <trkpt lat="47.77837" lon="2.15142">
        <ele>144</ele>
        <time>2017-01-08T09:21:52.956Z</time>
      </trkpt>
      <trkpt lat="47.77847" lon="2.15144">
        <ele>145</ele>
        <time>2017-01-08T09:21:53.960Z</time>
      </trkpt>
      <trkpt lat="47.77851" lon="2.15144">
        <ele>145</ele>
        <time>2017-01-08T09:21:54.958Z</time>
      </trkpt>
      <trkpt lat="47.77851" lon="2.15144">
        <ele>145</ele>
        <time>2017-01-08T09:21:55.990Z</time>
      </trkpt>
      <trkpt lat="47.7786" lon="2.15146">
        <ele>146</ele>
        <time>2017-01-08T09:21:56.961Z</time>
      </trkpt>
      <trkpt lat="47.7786" lon="2.15146">
        <ele>146</ele>
        <time>2017-01-08T09:21:57.968Z</time>
      </trkpt>
      <trkpt lat="47.77869" lon="2.15148">
        <ele>146</ele>
        <time>2017-01-08T09:21:58.961Z</time>
      </trkpt>
      <trkpt lat="47.77869" lon="2.15148">
        <ele>146</ele>
        <time>2017-01-08T09:21:59.993Z</time>
      </trkpt>
      <trkpt lat="47.77877" lon="2.1515">
        <ele>146</ele>
        <time>2017-01-08T09:22:00.958Z</time>
      </trkpt>
      <trkpt lat="47.7788" lon="2.1515">
        <ele>147</ele>
        <time>2017-01-08T09:22:01.959Z</time>
      </trkpt>
      <trkpt lat="47.7788" lon="2.1515">
        <ele>147</ele>
        <time>2017-01-08T09:22:02.954Z</time>
      </trkpt>
      <trkpt lat="47.77886" lon="2.1515">
        <ele>147</ele>
        <time>2017-01-08T09:22:03.990Z</time>
      </trkpt>
      <trkpt lat="47.77886" lon="2.1515">
        <ele>147</ele>
        <time>2017-01-08T09:22:04.954Z</time>
      </trkpt>
      <trkpt lat="47.77893" lon="2.15151">
        <ele>147</ele>
        <time>2017-01-08T09:22:05.959Z</time>
      </trkpt>
      <trkpt lat="47.77897" lon="2.15152">
        <ele>147</ele>
        <time>2017-01-08T09:22:06.968Z</time>
      </trkpt>
      <trkpt lat="47.77897" lon="2.15152">
        <ele>147</ele>
        <time>2017-01-08T09:22:07.957Z</time>
      </trkpt>
      <trkpt lat="47.77903" lon="2.15154">
        <ele>146</ele>
        <time>2017-01-08T09:22:08.960Z</time>
      </trkpt>
      <trkpt lat="47.77903" lon="2.15154">
        <ele>146</ele>
        <time>2017-01-08T09:22:09.955Z</time>
      </trkpt>
      <trkpt lat="47.77911" lon="2.15155">
        <ele>148</ele>
        <time>2017-01-08T09:22:10.961Z</time>
      </trkpt>
      <trkpt lat="47.77911" lon="2.15155">
        <ele>148</ele>
        <time>2017-01-08T09:22:11.954Z</time>
      </trkpt>
      <trkpt lat="47.77918" lon="2.15155">
        <ele>148</ele>
        <time>2017-01-08T09:22:12.956Z</time>
      </trkpt>
      <trkpt lat="47.77918" lon="2.15155">
        <ele>148</ele>
        <time>2017-01-08T09:22:13.954Z</time>
      </trkpt>
      <trkpt lat="47.77926" lon="2.15156">
        <ele>148</ele>
        <time>2017-01-08T09:22:14.959Z</time>
      </trkpt>
      <trkpt lat="47.77926" lon="2.15156">
        <ele>148</ele>
        <time>2017-01-08T09:22:15.956Z</time>
      </trkpt>
      <trkpt lat="47.77932" lon="2.15157">
        <ele>148</ele>
        <time>2017-01-08T09:22:16.971Z</time>
      </trkpt>
      <trkpt lat="47.77932" lon="2.15157">
        <ele>148</ele>
        <time>2017-01-08T09:22:17.957Z</time>
      </trkpt>
      <trkpt lat="47.77938" lon="2.15157">
        <ele>147</ele>
        <time>2017-01-08T09:22:18.960Z</time>
      </trkpt>
      <trkpt lat="47.77941" lon="2.15158">
        <ele>147</ele>
        <time>2017-01-08T09:22:19.966Z</time>
      </trkpt>
      <trkpt lat="47.77941" lon="2.15158">
        <ele>147</ele>
        <time>2017-01-08T09:22:20.956Z</time>
      </trkpt>
      <trkpt lat="47.77947" lon="2.1516">
        <ele>148</ele>
        <time>2017-01-08T09:22:21.960Z</time>
      </trkpt>
      <trkpt lat="47.77947" lon="2.1516">
        <ele>148</ele>
        <time>2017-01-08T09:22:22.956Z</time>
      </trkpt>
      <trkpt lat="47.77953" lon="2.1516">
        <ele>148</ele>
        <time>2017-01-08T09:22:23.959Z</time>
      </trkpt>
      <trkpt lat="47.77953" lon="2.1516">
        <ele>148</ele>
        <time>2017-01-08T09:22:24.961Z</time>
      </trkpt>
      <trkpt lat="47.77959" lon="2.15159">
        <ele>149</ele>
        <time>2017-01-08T09:22:25.959Z</time>
      </trkpt>
      <trkpt lat="47.77959" lon="2.15159">
        <ele>149</ele>
        <time>2017-01-08T09:22:26.990Z</time>
      </trkpt>
      <trkpt lat="47.77965" lon="2.1516">
        <ele>149</ele>
        <time>2017-01-08T09:22:27.979Z</time>
      </trkpt>
      <trkpt lat="47.77965" lon="2.1516">
        <ele>149</ele>
        <time>2017-01-08T09:22:28.969Z</time>
      </trkpt>
      <trkpt lat="47.77975" lon="2.15159">
        <ele>149</ele>
        <time>2017-01-08T09:22:29.961Z</time>
      </trkpt>
      <trkpt lat="47.77975" lon="2.15159">
        <ele>149</ele>
        <time>2017-01-08T09:22:30.955Z</time>
      </trkpt>
      <trkpt lat="47.77983" lon="2.1516">
        <ele>149</ele>
        <time>2017-01-08T09:22:31.960Z</time>
      </trkpt>
      <trkpt lat="47.77983" lon="2.1516">
        <ele>149</ele>
        <time>2017-01-08T09:22:32.956Z</time>
      </trkpt>
      <trkpt lat="47.77991" lon="2.1516">
        <ele>149</ele>
        <time>2017-01-08T09:22:33.960Z</time>
      </trkpt>
      <trkpt lat="47.77994" lon="2.15159">
        <ele>149</ele>
        <time>2017-01-08T09:22:34.961Z</time>
      </trkpt>
      <trkpt lat="47.77994" lon="2.15159">
        <ele>149</ele>
        <time>2017-01-08T09:22:35.955Z</time>
      </trkpt>
      <trkpt lat="47.78002" lon="2.15159">
        <ele>148</ele>
        <time>2017-01-08T09:22:36.959Z</time>
      </trkpt>
      <trkpt lat="47.78002" lon="2.15159">
        <ele>148</ele>
        <time>2017-01-08T09:22:37.969Z</time>
      </trkpt>
      <trkpt lat="47.7801" lon="2.1516">
        <ele>149</ele>
        <time>2017-01-08T09:22:38.959Z</time>
      </trkpt>
      <trkpt lat="47.78014" lon="2.1516">
        <ele>149</ele>
        <time>2017-01-08T09:22:39.961Z</time>
      </trkpt>
      <trkpt lat="47.78014" lon="2.1516">
        <ele>149</ele>
        <time>2017-01-08T09:22:40.954Z</time>
      </trkpt>
      <trkpt lat="47.78022" lon="2.15161">
        <ele>150</ele>
        <time>2017-01-08T09:22:41.959Z</time>
      </trkpt>
      <trkpt lat="47.78022" lon="2.15161">
        <ele>150</ele>
        <time>2017-01-08T09:22:42.989Z</time>
      </trkpt>
      <trkpt lat="47.78032" lon="2.15163">
        <ele>150</ele>
        <time>2017-01-08T09:22:43.959Z</time>
      </trkpt>
      <trkpt lat="47.78032" lon="2.15163">
        <ele>150</ele>
        <time>2017-01-08T09:22:44.989Z</time>
      </trkpt>
      <trkpt lat="47.78041" lon="2.15163">
        <ele>150</ele>
        <time>2017-01-08T09:22:45.961Z</time>
      </trkpt>
      <trkpt lat="47.78041" lon="2.15163">
        <ele>150</ele>
        <time>2017-01-08T09:22:46.989Z</time>
      </trkpt>
      <trkpt lat="47.7805" lon="2.15162">
        <ele>152</ele>
        <time>2017-01-08T09:22:47.959Z</time>
      </trkpt>
      <trkpt lat="47.7805" lon="2.15162">
        <ele>152</ele>
        <time>2017-01-08T09:22:48.988Z</time>
      </trkpt>
      <trkpt lat="47.78059" lon="2.1516">
        <ele>152</ele>
        <time>2017-01-08T09:22:49.959Z</time>
      </trkpt>
      <trkpt lat="47.78059" lon="2.1516">
        <ele>152</ele>
        <time>2017-01-08T09:22:50.954Z</time>
      </trkpt>
      <trkpt lat="47.7807" lon="2.15158">
        <ele>153</ele>
        <time>2017-01-08T09:22:51.957Z</time>
      </trkpt>
      <trkpt lat="47.7807" lon="2.15158">
        <ele>153</ele>
        <time>2017-01-08T09:22:52.962Z</time>
      </trkpt>
      <trkpt lat="47.7808" lon="2.15155">
        <ele>154</ele>
        <time>2017-01-08T09:22:53.959Z</time>
      </trkpt>
      <trkpt lat="47.7808" lon="2.15155">
        <ele>154</ele>
        <time>2017-01-08T09:22:54.993Z</time>
      </trkpt>
      <trkpt lat="47.78088" lon="2.15153">
        <ele>154</ele>
        <time>2017-01-08T09:22:55.960Z</time>
      </trkpt>
      <trkpt lat="47.78093" lon="2.15152">
        <ele>155</ele>
        <time>2017-01-08T09:22:56.959Z</time>
      </trkpt>
      <trkpt lat="47.78093" lon="2.15152">
        <ele>155</ele>
        <time>2017-01-08T09:22:57.957Z</time>
      </trkpt>
      <trkpt lat="47.78102" lon="2.15149">
        <ele>156</ele>
        <time>2017-01-08T09:22:58.960Z</time>
      </trkpt>
      <trkpt lat="47.78102" lon="2.15149">
        <ele>156</ele>
        <time>2017-01-08T09:22:59.954Z</time>
      </trkpt>
      <trkpt lat="47.78114" lon="2.15145">
        <ele>157</ele>
        <time>2017-01-08T09:23:00.978Z</time>
      </trkpt>
      <trkpt lat="47.78119" lon="2.15144">
        <ele>157</ele>
        <time>2017-01-08T09:23:01.968Z</time>
      </trkpt>
      <trkpt lat="47.78119" lon="2.15144">
        <ele>157</ele>
        <time>2017-01-08T09:23:02.956Z</time>
      </trkpt>
      <trkpt lat="47.78129" lon="2.15141">
        <ele>158</ele>
        <time>2017-01-08T09:23:03.975Z</time>
      </trkpt>
      <trkpt lat="47.78129" lon="2.15141">
        <ele>158</ele>
        <time>2017-01-08T09:23:04.988Z</time>
      </trkpt>
      <trkpt lat="47.78137" lon="2.15139">
        <ele>157</ele>
        <time>2017-01-08T09:23:05.960Z</time>
      </trkpt>
      <trkpt lat="47.78139" lon="2.15139">
        <ele>157</ele>
        <time>2017-01-08T09:23:06.961Z</time>
      </trkpt>
      <trkpt lat="47.78139" lon="2.15139">
        <ele>157</ele>
        <time>2017-01-08T09:23:07.958Z</time>
      </trkpt>
      <trkpt lat="47.78141" lon="2.1514">
        <ele>156</ele>
        <time>2017-01-08T09:23:08.960Z</time>
      </trkpt>
      <trkpt lat="47.78141" lon="2.1514">
        <ele>156</ele>
        <time>2017-01-08T09:23:09.956Z</time>
      </trkpt>
      <trkpt lat="47.78142" lon="2.15142">
        <ele>154</ele>
        <time>2017-01-08T09:23:10.961Z</time>
      </trkpt>
      <trkpt lat="47.78142" lon="2.15142">
        <ele>154</ele>
        <time>2017-01-08T09:23:11.954Z</time>
      </trkpt>
      <trkpt lat="47.78141" lon="2.15143">
        <ele>153</ele>
        <time>2017-01-08T09:23:12.957Z</time>
      </trkpt>
      <trkpt lat="47.78129" lon="2.15148">
        <ele>151</ele>
        <time>2017-01-08T09:23:13.959Z</time>
      </trkpt>
      <trkpt lat="47.78129" lon="2.15148">
        <ele>151</ele>
        <time>2017-01-08T09:23:14.988Z</time>
      </trkpt>
      <trkpt lat="47.78125" lon="2.15149">
        <ele>151</ele>
        <time>2017-01-08T09:23:15.968Z</time>
      </trkpt>
      <trkpt lat="47.78123" lon="2.15149">
        <ele>151</ele>
        <time>2017-01-08T09:23:16.957Z</time>
      </trkpt>
      <trkpt lat="47.78123" lon="2.15149">
        <ele>151</ele>
        <time>2017-01-08T09:23:17.980Z</time>
      </trkpt>
      <trkpt lat="47.7812" lon="2.1515">
        <ele>151</ele>
        <time>2017-01-08T09:23:18.955Z</time>
      </trkpt>
      <trkpt lat="47.7812" lon="2.1515">
        <ele>151</ele>
        <time>2017-01-08T09:23:19.993Z</time>
      </trkpt>
      <trkpt lat="47.78117" lon="2.15151">
        <ele>151</ele>
        <time>2017-01-08T09:23:20.988Z</time>
      </trkpt>
      <trkpt lat="47.78115" lon="2.15151">
        <ele>151</ele>
        <time>2017-01-08T09:23:21.987Z</time>
      </trkpt>
      <trkpt lat="47.78115" lon="2.15151">
        <ele>151</ele>
        <time>2017-01-08T09:23:22.985Z</time>
      </trkpt>
      <trkpt lat="47.78116" lon="2.15154">
        <ele>151</ele>
        <time>2017-01-08T09:23:23.958Z</time>
      </trkpt>
      <trkpt lat="47.78116" lon="2.15154">
        <ele>151</ele>
        <time>2017-01-08T09:23:24.989Z</time>
      </trkpt>
      <trkpt lat="47.78116" lon="2.15152">
        <ele>152</ele>
        <time>2017-01-08T09:23:25.992Z</time>
      </trkpt>
      <trkpt lat="47.78116" lon="2.15152">
        <ele>152</ele>
        <time>2017-01-08T09:23:26.990Z</time>
      </trkpt>
      <trkpt lat="47.78117" lon="2.15153">
        <ele>152</ele>
        <time>2017-01-08T09:23:27.984Z</time>
      </trkpt>
      <trkpt lat="47.78117" lon="2.15153">
        <ele>152</ele>
        <time>2017-01-08T09:23:28.983Z</time>
      </trkpt>
      <trkpt lat="47.78124" lon="2.15146">
        <ele>156</ele>
        <time>2017-01-08T09:23:29.956Z</time>
      </trkpt>
      <trkpt lat="47.78127" lon="2.15145">
        <ele>156</ele>
        <time>2017-01-08T09:23:30.984Z</time>
      </trkpt>
      <trkpt lat="47.78127" lon="2.15145">
        <ele>156</ele>
        <time>2017-01-08T09:23:31.977Z</time>
      </trkpt>
      <trkpt lat="47.7813" lon="2.15143">
        <ele>156</ele>
        <time>2017-01-08T09:23:32.976Z</time>
      </trkpt>
      <trkpt lat="47.7813" lon="2.15143">
        <ele>156</ele>
        <time>2017-01-08T09:23:33.972Z</time>
      </trkpt>
      <trkpt lat="47.78134" lon="2.15141">
        <ele>156</ele>
        <time>2017-01-08T09:23:34.979Z</time>
      </trkpt>
      <trkpt lat="47.78134" lon="2.15141">
        <ele>156</ele>
        <time>2017-01-08T09:23:35.970Z</time>
      </trkpt>
      <trkpt lat="47.7814" lon="2.1514">
        <ele>156</ele>
        <time>2017-01-08T09:23:36.974Z</time>
      </trkpt>
      <trkpt lat="47.78142" lon="2.15139">
        <ele>156</ele>
        <time>2017-01-08T09:23:37.976Z</time>
      </trkpt>
      <trkpt lat="47.78142" lon="2.15139">
        <ele>156</ele>
        <time>2017-01-08T09:23:38.964Z</time>
      </trkpt>
      <trkpt lat="47.78148" lon="2.15138">
        <ele>155</ele>
        <time>2017-01-08T09:23:39.986Z</time>
      </trkpt>
      <trkpt lat="47.78148" lon="2.15138">
        <ele>155</ele>
        <time>2017-01-08T09:23:40.986Z</time>
      </trkpt>
      <trkpt lat="47.78154" lon="2.15136">
        <ele>155</ele>
        <time>2017-01-08T09:23:41.976Z</time>
      </trkpt>
      <trkpt lat="47.78154" lon="2.15136">
        <ele>155</ele>
        <time>2017-01-08T09:23:42.972Z</time>
      </trkpt>
      <trkpt lat="47.78159" lon="2.15135">
        <ele>155</ele>
        <time>2017-01-08T09:23:43.976Z</time>
      </trkpt>
      <trkpt lat="47.78159" lon="2.15135">
        <ele>155</ele>
        <time>2017-01-08T09:23:44.970Z</time>
      </trkpt>
      <trkpt lat="47.78164" lon="2.15134">
        <ele>155</ele>
        <time>2017-01-08T09:23:45.977Z</time>
      </trkpt>
      <trkpt lat="47.78166" lon="2.15134">
        <ele>154</ele>
        <time>2017-01-08T09:23:46.977Z</time>
      </trkpt>
      <trkpt lat="47.78166" lon="2.15134">
        <ele>154</ele>
        <time>2017-01-08T09:23:47.976Z</time>
      </trkpt>
      <trkpt lat="47.78172" lon="2.15132">
        <ele>153</ele>
        <time>2017-01-08T09:23:48.976Z</time>
      </trkpt>
      <trkpt lat="47.78172" lon="2.15132">
        <ele>153</ele>
        <time>2017-01-08T09:23:49.975Z</time>
      </trkpt>
      <trkpt lat="47.78177" lon="2.15131">
        <ele>153</ele>
        <time>2017-01-08T09:23:50.976Z</time>
      </trkpt>
      <trkpt lat="47.7818" lon="2.1513">
        <ele>153</ele>
        <time>2017-01-08T09:23:51.988Z</time>
      </trkpt>
      <trkpt lat="47.78183" lon="2.1513">
        <ele>153</ele>
        <time>2017-01-08T09:23:52.977Z</time>
      </trkpt>
      <trkpt lat="47.78183" lon="2.1513">
        <ele>153</ele>
        <time>2017-01-08T09:23:53.971Z</time>
      </trkpt>
      <trkpt lat="47.78189" lon="2.15128">
        <ele>153</ele>
        <time>2017-01-08T09:23:54.974Z</time>
      </trkpt>
      <trkpt lat="47.78189" lon="2.15128">
        <ele>153</ele>
        <time>2017-01-08T09:23:55.971Z</time>
      </trkpt>
      <trkpt lat="47.78195" lon="2.15126">
        <ele>154</ele>
        <time>2017-01-08T09:23:56.976Z</time>
      </trkpt>
      <trkpt lat="47.78198" lon="2.15125">
        <ele>154</ele>
        <time>2017-01-08T09:23:57.979Z</time>
      </trkpt>
      <trkpt lat="47.78198" lon="2.15125">
        <ele>154</ele>
        <time>2017-01-08T09:23:58.972Z</time>
      </trkpt>
      <trkpt lat="47.78204" lon="2.15124">
        <ele>153</ele>
        <time>2017-01-08T09:23:59.976Z</time>
      </trkpt>
      <trkpt lat="47.78204" lon="2.15124">
        <ele>153</ele>
        <time>2017-01-08T09:24:00.969Z</time>
      </trkpt>
      <trkpt lat="47.7821" lon="2.15123">
        <ele>152</ele>
        <time>2017-01-08T09:24:01.976Z</time>
      </trkpt>
      <trkpt lat="47.7821" lon="2.15123">
        <ele>152</ele>
        <time>2017-01-08T09:24:02.974Z</time>
      </trkpt>
      <trkpt lat="47.78215" lon="2.15122">
        <ele>153</ele>
        <time>2017-01-08T09:24:03.968Z</time>
      </trkpt>
      <trkpt lat="47.78215" lon="2.15122">
        <ele>153</ele>
        <time>2017-01-08T09:24:04.970Z</time>
      </trkpt>
      <trkpt lat="47.7822" lon="2.1512">
        <ele>153</ele>
        <time>2017-01-08T09:24:05.977Z</time>
      </trkpt>
      <trkpt lat="47.7822" lon="2.1512">
        <ele>153</ele>
        <time>2017-01-08T09:24:06.971Z</time>
      </trkpt>
      <trkpt lat="47.78225" lon="2.15118">
        <ele>154</ele>
        <time>2017-01-08T09:24:07.979Z</time>
      </trkpt>
      <trkpt lat="47.78227" lon="2.15117">
        <ele>154</ele>
        <time>2017-01-08T09:24:08.982Z</time>
      </trkpt>
      <trkpt lat="47.78227" lon="2.15117">
        <ele>154</ele>
        <time>2017-01-08T09:24:09.975Z</time>
      </trkpt>
      <trkpt lat="47.78233" lon="2.15115">
        <ele>154</ele>
        <time>2017-01-08T09:24:10.983Z</time>
      </trkpt>
      <trkpt lat="47.78235" lon="2.15114">
        <ele>154</ele>
        <time>2017-01-08T09:24:11.976Z</time>
      </trkpt>
      <trkpt lat="47.78235" lon="2.15114">
        <ele>154</ele>
        <time>2017-01-08T09:24:12.966Z</time>
      </trkpt>
      <trkpt lat="47.7824" lon="2.15112">
        <ele>154</ele>
        <time>2017-01-08T09:24:13.976Z</time>
      </trkpt>
      <trkpt lat="47.7824" lon="2.15112">
        <ele>154</ele>
        <time>2017-01-08T09:24:14.971Z</time>
      </trkpt>
      <trkpt lat="47.78247" lon="2.15111">
        <ele>155</ele>
        <time>2017-01-08T09:24:15.978Z</time>
      </trkpt>
      <trkpt lat="47.7825" lon="2.15111">
        <ele>154</ele>
        <time>2017-01-08T09:24:16.976Z</time>
      </trkpt>
      <trkpt lat="47.7825" lon="2.15111">
        <ele>154</ele>
        <time>2017-01-08T09:24:17.976Z</time>
      </trkpt>
      <trkpt lat="47.78256" lon="2.15111">
        <ele>155</ele>
        <time>2017-01-08T09:24:18.976Z</time>
      </trkpt>
      <trkpt lat="47.78256" lon="2.15111">
        <ele>155</ele>
        <time>2017-01-08T09:24:19.981Z</time>
      </trkpt>
      <trkpt lat="47.78263" lon="2.15111">
        <ele>155</ele>
        <time>2017-01-08T09:24:20.979Z</time>
      </trkpt>
      <trkpt lat="47.78266" lon="2.15111">
        <ele>155</ele>
        <time>2017-01-08T09:24:21.976Z</time>
      </trkpt>
      <trkpt lat="47.78266" lon="2.15111">
        <ele>155</ele>
        <time>2017-01-08T09:24:22.972Z</time>
      </trkpt>
      <trkpt lat="47.78273" lon="2.15113">
        <ele>155</ele>
        <time>2017-01-08T09:24:23.976Z</time>
      </trkpt>
      <trkpt lat="47.78276" lon="2.15115">
        <ele>155</ele>
        <time>2017-01-08T09:24:24.976Z</time>
      </trkpt>
      <trkpt lat="47.78276" lon="2.15115">
        <ele>155</ele>
        <time>2017-01-08T09:24:25.971Z</time>
      </trkpt>
      <trkpt lat="47.78284" lon="2.15117">
        <ele>155</ele>
        <time>2017-01-08T09:24:26.976Z</time>
      </trkpt>
      <trkpt lat="47.78287" lon="2.15118">
        <ele>154</ele>
        <time>2017-01-08T09:24:27.977Z</time>
      </trkpt>
      <trkpt lat="47.7829" lon="2.15119">
        <ele>154</ele>
        <time>2017-01-08T09:24:28.977Z</time>
      </trkpt>
      <trkpt lat="47.7829" lon="2.15119">
        <ele>154</ele>
        <time>2017-01-08T09:24:29.971Z</time>
      </trkpt>
      <trkpt lat="47.78298" lon="2.1512">
        <ele>154</ele>
        <time>2017-01-08T09:24:30.980Z</time>
      </trkpt>
      <trkpt lat="47.78298" lon="2.1512">
        <ele>154</ele>
        <time>2017-01-08T09:24:31.972Z</time>
      </trkpt>
      <trkpt lat="47.78307" lon="2.15123">
        <ele>155</ele>
        <time>2017-01-08T09:24:32.976Z</time>
      </trkpt>
      <trkpt lat="47.78307" lon="2.15123">
        <ele>155</ele>
        <time>2017-01-08T09:24:33.973Z</time>
      </trkpt>
      <trkpt lat="47.78315" lon="2.15125">
        <ele>155</ele>
        <time>2017-01-08T09:24:34.977Z</time>
      </trkpt>
      <trkpt lat="47.78315" lon="2.15125">
        <ele>155</ele>
        <time>2017-01-08T09:24:35.971Z</time>
      </trkpt>
      <trkpt lat="47.78321" lon="2.15126">
        <ele>155</ele>
        <time>2017-01-08T09:24:36.976Z</time>
      </trkpt>
      <trkpt lat="47.78325" lon="2.15126">
        <ele>155</ele>
        <time>2017-01-08T09:24:37.977Z</time>
      </trkpt>
      <trkpt lat="47.78325" lon="2.15126">
        <ele>155</ele>
        <time>2017-01-08T09:24:38.971Z</time>
      </trkpt>
      <trkpt lat="47.78331" lon="2.15127">
        <ele>156</ele>
        <time>2017-01-08T09:24:39.978Z</time>
      </trkpt>
      <trkpt lat="47.78331" lon="2.15127">
        <ele>156</ele>
        <time>2017-01-08T09:24:40.982Z</time>
      </trkpt>
      <trkpt lat="47.78336" lon="2.15128">
        <ele>157</ele>
        <time>2017-01-08T09:24:41.976Z</time>
      </trkpt>
      <trkpt lat="47.78339" lon="2.15128">
        <ele>157</ele>
        <time>2017-01-08T09:24:42.976Z</time>
      </trkpt>
      <trkpt lat="47.78339" lon="2.15128">
        <ele>157</ele>
        <time>2017-01-08T09:24:43.974Z</time>
      </trkpt>
      <trkpt lat="47.78345" lon="2.15129">
        <ele>157</ele>
        <time>2017-01-08T09:24:44.978Z</time>
      </trkpt>
      <trkpt lat="47.78348" lon="2.15129">
        <ele>157</ele>
        <time>2017-01-08T09:24:45.976Z</time>
      </trkpt>
      <trkpt lat="47.78351" lon="2.15131">
        <ele>157</ele>
        <time>2017-01-08T09:24:46.978Z</time>
      </trkpt>
      <trkpt lat="47.78351" lon="2.15131">
        <ele>157</ele>
        <time>2017-01-08T09:24:47.976Z</time>
      </trkpt>
      <trkpt lat="47.7836" lon="2.15133">
        <ele>158</ele>
        <time>2017-01-08T09:24:48.978Z</time>
      </trkpt>
      <trkpt lat="47.7836" lon="2.15133">
        <ele>158</ele>
        <time>2017-01-08T09:24:49.975Z</time>
      </trkpt>
      <trkpt lat="47.78366" lon="2.15136">
        <ele>159</ele>
        <time>2017-01-08T09:24:50.982Z</time>
      </trkpt>
      <trkpt lat="47.78366" lon="2.15136">
        <ele>159</ele>
        <time>2017-01-08T09:24:51.972Z</time>
      </trkpt>
      <trkpt lat="47.78373" lon="2.15139">
        <ele>159</ele>
        <time>2017-01-08T09:24:52.986Z</time>
      </trkpt>
      <trkpt lat="47.78373" lon="2.15139">
        <ele>159</ele>
        <time>2017-01-08T09:24:53.975Z</time>
      </trkpt>
      <trkpt lat="47.78381" lon="2.15142">
        <ele>159</ele>
        <time>2017-01-08T09:24:54.976Z</time>
      </trkpt>
      <trkpt lat="47.78381" lon="2.15142">
        <ele>159</ele>
        <time>2017-01-08T09:24:55.974Z</time>
      </trkpt>
      <trkpt lat="47.78388" lon="2.15143">
        <ele>160</ele>
        <time>2017-01-08T09:24:56.977Z</time>
      </trkpt>
      <trkpt lat="47.78392" lon="2.15143">
        <ele>160</ele>
        <time>2017-01-08T09:24:57.978Z</time>
      </trkpt>
      <trkpt lat="47.78396" lon="2.15144">
        <ele>161</ele>
        <time>2017-01-08T09:24:58.979Z</time>
      </trkpt>
      <trkpt lat="47.78396" lon="2.15144">
        <ele>161</ele>
        <time>2017-01-08T09:24:59.974Z</time>
      </trkpt>
      <trkpt lat="47.78404" lon="2.15145">
        <ele>161</ele>
        <time>2017-01-08T09:25:00.980Z</time>
      </trkpt>
      <trkpt lat="47.7841" lon="2.15147">
        <ele>161</ele>
        <time>2017-01-08T09:25:01.977Z</time>
      </trkpt>
      <trkpt lat="47.78416" lon="2.15148">
        <ele>161</ele>
        <time>2017-01-08T09:25:02.977Z</time>
      </trkpt>
      <trkpt lat="47.78416" lon="2.15148">
        <ele>161</ele>
        <time>2017-01-08T09:25:03.985Z</time>
      </trkpt>
      <trkpt lat="47.78428" lon="2.1515">
        <ele>161</ele>
        <time>2017-01-08T09:25:04.977Z</time>
      </trkpt>
      <trkpt lat="47.78428" lon="2.1515">
        <ele>161</ele>
        <time>2017-01-08T09:25:05.974Z</time>
      </trkpt>
      <trkpt lat="47.78436" lon="2.15151">
        <ele>160</ele>
        <time>2017-01-08T09:25:06.980Z</time>
      </trkpt>
      <trkpt lat="47.7844" lon="2.15151">
        <ele>160</ele>
        <time>2017-01-08T09:25:07.974Z</time>
      </trkpt>
      <trkpt lat="47.7844" lon="2.15151">
        <ele>160</ele>
        <time>2017-01-08T09:25:08.974Z</time>
      </trkpt>
      <trkpt lat="47.78449" lon="2.15151">
        <ele>158</ele>
        <time>2017-01-08T09:25:09.979Z</time>
      </trkpt>
      <trkpt lat="47.78453" lon="2.15151">
        <ele>158</ele>
        <time>2017-01-08T09:25:10.984Z</time>
      </trkpt>
      <trkpt lat="47.78457" lon="2.15152">
        <ele>159</ele>
        <time>2017-01-08T09:25:11.977Z</time>
      </trkpt>
      <trkpt lat="47.78457" lon="2.15152">
        <ele>159</ele>
        <time>2017-01-08T09:25:12.971Z</time>
      </trkpt>
      <trkpt lat="47.78467" lon="2.15152">
        <ele>158</ele>
        <time>2017-01-08T09:25:13.976Z</time>
      </trkpt>
      <trkpt lat="47.78467" lon="2.15152">
        <ele>158</ele>
        <time>2017-01-08T09:25:14.973Z</time>
      </trkpt>
      <trkpt lat="47.78476" lon="2.15152">
        <ele>158</ele>
        <time>2017-01-08T09:25:15.975Z</time>
      </trkpt>
      <trkpt lat="47.7848" lon="2.15153">
        <ele>158</ele>
        <time>2017-01-08T09:25:16.978Z</time>
      </trkpt>
      <trkpt lat="47.7848" lon="2.15153">
        <ele>158</ele>
        <time>2017-01-08T09:25:17.976Z</time>
      </trkpt>
      <trkpt lat="47.7849" lon="2.15152">
        <ele>157</ele>
        <time>2017-01-08T09:25:18.977Z</time>
      </trkpt>
      <trkpt lat="47.7849" lon="2.15152">
        <ele>157</ele>
        <time>2017-01-08T09:25:19.977Z</time>
      </trkpt>
      <trkpt lat="47.78499" lon="2.15152">
        <ele>156</ele>
        <time>2017-01-08T09:25:20.983Z</time>
      </trkpt>
      <trkpt lat="47.78499" lon="2.15152">
        <ele>156</ele>
        <time>2017-01-08T09:25:21.973Z</time>
      </trkpt>
      <trkpt lat="47.78508" lon="2.15152">
        <ele>157</ele>
        <time>2017-01-08T09:25:22.977Z</time>
      </trkpt>
      <trkpt lat="47.78508" lon="2.15152">
        <ele>157</ele>
        <time>2017-01-08T09:25:23.974Z</time>
      </trkpt>
      <trkpt lat="47.78516" lon="2.15153">
        <ele>156</ele>
        <time>2017-01-08T09:25:24.976Z</time>
      </trkpt>
      <trkpt lat="47.78516" lon="2.15153">
        <ele>156</ele>
        <time>2017-01-08T09:25:25.971Z</time>
      </trkpt>
      <trkpt lat="47.78525" lon="2.15153">
        <ele>156</ele>
        <time>2017-01-08T09:25:26.977Z</time>
      </trkpt>
      <trkpt lat="47.78525" lon="2.15153">
        <ele>156</ele>
        <time>2017-01-08T09:25:27.957Z</time>
      </trkpt>
      <trkpt lat="47.78535" lon="2.15154">
        <ele>155</ele>
        <time>2017-01-08T09:25:28.975Z</time>
      </trkpt>
      <trkpt lat="47.78535" lon="2.15154">
        <ele>155</ele>
        <time>2017-01-08T09:25:29.973Z</time>
      </trkpt>
      <trkpt lat="47.78544" lon="2.15155">
        <ele>155</ele>
        <time>2017-01-08T09:25:30.979Z</time>
      </trkpt>
      <trkpt lat="47.78544" lon="2.15155">
        <ele>155</ele>
        <time>2017-01-08T09:25:31.974Z</time>
      </trkpt>
      <trkpt lat="47.78554" lon="2.15155">
        <ele>157</ele>
        <time>2017-01-08T09:25:32.983Z</time>
      </trkpt>
      <trkpt lat="47.78554" lon="2.15155">
        <ele>157</ele>
        <time>2017-01-08T09:25:33.973Z</time>
      </trkpt>
      <trkpt lat="47.78562" lon="2.15156">
        <ele>156</ele>
        <time>2017-01-08T09:25:34.979Z</time>
      </trkpt>
      <trkpt lat="47.78562" lon="2.15156">
        <ele>156</ele>
        <time>2017-01-08T09:25:35.974Z</time>
      </trkpt>
      <trkpt lat="47.78571" lon="2.15156">
        <ele>156</ele>
        <time>2017-01-08T09:25:36.977Z</time>
      </trkpt>
      <trkpt lat="47.78571" lon="2.15156">
        <ele>156</ele>
        <time>2017-01-08T09:25:37.976Z</time>
      </trkpt>
      <trkpt lat="47.78579" lon="2.15156">
        <ele>155</ele>
        <time>2017-01-08T09:25:38.977Z</time>
      </trkpt>
      <trkpt lat="47.78579" lon="2.15156">
        <ele>155</ele>
        <time>2017-01-08T09:25:39.983Z</time>
      </trkpt>
      <trkpt lat="47.78587" lon="2.15156">
        <ele>155</ele>
        <time>2017-01-08T09:25:40.980Z</time>
      </trkpt>
      <trkpt lat="47.78587" lon="2.15156">
        <ele>155</ele>
        <time>2017-01-08T09:25:41.966Z</time>
      </trkpt>
      <trkpt lat="47.78596" lon="2.15156">
        <ele>155</ele>
        <time>2017-01-08T09:25:42.976Z</time>
      </trkpt>
      <trkpt lat="47.78596" lon="2.15156">
        <ele>155</ele>
        <time>2017-01-08T09:25:43.971Z</time>
      </trkpt>
      <trkpt lat="47.78604" lon="2.15156">
        <ele>156</ele>
        <time>2017-01-08T09:25:44.976Z</time>
      </trkpt>
      <trkpt lat="47.78604" lon="2.15156">
        <ele>156</ele>
        <time>2017-01-08T09:25:45.974Z</time>
      </trkpt>
      <trkpt lat="47.78611" lon="2.15156">
        <ele>156</ele>
        <time>2017-01-08T09:25:46.978Z</time>
      </trkpt>
      <trkpt lat="47.78611" lon="2.15156">
        <ele>156</ele>
        <time>2017-01-08T09:25:47.976Z</time>
      </trkpt>
      <trkpt lat="47.78619" lon="2.15157">
        <ele>155</ele>
        <time>2017-01-08T09:25:48.977Z</time>
      </trkpt>
      <trkpt lat="47.78623" lon="2.15157">
        <ele>155</ele>
        <time>2017-01-08T09:25:49.976Z</time>
      </trkpt>
      <trkpt lat="47.78623" lon="2.15157">
        <ele>155</ele>
        <time>2017-01-08T09:25:50.966Z</time>
      </trkpt>
      <trkpt lat="47.78631" lon="2.15158">
        <ele>156</ele>
        <time>2017-01-08T09:25:51.978Z</time>
      </trkpt>
      <trkpt lat="47.78636" lon="2.15157">
        <ele>156</ele>
        <time>2017-01-08T09:25:52.982Z</time>
      </trkpt>
      <trkpt lat="47.78636" lon="2.15157">
        <ele>156</ele>
        <time>2017-01-08T09:25:53.975Z</time>
      </trkpt>
      <trkpt lat="47.78645" lon="2.15157">
        <ele>155</ele>
        <time>2017-01-08T09:25:54.976Z</time>
      </trkpt>
      <trkpt lat="47.78649" lon="2.15157">
        <ele>156</ele>
        <time>2017-01-08T09:25:55.975Z</time>
      </trkpt>
      <trkpt lat="47.78649" lon="2.15157">
        <ele>156</ele>
        <time>2017-01-08T09:25:56.972Z</time>
      </trkpt>
      <trkpt lat="47.78658" lon="2.15155">
        <ele>156</ele>
        <time>2017-01-08T09:25:57.978Z</time>
      </trkpt>
      <trkpt lat="47.78663" lon="2.15155">
        <ele>156</ele>
        <time>2017-01-08T09:25:58.974Z</time>
      </trkpt>
      <trkpt lat="47.78663" lon="2.15155">
        <ele>156</ele>
        <time>2017-01-08T09:25:59.972Z</time>
      </trkpt>
      <trkpt lat="47.78671" lon="2.15155">
        <ele>156</ele>
        <time>2017-01-08T09:26:00.978Z</time>
      </trkpt>
      <trkpt lat="47.78671" lon="2.15155">
        <ele>156</ele>
        <time>2017-01-08T09:26:01.973Z</time>
      </trkpt>
      <trkpt lat="47.78679" lon="2.15153">
        <ele>155</ele>
        <time>2017-01-08T09:26:02.976Z</time>
      </trkpt>
      <trkpt lat="47.78679" lon="2.15153">
        <ele>155</ele>
        <time>2017-01-08T09:26:03.986Z</time>
      </trkpt>
      <trkpt lat="47.7869" lon="2.1515">
        <ele>154</ele>
        <time>2017-01-08T09:26:04.961Z</time>
      </trkpt>
      <trkpt lat="47.7869" lon="2.1515">
        <ele>154</ele>
        <time>2017-01-08T09:26:05.976Z</time>
      </trkpt>
      <trkpt lat="47.78701" lon="2.15148">
        <ele>154</ele>
        <time>2017-01-08T09:26:06.977Z</time>
      </trkpt>
      <trkpt lat="47.78701" lon="2.15148">
        <ele>154</ele>
        <time>2017-01-08T09:26:07.976Z</time>
      </trkpt>
      <trkpt lat="47.78711" lon="2.15145">
        <ele>154</ele>
        <time>2017-01-08T09:26:08.974Z</time>
      </trkpt>
      <trkpt lat="47.78711" lon="2.15145">
        <ele>154</ele>
        <time>2017-01-08T09:26:09.973Z</time>
      </trkpt>
      <trkpt lat="47.78719" lon="2.15142">
        <ele>155</ele>
        <time>2017-01-08T09:26:10.978Z</time>
      </trkpt>
      <trkpt lat="47.78719" lon="2.15142">
        <ele>155</ele>
        <time>2017-01-08T09:26:11.965Z</time>
      </trkpt>
      <trkpt lat="47.78728" lon="2.1514">
        <ele>156</ele>
        <time>2017-01-08T09:26:12.977Z</time>
      </trkpt>
      <trkpt lat="47.78728" lon="2.1514">
        <ele>156</ele>
        <time>2017-01-08T09:26:13.972Z</time>
      </trkpt>
      <trkpt lat="47.78737" lon="2.15138">
        <ele>156</ele>
        <time>2017-01-08T09:26:14.975Z</time>
      </trkpt>
      <trkpt lat="47.78737" lon="2.15138">
        <ele>156</ele>
        <time>2017-01-08T09:26:15.975Z</time>
      </trkpt>
      <trkpt lat="47.78745" lon="2.15136">
        <ele>156</ele>
        <time>2017-01-08T09:26:16.978Z</time>
      </trkpt>
      <trkpt lat="47.78745" lon="2.15136">
        <ele>156</ele>
        <time>2017-01-08T09:26:17.977Z</time>
      </trkpt>
      <trkpt lat="47.78754" lon="2.15133">
        <ele>155</ele>
        <time>2017-01-08T09:26:18.978Z</time>
      </trkpt>
      <trkpt lat="47.78759" lon="2.15132">
        <ele>155</ele>
        <time>2017-01-08T09:26:19.977Z</time>
      </trkpt>
      <trkpt lat="47.78759" lon="2.15132">
        <ele>155</ele>
        <time>2017-01-08T09:26:20.972Z</time>
      </trkpt>
      <trkpt lat="47.78768" lon="2.15129">
        <ele>154</ele>
        <time>2017-01-08T09:26:21.980Z</time>
      </trkpt>
      <trkpt lat="47.78768" lon="2.15129">
        <ele>154</ele>
        <time>2017-01-08T09:26:22.975Z</time>
      </trkpt>
      <trkpt lat="47.78777" lon="2.15126">
        <ele>154</ele>
        <time>2017-01-08T09:26:23.985Z</time>
      </trkpt>
      <trkpt lat="47.78777" lon="2.15126">
        <ele>154</ele>
        <time>2017-01-08T09:26:24.984Z</time>
      </trkpt>
      <trkpt lat="47.78786" lon="2.15124">
        <ele>154</ele>
        <time>2017-01-08T09:26:25.975Z</time>
      </trkpt>
      <trkpt lat="47.78786" lon="2.15124">
        <ele>154</ele>
        <time>2017-01-08T09:26:26.971Z</time>
      </trkpt>
      <trkpt lat="47.78795" lon="2.15121">
        <ele>153</ele>
        <time>2017-01-08T09:26:27.980Z</time>
      </trkpt>
      <trkpt lat="47.788" lon="2.15119">
        <ele>152</ele>
        <time>2017-01-08T09:26:28.987Z</time>
      </trkpt>
      <trkpt lat="47.788" lon="2.15119">
        <ele>152</ele>
        <time>2017-01-08T09:26:29.975Z</time>
      </trkpt>
      <trkpt lat="47.7881" lon="2.15116">
        <ele>151</ele>
        <time>2017-01-08T09:26:30.977Z</time>
      </trkpt>
      <trkpt lat="47.78814" lon="2.15115">
        <ele>151</ele>
        <time>2017-01-08T09:26:31.981Z</time>
      </trkpt>
      <trkpt lat="47.78814" lon="2.15115">
        <ele>151</ele>
        <time>2017-01-08T09:26:32.972Z</time>
      </trkpt>
      <trkpt lat="47.78823" lon="2.15113">
        <ele>151</ele>
        <time>2017-01-08T09:26:33.981Z</time>
      </trkpt>
      <trkpt lat="47.78829" lon="2.15112">
        <ele>150</ele>
        <time>2017-01-08T09:26:34.979Z</time>
      </trkpt>
      <trkpt lat="47.78829" lon="2.15112">
        <ele>150</ele>
        <time>2017-01-08T09:26:35.972Z</time>
      </trkpt>
      <trkpt lat="47.7884" lon="2.15108">
        <ele>150</ele>
        <time>2017-01-08T09:26:36.977Z</time>
      </trkpt>
      <trkpt lat="47.78845" lon="2.15107">
        <ele>149</ele>
        <time>2017-01-08T09:26:37.978Z</time>
      </trkpt>
      <trkpt lat="47.78845" lon="2.15107">
        <ele>149</ele>
        <time>2017-01-08T09:26:38.972Z</time>
      </trkpt>
      <trkpt lat="47.78856" lon="2.15104">
        <ele>149</ele>
        <time>2017-01-08T09:26:39.978Z</time>
      </trkpt>
      <trkpt lat="47.7886" lon="2.15103">
        <ele>149</ele>
        <time>2017-01-08T09:26:40.974Z</time>
      </trkpt>
      <trkpt lat="47.7886" lon="2.15103">
        <ele>149</ele>
        <time>2017-01-08T09:26:41.974Z</time>
      </trkpt>
      <trkpt lat="47.7887" lon="2.15101">
        <ele>149</ele>
        <time>2017-01-08T09:26:42.977Z</time>
      </trkpt>
      <trkpt lat="47.7887" lon="2.15101">
        <ele>149</ele>
        <time>2017-01-08T09:26:43.975Z</time>
      </trkpt>
      <trkpt lat="47.78878" lon="2.15098">
        <ele>148</ele>
        <time>2017-01-08T09:26:44.974Z</time>
      </trkpt>
      <trkpt lat="47.78878" lon="2.15098">
        <ele>148</ele>
        <time>2017-01-08T09:26:45.965Z</time>
      </trkpt>
      <trkpt lat="47.78887" lon="2.15096">
        <ele>148</ele>
        <time>2017-01-08T09:26:46.979Z</time>
      </trkpt>
      <trkpt lat="47.78887" lon="2.15096">
        <ele>148</ele>
        <time>2017-01-08T09:26:47.976Z</time>
      </trkpt>
      <trkpt lat="47.78896" lon="2.15093">
        <ele>148</ele>
        <time>2017-01-08T09:26:48.982Z</time>
      </trkpt>
      <trkpt lat="47.789" lon="2.15091">
        <ele>147</ele>
        <time>2017-01-08T09:26:49.974Z</time>
      </trkpt>
      <trkpt lat="47.789" lon="2.15091">
        <ele>147</ele>
        <time>2017-01-08T09:26:50.967Z</time>
      </trkpt>
      <trkpt lat="47.7891" lon="2.1509">
        <ele>147</ele>
        <time>2017-01-08T09:26:51.986Z</time>
      </trkpt>
      <trkpt lat="47.78914" lon="2.15089">
        <ele>147</ele>
        <time>2017-01-08T09:26:52.980Z</time>
      </trkpt>
      <trkpt lat="47.78914" lon="2.15089">
        <ele>147</ele>
        <time>2017-01-08T09:26:53.979Z</time>
      </trkpt>
      <trkpt lat="47.78923" lon="2.15087">
        <ele>147</ele>
        <time>2017-01-08T09:26:54.978Z</time>
      </trkpt>
      <trkpt lat="47.78923" lon="2.15087">
        <ele>147</ele>
        <time>2017-01-08T09:26:55.975Z</time>
      </trkpt>
      <trkpt lat="47.78932" lon="2.15085">
        <ele>145</ele>
        <time>2017-01-08T09:26:56.977Z</time>
      </trkpt>
      <trkpt lat="47.78932" lon="2.15085">
        <ele>145</ele>
        <time>2017-01-08T09:26:57.976Z</time>
      </trkpt>
      <trkpt lat="47.78942" lon="2.15081">
        <ele>145</ele>
        <time>2017-01-08T09:26:58.979Z</time>
      </trkpt>
      <trkpt lat="47.78942" lon="2.15081">
        <ele>145</ele>
        <time>2017-01-08T09:26:59.972Z</time>
      </trkpt>
      <trkpt lat="47.78951" lon="2.15078">
        <ele>145</ele>
        <time>2017-01-08T09:27:00.977Z</time>
      </trkpt>
      <trkpt lat="47.78955" lon="2.15077">
        <ele>146</ele>
        <time>2017-01-08T09:27:01.986Z</time>
      </trkpt>
      <trkpt lat="47.78955" lon="2.15077">
        <ele>146</ele>
        <time>2017-01-08T09:27:02.974Z</time>
      </trkpt>
      <trkpt lat="47.78964" lon="2.15075">
        <ele>146</ele>
        <time>2017-01-08T09:27:03.960Z</time>
      </trkpt>
      <trkpt lat="47.78964" lon="2.15075">
        <ele>146</ele>
        <time>2017-01-08T09:27:04.979Z</time>
      </trkpt>
      <trkpt lat="47.78973" lon="2.15071">
        <ele>146</ele>
        <time>2017-01-08T09:27:05.985Z</time>
      </trkpt>
      <trkpt lat="47.78973" lon="2.15071">
        <ele>146</ele>
        <time>2017-01-08T09:27:06.992Z</time>
      </trkpt>
      <trkpt lat="47.78982" lon="2.15067">
        <ele>146</ele>
        <time>2017-01-08T09:27:07.982Z</time>
      </trkpt>
      <trkpt lat="47.78982" lon="2.15067">
        <ele>146</ele>
        <time>2017-01-08T09:27:08.974Z</time>
      </trkpt>
      <trkpt lat="47.78991" lon="2.15064">
        <ele>147</ele>
        <time>2017-01-08T09:27:09.979Z</time>
      </trkpt>
      <trkpt lat="47.78995" lon="2.15062">
        <ele>147</ele>
        <time>2017-01-08T09:27:10.975Z</time>
      </trkpt>
      <trkpt lat="47.78995" lon="2.15062">
        <ele>147</ele>
        <time>2017-01-08T09:27:11.973Z</time>
      </trkpt>
      <trkpt lat="47.79002" lon="2.15059">
        <ele>147</ele>
        <time>2017-01-08T09:27:12.977Z</time>
      </trkpt>
      <trkpt lat="47.79006" lon="2.15058">
        <ele>147</ele>
        <time>2017-01-08T09:27:13.977Z</time>
      </trkpt>
      <trkpt lat="47.79006" lon="2.15058">
        <ele>147</ele>
        <time>2017-01-08T09:27:14.971Z</time>
      </trkpt>
      <trkpt lat="47.79015" lon="2.15055">
        <ele>147</ele>
        <time>2017-01-08T09:27:15.979Z</time>
      </trkpt>
      <trkpt lat="47.79019" lon="2.15053">
        <ele>147</ele>
        <time>2017-01-08T09:27:16.978Z</time>
      </trkpt>
      <trkpt lat="47.79019" lon="2.15053">
        <ele>147</ele>
        <time>2017-01-08T09:27:17.974Z</time>
      </trkpt>
      <trkpt lat="47.79029" lon="2.15051">
        <ele>147</ele>
        <time>2017-01-08T09:27:18.977Z</time>
      </trkpt>
      <trkpt lat="47.79033" lon="2.1505">
        <ele>147</ele>
        <time>2017-01-08T09:27:19.978Z</time>
      </trkpt>
      <trkpt lat="47.79037" lon="2.15049">
        <ele>147</ele>
        <time>2017-01-08T09:27:20.978Z</time>
      </trkpt>
      <trkpt lat="47.79037" lon="2.15049">
        <ele>147</ele>
        <time>2017-01-08T09:27:21.973Z</time>
      </trkpt>
      <trkpt lat="47.79046" lon="2.15047">
        <ele>146</ele>
        <time>2017-01-08T09:27:22.978Z</time>
      </trkpt>
      <trkpt lat="47.79046" lon="2.15047">
        <ele>146</ele>
        <time>2017-01-08T09:27:23.975Z</time>
      </trkpt>
      <trkpt lat="47.79055" lon="2.15045">
        <ele>146</ele>
        <time>2017-01-08T09:27:24.978Z</time>
      </trkpt>
      <trkpt lat="47.7906" lon="2.15044">
        <ele>145</ele>
        <time>2017-01-08T09:27:25.977Z</time>
      </trkpt>
      <trkpt lat="47.7906" lon="2.15044">
        <ele>145</ele>
        <time>2017-01-08T09:27:26.972Z</time>
      </trkpt>
      <trkpt lat="47.7907" lon="2.15041">
        <ele>145</ele>
        <time>2017-01-08T09:27:27.978Z</time>
      </trkpt>
      <trkpt lat="47.79075" lon="2.1504">
        <ele>145</ele>
        <time>2017-01-08T09:27:28.980Z</time>
      </trkpt>
      <trkpt lat="47.79075" lon="2.1504">
        <ele>145</ele>
        <time>2017-01-08T09:27:29.975Z</time>
      </trkpt>
      <trkpt lat="47.79084" lon="2.15037">
        <ele>145</ele>
        <time>2017-01-08T09:27:30.977Z</time>
      </trkpt>
      <trkpt lat="47.79089" lon="2.15036">
        <ele>144</ele>
        <time>2017-01-08T09:27:31.974Z</time>
      </trkpt>
      <trkpt lat="47.79089" lon="2.15036">
        <ele>144</ele>
        <time>2017-01-08T09:27:32.957Z</time>
      </trkpt>
      <trkpt lat="47.79098" lon="2.15034">
        <ele>144</ele>
        <time>2017-01-08T09:27:33.974Z</time>
      </trkpt>
      <trkpt lat="47.79102" lon="2.15033">
        <ele>144</ele>
        <time>2017-01-08T09:27:34.978Z</time>
      </trkpt>
      <trkpt lat="47.79102" lon="2.15033">
        <ele>144</ele>
        <time>2017-01-08T09:27:35.972Z</time>
      </trkpt>
      <trkpt lat="47.79113" lon="2.15031">
        <ele>145</ele>
        <time>2017-01-08T09:27:36.978Z</time>
      </trkpt>
      <trkpt lat="47.79118" lon="2.15029">
        <ele>144</ele>
        <time>2017-01-08T09:27:37.978Z</time>
      </trkpt>
      <trkpt lat="47.79118" lon="2.15029">
        <ele>144</ele>
        <time>2017-01-08T09:27:38.986Z</time>
      </trkpt>
      <trkpt lat="47.7913" lon="2.15026">
        <ele>144</ele>
        <time>2017-01-08T09:27:39.979Z</time>
      </trkpt>
      <trkpt lat="47.7913" lon="2.15026">
        <ele>144</ele>
        <time>2017-01-08T09:27:40.972Z</time>
      </trkpt>
      <trkpt lat="47.7914" lon="2.15024">
        <ele>143</ele>
        <time>2017-01-08T09:27:41.977Z</time>
      </trkpt>
      <trkpt lat="47.7914" lon="2.15024">
        <ele>143</ele>
        <time>2017-01-08T09:27:42.971Z</time>
      </trkpt>
      <trkpt lat="47.79148" lon="2.15021">
        <ele>143</ele>
        <time>2017-01-08T09:27:43.978Z</time>
      </trkpt>
      <trkpt lat="47.79148" lon="2.15021">
        <ele>143</ele>
        <time>2017-01-08T09:27:44.973Z</time>
      </trkpt>
      <trkpt lat="47.79157" lon="2.1502">
        <ele>144</ele>
        <time>2017-01-08T09:27:45.978Z</time>
      </trkpt>
      <trkpt lat="47.79162" lon="2.1502">
        <ele>145</ele>
        <time>2017-01-08T09:27:46.980Z</time>
      </trkpt>
      <trkpt lat="47.79162" lon="2.1502">
        <ele>145</ele>
        <time>2017-01-08T09:27:47.977Z</time>
      </trkpt>
      <trkpt lat="47.79172" lon="2.15025">
        <ele>145</ele>
        <time>2017-01-08T09:27:48.977Z</time>
      </trkpt>
      <trkpt lat="47.79176" lon="2.15028">
        <ele>145</ele>
        <time>2017-01-08T09:27:49.977Z</time>
      </trkpt>
      <trkpt lat="47.79176" lon="2.15028">
        <ele>145</ele>
        <time>2017-01-08T09:27:50.971Z</time>
      </trkpt>
      <trkpt lat="47.79184" lon="2.15038">
        <ele>143</ele>
        <time>2017-01-08T09:27:51.976Z</time>
      </trkpt>
      <trkpt lat="47.79184" lon="2.15038">
        <ele>143</ele>
        <time>2017-01-08T09:27:52.965Z</time>
      </trkpt>
      <trkpt lat="47.79191" lon="2.15048">
        <ele>141</ele>
        <time>2017-01-08T09:27:53.987Z</time>
      </trkpt>
      <trkpt lat="47.79195" lon="2.15053">
        <ele>139</ele>
        <time>2017-01-08T09:27:54.978Z</time>
      </trkpt>
      <trkpt lat="47.79198" lon="2.15057">
        <ele>138</ele>
        <time>2017-01-08T09:27:55.978Z</time>
      </trkpt>
      <trkpt lat="47.79202" lon="2.15061">
        <ele>137</ele>
        <time>2017-01-08T09:27:56.977Z</time>
      </trkpt>
      <trkpt lat="47.79202" lon="2.15061">
        <ele>137</ele>
        <time>2017-01-08T09:27:57.973Z</time>
      </trkpt>
      <trkpt lat="47.79209" lon="2.15069">
        <ele>136</ele>
        <time>2017-01-08T09:27:58.978Z</time>
      </trkpt>
      <trkpt lat="47.79209" lon="2.15069">
        <ele>136</ele>
        <time>2017-01-08T09:27:59.967Z</time>
      </trkpt>
      <trkpt lat="47.79217" lon="2.15077">
        <ele>135</ele>
        <time>2017-01-08T09:28:00.978Z</time>
      </trkpt>
      <trkpt lat="47.79217" lon="2.15077">
        <ele>135</ele>
        <time>2017-01-08T09:28:01.972Z</time>
      </trkpt>
      <trkpt lat="47.79224" lon="2.15085">
        <ele>134</ele>
        <time>2017-01-08T09:28:02.955Z</time>
      </trkpt>
      <trkpt lat="47.79227" lon="2.1509">
        <ele>134</ele>
        <time>2017-01-08T09:28:03.964Z</time>
      </trkpt>
      <trkpt lat="47.79231" lon="2.15094">
        <ele>133</ele>
        <time>2017-01-08T09:28:04.969Z</time>
      </trkpt>
      <trkpt lat="47.79231" lon="2.15094">
        <ele>133</ele>
        <time>2017-01-08T09:28:05.975Z</time>
      </trkpt>
      <trkpt lat="47.79238" lon="2.15103">
        <ele>133</ele>
        <time>2017-01-08T09:28:06.981Z</time>
      </trkpt>
      <trkpt lat="47.79241" lon="2.15107">
        <ele>133</ele>
        <time>2017-01-08T09:28:07.978Z</time>
      </trkpt>
      <trkpt lat="47.79241" lon="2.15107">
        <ele>133</ele>
        <time>2017-01-08T09:28:08.967Z</time>
      </trkpt>
      <trkpt lat="47.79248" lon="2.15116">
        <ele>132</ele>
        <time>2017-01-08T09:28:09.979Z</time>
      </trkpt>
      <trkpt lat="47.79251" lon="2.1512">
        <ele>131</ele>
        <time>2017-01-08T09:28:10.978Z</time>
      </trkpt>
      <trkpt lat="47.79251" lon="2.1512">
        <ele>131</ele>
        <time>2017-01-08T09:28:11.975Z</time>
      </trkpt>
      <trkpt lat="47.79258" lon="2.15128">
        <ele>131</ele>
        <time>2017-01-08T09:28:12.981Z</time>
      </trkpt>
      <trkpt lat="47.79262" lon="2.15132">
        <ele>130</ele>
        <time>2017-01-08T09:28:13.978Z</time>
      </trkpt>
      <trkpt lat="47.79262" lon="2.15132">
        <ele>130</ele>
        <time>2017-01-08T09:28:14.971Z</time>
      </trkpt>
      <trkpt lat="47.79268" lon="2.15141">
        <ele>130</ele>
        <time>2017-01-08T09:28:15.978Z</time>
      </trkpt>
      <trkpt lat="47.79271" lon="2.15145">
        <ele>129</ele>
        <time>2017-01-08T09:28:16.979Z</time>
      </trkpt>
      <trkpt lat="47.79271" lon="2.15145">
        <ele>129</ele>
        <time>2017-01-08T09:28:17.977Z</time>
      </trkpt>
      <trkpt lat="47.79277" lon="2.15153">
        <ele>129</ele>
        <time>2017-01-08T09:28:18.978Z</time>
      </trkpt>
      <trkpt lat="47.79281" lon="2.15157">
        <ele>129</ele>
        <time>2017-01-08T09:28:19.978Z</time>
      </trkpt>
      <trkpt lat="47.79281" lon="2.15157">
        <ele>129</ele>
        <time>2017-01-08T09:28:20.972Z</time>
      </trkpt>
      <trkpt lat="47.79288" lon="2.15164">
        <ele>129</ele>
        <time>2017-01-08T09:28:21.979Z</time>
      </trkpt>
      <trkpt lat="47.79292" lon="2.15168">
        <ele>129</ele>
        <time>2017-01-08T09:28:22.983Z</time>
      </trkpt>
      <trkpt lat="47.79292" lon="2.15168">
        <ele>129</ele>
        <time>2017-01-08T09:28:23.972Z</time>
      </trkpt>
      <trkpt lat="47.79298" lon="2.15175">
        <ele>129</ele>
        <time>2017-01-08T09:28:24.978Z</time>
      </trkpt>
      <trkpt lat="47.79301" lon="2.15178">
        <ele>130</ele>
        <time>2017-01-08T09:28:25.978Z</time>
      </trkpt>
      <trkpt lat="47.79304" lon="2.15182">
        <ele>130</ele>
        <time>2017-01-08T09:28:26.978Z</time>
      </trkpt>
      <trkpt lat="47.79304" lon="2.15182">
        <ele>130</ele>
        <time>2017-01-08T09:28:27.996Z</time>
      </trkpt>
      <trkpt lat="47.79309" lon="2.15189">
        <ele>130</ele>
        <time>2017-01-08T09:28:28.980Z</time>
      </trkpt>
      <trkpt lat="47.79309" lon="2.15189">
        <ele>130</ele>
        <time>2017-01-08T09:28:29.974Z</time>
      </trkpt>
      <trkpt lat="47.79316" lon="2.15196">
        <ele>130</ele>
        <time>2017-01-08T09:28:30.978Z</time>
      </trkpt>
      <trkpt lat="47.79319" lon="2.152">
        <ele>130</ele>
        <time>2017-01-08T09:28:31.979Z</time>
      </trkpt>
      <trkpt lat="47.79319" lon="2.152">
        <ele>130</ele>
        <time>2017-01-08T09:28:32.982Z</time>
      </trkpt>
      <trkpt lat="47.79327" lon="2.15206">
        <ele>130</ele>
        <time>2017-01-08T09:28:33.976Z</time>
      </trkpt>
      <trkpt lat="47.79327" lon="2.15206">
        <ele>130</ele>
        <time>2017-01-08T09:28:34.976Z</time>
      </trkpt>
      <trkpt lat="47.79335" lon="2.15211">
        <ele>130</ele>
        <time>2017-01-08T09:28:35.978Z</time>
      </trkpt>
      <trkpt lat="47.79339" lon="2.15214">
        <ele>130</ele>
        <time>2017-01-08T09:28:36.977Z</time>
      </trkpt>
      <trkpt lat="47.79339" lon="2.15214">
        <ele>130</ele>
        <time>2017-01-08T09:28:37.977Z</time>
      </trkpt>
      <trkpt lat="47.79351" lon="2.1522">
        <ele>130</ele>
        <time>2017-01-08T09:28:38.978Z</time>
      </trkpt>
      <trkpt lat="47.79356" lon="2.15223">
        <ele>130</ele>
        <time>2017-01-08T09:28:39.979Z</time>
      </trkpt>
      <trkpt lat="47.79356" lon="2.15223">
        <ele>130</ele>
        <time>2017-01-08T09:28:40.968Z</time>
      </trkpt>
      <trkpt lat="47.79365" lon="2.15227">
        <ele>130</ele>
        <time>2017-01-08T09:28:41.978Z</time>
      </trkpt>
      <trkpt lat="47.79365" lon="2.15227">
        <ele>130</ele>
        <time>2017-01-08T09:28:42.976Z</time>
      </trkpt>
      <trkpt lat="47.79373" lon="2.1523">
        <ele>130</ele>
        <time>2017-01-08T09:28:43.978Z</time>
      </trkpt>
      <trkpt lat="47.79373" lon="2.1523">
        <ele>130</ele>
        <time>2017-01-08T09:28:44.975Z</time>
      </trkpt>
      <trkpt lat="47.7938" lon="2.15233">
        <ele>130</ele>
        <time>2017-01-08T09:28:45.979Z</time>
      </trkpt>
      <trkpt lat="47.7938" lon="2.15233">
        <ele>130</ele>
        <time>2017-01-08T09:28:46.976Z</time>
      </trkpt>
      <trkpt lat="47.7939" lon="2.15236">
        <ele>131</ele>
        <time>2017-01-08T09:28:47.979Z</time>
      </trkpt>
      <trkpt lat="47.7939" lon="2.15236">
        <ele>131</ele>
        <time>2017-01-08T09:28:48.973Z</time>
      </trkpt>
      <trkpt lat="47.79398" lon="2.15239">
        <ele>131</ele>
        <time>2017-01-08T09:28:49.976Z</time>
      </trkpt>
      <trkpt lat="47.79403" lon="2.15242">
        <ele>131</ele>
        <time>2017-01-08T09:28:50.958Z</time>
      </trkpt>
      <trkpt lat="47.79403" lon="2.15242">
        <ele>131</ele>
        <time>2017-01-08T09:28:51.985Z</time>
      </trkpt>
      <trkpt lat="47.79412" lon="2.15246">
        <ele>130</ele>
        <time>2017-01-08T09:28:52.962Z</time>
      </trkpt>
      <trkpt lat="47.79415" lon="2.15248">
        <ele>130</ele>
        <time>2017-01-08T09:28:53.979Z</time>
      </trkpt>
      <trkpt lat="47.79415" lon="2.15248">
        <ele>130</ele>
        <time>2017-01-08T09:28:54.972Z</time>
      </trkpt>
      <trkpt lat="47.79422" lon="2.1525">
        <ele>129</ele>
        <time>2017-01-08T09:28:55.978Z</time>
      </trkpt>
      <trkpt lat="47.79422" lon="2.1525">
        <ele>129</ele>
        <time>2017-01-08T09:28:56.973Z</time>
      </trkpt>
      <trkpt lat="47.79428" lon="2.15251">
        <ele>128</ele>
        <time>2017-01-08T09:28:57.980Z</time>
      </trkpt>
      <trkpt lat="47.79428" lon="2.15251">
        <ele>128</ele>
        <time>2017-01-08T09:28:58.977Z</time>
      </trkpt>
      <trkpt lat="47.79432" lon="2.15251">
        <ele>127</ele>
        <time>2017-01-08T09:28:59.979Z</time>
      </trkpt>
      <trkpt lat="47.79432" lon="2.15251">
        <ele>127</ele>
        <time>2017-01-08T09:29:00.974Z</time>
      </trkpt>
      <trkpt lat="47.79434" lon="2.1525">
        <ele>126</ele>
        <time>2017-01-08T09:29:01.979Z</time>
      </trkpt>
      <trkpt lat="47.79434" lon="2.1525">
        <ele>126</ele>
        <time>2017-01-08T09:29:02.975Z</time>
      </trkpt>
      <trkpt lat="47.79435" lon="2.15251">
        <ele>126</ele>
        <time>2017-01-08T09:29:03.954Z</time>
      </trkpt>
      <trkpt lat="47.79435" lon="2.15251">
        <ele>126</ele>
        <time>2017-01-08T09:29:04.954Z</time>
      </trkpt>
      <trkpt lat="47.79444" lon="2.15246">
        <ele>126</ele>
        <time>2017-01-08T09:29:05.973Z</time>
      </trkpt>
      <trkpt lat="47.79444" lon="2.15246">
        <ele>126</ele>
        <time>2017-01-08T09:29:06.960Z</time>
      </trkpt>
      <trkpt lat="47.79443" lon="2.15244">
        <ele>126</ele>
        <time>2017-01-08T09:29:07.962Z</time>
      </trkpt>
      <trkpt lat="47.79443" lon="2.15244">
        <ele>126</ele>
        <time>2017-01-08T09:29:08.956Z</time>
      </trkpt>
      <trkpt lat="47.79442" lon="2.15241">
        <ele>126</ele>
        <time>2017-01-08T09:29:09.991Z</time>
      </trkpt>
      <trkpt lat="47.79443" lon="2.1524">
        <ele>126</ele>
        <time>2017-01-08T09:29:10.991Z</time>
      </trkpt>
      <trkpt lat="47.79443" lon="2.1524">
        <ele>126</ele>
        <time>2017-01-08T09:29:11.986Z</time>
      </trkpt>
      <trkpt lat="47.79444" lon="2.15237">
        <ele>126</ele>
        <time>2017-01-08T09:29:12.991Z</time>
      </trkpt>
      <trkpt lat="47.79444" lon="2.15237">
        <ele>126</ele>
        <time>2017-01-08T09:29:13.990Z</time>
      </trkpt>
      <trkpt lat="47.79444" lon="2.15237">
        <ele>126</ele>
        <time>2017-01-08T09:29:14.991Z</time>
      </trkpt>
      <trkpt lat="47.79444" lon="2.15237">
        <ele>126</ele>
        <time>2017-01-08T09:29:15.992Z</time>
      </trkpt>
      <trkpt lat="47.79446" lon="2.15226">
        <ele>127</ele>
        <time>2017-01-08T09:29:16.984Z</time>
      </trkpt>
      <trkpt lat="47.79446" lon="2.15226">
        <ele>127</ele>
        <time>2017-01-08T09:29:17.980Z</time>
      </trkpt>
      <trkpt lat="47.79447" lon="2.15221">
        <ele>127</ele>
        <time>2017-01-08T09:29:18.985Z</time>
      </trkpt>
      <trkpt lat="47.79447" lon="2.15221">
        <ele>127</ele>
        <time>2017-01-08T09:29:19.971Z</time>
      </trkpt>
      <trkpt lat="47.79448" lon="2.15216">
        <ele>127</ele>
        <time>2017-01-08T09:29:20.984Z</time>
      </trkpt>
      <trkpt lat="47.79449" lon="2.15214">
        <ele>127</ele>
        <time>2017-01-08T09:29:21.954Z</time>
      </trkpt>
      <trkpt lat="47.79449" lon="2.15214">
        <ele>127</ele>
        <time>2017-01-08T09:29:22.985Z</time>
      </trkpt>
      <trkpt lat="47.7945" lon="2.15208">
        <ele>126</ele>
        <time>2017-01-08T09:29:23.985Z</time>
      </trkpt>
      <trkpt lat="47.7945" lon="2.15204">
        <ele>126</ele>
        <time>2017-01-08T09:29:24.984Z</time>
      </trkpt>
      <trkpt lat="47.7945" lon="2.15204">
        <ele>126</ele>
        <time>2017-01-08T09:29:25.980Z</time>
      </trkpt>
      <trkpt lat="47.79452" lon="2.15198">
        <ele>126</ele>
        <time>2017-01-08T09:29:26.981Z</time>
      </trkpt>
      <trkpt lat="47.79452" lon="2.15198">
        <ele>126</ele>
        <time>2017-01-08T09:29:27.974Z</time>
      </trkpt>
      <trkpt lat="47.79454" lon="2.15193">
        <ele>127</ele>
        <time>2017-01-08T09:29:28.986Z</time>
      </trkpt>
      <trkpt lat="47.79454" lon="2.15193">
        <ele>127</ele>
        <time>2017-01-08T09:29:29.979Z</time>
      </trkpt>
      <trkpt lat="47.79456" lon="2.15187">
        <ele>127</ele>
        <time>2017-01-08T09:29:30.984Z</time>
      </trkpt>
      <trkpt lat="47.79456" lon="2.15187">
        <ele>127</ele>
        <time>2017-01-08T09:29:31.981Z</time>
      </trkpt>
      <trkpt lat="47.79458" lon="2.1518">
        <ele>127</ele>
        <time>2017-01-08T09:29:32.985Z</time>
      </trkpt>
      <trkpt lat="47.79458" lon="2.1518">
        <ele>127</ele>
        <time>2017-01-08T09:29:33.976Z</time>
      </trkpt>
      <trkpt lat="47.79461" lon="2.15174">
        <ele>127</ele>
        <time>2017-01-08T09:29:34.985Z</time>
      </trkpt>
      <trkpt lat="47.79462" lon="2.15171">
        <ele>127</ele>
        <time>2017-01-08T09:29:35.985Z</time>
      </trkpt>
      <trkpt lat="47.79462" lon="2.15171">
        <ele>127</ele>
        <time>2017-01-08T09:29:36.979Z</time>
      </trkpt>
      <trkpt lat="47.79465" lon="2.15164">
        <ele>127</ele>
        <time>2017-01-08T09:29:37.981Z</time>
      </trkpt>
      <trkpt lat="47.79466" lon="2.1516">
        <ele>127</ele>
        <time>2017-01-08T09:29:38.984Z</time>
      </trkpt>
      <trkpt lat="47.79466" lon="2.1516">
        <ele>127</ele>
        <time>2017-01-08T09:29:39.980Z</time>
      </trkpt>
      <trkpt lat="47.79469" lon="2.15154">
        <ele>127</ele>
        <time>2017-01-08T09:29:40.985Z</time>
      </trkpt>
      <trkpt lat="47.7947" lon="2.15151">
        <ele>127</ele>
        <time>2017-01-08T09:29:41.983Z</time>
      </trkpt>
      <trkpt lat="47.7947" lon="2.15151">
        <ele>127</ele>
        <time>2017-01-08T09:29:42.980Z</time>
      </trkpt>
      <trkpt lat="47.79473" lon="2.15144">
        <ele>127</ele>
        <time>2017-01-08T09:29:43.983Z</time>
      </trkpt>
      <trkpt lat="47.79473" lon="2.15144">
        <ele>127</ele>
        <time>2017-01-08T09:29:44.979Z</time>
      </trkpt>
      <trkpt lat="47.79476" lon="2.15137">
        <ele>127</ele>
        <time>2017-01-08T09:29:45.984Z</time>
      </trkpt>
      <trkpt lat="47.79477" lon="2.15133">
        <ele>126</ele>
        <time>2017-01-08T09:29:46.986Z</time>
      </trkpt>
      <trkpt lat="47.79477" lon="2.15133">
        <ele>126</ele>
        <time>2017-01-08T09:29:47.983Z</time>
      </trkpt>
      <trkpt lat="47.79479" lon="2.15128">
        <ele>126</ele>
        <time>2017-01-08T09:29:48.982Z</time>
      </trkpt>
      <trkpt lat="47.79479" lon="2.15128">
        <ele>126</ele>
        <time>2017-01-08T09:29:49.981Z</time>
      </trkpt>
      <trkpt lat="47.79482" lon="2.15121">
        <ele>126</ele>
        <time>2017-01-08T09:29:50.985Z</time>
      </trkpt>
      <trkpt lat="47.79482" lon="2.15121">
        <ele>126</ele>
        <time>2017-01-08T09:29:51.988Z</time>
      </trkpt>
      <trkpt lat="47.79485" lon="2.15115">
        <ele>126</ele>
        <time>2017-01-08T09:29:52.985Z</time>
      </trkpt>
      <trkpt lat="47.79485" lon="2.15115">
        <ele>126</ele>
        <time>2017-01-08T09:29:53.983Z</time>
      </trkpt>
      <trkpt lat="47.79489" lon="2.15108">
        <ele>125</ele>
        <time>2017-01-08T09:29:54.984Z</time>
      </trkpt>
      <trkpt lat="47.79489" lon="2.15108">
        <ele>125</ele>
        <time>2017-01-08T09:29:55.974Z</time>
      </trkpt>
      <trkpt lat="47.79493" lon="2.151">
        <ele>125</ele>
        <time>2017-01-08T09:29:56.985Z</time>
      </trkpt>
      <trkpt lat="47.79493" lon="2.151">
        <ele>125</ele>
        <time>2017-01-08T09:29:57.979Z</time>
      </trkpt>
      <trkpt lat="47.79497" lon="2.15093">
        <ele>125</ele>
        <time>2017-01-08T09:29:58.985Z</time>
      </trkpt>
      <trkpt lat="47.79499" lon="2.1509">
        <ele>125</ele>
        <time>2017-01-08T09:29:59.985Z</time>
      </trkpt>
      <trkpt lat="47.79499" lon="2.1509">
        <ele>125</ele>
        <time>2017-01-08T09:30:00.974Z</time>
      </trkpt>
      <trkpt lat="47.79502" lon="2.15085">
        <ele>124</ele>
        <time>2017-01-08T09:30:01.988Z</time>
      </trkpt>
      <trkpt lat="47.79502" lon="2.15085">
        <ele>124</ele>
        <time>2017-01-08T09:30:02.978Z</time>
      </trkpt>
      <trkpt lat="47.79504" lon="2.1508">
        <ele>124</ele>
        <time>2017-01-08T09:30:03.987Z</time>
      </trkpt>
      <trkpt lat="47.79504" lon="2.1508">
        <ele>124</ele>
        <time>2017-01-08T09:30:04.982Z</time>
      </trkpt>
      <trkpt lat="47.79508" lon="2.15075">
        <ele>124</ele>
        <time>2017-01-08T09:30:05.983Z</time>
      </trkpt>
      <trkpt lat="47.79508" lon="2.15075">
        <ele>124</ele>
        <time>2017-01-08T09:30:06.980Z</time>
      </trkpt>
      <trkpt lat="47.7951" lon="2.1507">
        <ele>124</ele>
        <time>2017-01-08T09:30:07.981Z</time>
      </trkpt>
      <trkpt lat="47.7951" lon="2.15067">
        <ele>124</ele>
        <time>2017-01-08T09:30:08.985Z</time>
      </trkpt>
      <trkpt lat="47.7951" lon="2.15067">
        <ele>124</ele>
        <time>2017-01-08T09:30:09.974Z</time>
      </trkpt>
      <trkpt lat="47.79513" lon="2.15064">
        <ele>124</ele>
        <time>2017-01-08T09:30:10.986Z</time>
      </trkpt>
      <trkpt lat="47.79514" lon="2.15062">
        <ele>124</ele>
        <time>2017-01-08T09:30:11.986Z</time>
      </trkpt>
      <trkpt lat="47.79514" lon="2.15062">
        <ele>124</ele>
        <time>2017-01-08T09:30:12.974Z</time>
      </trkpt>
      <trkpt lat="47.79516" lon="2.15058">
        <ele>123</ele>
        <time>2017-01-08T09:30:13.984Z</time>
      </trkpt>
      <trkpt lat="47.79516" lon="2.15058">
        <ele>123</ele>
        <time>2017-01-08T09:30:14.979Z</time>
      </trkpt>
      <trkpt lat="47.79517" lon="2.15055">
        <ele>123</ele>
        <time>2017-01-08T09:30:15.985Z</time>
      </trkpt>
      <trkpt lat="47.79516" lon="2.15054">
        <ele>123</ele>
        <time>2017-01-08T09:30:16.985Z</time>
      </trkpt>
      <trkpt lat="47.79516" lon="2.15054">
        <ele>123</ele>
        <time>2017-01-08T09:30:17.985Z</time>
      </trkpt>
      <trkpt lat="47.79516" lon="2.15054">
        <ele>123</ele>
        <time>2017-01-08T09:30:18.982Z</time>
      </trkpt>
      <trkpt lat="47.79516" lon="2.15054">
        <ele>123</ele>
        <time>2017-01-08T09:30:19.981Z</time>
      </trkpt>
      <trkpt lat="47.79525" lon="2.15045">
        <ele>123</ele>
        <time>2017-01-08T09:30:20.980Z</time>
      </trkpt>
      <trkpt lat="47.79527" lon="2.15043">
        <ele>123</ele>
        <time>2017-01-08T09:30:21.988Z</time>
      </trkpt>
      <trkpt lat="47.79527" lon="2.15043">
        <ele>123</ele>
        <time>2017-01-08T09:30:22.978Z</time>
      </trkpt>
      <trkpt lat="47.7953" lon="2.1504">
        <ele>123</ele>
        <time>2017-01-08T09:30:23.969Z</time>
      </trkpt>
      <trkpt lat="47.79531" lon="2.15038">
        <ele>123</ele>
        <time>2017-01-08T09:30:24.970Z</time>
      </trkpt>
      <trkpt lat="47.79533" lon="2.15036">
        <ele>123</ele>
        <time>2017-01-08T09:30:25.969Z</time>
      </trkpt>
      <trkpt lat="47.79533" lon="2.15036">
        <ele>123</ele>
        <time>2017-01-08T09:30:26.967Z</time>
      </trkpt>
      <trkpt lat="47.79537" lon="2.15031">
        <ele>123</ele>
        <time>2017-01-08T09:30:27.969Z</time>
      </trkpt>
      <trkpt lat="47.79538" lon="2.15029">
        <ele>123</ele>
        <time>2017-01-08T09:30:28.967Z</time>
      </trkpt>
      <trkpt lat="47.79538" lon="2.15029">
        <ele>123</ele>
        <time>2017-01-08T09:30:29.960Z</time>
      </trkpt>
      <trkpt lat="47.79542" lon="2.15025">
        <ele>123</ele>
        <time>2017-01-08T09:30:30.970Z</time>
      </trkpt>
      <trkpt lat="47.79545" lon="2.15023">
        <ele>123</ele>
        <time>2017-01-08T09:30:31.969Z</time>
      </trkpt>
      <trkpt lat="47.79545" lon="2.15023">
        <ele>123</ele>
        <time>2017-01-08T09:30:32.959Z</time>
      </trkpt>
      <trkpt lat="47.79552" lon="2.15017">
        <ele>123</ele>
        <time>2017-01-08T09:30:33.979Z</time>
      </trkpt>
      <trkpt lat="47.79554" lon="2.15014">
        <ele>123</ele>
        <time>2017-01-08T09:30:34.967Z</time>
      </trkpt>
      <trkpt lat="47.79557" lon="2.15012">
        <ele>123</ele>
        <time>2017-01-08T09:30:35.971Z</time>
      </trkpt>
      <trkpt lat="47.79557" lon="2.15012">
        <ele>123</ele>
        <time>2017-01-08T09:30:36.964Z</time>
      </trkpt>
      <trkpt lat="47.79561" lon="2.15009">
        <ele>124</ele>
        <time>2017-01-08T09:30:37.969Z</time>
      </trkpt>
      <trkpt lat="47.79561" lon="2.15009">
        <ele>124</ele>
        <time>2017-01-08T09:30:38.966Z</time>
      </trkpt>
      <trkpt lat="47.79565" lon="2.15005">
        <ele>124</ele>
        <time>2017-01-08T09:30:39.967Z</time>
      </trkpt>
      <trkpt lat="47.79565" lon="2.15005">
        <ele>124</ele>
        <time>2017-01-08T09:30:40.967Z</time>
      </trkpt>
      <trkpt lat="47.79569" lon="2.15002">
        <ele>124</ele>
        <time>2017-01-08T09:30:41.970Z</time>
      </trkpt>
      <trkpt lat="47.79569" lon="2.15002">
        <ele>124</ele>
        <time>2017-01-08T09:30:42.967Z</time>
      </trkpt>
      <trkpt lat="47.79573" lon="2.14998">
        <ele>124</ele>
        <time>2017-01-08T09:30:43.970Z</time>
      </trkpt>
      <trkpt lat="47.79576" lon="2.14996">
        <ele>124</ele>
        <time>2017-01-08T09:30:44.969Z</time>
      </trkpt>
      <trkpt lat="47.79576" lon="2.14996">
        <ele>124</ele>
        <time>2017-01-08T09:30:45.966Z</time>
      </trkpt>
      <trkpt lat="47.79581" lon="2.14992">
        <ele>124</ele>
        <time>2017-01-08T09:30:46.970Z</time>
      </trkpt>
      <trkpt lat="47.79583" lon="2.14991">
        <ele>124</ele>
        <time>2017-01-08T09:30:47.971Z</time>
      </trkpt>
      <trkpt lat="47.79583" lon="2.14991">
        <ele>124</ele>
        <time>2017-01-08T09:30:48.964Z</time>
      </trkpt>
      <trkpt lat="47.79589" lon="2.14987">
        <ele>124</ele>
        <time>2017-01-08T09:30:49.970Z</time>
      </trkpt>
      <trkpt lat="47.79589" lon="2.14987">
        <ele>124</ele>
        <time>2017-01-08T09:30:50.964Z</time>
      </trkpt>
      <trkpt lat="47.79595" lon="2.14983">
        <ele>124</ele>
        <time>2017-01-08T09:30:51.968Z</time>
      </trkpt>
      <trkpt lat="47.79595" lon="2.14983">
        <ele>124</ele>
        <time>2017-01-08T09:30:52.965Z</time>
      </trkpt>
      <trkpt lat="47.79603" lon="2.14979">
        <ele>123</ele>
        <time>2017-01-08T09:30:53.971Z</time>
      </trkpt>
      <trkpt lat="47.79603" lon="2.14979">
        <ele>123</ele>
        <time>2017-01-08T09:30:54.974Z</time>
      </trkpt>
      <trkpt lat="47.7961" lon="2.14975">
        <ele>122</ele>
        <time>2017-01-08T09:30:55.969Z</time>
      </trkpt>
      <trkpt lat="47.7961" lon="2.14975">
        <ele>122</ele>
        <time>2017-01-08T09:30:56.965Z</time>
      </trkpt>
      <trkpt lat="47.79617" lon="2.14971">
        <ele>121</ele>
        <time>2017-01-08T09:30:57.970Z</time>
      </trkpt>
      <trkpt lat="47.79622" lon="2.14968">
        <ele>121</ele>
        <time>2017-01-08T09:30:58.970Z</time>
      </trkpt>
      <trkpt lat="47.79625" lon="2.14966">
        <ele>120</ele>
        <time>2017-01-08T09:30:59.974Z</time>
      </trkpt>
      <trkpt lat="47.79625" lon="2.14966">
        <ele>120</ele>
        <time>2017-01-08T09:31:00.959Z</time>
      </trkpt>
      <trkpt lat="47.79633" lon="2.14963">
        <ele>119</ele>
        <time>2017-01-08T09:31:01.970Z</time>
      </trkpt>
      <trkpt lat="47.79633" lon="2.14963">
        <ele>119</ele>
        <time>2017-01-08T09:31:02.959Z</time>
      </trkpt>
      <trkpt lat="47.79641" lon="2.14959">
        <ele>119</ele>
        <time>2017-01-08T09:31:03.968Z</time>
      </trkpt>
      <trkpt lat="47.79641" lon="2.14959">
        <ele>119</ele>
        <time>2017-01-08T09:31:04.968Z</time>
      </trkpt>
      <trkpt lat="47.79647" lon="2.14954">
        <ele>118</ele>
        <time>2017-01-08T09:31:05.968Z</time>
      </trkpt>
      <trkpt lat="47.79647" lon="2.14954">
        <ele>118</ele>
        <time>2017-01-08T09:31:06.967Z</time>
      </trkpt>
      <trkpt lat="47.79653" lon="2.14948">
        <ele>118</ele>
        <time>2017-01-08T09:31:07.969Z</time>
      </trkpt>
      <trkpt lat="47.79653" lon="2.14948">
        <ele>118</ele>
        <time>2017-01-08T09:31:08.959Z</time>
      </trkpt>
      <trkpt lat="47.79656" lon="2.14943">
        <ele>118</ele>
        <time>2017-01-08T09:31:09.970Z</time>
      </trkpt>
      <trkpt lat="47.79656" lon="2.14943">
        <ele>118</ele>
        <time>2017-01-08T09:31:10.968Z</time>
      </trkpt>
      <trkpt lat="47.79659" lon="2.14937">
        <ele>118</ele>
        <time>2017-01-08T09:31:11.970Z</time>
      </trkpt>
      <trkpt lat="47.79659" lon="2.14937">
        <ele>118</ele>
        <time>2017-01-08T09:31:12.967Z</time>
      </trkpt>
      <trkpt lat="47.79661" lon="2.14932">
        <ele>118</ele>
        <time>2017-01-08T09:31:13.970Z</time>
      </trkpt>
      <trkpt lat="47.79663" lon="2.14929">
        <ele>117</ele>
        <time>2017-01-08T09:31:14.970Z</time>
      </trkpt>
      <trkpt lat="47.79663" lon="2.14929">
        <ele>117</ele>
        <time>2017-01-08T09:31:15.967Z</time>
      </trkpt>
      <trkpt lat="47.79665" lon="2.14922">
        <ele>117</ele>
        <time>2017-01-08T09:31:16.971Z</time>
      </trkpt>
      <trkpt lat="47.79665" lon="2.14922">
        <ele>117</ele>
        <time>2017-01-08T09:31:17.965Z</time>
      </trkpt>
      <trkpt lat="47.79668" lon="2.14917">
        <ele>117</ele>
        <time>2017-01-08T09:31:18.967Z</time>
      </trkpt>
      <trkpt lat="47.79669" lon="2.14914">
        <ele>117</ele>
        <time>2017-01-08T09:31:19.970Z</time>
      </trkpt>
      <trkpt lat="47.79669" lon="2.14914">
        <ele>117</ele>
        <time>2017-01-08T09:31:20.967Z</time>
      </trkpt>
      <trkpt lat="47.7967" lon="2.14909">
        <ele>117</ele>
        <time>2017-01-08T09:31:21.969Z</time>
      </trkpt>
      <trkpt lat="47.7967" lon="2.14909">
        <ele>117</ele>
        <time>2017-01-08T09:31:22.966Z</time>
      </trkpt>
      <trkpt lat="47.79672" lon="2.14904">
        <ele>117</ele>
        <time>2017-01-08T09:31:23.970Z</time>
      </trkpt>
      <trkpt lat="47.79672" lon="2.14904">
        <ele>117</ele>
        <time>2017-01-08T09:31:24.967Z</time>
      </trkpt>
      <trkpt lat="47.79674" lon="2.14898">
        <ele>117</ele>
        <time>2017-01-08T09:31:25.970Z</time>
      </trkpt>
      <trkpt lat="47.79674" lon="2.14898">
        <ele>117</ele>
        <time>2017-01-08T09:31:26.959Z</time>
      </trkpt>
      <trkpt lat="47.79677" lon="2.14892">
        <ele>117</ele>
        <time>2017-01-08T09:31:27.970Z</time>
      </trkpt>
      <trkpt lat="47.79678" lon="2.14889">
        <ele>117</ele>
        <time>2017-01-08T09:31:28.980Z</time>
      </trkpt>
      <trkpt lat="47.79678" lon="2.14889">
        <ele>117</ele>
        <time>2017-01-08T09:31:29.978Z</time>
      </trkpt>
      <trkpt lat="47.79681" lon="2.14882">
        <ele>117</ele>
        <time>2017-01-08T09:31:30.970Z</time>
      </trkpt>
      <trkpt lat="47.79682" lon="2.14879">
        <ele>117</ele>
        <time>2017-01-08T09:31:31.967Z</time>
      </trkpt>
      <trkpt lat="47.79682" lon="2.14879">
        <ele>117</ele>
        <time>2017-01-08T09:31:32.960Z</time>
      </trkpt>
      <trkpt lat="47.79684" lon="2.14873">
        <ele>117</ele>
        <time>2017-01-08T09:31:33.970Z</time>
      </trkpt>
      <trkpt lat="47.79687" lon="2.14869">
        <ele>117</ele>
        <time>2017-01-08T09:31:34.971Z</time>
      </trkpt>
      <trkpt lat="47.79688" lon="2.14866">
        <ele>117</ele>
        <time>2017-01-08T09:31:35.971Z</time>
      </trkpt>
      <trkpt lat="47.79688" lon="2.14866">
        <ele>117</ele>
        <time>2017-01-08T09:31:36.966Z</time>
      </trkpt>
      <trkpt lat="47.79691" lon="2.14859">
        <ele>118</ele>
        <time>2017-01-08T09:31:37.970Z</time>
      </trkpt>
      <trkpt lat="47.79691" lon="2.14859">
        <ele>118</ele>
        <time>2017-01-08T09:31:38.960Z</time>
      </trkpt>
      <trkpt lat="47.79695" lon="2.14852">
        <ele>118</ele>
        <time>2017-01-08T09:31:39.970Z</time>
      </trkpt>
      <trkpt lat="47.79695" lon="2.14852">
        <ele>118</ele>
        <time>2017-01-08T09:31:40.968Z</time>
      </trkpt>
      <trkpt lat="47.79697" lon="2.14846">
        <ele>118</ele>
        <time>2017-01-08T09:31:41.971Z</time>
      </trkpt>
      <trkpt lat="47.79697" lon="2.14846">
        <ele>118</ele>
        <time>2017-01-08T09:31:42.967Z</time>
      </trkpt>
      <trkpt lat="47.797" lon="2.1484">
        <ele>118</ele>
        <time>2017-01-08T09:31:43.970Z</time>
      </trkpt>
      <trkpt lat="47.797" lon="2.1484">
        <ele>118</ele>
        <time>2017-01-08T09:31:44.960Z</time>
      </trkpt>
      <trkpt lat="47.79704" lon="2.14834">
        <ele>118</ele>
        <time>2017-01-08T09:31:45.970Z</time>
      </trkpt>
      <trkpt lat="47.79706" lon="2.14832">
        <ele>118</ele>
        <time>2017-01-08T09:31:46.970Z</time>
      </trkpt>
      <trkpt lat="47.79706" lon="2.14832">
        <ele>118</ele>
        <time>2017-01-08T09:31:47.968Z</time>
      </trkpt>
      <trkpt lat="47.7971" lon="2.14825">
        <ele>118</ele>
        <time>2017-01-08T09:31:48.970Z</time>
      </trkpt>
      <trkpt lat="47.79712" lon="2.14823">
        <ele>118</ele>
        <time>2017-01-08T09:31:49.970Z</time>
      </trkpt>
      <trkpt lat="47.79712" lon="2.14823">
        <ele>118</ele>
        <time>2017-01-08T09:31:50.968Z</time>
      </trkpt>
      <trkpt lat="47.79717" lon="2.14818">
        <ele>118</ele>
        <time>2017-01-08T09:31:51.969Z</time>
      </trkpt>
      <trkpt lat="47.79717" lon="2.14818">
        <ele>118</ele>
        <time>2017-01-08T09:31:52.968Z</time>
      </trkpt>
      <trkpt lat="47.7972" lon="2.14813">
        <ele>117</ele>
        <time>2017-01-08T09:31:53.975Z</time>
      </trkpt>
      <trkpt lat="47.7972" lon="2.14813">
        <ele>117</ele>
        <time>2017-01-08T09:31:54.970Z</time>
      </trkpt>
      <trkpt lat="47.79726" lon="2.14808">
        <ele>117</ele>
        <time>2017-01-08T09:31:55.970Z</time>
      </trkpt>
      <trkpt lat="47.79726" lon="2.14808">
        <ele>117</ele>
        <time>2017-01-08T09:31:56.967Z</time>
      </trkpt>
      <trkpt lat="47.79732" lon="2.14802">
        <ele>117</ele>
        <time>2017-01-08T09:31:57.971Z</time>
      </trkpt>
      <trkpt lat="47.79734" lon="2.14799">
        <ele>117</ele>
        <time>2017-01-08T09:31:58.971Z</time>
      </trkpt>
      <trkpt lat="47.79738" lon="2.14796">
        <ele>117</ele>
        <time>2017-01-08T09:31:59.971Z</time>
      </trkpt>
      <trkpt lat="47.79738" lon="2.14796">
        <ele>117</ele>
        <time>2017-01-08T09:32:00.964Z</time>
      </trkpt>
      <trkpt lat="47.79744" lon="2.14791">
        <ele>117</ele>
        <time>2017-01-08T09:32:01.970Z</time>
      </trkpt>
      <trkpt lat="47.79744" lon="2.14791">
        <ele>117</ele>
        <time>2017-01-08T09:32:02.967Z</time>
      </trkpt>
      <trkpt lat="47.79749" lon="2.14785">
        <ele>117</ele>
        <time>2017-01-08T09:32:03.968Z</time>
      </trkpt>
      <trkpt lat="47.79749" lon="2.14785">
        <ele>117</ele>
        <time>2017-01-08T09:32:04.976Z</time>
      </trkpt>
      <trkpt lat="47.79756" lon="2.1478">
        <ele>117</ele>
        <time>2017-01-08T09:32:05.972Z</time>
      </trkpt>
      <trkpt lat="47.79759" lon="2.14777">
        <ele>117</ele>
        <time>2017-01-08T09:32:06.971Z</time>
      </trkpt>
      <trkpt lat="47.79759" lon="2.14777">
        <ele>117</ele>
        <time>2017-01-08T09:32:07.968Z</time>
      </trkpt>
      <trkpt lat="47.79766" lon="2.14771">
        <ele>117</ele>
        <time>2017-01-08T09:32:08.980Z</time>
      </trkpt>
      <trkpt lat="47.7977" lon="2.14767">
        <ele>117</ele>
        <time>2017-01-08T09:32:09.972Z</time>
      </trkpt>
      <trkpt lat="47.7977" lon="2.14767">
        <ele>117</ele>
        <time>2017-01-08T09:32:10.966Z</time>
      </trkpt>
      <trkpt lat="47.79777" lon="2.1476">
        <ele>117</ele>
        <time>2017-01-08T09:32:11.970Z</time>
      </trkpt>
      <trkpt lat="47.79777" lon="2.1476">
        <ele>117</ele>
        <time>2017-01-08T09:32:12.968Z</time>
      </trkpt>
      <trkpt lat="47.79784" lon="2.14753">
        <ele>117</ele>
        <time>2017-01-08T09:32:13.975Z</time>
      </trkpt>
      <trkpt lat="47.79784" lon="2.14753">
        <ele>117</ele>
        <time>2017-01-08T09:32:14.967Z</time>
      </trkpt>
      <trkpt lat="47.79791" lon="2.14746">
        <ele>117</ele>
        <time>2017-01-08T09:32:15.970Z</time>
      </trkpt>
      <trkpt lat="47.79791" lon="2.14746">
        <ele>117</ele>
        <time>2017-01-08T09:32:16.968Z</time>
      </trkpt>
      <trkpt lat="47.79798" lon="2.14739">
        <ele>117</ele>
        <time>2017-01-08T09:32:17.971Z</time>
      </trkpt>
      <trkpt lat="47.79801" lon="2.14736">
        <ele>117</ele>
        <time>2017-01-08T09:32:18.970Z</time>
      </trkpt>
      <trkpt lat="47.79805" lon="2.14732">
        <ele>117</ele>
        <time>2017-01-08T09:32:19.971Z</time>
      </trkpt>
      <trkpt lat="47.79805" lon="2.14732">
        <ele>117</ele>
        <time>2017-01-08T09:32:20.968Z</time>
      </trkpt>
      <trkpt lat="47.79811" lon="2.14725">
        <ele>117</ele>
        <time>2017-01-08T09:32:21.970Z</time>
      </trkpt>
      <trkpt lat="47.79811" lon="2.14725">
        <ele>117</ele>
        <time>2017-01-08T09:32:22.968Z</time>
      </trkpt>
      <trkpt lat="47.79817" lon="2.14717">
        <ele>117</ele>
        <time>2017-01-08T09:32:23.968Z</time>
      </trkpt>
      <trkpt lat="47.7982" lon="2.14713">
        <ele>118</ele>
        <time>2017-01-08T09:32:24.970Z</time>
      </trkpt>
      <trkpt lat="47.79824" lon="2.14709">
        <ele>118</ele>
        <time>2017-01-08T09:32:25.970Z</time>
      </trkpt>
      <trkpt lat="47.79824" lon="2.14709">
        <ele>118</ele>
        <time>2017-01-08T09:32:26.967Z</time>
      </trkpt>
      <trkpt lat="47.7983" lon="2.14701">
        <ele>118</ele>
        <time>2017-01-08T09:32:27.985Z</time>
      </trkpt>
      <trkpt lat="47.79833" lon="2.14697">
        <ele>118</ele>
        <time>2017-01-08T09:32:28.972Z</time>
      </trkpt>
      <trkpt lat="47.79833" lon="2.14697">
        <ele>118</ele>
        <time>2017-01-08T09:32:29.966Z</time>
      </trkpt>
      <trkpt lat="47.79838" lon="2.14689">
        <ele>119</ele>
        <time>2017-01-08T09:32:30.970Z</time>
      </trkpt>
      <trkpt lat="47.79842" lon="2.14685">
        <ele>119</ele>
        <time>2017-01-08T09:32:31.971Z</time>
      </trkpt>
      <trkpt lat="47.79842" lon="2.14685">
        <ele>119</ele>
        <time>2017-01-08T09:32:32.967Z</time>
      </trkpt>
      <trkpt lat="47.79848" lon="2.14678">
        <ele>118</ele>
        <time>2017-01-08T09:32:33.970Z</time>
      </trkpt>
      <trkpt lat="47.79851" lon="2.14674">
        <ele>118</ele>
        <time>2017-01-08T09:32:34.965Z</time>
      </trkpt>
      <trkpt lat="47.79854" lon="2.1467">
        <ele>118</ele>
        <time>2017-01-08T09:32:35.971Z</time>
      </trkpt>
      <trkpt lat="47.79854" lon="2.1467">
        <ele>118</ele>
        <time>2017-01-08T09:32:36.968Z</time>
      </trkpt>
      <trkpt lat="47.7986" lon="2.14662">
        <ele>118</ele>
        <time>2017-01-08T09:32:37.969Z</time>
      </trkpt>
      <trkpt lat="47.7986" lon="2.14662">
        <ele>118</ele>
        <time>2017-01-08T09:32:38.960Z</time>
      </trkpt>
      <trkpt lat="47.79866" lon="2.14653">
        <ele>118</ele>
        <time>2017-01-08T09:32:39.969Z</time>
      </trkpt>
      <trkpt lat="47.7987" lon="2.14649">
        <ele>118</ele>
        <time>2017-01-08T09:32:40.971Z</time>
      </trkpt>
      <trkpt lat="47.7987" lon="2.14649">
        <ele>118</ele>
        <time>2017-01-08T09:32:41.965Z</time>
      </trkpt>
      <trkpt lat="47.79876" lon="2.1464">
        <ele>118</ele>
        <time>2017-01-08T09:32:42.967Z</time>
      </trkpt>
      <trkpt lat="47.79879" lon="2.14636">
        <ele>118</ele>
        <time>2017-01-08T09:32:43.971Z</time>
      </trkpt>
      <trkpt lat="47.79879" lon="2.14636">
        <ele>118</ele>
        <time>2017-01-08T09:32:44.967Z</time>
      </trkpt>
      <trkpt lat="47.79885" lon="2.14627">
        <ele>118</ele>
        <time>2017-01-08T09:32:45.970Z</time>
      </trkpt>
      <trkpt lat="47.79885" lon="2.14627">
        <ele>118</ele>
        <time>2017-01-08T09:32:46.966Z</time>
      </trkpt>
      <trkpt lat="47.79891" lon="2.14618">
        <ele>118</ele>
        <time>2017-01-08T09:32:47.969Z</time>
      </trkpt>
      <trkpt lat="47.79894" lon="2.14614">
        <ele>118</ele>
        <time>2017-01-08T09:32:48.970Z</time>
      </trkpt>
      <trkpt lat="47.79897" lon="2.14609">
        <ele>117</ele>
        <time>2017-01-08T09:32:49.967Z</time>
      </trkpt>
      <trkpt lat="47.79897" lon="2.14609">
        <ele>117</ele>
        <time>2017-01-08T09:32:50.960Z</time>
      </trkpt>
      <trkpt lat="47.79903" lon="2.14601">
        <ele>117</ele>
        <time>2017-01-08T09:32:51.969Z</time>
      </trkpt>
      <trkpt lat="47.79905" lon="2.14596">
        <ele>117</ele>
        <time>2017-01-08T09:32:52.985Z</time>
      </trkpt>
      <trkpt lat="47.79905" lon="2.14596">
        <ele>117</ele>
        <time>2017-01-08T09:32:53.969Z</time>
      </trkpt>
      <trkpt lat="47.7991" lon="2.14587">
        <ele>117</ele>
        <time>2017-01-08T09:32:54.967Z</time>
      </trkpt>
      <trkpt lat="47.79913" lon="2.14582">
        <ele>117</ele>
        <time>2017-01-08T09:32:55.970Z</time>
      </trkpt>
      <trkpt lat="47.79913" lon="2.14582">
        <ele>117</ele>
        <time>2017-01-08T09:32:56.968Z</time>
      </trkpt>
      <trkpt lat="47.79916" lon="2.14573">
        <ele>117</ele>
        <time>2017-01-08T09:32:57.966Z</time>
      </trkpt>
      <trkpt lat="47.79917" lon="2.14567">
        <ele>117</ele>
        <time>2017-01-08T09:32:58.972Z</time>
      </trkpt>
      <trkpt lat="47.79919" lon="2.14563">
        <ele>117</ele>
        <time>2017-01-08T09:32:59.972Z</time>
      </trkpt>
      <trkpt lat="47.79919" lon="2.14563">
        <ele>117</ele>
        <time>2017-01-08T09:33:00.968Z</time>
      </trkpt>
      <trkpt lat="47.79922" lon="2.14553">
        <ele>116</ele>
        <time>2017-01-08T09:33:01.971Z</time>
      </trkpt>
      <trkpt lat="47.79922" lon="2.14553">
        <ele>116</ele>
        <time>2017-01-08T09:33:02.967Z</time>
      </trkpt>
      <trkpt lat="47.79925" lon="2.14544">
        <ele>116</ele>
        <time>2017-01-08T09:33:03.970Z</time>
      </trkpt>
      <trkpt lat="47.79926" lon="2.14539">
        <ele>116</ele>
        <time>2017-01-08T09:33:04.960Z</time>
      </trkpt>
      <trkpt lat="47.79926" lon="2.14539">
        <ele>116</ele>
        <time>2017-01-08T09:33:05.966Z</time>
      </trkpt>
      <trkpt lat="47.79929" lon="2.14529">
        <ele>116</ele>
        <time>2017-01-08T09:33:06.973Z</time>
      </trkpt>
      <trkpt lat="47.79931" lon="2.14524">
        <ele>116</ele>
        <time>2017-01-08T09:33:07.970Z</time>
      </trkpt>
      <trkpt lat="47.79931" lon="2.14524">
        <ele>116</ele>
        <time>2017-01-08T09:33:08.968Z</time>
      </trkpt>
      <trkpt lat="47.79933" lon="2.14513">
        <ele>116</ele>
        <time>2017-01-08T09:33:09.990Z</time>
      </trkpt>
      <trkpt lat="47.79933" lon="2.14513">
        <ele>116</ele>
        <time>2017-01-08T09:33:10.981Z</time>
      </trkpt>
      <trkpt lat="47.79936" lon="2.14503">
        <ele>115</ele>
        <time>2017-01-08T09:33:11.972Z</time>
      </trkpt>
      <trkpt lat="47.79936" lon="2.14503">
        <ele>115</ele>
        <time>2017-01-08T09:33:12.968Z</time>
      </trkpt>
      <trkpt lat="47.79938" lon="2.14491">
        <ele>115</ele>
        <time>2017-01-08T09:33:13.970Z</time>
      </trkpt>
      <trkpt lat="47.79938" lon="2.14491">
        <ele>115</ele>
        <time>2017-01-08T09:33:14.968Z</time>
      </trkpt>
      <trkpt lat="47.7994" lon="2.1448">
        <ele>115</ele>
        <time>2017-01-08T09:33:15.970Z</time>
      </trkpt>
      <trkpt lat="47.7994" lon="2.1448">
        <ele>115</ele>
        <time>2017-01-08T09:33:16.969Z</time>
      </trkpt>
      <trkpt lat="47.79942" lon="2.14469">
        <ele>115</ele>
        <time>2017-01-08T09:33:17.969Z</time>
      </trkpt>
      <trkpt lat="47.79943" lon="2.14463">
        <ele>114</ele>
        <time>2017-01-08T09:33:18.970Z</time>
      </trkpt>
      <trkpt lat="47.79945" lon="2.14457">
        <ele>114</ele>
        <time>2017-01-08T09:33:19.972Z</time>
      </trkpt>
      <trkpt lat="47.79945" lon="2.14457">
        <ele>114</ele>
        <time>2017-01-08T09:33:20.968Z</time>
      </trkpt>
      <trkpt lat="47.79947" lon="2.14446">
        <ele>114</ele>
        <time>2017-01-08T09:33:21.970Z</time>
      </trkpt>
      <trkpt lat="47.79947" lon="2.14446">
        <ele>114</ele>
        <time>2017-01-08T09:33:22.969Z</time>
      </trkpt>
      <trkpt lat="47.79949" lon="2.14434">
        <ele>114</ele>
        <time>2017-01-08T09:33:23.968Z</time>
      </trkpt>
      <trkpt lat="47.7995" lon="2.14429">
        <ele>114</ele>
        <time>2017-01-08T09:33:24.970Z</time>
      </trkpt>
      <trkpt lat="47.7995" lon="2.14429">
        <ele>114</ele>
        <time>2017-01-08T09:33:25.960Z</time>
      </trkpt>
      <trkpt lat="47.79953" lon="2.14417">
        <ele>114</ele>
        <time>2017-01-08T09:33:26.970Z</time>
      </trkpt>
      <trkpt lat="47.79953" lon="2.14417">
        <ele>114</ele>
        <time>2017-01-08T09:33:27.965Z</time>
      </trkpt>
      <trkpt lat="47.79955" lon="2.14406">
        <ele>114</ele>
        <time>2017-01-08T09:33:28.968Z</time>
      </trkpt>
      <trkpt lat="47.79955" lon="2.14406">
        <ele>114</ele>
        <time>2017-01-08T09:33:29.960Z</time>
      </trkpt>
      <trkpt lat="47.79957" lon="2.14394">
        <ele>114</ele>
        <time>2017-01-08T09:33:30.969Z</time>
      </trkpt>
      <trkpt lat="47.79957" lon="2.14394">
        <ele>114</ele>
        <time>2017-01-08T09:33:31.969Z</time>
      </trkpt>
      <trkpt lat="47.7996" lon="2.14383">
        <ele>114</ele>
        <time>2017-01-08T09:33:32.971Z</time>
      </trkpt>
      <trkpt lat="47.7996" lon="2.14383">
        <ele>114</ele>
        <time>2017-01-08T09:33:33.980Z</time>
      </trkpt>
      <trkpt lat="47.79962" lon="2.14372">
        <ele>114</ele>
        <time>2017-01-08T09:33:34.972Z</time>
      </trkpt>
      <trkpt lat="47.79962" lon="2.14372">
        <ele>114</ele>
        <time>2017-01-08T09:33:35.966Z</time>
      </trkpt>
      <trkpt lat="47.79964" lon="2.1436">
        <ele>114</ele>
        <time>2017-01-08T09:33:36.970Z</time>
      </trkpt>
      <trkpt lat="47.79964" lon="2.1436">
        <ele>114</ele>
        <time>2017-01-08T09:33:37.965Z</time>
      </trkpt>
      <trkpt lat="47.79966" lon="2.14348">
        <ele>114</ele>
        <time>2017-01-08T09:33:38.968Z</time>
      </trkpt>
      <trkpt lat="47.79966" lon="2.14348">
        <ele>114</ele>
        <time>2017-01-08T09:33:39.968Z</time>
      </trkpt>
      <trkpt lat="47.79968" lon="2.14337">
        <ele>113</ele>
        <time>2017-01-08T09:33:40.971Z</time>
      </trkpt>
      <trkpt lat="47.79968" lon="2.14337">
        <ele>113</ele>
        <time>2017-01-08T09:33:41.968Z</time>
      </trkpt>
      <trkpt lat="47.79971" lon="2.14325">
        <ele>113</ele>
        <time>2017-01-08T09:33:42.971Z</time>
      </trkpt>
      <trkpt lat="47.79972" lon="2.14319">
        <ele>113</ele>
        <time>2017-01-08T09:33:43.970Z</time>
      </trkpt>
      <trkpt lat="47.79972" lon="2.14319">
        <ele>113</ele>
        <time>2017-01-08T09:33:44.968Z</time>
      </trkpt>
      <trkpt lat="47.79974" lon="2.14308">
        <ele>113</ele>
        <time>2017-01-08T09:33:45.970Z</time>
      </trkpt>
      <trkpt lat="47.79974" lon="2.14308">
        <ele>113</ele>
        <time>2017-01-08T09:33:46.966Z</time>
      </trkpt>
      <trkpt lat="47.79976" lon="2.14297">
        <ele>113</ele>
        <time>2017-01-08T09:33:47.968Z</time>
      </trkpt>
      <trkpt lat="47.79977" lon="2.14291">
        <ele>113</ele>
        <time>2017-01-08T09:33:48.970Z</time>
      </trkpt>
      <trkpt lat="47.79978" lon="2.14285">
        <ele>113</ele>
        <time>2017-01-08T09:33:49.971Z</time>
      </trkpt>
      <trkpt lat="47.79978" lon="2.14285">
        <ele>113</ele>
        <time>2017-01-08T09:33:50.967Z</time>
      </trkpt>
      <trkpt lat="47.7998" lon="2.14274">
        <ele>113</ele>
        <time>2017-01-08T09:33:51.969Z</time>
      </trkpt>
      <trkpt lat="47.7998" lon="2.14274">
        <ele>113</ele>
        <time>2017-01-08T09:33:52.969Z</time>
      </trkpt>
      <trkpt lat="47.79982" lon="2.14261">
        <ele>113</ele>
        <time>2017-01-08T09:33:53.971Z</time>
      </trkpt>
      <trkpt lat="47.79983" lon="2.14255">
        <ele>114</ele>
        <time>2017-01-08T09:33:54.972Z</time>
      </trkpt>
      <trkpt lat="47.79983" lon="2.14255">
        <ele>114</ele>
        <time>2017-01-08T09:33:55.959Z</time>
      </trkpt>
      <trkpt lat="47.79986" lon="2.14243">
        <ele>114</ele>
        <time>2017-01-08T09:33:56.971Z</time>
      </trkpt>
      <trkpt lat="47.79986" lon="2.14243">
        <ele>114</ele>
        <time>2017-01-08T09:33:57.965Z</time>
      </trkpt>
      <trkpt lat="47.79987" lon="2.1423">
        <ele>114</ele>
        <time>2017-01-08T09:33:58.975Z</time>
      </trkpt>
      <trkpt lat="47.79987" lon="2.1423">
        <ele>114</ele>
        <time>2017-01-08T09:33:59.970Z</time>
      </trkpt>
      <trkpt lat="47.79989" lon="2.14218">
        <ele>114</ele>
        <time>2017-01-08T09:34:00.971Z</time>
      </trkpt>
      <trkpt lat="47.79989" lon="2.14218">
        <ele>114</ele>
        <time>2017-01-08T09:34:01.969Z</time>
      </trkpt>
      <trkpt lat="47.79991" lon="2.14206">
        <ele>115</ele>
        <time>2017-01-08T09:34:02.970Z</time>
      </trkpt>
      <trkpt lat="47.79991" lon="2.14206">
        <ele>115</ele>
        <time>2017-01-08T09:34:03.992Z</time>
      </trkpt>
      <trkpt lat="47.79993" lon="2.14194">
        <ele>115</ele>
        <time>2017-01-08T09:34:04.987Z</time>
      </trkpt>
      <trkpt lat="47.79993" lon="2.14194">
        <ele>115</ele>
        <time>2017-01-08T09:34:05.993Z</time>
      </trkpt>
      <trkpt lat="47.79995" lon="2.14182">
        <ele>115</ele>
        <time>2017-01-08T09:34:06.981Z</time>
      </trkpt>
      <trkpt lat="47.79995" lon="2.14182">
        <ele>115</ele>
        <time>2017-01-08T09:34:07.972Z</time>
      </trkpt>
      <trkpt lat="47.79997" lon="2.14171">
        <ele>115</ele>
        <time>2017-01-08T09:34:08.971Z</time>
      </trkpt>
      <trkpt lat="47.79997" lon="2.14171">
        <ele>115</ele>
        <time>2017-01-08T09:34:09.968Z</time>
      </trkpt>
      <trkpt lat="47.79999" lon="2.14159">
        <ele>115</ele>
        <time>2017-01-08T09:34:10.971Z</time>
      </trkpt>
      <trkpt lat="47.79999" lon="2.14159">
        <ele>115</ele>
        <time>2017-01-08T09:34:11.969Z</time>
      </trkpt>
      <trkpt lat="47.80002" lon="2.14148">
        <ele>115</ele>
        <time>2017-01-08T09:34:12.971Z</time>
      </trkpt>
      <trkpt lat="47.80003" lon="2.14142">
        <ele>115</ele>
        <time>2017-01-08T09:34:13.971Z</time>
      </trkpt>
      <trkpt lat="47.80003" lon="2.14142">
        <ele>115</ele>
        <time>2017-01-08T09:34:14.968Z</time>
      </trkpt>
      <trkpt lat="47.80006" lon="2.14131">
        <ele>115</ele>
        <time>2017-01-08T09:34:15.971Z</time>
      </trkpt>
      <trkpt lat="47.80006" lon="2.14131">
        <ele>115</ele>
        <time>2017-01-08T09:34:16.968Z</time>
      </trkpt>
      <trkpt lat="47.80009" lon="2.1412">
        <ele>115</ele>
        <time>2017-01-08T09:34:17.969Z</time>
      </trkpt>
      <trkpt lat="47.80011" lon="2.14114">
        <ele>116</ele>
        <time>2017-01-08T09:34:18.970Z</time>
      </trkpt>
      <trkpt lat="47.80012" lon="2.14108">
        <ele>116</ele>
        <time>2017-01-08T09:34:19.971Z</time>
      </trkpt>
      <trkpt lat="47.80012" lon="2.14108">
        <ele>116</ele>
        <time>2017-01-08T09:34:20.968Z</time>
      </trkpt>
      <trkpt lat="47.80016" lon="2.14098">
        <ele>116</ele>
        <time>2017-01-08T09:34:21.971Z</time>
      </trkpt>
      <trkpt lat="47.80016" lon="2.14098">
        <ele>116</ele>
        <time>2017-01-08T09:34:22.969Z</time>
      </trkpt>
      <trkpt lat="47.80019" lon="2.14087">
        <ele>116</ele>
        <time>2017-01-08T09:34:23.971Z</time>
      </trkpt>
      <trkpt lat="47.80019" lon="2.14087">
        <ele>116</ele>
        <time>2017-01-08T09:34:24.971Z</time>
      </trkpt>
      <trkpt lat="47.80022" lon="2.14076">
        <ele>116</ele>
        <time>2017-01-08T09:34:25.973Z</time>
      </trkpt>
      <trkpt lat="47.80022" lon="2.14076">
        <ele>116</ele>
        <time>2017-01-08T09:34:26.968Z</time>
      </trkpt>
      <trkpt lat="47.80025" lon="2.14065">
        <ele>115</ele>
        <time>2017-01-08T09:34:27.968Z</time>
      </trkpt>
      <trkpt lat="47.80025" lon="2.14065">
        <ele>115</ele>
        <time>2017-01-08T09:34:28.988Z</time>
      </trkpt>
      <trkpt lat="47.80028" lon="2.14054">
        <ele>115</ele>
        <time>2017-01-08T09:34:29.975Z</time>
      </trkpt>
      <trkpt lat="47.80028" lon="2.14054">
        <ele>115</ele>
        <time>2017-01-08T09:34:30.968Z</time>
      </trkpt>
      <trkpt lat="47.80031" lon="2.14043">
        <ele>115</ele>
        <time>2017-01-08T09:34:31.972Z</time>
      </trkpt>
      <trkpt lat="47.80032" lon="2.14037">
        <ele>115</ele>
        <time>2017-01-08T09:34:32.979Z</time>
      </trkpt>
      <trkpt lat="47.80032" lon="2.14037">
        <ele>115</ele>
        <time>2017-01-08T09:34:33.967Z</time>
      </trkpt>
      <trkpt lat="47.80035" lon="2.14026">
        <ele>115</ele>
        <time>2017-01-08T09:34:34.972Z</time>
      </trkpt>
      <trkpt lat="47.80035" lon="2.14026">
        <ele>115</ele>
        <time>2017-01-08T09:34:35.978Z</time>
      </trkpt>
      <trkpt lat="47.80037" lon="2.14015">
        <ele>115</ele>
        <time>2017-01-08T09:34:36.971Z</time>
      </trkpt>
      <trkpt lat="47.80037" lon="2.14015">
        <ele>115</ele>
        <time>2017-01-08T09:34:37.974Z</time>
      </trkpt>
      <trkpt lat="47.80041" lon="2.14004">
        <ele>114</ele>
        <time>2017-01-08T09:34:38.968Z</time>
      </trkpt>
      <trkpt lat="47.80041" lon="2.14004">
        <ele>114</ele>
        <time>2017-01-08T09:34:39.965Z</time>
      </trkpt>
      <trkpt lat="47.80044" lon="2.13992">
        <ele>114</ele>
        <time>2017-01-08T09:34:40.971Z</time>
      </trkpt>
      <trkpt lat="47.80046" lon="2.13987">
        <ele>114</ele>
        <time>2017-01-08T09:34:41.971Z</time>
      </trkpt>
      <trkpt lat="47.80046" lon="2.13987">
        <ele>114</ele>
        <time>2017-01-08T09:34:42.968Z</time>
      </trkpt>
      <trkpt lat="47.80048" lon="2.13976">
        <ele>114</ele>
        <time>2017-01-08T09:34:43.971Z</time>
      </trkpt>
      <trkpt lat="47.80048" lon="2.13976">
        <ele>114</ele>
        <time>2017-01-08T09:34:44.967Z</time>
      </trkpt>
      <trkpt lat="47.80051" lon="2.13964">
        <ele>114</ele>
        <time>2017-01-08T09:34:45.970Z</time>
      </trkpt>
      <trkpt lat="47.80051" lon="2.13964">
        <ele>114</ele>
        <time>2017-01-08T09:34:46.971Z</time>
      </trkpt>
      <trkpt lat="47.80054" lon="2.13952">
        <ele>114</ele>
        <time>2017-01-08T09:34:47.970Z</time>
      </trkpt>
      <trkpt lat="47.80054" lon="2.13952">
        <ele>114</ele>
        <time>2017-01-08T09:34:48.969Z</time>
      </trkpt>
      <trkpt lat="47.80057" lon="2.13941">
        <ele>114</ele>
        <time>2017-01-08T09:34:49.971Z</time>
      </trkpt>
      <trkpt lat="47.80057" lon="2.13941">
        <ele>114</ele>
        <time>2017-01-08T09:34:50.968Z</time>
      </trkpt>
      <trkpt lat="47.80058" lon="2.13933">
        <ele>114</ele>
        <time>2017-01-08T09:34:51.971Z</time>
      </trkpt>
      <trkpt lat="47.80059" lon="2.13929">
        <ele>114</ele>
        <time>2017-01-08T09:34:52.972Z</time>
      </trkpt>
      <trkpt lat="47.80059" lon="2.13929">
        <ele>114</ele>
        <time>2017-01-08T09:34:53.969Z</time>
      </trkpt>
      <trkpt lat="47.80061" lon="2.13919">
        <ele>114</ele>
        <time>2017-01-08T09:34:54.971Z</time>
      </trkpt>
      <trkpt lat="47.80062" lon="2.13915">
        <ele>114</ele>
        <time>2017-01-08T09:34:55.972Z</time>
      </trkpt>
      <trkpt lat="47.80062" lon="2.13915">
        <ele>114</ele>
        <time>2017-01-08T09:34:56.968Z</time>
      </trkpt>
      <trkpt lat="47.80066" lon="2.1391">
        <ele>113</ele>
        <time>2017-01-08T09:34:57.970Z</time>
      </trkpt>
      <trkpt lat="47.80066" lon="2.1391">
        <ele>113</ele>
        <time>2017-01-08T09:34:58.970Z</time>
      </trkpt>
      <trkpt lat="47.80069" lon="2.13911">
        <ele>112</ele>
        <time>2017-01-08T09:34:59.971Z</time>
      </trkpt>
      <trkpt lat="47.80071" lon="2.13912">
        <ele>112</ele>
        <time>2017-01-08T09:35:00.972Z</time>
      </trkpt>
      <trkpt lat="47.80072" lon="2.13915">
        <ele>112</ele>
        <time>2017-01-08T09:35:01.972Z</time>
      </trkpt>
      <trkpt lat="47.80072" lon="2.13915">
        <ele>112</ele>
        <time>2017-01-08T09:35:02.969Z</time>
      </trkpt>
      <trkpt lat="47.80076" lon="2.1392">
        <ele>112</ele>
        <time>2017-01-08T09:35:03.970Z</time>
      </trkpt>
      <trkpt lat="47.80076" lon="2.1392">
        <ele>112</ele>
        <time>2017-01-08T09:35:04.970Z</time>
      </trkpt>
      <trkpt lat="47.80079" lon="2.13927">
        <ele>111</ele>
        <time>2017-01-08T09:35:05.971Z</time>
      </trkpt>
      <trkpt lat="47.80079" lon="2.13927">
        <ele>111</ele>
        <time>2017-01-08T09:35:06.969Z</time>
      </trkpt>
      <trkpt lat="47.80084" lon="2.13934">
        <ele>111</ele>
        <time>2017-01-08T09:35:07.969Z</time>
      </trkpt>
      <trkpt lat="47.80087" lon="2.13937">
        <ele>110</ele>
        <time>2017-01-08T09:35:08.969Z</time>
      </trkpt>
      <trkpt lat="47.80087" lon="2.13937">
        <ele>110</ele>
        <time>2017-01-08T09:35:09.965Z</time>
      </trkpt>
      <trkpt lat="47.80093" lon="2.13944">
        <ele>110</ele>
        <time>2017-01-08T09:35:10.972Z</time>
      </trkpt>
      <trkpt lat="47.80093" lon="2.13944">
        <ele>110</ele>
        <time>2017-01-08T09:35:11.969Z</time>
      </trkpt>
      <trkpt lat="47.80099" lon="2.13952">
        <ele>110</ele>
        <time>2017-01-08T09:35:12.970Z</time>
      </trkpt>
      <trkpt lat="47.80102" lon="2.13956">
        <ele>110</ele>
        <time>2017-01-08T09:35:13.971Z</time>
      </trkpt>
      <trkpt lat="47.80102" lon="2.13956">
        <ele>110</ele>
        <time>2017-01-08T09:35:14.969Z</time>
      </trkpt>
      <trkpt lat="47.80109" lon="2.13963">
        <ele>110</ele>
        <time>2017-01-08T09:35:15.971Z</time>
      </trkpt>
      <trkpt lat="47.80109" lon="2.13963">
        <ele>110</ele>
        <time>2017-01-08T09:35:16.969Z</time>
      </trkpt>
      <trkpt lat="47.80116" lon="2.13972">
        <ele>110</ele>
        <time>2017-01-08T09:35:17.971Z</time>
      </trkpt>
      <trkpt lat="47.80116" lon="2.13972">
        <ele>110</ele>
        <time>2017-01-08T09:35:18.969Z</time>
      </trkpt>
      <trkpt lat="47.80123" lon="2.13981">
        <ele>110</ele>
        <time>2017-01-08T09:35:19.968Z</time>
      </trkpt>
      <trkpt lat="47.80123" lon="2.13981">
        <ele>110</ele>
        <time>2017-01-08T09:35:20.968Z</time>
      </trkpt>
      <trkpt lat="47.80129" lon="2.1399">
        <ele>110</ele>
        <time>2017-01-08T09:35:21.971Z</time>
      </trkpt>
      <trkpt lat="47.80129" lon="2.1399">
        <ele>110</ele>
        <time>2017-01-08T09:35:22.969Z</time>
      </trkpt>
      <trkpt lat="47.80135" lon="2.14">
        <ele>110</ele>
        <time>2017-01-08T09:35:23.971Z</time>
      </trkpt>
      <trkpt lat="47.80135" lon="2.14">
        <ele>110</ele>
        <time>2017-01-08T09:35:24.968Z</time>
      </trkpt>
      <trkpt lat="47.80141" lon="2.1401">
        <ele>109</ele>
        <time>2017-01-08T09:35:25.971Z</time>
      </trkpt>
      <trkpt lat="47.80141" lon="2.1401">
        <ele>109</ele>
        <time>2017-01-08T09:35:26.967Z</time>
      </trkpt>
      <trkpt lat="47.80146" lon="2.1402">
        <ele>109</ele>
        <time>2017-01-08T09:35:27.969Z</time>
      </trkpt>
      <trkpt lat="47.80149" lon="2.14026">
        <ele>109</ele>
        <time>2017-01-08T09:35:28.972Z</time>
      </trkpt>
      <trkpt lat="47.80149" lon="2.14026">
        <ele>109</ele>
        <time>2017-01-08T09:35:29.962Z</time>
      </trkpt>
      <trkpt lat="47.80153" lon="2.14037">
        <ele>109</ele>
        <time>2017-01-08T09:35:30.972Z</time>
      </trkpt>
      <trkpt lat="47.80156" lon="2.14043">
        <ele>109</ele>
        <time>2017-01-08T09:35:31.972Z</time>
      </trkpt>
      <trkpt lat="47.80156" lon="2.14043">
        <ele>109</ele>
        <time>2017-01-08T09:35:32.968Z</time>
      </trkpt>
      <trkpt lat="47.8016" lon="2.14055">
        <ele>109</ele>
        <time>2017-01-08T09:35:33.971Z</time>
      </trkpt>
      <trkpt lat="47.80162" lon="2.14061">
        <ele>109</ele>
        <time>2017-01-08T09:35:34.971Z</time>
      </trkpt>
      <trkpt lat="47.80162" lon="2.14061">
        <ele>109</ele>
        <time>2017-01-08T09:35:35.966Z</time>
      </trkpt>
      <trkpt lat="47.80166" lon="2.14074">
        <ele>109</ele>
        <time>2017-01-08T09:35:36.971Z</time>
      </trkpt>
      <trkpt lat="47.80166" lon="2.14074">
        <ele>109</ele>
        <time>2017-01-08T09:35:37.969Z</time>
      </trkpt>
      <trkpt lat="47.80169" lon="2.14086">
        <ele>109</ele>
        <time>2017-01-08T09:35:38.993Z</time>
      </trkpt>
      <trkpt lat="47.8017" lon="2.14093">
        <ele>109</ele>
        <time>2017-01-08T09:35:39.971Z</time>
      </trkpt>
      <trkpt lat="47.8017" lon="2.14093">
        <ele>109</ele>
        <time>2017-01-08T09:35:40.969Z</time>
      </trkpt>
      <trkpt lat="47.80173" lon="2.14106">
        <ele>109</ele>
        <time>2017-01-08T09:35:41.971Z</time>
      </trkpt>
      <trkpt lat="47.80173" lon="2.14106">
        <ele>109</ele>
        <time>2017-01-08T09:35:42.968Z</time>
      </trkpt>
      <trkpt lat="47.80175" lon="2.1412">
        <ele>109</ele>
        <time>2017-01-08T09:35:43.971Z</time>
      </trkpt>
      <trkpt lat="47.80175" lon="2.1412">
        <ele>109</ele>
        <time>2017-01-08T09:35:44.967Z</time>
      </trkpt>
      <trkpt lat="47.80176" lon="2.14133">
        <ele>109</ele>
        <time>2017-01-08T09:35:45.978Z</time>
      </trkpt>
      <trkpt lat="47.80177" lon="2.1414">
        <ele>109</ele>
        <time>2017-01-08T09:35:46.970Z</time>
      </trkpt>
      <trkpt lat="47.80178" lon="2.14147">
        <ele>109</ele>
        <time>2017-01-08T09:35:47.970Z</time>
      </trkpt>
      <trkpt lat="47.80178" lon="2.14147">
        <ele>109</ele>
        <time>2017-01-08T09:35:48.967Z</time>
      </trkpt>
      <trkpt lat="47.80179" lon="2.1416">
        <ele>109</ele>
        <time>2017-01-08T09:35:49.971Z</time>
      </trkpt>
      <trkpt lat="47.80179" lon="2.1416">
        <ele>109</ele>
        <time>2017-01-08T09:35:50.978Z</time>
      </trkpt>
      <trkpt lat="47.8018" lon="2.14174">
        <ele>109</ele>
        <time>2017-01-08T09:35:51.972Z</time>
      </trkpt>
      <trkpt lat="47.8018" lon="2.14174">
        <ele>109</ele>
        <time>2017-01-08T09:35:52.970Z</time>
      </trkpt>
      <trkpt lat="47.80182" lon="2.14187">
        <ele>109</ele>
        <time>2017-01-08T09:35:53.972Z</time>
      </trkpt>
      <trkpt lat="47.80182" lon="2.14187">
        <ele>109</ele>
        <time>2017-01-08T09:35:54.977Z</time>
      </trkpt>
      <trkpt lat="47.80183" lon="2.14199">
        <ele>109</ele>
        <time>2017-01-08T09:35:55.972Z</time>
      </trkpt>
      <trkpt lat="47.80183" lon="2.14199">
        <ele>109</ele>
        <time>2017-01-08T09:35:56.972Z</time>
      </trkpt>
      <trkpt lat="47.80184" lon="2.14211">
        <ele>109</ele>
        <time>2017-01-08T09:35:57.969Z</time>
      </trkpt>
      <trkpt lat="47.80184" lon="2.14211">
        <ele>109</ele>
        <time>2017-01-08T09:35:58.969Z</time>
      </trkpt>
      <trkpt lat="47.80185" lon="2.14221">
        <ele>109</ele>
        <time>2017-01-08T09:35:59.972Z</time>
      </trkpt>
      <trkpt lat="47.80185" lon="2.14221">
        <ele>109</ele>
        <time>2017-01-08T09:36:00.961Z</time>
      </trkpt>
      <trkpt lat="47.80185" lon="2.14227">
        <ele>108</ele>
        <time>2017-01-08T09:36:01.971Z</time>
      </trkpt>
      <trkpt lat="47.80185" lon="2.14227">
        <ele>108</ele>
        <time>2017-01-08T09:36:02.968Z</time>
      </trkpt>
      <trkpt lat="47.80184" lon="2.14229">
        <ele>108</ele>
        <time>2017-01-08T09:36:03.975Z</time>
      </trkpt>
      <trkpt lat="47.80184" lon="2.1423">
        <ele>108</ele>
        <time>2017-01-08T09:36:04.973Z</time>
      </trkpt>
      <trkpt lat="47.80183" lon="2.14231">
        <ele>108</ele>
        <time>2017-01-08T09:36:05.970Z</time>
      </trkpt>
      <trkpt lat="47.80183" lon="2.14231">
        <ele>108</ele>
        <time>2017-01-08T09:36:06.978Z</time>
      </trkpt>
      <trkpt lat="47.80179" lon="2.14234">
        <ele>108</ele>
        <time>2017-01-08T09:36:07.969Z</time>
      </trkpt>
      <trkpt lat="47.80176" lon="2.14236">
        <ele>108</ele>
        <time>2017-01-08T09:36:08.974Z</time>
      </trkpt>
      <trkpt lat="47.80176" lon="2.14236">
        <ele>108</ele>
        <time>2017-01-08T09:36:09.967Z</time>
      </trkpt>
      <trkpt lat="47.80169" lon="2.14236">
        <ele>108</ele>
        <time>2017-01-08T09:36:10.972Z</time>
      </trkpt>
      <trkpt lat="47.80165" lon="2.14236">
        <ele>108</ele>
        <time>2017-01-08T09:36:11.972Z</time>
      </trkpt>
      <trkpt lat="47.80165" lon="2.14236">
        <ele>108</ele>
        <time>2017-01-08T09:36:12.968Z</time>
      </trkpt>
      <trkpt lat="47.80157" lon="2.14236">
        <ele>108</ele>
        <time>2017-01-08T09:36:13.971Z</time>
      </trkpt>
      <trkpt lat="47.80157" lon="2.14236">
        <ele>108</ele>
        <time>2017-01-08T09:36:14.968Z</time>
      </trkpt>
      <trkpt lat="47.80149" lon="2.14236">
        <ele>107</ele>
        <time>2017-01-08T09:36:15.971Z</time>
      </trkpt>
      <trkpt lat="47.80149" lon="2.14236">
        <ele>107</ele>
        <time>2017-01-08T09:36:16.974Z</time>
      </trkpt>
      <trkpt lat="47.8014" lon="2.14237">
        <ele>107</ele>
        <time>2017-01-08T09:36:17.972Z</time>
      </trkpt>
      <trkpt lat="47.8014" lon="2.14237">
        <ele>107</ele>
        <time>2017-01-08T09:36:18.961Z</time>
      </trkpt>
      <trkpt lat="47.8013" lon="2.14238">
        <ele>107</ele>
        <time>2017-01-08T09:36:19.971Z</time>
      </trkpt>
      <trkpt lat="47.8013" lon="2.14238">
        <ele>107</ele>
        <time>2017-01-08T09:36:20.970Z</time>
      </trkpt>
      <trkpt lat="47.80121" lon="2.14241">
        <ele>108</ele>
        <time>2017-01-08T09:36:21.970Z</time>
      </trkpt>
      <trkpt lat="47.80121" lon="2.14241">
        <ele>108</ele>
        <time>2017-01-08T09:36:22.961Z</time>
      </trkpt>
      <trkpt lat="47.80113" lon="2.14242">
        <ele>108</ele>
        <time>2017-01-08T09:36:23.972Z</time>
      </trkpt>
      <trkpt lat="47.80113" lon="2.14242">
        <ele>108</ele>
        <time>2017-01-08T09:36:24.968Z</time>
      </trkpt>
      <trkpt lat="47.80104" lon="2.14243">
        <ele>109</ele>
        <time>2017-01-08T09:36:25.972Z</time>
      </trkpt>
      <trkpt lat="47.80104" lon="2.14243">
        <ele>109</ele>
        <time>2017-01-08T09:36:26.968Z</time>
      </trkpt>
      <trkpt lat="47.80096" lon="2.14245">
        <ele>109</ele>
        <time>2017-01-08T09:36:27.969Z</time>
      </trkpt>
      <trkpt lat="47.80096" lon="2.14245">
        <ele>109</ele>
        <time>2017-01-08T09:36:28.981Z</time>
      </trkpt>
      <trkpt lat="47.80088" lon="2.14246">
        <ele>109</ele>
        <time>2017-01-08T09:36:29.961Z</time>
      </trkpt>
      <trkpt lat="47.80088" lon="2.14246">
        <ele>109</ele>
        <time>2017-01-08T09:36:30.968Z</time>
      </trkpt>
      <trkpt lat="47.80079" lon="2.14248">
        <ele>110</ele>
        <time>2017-01-08T09:36:31.972Z</time>
      </trkpt>
      <trkpt lat="47.80076" lon="2.14249">
        <ele>110</ele>
        <time>2017-01-08T09:36:32.972Z</time>
      </trkpt>
      <trkpt lat="47.80073" lon="2.14249">
        <ele>110</ele>
        <time>2017-01-08T09:36:33.972Z</time>
      </trkpt>
      <trkpt lat="47.80073" lon="2.14249">
        <ele>110</ele>
        <time>2017-01-08T09:36:34.969Z</time>
      </trkpt>
      <trkpt lat="47.8007" lon="2.14247">
        <ele>110</ele>
        <time>2017-01-08T09:36:35.972Z</time>
      </trkpt>
      <trkpt lat="47.8007" lon="2.14247">
        <ele>110</ele>
        <time>2017-01-08T09:36:36.963Z</time>
      </trkpt>
      <trkpt lat="47.80071" lon="2.14248">
        <ele>111</ele>
        <time>2017-01-08T09:36:37.980Z</time>
      </trkpt>
      <trkpt lat="47.80071" lon="2.14248">
        <ele>111</ele>
        <time>2017-01-08T09:36:38.971Z</time>
      </trkpt>
    </trkseg>
  </trk>
</gpx>